<?xml version="1.0" encoding="UTF-8" standalone="no" ?>
<gpx xmlns="http://www.topografix.com/GPX/1/1" xmlns:xsi="http://www.w3.org/2001/XMLSchema-instance" xsi:schemaLocation="http://www.topografix.com/GPX/1/1 http://www.topografix.com/GPX/1/1/gpx.xsd" version="1.1" creator="VisuGPX - https://www.visugpx.com">
  <metadata>
    <name>Guy Mocquet 13/08</name>
    <desc><![CDATA[Guy Mocquet 13/08]]></desc>
  </metadata>
  <trk>
    <name><![CDATA[74 Avenue de Saint-Ouen]]></name>
    <desc><![CDATA[]]></desc>
    <trkseg>
      <trkpt lat="48.89181" lon="2.32747">
        <ele>131.3</ele>
        <time>2013-08-13T18:06:45.973Z</time>
      </trkpt>
      <trkpt lat="48.89178" lon="2.32747">
        <ele>103.2</ele>
        <time>2013-08-13T18:06:46.993Z</time>
      </trkpt>
      <trkpt lat="48.8919" lon="2.32725">
        <ele>105.8</ele>
        <time>2013-08-13T18:06:48.002Z</time>
      </trkpt>
      <trkpt lat="48.89191" lon="2.32708">
        <ele>88.2</ele>
        <time>2013-08-13T18:06:49.011Z</time>
      </trkpt>
      <trkpt lat="48.89188" lon="2.32716">
        <ele>84.4</ele>
        <time>2013-08-13T18:06:49.985Z</time>
      </trkpt>
      <trkpt lat="48.89177" lon="2.32715">
        <ele>129.9</ele>
        <time>2013-08-13T18:06:50.996Z</time>
      </trkpt>
      <trkpt lat="48.89172" lon="2.32704">
        <ele>147</ele>
        <time>2013-08-13T18:06:52.015Z</time>
      </trkpt>
      <trkpt lat="48.89164" lon="2.32698">
        <ele>135</ele>
        <time>2013-08-13T18:06:55.056Z</time>
      </trkpt>
      <trkpt lat="48.8916" lon="2.32699">
        <ele>121.9</ele>
        <time>2013-08-13T18:06:55.994Z</time>
      </trkpt>
      <trkpt lat="48.89153" lon="2.32707">
        <ele>80.3</ele>
        <time>2013-08-13T18:06:58.044Z</time>
      </trkpt>
      <trkpt lat="48.8915" lon="2.32713">
        <ele>79.6</ele>
        <time>2013-08-13T18:06:58.798Z</time>
      </trkpt>
      <trkpt lat="48.89143" lon="2.32716">
        <ele>84.6</ele>
        <time>2013-08-13T18:07:04.769Z</time>
      </trkpt>
      <trkpt lat="48.8914" lon="2.32712">
        <ele>90.3</ele>
        <time>2013-08-13T18:07:05.812Z</time>
      </trkpt>
      <trkpt lat="48.89136" lon="2.32709">
        <ele>90.2</ele>
        <time>2013-08-13T18:07:06.787Z</time>
      </trkpt>
      <trkpt lat="48.89131" lon="2.32706">
        <ele>90.1</ele>
        <time>2013-08-13T18:07:07.775Z</time>
      </trkpt>
      <trkpt lat="48.89125" lon="2.32702">
        <ele>90.7</ele>
        <time>2013-08-13T18:07:08.887Z</time>
      </trkpt>
      <trkpt lat="48.89119" lon="2.32699">
        <ele>89</ele>
        <time>2013-08-13T18:07:09.885Z</time>
      </trkpt>
      <trkpt lat="48.89111" lon="2.32695">
        <ele>90.4</ele>
        <time>2013-08-13T18:07:11.795Z</time>
      </trkpt>
      <trkpt lat="48.89108" lon="2.32694">
        <ele>90.8</ele>
        <time>2013-08-13T18:07:12.798Z</time>
      </trkpt>
      <trkpt lat="48.891" lon="2.32693">
        <ele>93.2</ele>
        <time>2013-08-13T18:07:15.801Z</time>
      </trkpt>
      <trkpt lat="48.89097" lon="2.32693">
        <ele>91.5</ele>
        <time>2013-08-13T18:07:16.785Z</time>
      </trkpt>
      <trkpt lat="48.89089" lon="2.32692">
        <ele>90.4</ele>
        <time>2013-08-13T18:07:20.806Z</time>
      </trkpt>
      <trkpt lat="48.89087" lon="2.32692">
        <ele>90.5</ele>
        <time>2013-08-13T18:07:21.769Z</time>
      </trkpt>
      <trkpt lat="48.89079" lon="2.32688">
        <ele>93.3</ele>
        <time>2013-08-13T18:07:25.843Z</time>
      </trkpt>
      <trkpt lat="48.89076" lon="2.32686">
        <ele>93</ele>
        <time>2013-08-13T18:07:26.794Z</time>
      </trkpt>
      <trkpt lat="48.89068" lon="2.32683">
        <ele>95.6</ele>
        <time>2013-08-13T18:07:28.802Z</time>
      </trkpt>
      <trkpt lat="48.89064" lon="2.32682">
        <ele>95.2</ele>
        <time>2013-08-13T18:07:29.812Z</time>
      </trkpt>
      <trkpt lat="48.89057" lon="2.32681">
        <ele>97</ele>
        <time>2013-08-13T18:07:31.771Z</time>
      </trkpt>
      <trkpt lat="48.89055" lon="2.32681">
        <ele>97.1</ele>
        <time>2013-08-13T18:07:32.783Z</time>
      </trkpt>
      <trkpt lat="48.89051" lon="2.32674">
        <ele>94.5</ele>
        <time>2013-08-13T18:07:53.785Z</time>
      </trkpt>
      <trkpt lat="48.89051" lon="2.32673">
        <ele>94.4</ele>
        <time>2013-08-13T18:07:54.784Z</time>
      </trkpt>
      <trkpt lat="48.8905" lon="2.32674">
        <ele>94.9</ele>
        <time>2013-08-13T18:08:06.794Z</time>
      </trkpt>
      <trkpt lat="48.89049" lon="2.32675">
        <ele>95.7</ele>
        <time>2013-08-13T18:08:07.857Z</time>
      </trkpt>
      <trkpt lat="48.89043" lon="2.32678">
        <ele>97.2</ele>
        <time>2013-08-13T18:08:09.774Z</time>
      </trkpt>
      <trkpt lat="48.89039" lon="2.32681">
        <ele>97.2</ele>
        <time>2013-08-13T18:08:10.812Z</time>
      </trkpt>
      <trkpt lat="48.89033" lon="2.32684">
        <ele>97.5</ele>
        <time>2013-08-13T18:08:11.826Z</time>
      </trkpt>
      <trkpt lat="48.89028" lon="2.32687">
        <ele>96.8</ele>
        <time>2013-08-13T18:08:12.833Z</time>
      </trkpt>
      <trkpt lat="48.89023" lon="2.32689">
        <ele>95.2</ele>
        <time>2013-08-13T18:08:13.804Z</time>
      </trkpt>
      <trkpt lat="48.89019" lon="2.32692">
        <ele>94.1</ele>
        <time>2013-08-13T18:08:14.773Z</time>
      </trkpt>
      <trkpt lat="48.89012" lon="2.32699">
        <ele>95.6</ele>
        <time>2013-08-13T18:08:16.783Z</time>
      </trkpt>
      <trkpt lat="48.89009" lon="2.32703">
        <ele>93.8</ele>
        <time>2013-08-13T18:08:17.861Z</time>
      </trkpt>
      <trkpt lat="48.89004" lon="2.32711">
        <ele>91.9</ele>
        <time>2013-08-13T18:08:19.791Z</time>
      </trkpt>
      <trkpt lat="48.89003" lon="2.32714">
        <ele>92.3</ele>
        <time>2013-08-13T18:08:20.777Z</time>
      </trkpt>
      <trkpt lat="48.89" lon="2.32723">
        <ele>93.3</ele>
        <time>2013-08-13T18:08:22.784Z</time>
      </trkpt>
      <trkpt lat="48.88998" lon="2.32727">
        <ele>95</ele>
        <time>2013-08-13T18:08:23.788Z</time>
      </trkpt>
      <trkpt lat="48.88995" lon="2.32736">
        <ele>92.7</ele>
        <time>2013-08-13T18:08:25.776Z</time>
      </trkpt>
      <trkpt lat="48.88993" lon="2.32741">
        <ele>91.8</ele>
        <time>2013-08-13T18:08:26.786Z</time>
      </trkpt>
      <trkpt lat="48.88988" lon="2.3275">
        <ele>93.6</ele>
        <time>2013-08-13T18:08:28.799Z</time>
      </trkpt>
      <trkpt lat="48.88985" lon="2.32754">
        <ele>94.2</ele>
        <time>2013-08-13T18:08:29.808Z</time>
      </trkpt>
      <trkpt lat="48.88978" lon="2.32761">
        <ele>94.5</ele>
        <time>2013-08-13T18:08:31.810Z</time>
      </trkpt>
      <trkpt lat="48.88975" lon="2.32765">
        <ele>93.5</ele>
        <time>2013-08-13T18:08:32.794Z</time>
      </trkpt>
      <trkpt lat="48.88969" lon="2.32772">
        <ele>93.7</ele>
        <time>2013-08-13T18:08:34.805Z</time>
      </trkpt>
      <trkpt lat="48.88966" lon="2.32776">
        <ele>95</ele>
        <time>2013-08-13T18:08:35.791Z</time>
      </trkpt>
      <trkpt lat="48.88961" lon="2.32782">
        <ele>96.9</ele>
        <time>2013-08-13T18:08:37.781Z</time>
      </trkpt>
      <trkpt lat="48.88958" lon="2.32785">
        <ele>99</ele>
        <time>2013-08-13T18:08:38.835Z</time>
      </trkpt>
      <trkpt lat="48.88954" lon="2.32791">
        <ele>99.2</ele>
        <time>2013-08-13T18:08:40.798Z</time>
      </trkpt>
      <trkpt lat="48.88952" lon="2.32794">
        <ele>99.9</ele>
        <time>2013-08-13T18:08:41.781Z</time>
      </trkpt>
      <trkpt lat="48.88947" lon="2.328">
        <ele>100.6</ele>
        <time>2013-08-13T18:08:43.835Z</time>
      </trkpt>
      <trkpt lat="48.88944" lon="2.32803">
        <ele>101</ele>
        <time>2013-08-13T18:08:44.778Z</time>
      </trkpt>
      <trkpt lat="48.8894" lon="2.3281">
        <ele>100.1</ele>
        <time>2013-08-13T18:08:46.814Z</time>
      </trkpt>
      <trkpt lat="48.88939" lon="2.32814">
        <ele>100.4</ele>
        <time>2013-08-13T18:08:47.788Z</time>
      </trkpt>
      <trkpt lat="48.88933" lon="2.32825">
        <ele>104.6</ele>
        <time>2013-08-13T18:08:54.785Z</time>
      </trkpt>
      <trkpt lat="48.88931" lon="2.32824">
        <ele>104.8</ele>
        <time>2013-08-13T18:08:55.768Z</time>
      </trkpt>
      <trkpt lat="48.88923" lon="2.3282">
        <ele>105.8</ele>
        <time>2013-08-13T18:08:58.869Z</time>
      </trkpt>
      <trkpt lat="48.8892" lon="2.32818">
        <ele>104.7</ele>
        <time>2013-08-13T18:08:59.910Z</time>
      </trkpt>
      <trkpt lat="48.88914" lon="2.32814">
        <ele>102.8</ele>
        <time>2013-08-13T18:09:01.780Z</time>
      </trkpt>
      <trkpt lat="48.88911" lon="2.32812">
        <ele>102.7</ele>
        <time>2013-08-13T18:09:02.801Z</time>
      </trkpt>
      <trkpt lat="48.88904" lon="2.32807">
        <ele>103.5</ele>
        <time>2013-08-13T18:09:04.836Z</time>
      </trkpt>
      <trkpt lat="48.889" lon="2.32804">
        <ele>103</ele>
        <time>2013-08-13T18:09:05.803Z</time>
      </trkpt>
      <trkpt lat="48.88892" lon="2.32799">
        <ele>103.2</ele>
        <time>2013-08-13T18:09:07.798Z</time>
      </trkpt>
      <trkpt lat="48.88888" lon="2.32796">
        <ele>101.5</ele>
        <time>2013-08-13T18:09:08.815Z</time>
      </trkpt>
      <trkpt lat="48.88881" lon="2.32791">
        <ele>100.3</ele>
        <time>2013-08-13T18:09:10.786Z</time>
      </trkpt>
      <trkpt lat="48.88877" lon="2.32788">
        <ele>101.2</ele>
        <time>2013-08-13T18:09:11.805Z</time>
      </trkpt>
      <trkpt lat="48.8887" lon="2.32783">
        <ele>99.8</ele>
        <time>2013-08-13T18:09:13.790Z</time>
      </trkpt>
      <trkpt lat="48.88866" lon="2.3278">
        <ele>98.1</ele>
        <time>2013-08-13T18:09:14.793Z</time>
      </trkpt>
      <trkpt lat="48.8886" lon="2.32772">
        <ele>96.2</ele>
        <time>2013-08-13T18:09:17.830Z</time>
      </trkpt>
      <trkpt lat="48.88858" lon="2.32769">
        <ele>96.4</ele>
        <time>2013-08-13T18:09:18.885Z</time>
      </trkpt>
      <trkpt lat="48.88852" lon="2.32764">
        <ele>97.6</ele>
        <time>2013-08-13T18:09:20.835Z</time>
      </trkpt>
      <trkpt lat="48.88849" lon="2.32761">
        <ele>98.9</ele>
        <time>2013-08-13T18:09:21.811Z</time>
      </trkpt>
      <trkpt lat="48.88841" lon="2.32756">
        <ele>101</ele>
        <time>2013-08-13T18:09:23.815Z</time>
      </trkpt>
      <trkpt lat="48.88838" lon="2.32753">
        <ele>100.2</ele>
        <time>2013-08-13T18:09:24.803Z</time>
      </trkpt>
      <trkpt lat="48.88832" lon="2.32749">
        <ele>101.2</ele>
        <time>2013-08-13T18:09:26.800Z</time>
      </trkpt>
      <trkpt lat="48.8883" lon="2.32748">
        <ele>102.5</ele>
        <time>2013-08-13T18:09:27.803Z</time>
      </trkpt>
      <trkpt lat="48.88824" lon="2.32751">
        <ele>104</ele>
        <time>2013-08-13T18:09:29.813Z</time>
      </trkpt>
      <trkpt lat="48.88822" lon="2.32755">
        <ele>103.3</ele>
        <time>2013-08-13T18:09:30.803Z</time>
      </trkpt>
      <trkpt lat="48.88818" lon="2.32764">
        <ele>105</ele>
        <time>2013-08-13T18:09:32.804Z</time>
      </trkpt>
      <trkpt lat="48.88817" lon="2.32769">
        <ele>107.1</ele>
        <time>2013-08-13T18:09:33.803Z</time>
      </trkpt>
      <trkpt lat="48.88812" lon="2.32777">
        <ele>109</ele>
        <time>2013-08-13T18:09:35.803Z</time>
      </trkpt>
      <trkpt lat="48.8881" lon="2.3278">
        <ele>109.8</ele>
        <time>2013-08-13T18:09:36.832Z</time>
      </trkpt>
      <trkpt lat="48.88802" lon="2.32785">
        <ele>108.9</ele>
        <time>2013-08-13T18:09:39.807Z</time>
      </trkpt>
      <trkpt lat="48.88799" lon="2.32786">
        <ele>108.8</ele>
        <time>2013-08-13T18:09:40.805Z</time>
      </trkpt>
      <trkpt lat="48.88792" lon="2.32792">
        <ele>110.9</ele>
        <time>2013-08-13T18:09:43.834Z</time>
      </trkpt>
      <trkpt lat="48.88789" lon="2.32794">
        <ele>111.1</ele>
        <time>2013-08-13T18:09:44.788Z</time>
      </trkpt>
      <trkpt lat="48.88783" lon="2.32801">
        <ele>111.3</ele>
        <time>2013-08-13T18:09:47.803Z</time>
      </trkpt>
      <trkpt lat="48.88782" lon="2.32803">
        <ele>111.3</ele>
        <time>2013-08-13T18:09:48.828Z</time>
      </trkpt>
      <trkpt lat="48.88777" lon="2.32811">
        <ele>111.4</ele>
        <time>2013-08-13T18:09:51.804Z</time>
      </trkpt>
      <trkpt lat="48.88775" lon="2.32813">
        <ele>111.2</ele>
        <time>2013-08-13T18:09:52.805Z</time>
      </trkpt>
      <trkpt lat="48.88769" lon="2.3282">
        <ele>111.6</ele>
        <time>2013-08-13T18:09:55.804Z</time>
      </trkpt>
      <trkpt lat="48.88767" lon="2.32822">
        <ele>112.9</ele>
        <time>2013-08-13T18:09:56.796Z</time>
      </trkpt>
      <trkpt lat="48.88761" lon="2.32829">
        <ele>112.3</ele>
        <time>2013-08-13T18:09:59.835Z</time>
      </trkpt>
      <trkpt lat="48.88759" lon="2.32832">
        <ele>111.9</ele>
        <time>2013-08-13T18:10:00.813Z</time>
      </trkpt>
      <trkpt lat="48.88755" lon="2.32838">
        <ele>113.6</ele>
        <time>2013-08-13T18:10:02.773Z</time>
      </trkpt>
      <trkpt lat="48.88752" lon="2.32841">
        <ele>112.8</ele>
        <time>2013-08-13T18:10:03.828Z</time>
      </trkpt>
      <trkpt lat="48.88745" lon="2.32848">
        <ele>115</ele>
        <time>2013-08-13T18:10:06.812Z</time>
      </trkpt>
      <trkpt lat="48.88742" lon="2.32851">
        <ele>113.7</ele>
        <time>2013-08-13T18:10:07.803Z</time>
      </trkpt>
      <trkpt lat="48.88736" lon="2.32856">
        <ele>114.2</ele>
        <time>2013-08-13T18:10:10.792Z</time>
      </trkpt>
      <trkpt lat="48.88734" lon="2.32858">
        <ele>114</ele>
        <time>2013-08-13T18:10:11.815Z</time>
      </trkpt>
      <trkpt lat="48.88726" lon="2.32862">
        <ele>116.6</ele>
        <time>2013-08-13T18:10:14.797Z</time>
      </trkpt>
      <trkpt lat="48.88724" lon="2.32862">
        <ele>116.8</ele>
        <time>2013-08-13T18:10:15.774Z</time>
      </trkpt>
      <trkpt lat="48.88717" lon="2.32857">
        <ele>117.8</ele>
        <time>2013-08-13T18:10:18.791Z</time>
      </trkpt>
      <trkpt lat="48.88716" lon="2.32854">
        <ele>117.1</ele>
        <time>2013-08-13T18:10:19.837Z</time>
      </trkpt>
      <trkpt lat="48.88711" lon="2.32843">
        <ele>116.3</ele>
        <time>2013-08-13T18:10:24.804Z</time>
      </trkpt>
      <trkpt lat="48.8871" lon="2.32841">
        <ele>116</ele>
        <time>2013-08-13T18:10:25.814Z</time>
      </trkpt>
      <trkpt lat="48.88706" lon="2.32831">
        <ele>119.9</ele>
        <time>2013-08-13T18:10:30.818Z</time>
      </trkpt>
      <trkpt lat="48.88706" lon="2.32829">
        <ele>120</ele>
        <time>2013-08-13T18:10:31.794Z</time>
      </trkpt>
      <trkpt lat="48.88701" lon="2.32821">
        <ele>123</ele>
        <time>2013-08-13T18:10:35.811Z</time>
      </trkpt>
      <trkpt lat="48.88699" lon="2.32818">
        <ele>122.4</ele>
        <time>2013-08-13T18:10:36.822Z</time>
      </trkpt>
      <trkpt lat="48.88694" lon="2.32811">
        <ele>124</ele>
        <time>2013-08-13T18:10:38.854Z</time>
      </trkpt>
      <trkpt lat="48.88692" lon="2.32807">
        <ele>124.2</ele>
        <time>2013-08-13T18:10:40.521Z</time>
      </trkpt>
      <trkpt lat="48.88686" lon="2.328">
        <ele>123.9</ele>
        <time>2013-08-13T18:10:42.755Z</time>
      </trkpt>
      <trkpt lat="48.88684" lon="2.32798">
        <ele>123.6</ele>
        <time>2013-08-13T18:10:43.717Z</time>
      </trkpt>
      <trkpt lat="48.88677" lon="2.32796">
        <ele>121.8</ele>
        <time>2013-08-13T18:10:47.743Z</time>
      </trkpt>
      <trkpt lat="48.88675" lon="2.32796">
        <ele>121.1</ele>
        <time>2013-08-13T18:10:48.755Z</time>
      </trkpt>
      <trkpt lat="48.88668" lon="2.32798">
        <ele>120.4</ele>
        <time>2013-08-13T18:10:57.753Z</time>
      </trkpt>
      <trkpt lat="48.88668" lon="2.32798">
        <ele>120.3</ele>
        <time>2013-08-13T18:10:58.770Z</time>
      </trkpt>
      <trkpt lat="48.88669" lon="2.32798">
        <ele>121.4</ele>
        <time>2013-08-13T18:11:00.739Z</time>
      </trkpt>
      <trkpt lat="48.88669" lon="2.32798">
        <ele>121.4</ele>
        <time>2013-08-13T18:11:01.764Z</time>
      </trkpt>
      <trkpt lat="48.8867" lon="2.32798">
        <ele>121.2</ele>
        <time>2013-08-13T18:11:02.778Z</time>
      </trkpt>
      <trkpt lat="48.8867" lon="2.32798">
        <ele>121.7</ele>
        <time>2013-08-13T18:11:03.745Z</time>
      </trkpt>
      <trkpt lat="48.88669" lon="2.32797">
        <ele>121.7</ele>
        <time>2013-08-13T18:11:31.756Z</time>
      </trkpt>
      <trkpt lat="48.88668" lon="2.32795">
        <ele>121.9</ele>
        <time>2013-08-13T18:11:32.743Z</time>
      </trkpt>
      <trkpt lat="48.88665" lon="2.32788">
        <ele>123.2</ele>
        <time>2013-08-13T18:11:34.742Z</time>
      </trkpt>
      <trkpt lat="48.88663" lon="2.32783">
        <ele>123.5</ele>
        <time>2013-08-13T18:11:35.742Z</time>
      </trkpt>
      <trkpt lat="48.88658" lon="2.32772">
        <ele>125.2</ele>
        <time>2013-08-13T18:11:37.756Z</time>
      </trkpt>
      <trkpt lat="48.88656" lon="2.32766">
        <ele>125.4</ele>
        <time>2013-08-13T18:11:38.721Z</time>
      </trkpt>
      <trkpt lat="48.88651" lon="2.32756">
        <ele>125.8</ele>
        <time>2013-08-13T18:11:40.774Z</time>
      </trkpt>
      <trkpt lat="48.88648" lon="2.32751">
        <ele>125.8</ele>
        <time>2013-08-13T18:11:41.742Z</time>
      </trkpt>
      <trkpt lat="48.88644" lon="2.32746">
        <ele>125.9</ele>
        <time>2013-08-13T18:11:42.744Z</time>
      </trkpt>
      <trkpt lat="48.88641" lon="2.32742">
        <ele>126.7</ele>
        <time>2013-08-13T18:11:43.713Z</time>
      </trkpt>
      <trkpt lat="48.88637" lon="2.32737">
        <ele>127.7</ele>
        <time>2013-08-13T18:11:44.735Z</time>
      </trkpt>
      <trkpt lat="48.88634" lon="2.32732">
        <ele>127.3</ele>
        <time>2013-08-13T18:11:45.723Z</time>
      </trkpt>
      <trkpt lat="48.88627" lon="2.32724">
        <ele>128.4</ele>
        <time>2013-08-13T18:11:47.796Z</time>
      </trkpt>
      <trkpt lat="48.88624" lon="2.3272">
        <ele>128.9</ele>
        <time>2013-08-13T18:11:48.721Z</time>
      </trkpt>
      <trkpt lat="48.88618" lon="2.32711">
        <ele>126.4</ele>
        <time>2013-08-13T18:11:51.754Z</time>
      </trkpt>
      <trkpt lat="48.88617" lon="2.32708">
        <ele>127.2</ele>
        <time>2013-08-13T18:11:52.756Z</time>
      </trkpt>
      <trkpt lat="48.88613" lon="2.32698">
        <ele>126.4</ele>
        <time>2013-08-13T18:11:55.736Z</time>
      </trkpt>
      <trkpt lat="48.88612" lon="2.32693">
        <ele>125.1</ele>
        <time>2013-08-13T18:11:56.765Z</time>
      </trkpt>
      <trkpt lat="48.8861" lon="2.32683">
        <ele>118.9</ele>
        <time>2013-08-13T18:11:58.729Z</time>
      </trkpt>
      <trkpt lat="48.88608" lon="2.32677">
        <ele>117.9</ele>
        <time>2013-08-13T18:11:59.746Z</time>
      </trkpt>
      <trkpt lat="48.88604" lon="2.32667">
        <ele>118.3</ele>
        <time>2013-08-13T18:12:01.752Z</time>
      </trkpt>
      <trkpt lat="48.88603" lon="2.32663">
        <ele>122.9</ele>
        <time>2013-08-13T18:12:02.743Z</time>
      </trkpt>
      <trkpt lat="48.88602" lon="2.3265">
        <ele>126.7</ele>
        <time>2013-08-13T18:12:08.757Z</time>
      </trkpt>
      <trkpt lat="48.88602" lon="2.32649">
        <ele>126.3</ele>
        <time>2013-08-13T18:12:09.756Z</time>
      </trkpt>
      <trkpt lat="48.88594" lon="2.32645">
        <ele>122.4</ele>
        <time>2013-08-13T18:12:15.742Z</time>
      </trkpt>
      <trkpt lat="48.88592" lon="2.32645">
        <ele>123.4</ele>
        <time>2013-08-13T18:12:16.796Z</time>
      </trkpt>
      <trkpt lat="48.88587" lon="2.32641">
        <ele>121.2</ele>
        <time>2013-08-13T18:12:26.757Z</time>
      </trkpt>
      <trkpt lat="48.88588" lon="2.32641">
        <ele>120.9</ele>
        <time>2013-08-13T18:12:27.736Z</time>
      </trkpt>
      <trkpt lat="48.88587" lon="2.32641">
        <ele>120.9</ele>
        <time>2013-08-13T18:12:38.783Z</time>
      </trkpt>
      <trkpt lat="48.88586" lon="2.32641">
        <ele>120.3</ele>
        <time>2013-08-13T18:12:39.738Z</time>
      </trkpt>
      <trkpt lat="48.88578" lon="2.32643">
        <ele>121.8</ele>
        <time>2013-08-13T18:12:42.762Z</time>
      </trkpt>
      <trkpt lat="48.88574" lon="2.32643">
        <ele>122.1</ele>
        <time>2013-08-13T18:12:43.869Z</time>
      </trkpt>
      <trkpt lat="48.88565" lon="2.32645">
        <ele>123.7</ele>
        <time>2013-08-13T18:12:46.766Z</time>
      </trkpt>
      <trkpt lat="48.88563" lon="2.32646">
        <ele>124.8</ele>
        <time>2013-08-13T18:12:47.741Z</time>
      </trkpt>
      <trkpt lat="48.88555" lon="2.32652">
        <ele>124.6</ele>
        <time>2013-08-13T18:12:50.787Z</time>
      </trkpt>
      <trkpt lat="48.88551" lon="2.32653">
        <ele>123</ele>
        <time>2013-08-13T18:12:51.734Z</time>
      </trkpt>
      <trkpt lat="48.88543" lon="2.32656">
        <ele>121.4</ele>
        <time>2013-08-13T18:12:53.729Z</time>
      </trkpt>
      <trkpt lat="48.88539" lon="2.32657">
        <ele>121.2</ele>
        <time>2013-08-13T18:12:54.745Z</time>
      </trkpt>
      <trkpt lat="48.88533" lon="2.32659">
        <ele>120.8</ele>
        <time>2013-08-13T18:12:56.766Z</time>
      </trkpt>
      <trkpt lat="48.8853" lon="2.32659">
        <ele>119.7</ele>
        <time>2013-08-13T18:12:57.761Z</time>
      </trkpt>
      <trkpt lat="48.88523" lon="2.32661">
        <ele>119.6</ele>
        <time>2013-08-13T18:13:00.758Z</time>
      </trkpt>
      <trkpt lat="48.8852" lon="2.32663">
        <ele>118.3</ele>
        <time>2013-08-13T18:13:01.744Z</time>
      </trkpt>
      <trkpt lat="48.88512" lon="2.32666">
        <ele>118.1</ele>
        <time>2013-08-13T18:13:04.749Z</time>
      </trkpt>
      <trkpt lat="48.88509" lon="2.32667">
        <ele>117.2</ele>
        <time>2013-08-13T18:13:05.745Z</time>
      </trkpt>
      <trkpt lat="48.885" lon="2.32667">
        <ele>117</ele>
        <time>2013-08-13T18:13:08.770Z</time>
      </trkpt>
      <trkpt lat="48.88498" lon="2.32667">
        <ele>116.2</ele>
        <time>2013-08-13T18:13:09.756Z</time>
      </trkpt>
      <trkpt lat="48.8849" lon="2.32667">
        <ele>117.2</ele>
        <time>2013-08-13T18:13:12.743Z</time>
      </trkpt>
      <trkpt lat="48.88488" lon="2.32669">
        <ele>115.7</ele>
        <time>2013-08-13T18:13:13.759Z</time>
      </trkpt>
      <trkpt lat="48.88483" lon="2.32676">
        <ele>115.5</ele>
        <time>2013-08-13T18:13:15.772Z</time>
      </trkpt>
      <trkpt lat="48.8848" lon="2.32679">
        <ele>115</ele>
        <time>2013-08-13T18:13:16.757Z</time>
      </trkpt>
      <trkpt lat="48.88473" lon="2.32687">
        <ele>115.7</ele>
        <time>2013-08-13T18:13:19.739Z</time>
      </trkpt>
      <trkpt lat="48.88471" lon="2.32689">
        <ele>115.4</ele>
        <time>2013-08-13T18:13:20.807Z</time>
      </trkpt>
      <trkpt lat="48.88465" lon="2.32694">
        <ele>118</ele>
        <time>2013-08-13T18:13:23.772Z</time>
      </trkpt>
      <trkpt lat="48.88463" lon="2.32696">
        <ele>118.5</ele>
        <time>2013-08-13T18:13:24.759Z</time>
      </trkpt>
      <trkpt lat="48.88455" lon="2.32699">
        <ele>122.2</ele>
        <time>2013-08-13T18:13:27.747Z</time>
      </trkpt>
      <trkpt lat="48.88452" lon="2.327">
        <ele>122.7</ele>
        <time>2013-08-13T18:13:28.790Z</time>
      </trkpt>
      <trkpt lat="48.88445" lon="2.32701">
        <ele>124.4</ele>
        <time>2013-08-13T18:13:30.795Z</time>
      </trkpt>
      <trkpt lat="48.88442" lon="2.32702">
        <ele>125.5</ele>
        <time>2013-08-13T18:13:31.763Z</time>
      </trkpt>
      <trkpt lat="48.88436" lon="2.32702">
        <ele>125.8</ele>
        <time>2013-08-13T18:13:33.768Z</time>
      </trkpt>
      <trkpt lat="48.88432" lon="2.32702">
        <ele>128.1</ele>
        <time>2013-08-13T18:13:34.766Z</time>
      </trkpt>
      <trkpt lat="48.88424" lon="2.32704">
        <ele>127.3</ele>
        <time>2013-08-13T18:13:37.741Z</time>
      </trkpt>
      <trkpt lat="48.88422" lon="2.32704">
        <ele>127.2</ele>
        <time>2013-08-13T18:13:38.803Z</time>
      </trkpt>
      <trkpt lat="48.88415" lon="2.32706">
        <ele>123.7</ele>
        <time>2013-08-13T18:13:41.767Z</time>
      </trkpt>
      <trkpt lat="48.88412" lon="2.32707">
        <ele>122.9</ele>
        <time>2013-08-13T18:13:42.755Z</time>
      </trkpt>
      <trkpt lat="48.88404" lon="2.32708">
        <ele>123.7</ele>
        <time>2013-08-13T18:13:44.798Z</time>
      </trkpt>
      <trkpt lat="48.88401" lon="2.32709">
        <ele>123.9</ele>
        <time>2013-08-13T18:13:45.746Z</time>
      </trkpt>
      <trkpt lat="48.88394" lon="2.3271">
        <ele>122.2</ele>
        <time>2013-08-13T18:13:47.736Z</time>
      </trkpt>
      <trkpt lat="48.88391" lon="2.32711">
        <ele>123.7</ele>
        <time>2013-08-13T18:13:48.802Z</time>
      </trkpt>
      <trkpt lat="48.88384" lon="2.32715">
        <ele>122.9</ele>
        <time>2013-08-13T18:13:50.760Z</time>
      </trkpt>
      <trkpt lat="48.88382" lon="2.32718">
        <ele>122.4</ele>
        <time>2013-08-13T18:13:51.754Z</time>
      </trkpt>
      <trkpt lat="48.88378" lon="2.32729">
        <ele>124.1</ele>
        <time>2013-08-13T18:13:54.765Z</time>
      </trkpt>
      <trkpt lat="48.88378" lon="2.32733">
        <ele>124.9</ele>
        <time>2013-08-13T18:13:55.734Z</time>
      </trkpt>
      <trkpt lat="48.88376" lon="2.32745">
        <ele>124.3</ele>
        <time>2013-08-13T18:14:01.775Z</time>
      </trkpt>
      <trkpt lat="48.88376" lon="2.32746">
        <ele>124</ele>
        <time>2013-08-13T18:14:02.761Z</time>
      </trkpt>
      <trkpt lat="48.88371" lon="2.32747">
        <ele>128.2</ele>
        <time>2013-08-13T18:14:18.773Z</time>
      </trkpt>
      <trkpt lat="48.88371" lon="2.32747">
        <ele>127.7</ele>
        <time>2013-08-13T18:14:19.773Z</time>
      </trkpt>
      <trkpt lat="48.88372" lon="2.32749">
        <ele>127.7</ele>
        <time>2013-08-13T18:14:47.773Z</time>
      </trkpt>
      <trkpt lat="48.88372" lon="2.3275">
        <ele>126.8</ele>
        <time>2013-08-13T18:14:48.827Z</time>
      </trkpt>
      <trkpt lat="48.88372" lon="2.32764">
        <ele>117.3</ele>
        <time>2013-08-13T18:14:54.756Z</time>
      </trkpt>
      <trkpt lat="48.88371" lon="2.32766">
        <ele>116</ele>
        <time>2013-08-13T18:14:55.780Z</time>
      </trkpt>
      <trkpt lat="48.88366" lon="2.32775">
        <ele>114.8</ele>
        <time>2013-08-13T18:15:00.769Z</time>
      </trkpt>
      <trkpt lat="48.88364" lon="2.32776">
        <ele>115.4</ele>
        <time>2013-08-13T18:15:01.756Z</time>
      </trkpt>
      <trkpt lat="48.88359" lon="2.32786">
        <ele>112.9</ele>
        <time>2013-08-13T18:15:07.773Z</time>
      </trkpt>
      <trkpt lat="48.8836" lon="2.32789">
        <ele>111.6</ele>
        <time>2013-08-13T18:15:08.803Z</time>
      </trkpt>
      <trkpt lat="48.88363" lon="2.32798">
        <ele>112.9</ele>
        <time>2013-08-13T18:15:11.803Z</time>
      </trkpt>
      <trkpt lat="48.88364" lon="2.32801">
        <ele>113.2</ele>
        <time>2013-08-13T18:15:12.738Z</time>
      </trkpt>
      <trkpt lat="48.88369" lon="2.32811">
        <ele>114.2</ele>
        <time>2013-08-13T18:15:15.766Z</time>
      </trkpt>
      <trkpt lat="48.88371" lon="2.32813">
        <ele>115.4</ele>
        <time>2013-08-13T18:15:16.782Z</time>
      </trkpt>
      <trkpt lat="48.88379" lon="2.32818">
        <ele>110.7</ele>
        <time>2013-08-13T18:15:19.763Z</time>
      </trkpt>
      <trkpt lat="48.88381" lon="2.32818">
        <ele>108.8</ele>
        <time>2013-08-13T18:15:20.784Z</time>
      </trkpt>
      <trkpt lat="48.88389" lon="2.32823">
        <ele>106.5</ele>
        <time>2013-08-13T18:15:23.767Z</time>
      </trkpt>
      <trkpt lat="48.88392" lon="2.32826">
        <ele>106.2</ele>
        <time>2013-08-13T18:15:24.771Z</time>
      </trkpt>
      <trkpt lat="48.88397" lon="2.32834">
        <ele>105.4</ele>
        <time>2013-08-13T18:15:26.762Z</time>
      </trkpt>
      <trkpt lat="48.884" lon="2.32839">
        <ele>104.7</ele>
        <time>2013-08-13T18:15:27.756Z</time>
      </trkpt>
      <trkpt lat="48.88404" lon="2.32848">
        <ele>105.2</ele>
        <time>2013-08-13T18:15:29.783Z</time>
      </trkpt>
      <trkpt lat="48.88406" lon="2.32852">
        <ele>105.4</ele>
        <time>2013-08-13T18:15:30.804Z</time>
      </trkpt>
      <trkpt lat="48.88411" lon="2.32859">
        <ele>105.2</ele>
        <time>2013-08-13T18:15:32.744Z</time>
      </trkpt>
      <trkpt lat="48.88414" lon="2.32864">
        <ele>105.5</ele>
        <time>2013-08-13T18:15:34.271Z</time>
      </trkpt>
      <trkpt lat="48.8842" lon="2.3287">
        <ele>107.3</ele>
        <time>2013-08-13T18:15:35.908Z</time>
      </trkpt>
      <trkpt lat="48.88424" lon="2.32874">
        <ele>108.9</ele>
        <time>2013-08-13T18:15:36.973Z</time>
      </trkpt>
      <trkpt lat="48.88428" lon="2.32878">
        <ele>111.1</ele>
        <time>2013-08-13T18:15:37.822Z</time>
      </trkpt>
      <trkpt lat="48.88432" lon="2.32884">
        <ele>113.1</ele>
        <time>2013-08-13T18:15:39.020Z</time>
      </trkpt>
      <trkpt lat="48.88435" lon="2.32888">
        <ele>113.8</ele>
        <time>2013-08-13T18:15:39.789Z</time>
      </trkpt>
      <trkpt lat="48.88439" lon="2.32894">
        <ele>115.1</ele>
        <time>2013-08-13T18:15:41.429Z</time>
      </trkpt>
      <trkpt lat="48.88442" lon="2.32901">
        <ele>114.9</ele>
        <time>2013-08-13T18:15:42.930Z</time>
      </trkpt>
      <trkpt lat="48.88444" lon="2.32905">
        <ele>115.8</ele>
        <time>2013-08-13T18:15:43.945Z</time>
      </trkpt>
      <trkpt lat="48.88449" lon="2.32915">
        <ele>114.3</ele>
        <time>2013-08-13T18:15:46.806Z</time>
      </trkpt>
      <trkpt lat="48.88451" lon="2.32918">
        <ele>115.2</ele>
        <time>2013-08-13T18:15:48.444Z</time>
      </trkpt>
      <trkpt lat="48.88452" lon="2.32919">
        <ele>115.3</ele>
        <time>2013-08-13T18:15:53.881Z</time>
      </trkpt>
      <trkpt lat="48.88452" lon="2.32919">
        <ele>115.2</ele>
        <time>2013-08-13T18:15:54.768Z</time>
      </trkpt>
      <trkpt lat="48.88452" lon="2.32918">
        <ele>115.8</ele>
        <time>2013-08-13T18:16:02.770Z</time>
      </trkpt>
      <trkpt lat="48.88452" lon="2.32919">
        <ele>114.8</ele>
        <time>2013-08-13T18:16:03.739Z</time>
      </trkpt>
      <trkpt lat="48.88451" lon="2.3293">
        <ele>111.8</ele>
        <time>2013-08-13T18:16:07.791Z</time>
      </trkpt>
      <trkpt lat="48.88452" lon="2.32934">
        <ele>110.1</ele>
        <time>2013-08-13T18:16:08.758Z</time>
      </trkpt>
      <trkpt lat="48.88454" lon="2.32947">
        <ele>108.3</ele>
        <time>2013-08-13T18:16:11.467Z</time>
      </trkpt>
      <trkpt lat="48.88453" lon="2.32949">
        <ele>107.4</ele>
        <time>2013-08-13T18:16:11.675Z</time>
      </trkpt>
      <trkpt lat="48.88452" lon="2.32961">
        <ele>104.4</ele>
        <time>2013-08-13T18:16:13.725Z</time>
      </trkpt>
      <trkpt lat="48.8845" lon="2.32967">
        <ele>105.1</ele>
        <time>2013-08-13T18:16:14.861Z</time>
      </trkpt>
      <trkpt lat="48.88448" lon="2.32974">
        <ele>105.4</ele>
        <time>2013-08-13T18:16:15.884Z</time>
      </trkpt>
      <trkpt lat="48.88446" lon="2.32981">
        <ele>105.1</ele>
        <time>2013-08-13T18:16:16.790Z</time>
      </trkpt>
      <trkpt lat="48.88443" lon="2.32989">
        <ele>103.7</ele>
        <time>2013-08-13T18:16:17.974Z</time>
      </trkpt>
      <trkpt lat="48.88442" lon="2.32995">
        <ele>103</ele>
        <time>2013-08-13T18:16:18.743Z</time>
      </trkpt>
      <trkpt lat="48.88439" lon="2.33002">
        <ele>102.2</ele>
        <time>2013-08-13T18:16:19.836Z</time>
      </trkpt>
      <trkpt lat="48.88437" lon="2.33008">
        <ele>101.9</ele>
        <time>2013-08-13T18:16:20.684Z</time>
      </trkpt>
      <trkpt lat="48.88434" lon="2.33017">
        <ele>101.7</ele>
        <time>2013-08-13T18:16:22.358Z</time>
      </trkpt>
      <trkpt lat="48.88432" lon="2.33021">
        <ele>100.6</ele>
        <time>2013-08-13T18:16:22.863Z</time>
      </trkpt>
      <trkpt lat="48.88431" lon="2.33027">
        <ele>102.3</ele>
        <time>2013-08-13T18:16:23.819Z</time>
      </trkpt>
      <trkpt lat="48.88429" lon="2.33035">
        <ele>103.2</ele>
        <time>2013-08-13T18:16:24.906Z</time>
      </trkpt>
      <trkpt lat="48.88428" lon="2.33041">
        <ele>103.4</ele>
        <time>2013-08-13T18:16:25.767Z</time>
      </trkpt>
      <trkpt lat="48.88426" lon="2.3305">
        <ele>104</ele>
        <time>2013-08-13T18:16:26.954Z</time>
      </trkpt>
      <trkpt lat="48.88425" lon="2.33056">
        <ele>104.2</ele>
        <time>2013-08-13T18:16:27.698Z</time>
      </trkpt>
      <trkpt lat="48.88423" lon="2.33064">
        <ele>100.9</ele>
        <time>2013-08-13T18:16:29.081Z</time>
      </trkpt>
      <trkpt lat="48.88422" lon="2.33069">
        <ele>100.3</ele>
        <time>2013-08-13T18:16:29.738Z</time>
      </trkpt>
      <trkpt lat="48.8842" lon="2.33077">
        <ele>100</ele>
        <time>2013-08-13T18:16:30.838Z</time>
      </trkpt>
      <trkpt lat="48.88418" lon="2.33084">
        <ele>100.1</ele>
        <time>2013-08-13T18:16:31.914Z</time>
      </trkpt>
      <trkpt lat="48.88417" lon="2.3309">
        <ele>99.9</ele>
        <time>2013-08-13T18:16:32.793Z</time>
      </trkpt>
      <trkpt lat="48.88413" lon="2.33103">
        <ele>101.7</ele>
        <time>2013-08-13T18:16:34.705Z</time>
      </trkpt>
      <trkpt lat="48.88411" lon="2.33111">
        <ele>100</ele>
        <time>2013-08-13T18:16:35.876Z</time>
      </trkpt>
      <trkpt lat="48.88409" lon="2.3312">
        <ele>101.5</ele>
        <time>2013-08-13T18:16:36.709Z</time>
      </trkpt>
      <trkpt lat="48.88407" lon="2.33129">
        <ele>100.8</ele>
        <time>2013-08-13T18:16:37.687Z</time>
      </trkpt>
      <trkpt lat="48.88405" lon="2.33136">
        <ele>101</ele>
        <time>2013-08-13T18:16:38.718Z</time>
      </trkpt>
      <trkpt lat="48.88403" lon="2.33142">
        <ele>101.1</ele>
        <time>2013-08-13T18:16:39.697Z</time>
      </trkpt>
      <trkpt lat="48.88401" lon="2.33149">
        <ele>100.7</ele>
        <time>2013-08-13T18:16:40.686Z</time>
      </trkpt>
      <trkpt lat="48.88399" lon="2.33155">
        <ele>99.7</ele>
        <time>2013-08-13T18:16:41.707Z</time>
      </trkpt>
      <trkpt lat="48.88396" lon="2.33168">
        <ele>100</ele>
        <time>2013-08-13T18:16:43.750Z</time>
      </trkpt>
      <trkpt lat="48.88395" lon="2.33173">
        <ele>98.9</ele>
        <time>2013-08-13T18:16:44.699Z</time>
      </trkpt>
      <trkpt lat="48.88393" lon="2.33183">
        <ele>99</ele>
        <time>2013-08-13T18:16:46.714Z</time>
      </trkpt>
      <trkpt lat="48.88391" lon="2.33189">
        <ele>100.6</ele>
        <time>2013-08-13T18:16:47.705Z</time>
      </trkpt>
      <trkpt lat="48.8839" lon="2.33199">
        <ele>99.3</ele>
        <time>2013-08-13T18:16:49.684Z</time>
      </trkpt>
      <trkpt lat="48.88389" lon="2.33204">
        <ele>101.5</ele>
        <time>2013-08-13T18:16:50.694Z</time>
      </trkpt>
      <trkpt lat="48.88385" lon="2.33215">
        <ele>101.1</ele>
        <time>2013-08-13T18:16:53.689Z</time>
      </trkpt>
      <trkpt lat="48.88384" lon="2.33218">
        <ele>101.7</ele>
        <time>2013-08-13T18:16:54.696Z</time>
      </trkpt>
      <trkpt lat="48.8838" lon="2.3323">
        <ele>103.8</ele>
        <time>2013-08-13T18:16:57.692Z</time>
      </trkpt>
      <trkpt lat="48.88379" lon="2.33234">
        <ele>105.1</ele>
        <time>2013-08-13T18:16:58.715Z</time>
      </trkpt>
      <trkpt lat="48.88376" lon="2.33246">
        <ele>109.9</ele>
        <time>2013-08-13T18:17:01.668Z</time>
      </trkpt>
      <trkpt lat="48.88375" lon="2.3325">
        <ele>112.3</ele>
        <time>2013-08-13T18:17:02.684Z</time>
      </trkpt>
      <trkpt lat="48.88373" lon="2.33259">
        <ele>113.4</ele>
        <time>2013-08-13T18:17:11.807Z</time>
      </trkpt>
      <trkpt lat="48.88373" lon="2.33258">
        <ele>112.2</ele>
        <time>2013-08-13T18:17:12.686Z</time>
      </trkpt>
      <trkpt lat="48.88373" lon="2.33258">
        <ele>112.2</ele>
        <time>2013-08-13T18:17:13.684Z</time>
      </trkpt>
      <trkpt lat="48.88372" lon="2.33258">
        <ele>111.7</ele>
        <time>2013-08-13T18:17:14.946Z</time>
      </trkpt>
      <trkpt lat="48.88368" lon="2.33269">
        <ele>113.2</ele>
        <time>2013-08-13T18:17:19.208Z</time>
      </trkpt>
      <trkpt lat="48.88367" lon="2.33273">
        <ele>112.9</ele>
        <time>2013-08-13T18:17:19.702Z</time>
      </trkpt>
      <trkpt lat="48.88364" lon="2.33284">
        <ele>111</ele>
        <time>2013-08-13T18:17:21.729Z</time>
      </trkpt>
      <trkpt lat="48.88363" lon="2.3329">
        <ele>106.7</ele>
        <time>2013-08-13T18:17:22.710Z</time>
      </trkpt>
      <trkpt lat="48.88359" lon="2.33301">
        <ele>105.6</ele>
        <time>2013-08-13T18:17:24.696Z</time>
      </trkpt>
      <trkpt lat="48.88357" lon="2.33306">
        <ele>104.3</ele>
        <time>2013-08-13T18:17:25.688Z</time>
      </trkpt>
      <trkpt lat="48.88354" lon="2.33317">
        <ele>103.8</ele>
        <time>2013-08-13T18:17:27.685Z</time>
      </trkpt>
      <trkpt lat="48.88353" lon="2.33322">
        <ele>103.3</ele>
        <time>2013-08-13T18:17:28.700Z</time>
      </trkpt>
      <trkpt lat="48.88349" lon="2.33333">
        <ele>101.4</ele>
        <time>2013-08-13T18:17:31.414Z</time>
      </trkpt>
      <trkpt lat="48.88348" lon="2.33337">
        <ele>101.7</ele>
        <time>2013-08-13T18:17:31.829Z</time>
      </trkpt>
      <trkpt lat="48.88345" lon="2.33349">
        <ele>102.8</ele>
        <time>2013-08-13T18:17:32.805Z</time>
      </trkpt>
      <trkpt lat="48.88342" lon="2.33359">
        <ele>104.1</ele>
        <time>2013-08-13T18:17:33.921Z</time>
      </trkpt>
      <trkpt lat="48.88339" lon="2.33366">
        <ele>103.8</ele>
        <time>2013-08-13T18:17:34.734Z</time>
      </trkpt>
      <trkpt lat="48.88337" lon="2.33373">
        <ele>103.5</ele>
        <time>2013-08-13T18:17:36.405Z</time>
      </trkpt>
      <trkpt lat="48.88333" lon="2.33384">
        <ele>102.4</ele>
        <time>2013-08-13T18:17:37.822Z</time>
      </trkpt>
      <trkpt lat="48.88331" lon="2.33391">
        <ele>102.2</ele>
        <time>2013-08-13T18:17:38.959Z</time>
      </trkpt>
      <trkpt lat="48.88327" lon="2.33402">
        <ele>99.3</ele>
        <time>2013-08-13T18:17:40.854Z</time>
      </trkpt>
      <trkpt lat="48.88325" lon="2.33407">
        <ele>96.7</ele>
        <time>2013-08-13T18:17:41.684Z</time>
      </trkpt>
      <trkpt lat="48.88322" lon="2.33418">
        <ele>96.1</ele>
        <time>2013-08-13T18:17:43.614Z</time>
      </trkpt>
      <trkpt lat="48.8832" lon="2.33424">
        <ele>96.1</ele>
        <time>2013-08-13T18:17:44.616Z</time>
      </trkpt>
      <trkpt lat="48.88318" lon="2.3343">
        <ele>98.6</ele>
        <time>2013-08-13T18:17:45.616Z</time>
      </trkpt>
      <trkpt lat="48.88316" lon="2.33437">
        <ele>99.1</ele>
        <time>2013-08-13T18:17:46.775Z</time>
      </trkpt>
      <trkpt lat="48.88314" lon="2.33443">
        <ele>100.4</ele>
        <time>2013-08-13T18:17:47.769Z</time>
      </trkpt>
      <trkpt lat="48.88312" lon="2.33454">
        <ele>100</ele>
        <time>2013-08-13T18:17:48.716Z</time>
      </trkpt>
      <trkpt lat="48.88309" lon="2.33464">
        <ele>99.7</ele>
        <time>2013-08-13T18:17:49.680Z</time>
      </trkpt>
      <trkpt lat="48.88307" lon="2.33472">
        <ele>99.9</ele>
        <time>2013-08-13T18:17:50.604Z</time>
      </trkpt>
      <trkpt lat="48.88305" lon="2.33482">
        <ele>101.1</ele>
        <time>2013-08-13T18:17:52.547Z</time>
      </trkpt>
      <trkpt lat="48.88304" lon="2.33485">
        <ele>101.7</ele>
        <time>2013-08-13T18:17:52.602Z</time>
      </trkpt>
      <trkpt lat="48.88301" lon="2.33496">
        <ele>103.1</ele>
        <time>2013-08-13T18:17:53.835Z</time>
      </trkpt>
      <trkpt lat="48.88299" lon="2.33503">
        <ele>103.9</ele>
        <time>2013-08-13T18:17:54.694Z</time>
      </trkpt>
      <trkpt lat="48.88297" lon="2.3351">
        <ele>104.5</ele>
        <time>2013-08-13T18:17:55.796Z</time>
      </trkpt>
      <trkpt lat="48.88294" lon="2.33518">
        <ele>104.6</ele>
        <time>2013-08-13T18:17:56.801Z</time>
      </trkpt>
      <trkpt lat="48.88292" lon="2.33525">
        <ele>103.8</ele>
        <time>2013-08-13T18:17:57.714Z</time>
      </trkpt>
      <trkpt lat="48.88289" lon="2.33533">
        <ele>102.7</ele>
        <time>2013-08-13T18:17:58.782Z</time>
      </trkpt>
      <trkpt lat="48.88287" lon="2.33539">
        <ele>103.2</ele>
        <time>2013-08-13T18:17:59.617Z</time>
      </trkpt>
      <trkpt lat="48.88286" lon="2.33547">
        <ele>102.7</ele>
        <time>2013-08-13T18:18:00.588Z</time>
      </trkpt>
      <trkpt lat="48.88284" lon="2.33555">
        <ele>102.7</ele>
        <time>2013-08-13T18:18:01.634Z</time>
      </trkpt>
      <trkpt lat="48.88281" lon="2.33561">
        <ele>101.7</ele>
        <time>2013-08-13T18:18:02.625Z</time>
      </trkpt>
      <trkpt lat="48.88279" lon="2.33568">
        <ele>101.4</ele>
        <time>2013-08-13T18:18:03.629Z</time>
      </trkpt>
      <trkpt lat="48.88276" lon="2.33575">
        <ele>102.5</ele>
        <time>2013-08-13T18:18:04.621Z</time>
      </trkpt>
      <trkpt lat="48.88273" lon="2.33582">
        <ele>102.4</ele>
        <time>2013-08-13T18:18:05.634Z</time>
      </trkpt>
      <trkpt lat="48.88271" lon="2.33589">
        <ele>102.3</ele>
        <time>2013-08-13T18:18:06.646Z</time>
      </trkpt>
      <trkpt lat="48.88268" lon="2.33596">
        <ele>102.1</ele>
        <time>2013-08-13T18:18:07.614Z</time>
      </trkpt>
      <trkpt lat="48.88266" lon="2.33603">
        <ele>102</ele>
        <time>2013-08-13T18:18:08.625Z</time>
      </trkpt>
      <trkpt lat="48.88264" lon="2.33611">
        <ele>102</ele>
        <time>2013-08-13T18:18:09.637Z</time>
      </trkpt>
      <trkpt lat="48.88261" lon="2.33617">
        <ele>101.7</ele>
        <time>2013-08-13T18:18:10.612Z</time>
      </trkpt>
      <trkpt lat="48.8826" lon="2.33625">
        <ele>101.9</ele>
        <time>2013-08-13T18:18:11.745Z</time>
      </trkpt>
      <trkpt lat="48.88258" lon="2.33632">
        <ele>102.1</ele>
        <time>2013-08-13T18:18:12.614Z</time>
      </trkpt>
      <trkpt lat="48.88256" lon="2.33639">
        <ele>102.5</ele>
        <time>2013-08-13T18:18:13.625Z</time>
      </trkpt>
      <trkpt lat="48.88254" lon="2.33646">
        <ele>102.6</ele>
        <time>2013-08-13T18:18:14.635Z</time>
      </trkpt>
      <trkpt lat="48.8825" lon="2.33657">
        <ele>102.9</ele>
        <time>2013-08-13T18:18:16.619Z</time>
      </trkpt>
      <trkpt lat="48.88249" lon="2.33662">
        <ele>103</ele>
        <time>2013-08-13T18:18:17.597Z</time>
      </trkpt>
      <trkpt lat="48.88245" lon="2.33672">
        <ele>102.1</ele>
        <time>2013-08-13T18:18:20.603Z</time>
      </trkpt>
      <trkpt lat="48.88244" lon="2.33676">
        <ele>103</ele>
        <time>2013-08-13T18:18:21.612Z</time>
      </trkpt>
      <trkpt lat="48.88241" lon="2.33686">
        <ele>104.2</ele>
        <time>2013-08-13T18:18:24.637Z</time>
      </trkpt>
      <trkpt lat="48.8824" lon="2.33689">
        <ele>104.2</ele>
        <time>2013-08-13T18:18:25.634Z</time>
      </trkpt>
      <trkpt lat="48.88239" lon="2.33702">
        <ele>98.7</ele>
        <time>2013-08-13T18:18:29.847Z</time>
      </trkpt>
      <trkpt lat="48.88238" lon="2.33704">
        <ele>98.6</ele>
        <time>2013-08-13T18:18:30.695Z</time>
      </trkpt>
      <trkpt lat="48.88236" lon="2.33717">
        <ele>97.6</ele>
        <time>2013-08-13T18:18:34.649Z</time>
      </trkpt>
      <trkpt lat="48.88236" lon="2.33722">
        <ele>96.4</ele>
        <time>2013-08-13T18:18:35.783Z</time>
      </trkpt>
      <trkpt lat="48.88235" lon="2.33731">
        <ele>95.3</ele>
        <time>2013-08-13T18:18:37.632Z</time>
      </trkpt>
      <trkpt lat="48.88235" lon="2.33736">
        <ele>96.9</ele>
        <time>2013-08-13T18:18:38.914Z</time>
      </trkpt>
      <trkpt lat="48.88233" lon="2.33748">
        <ele>97.3</ele>
        <time>2013-08-13T18:18:41.383Z</time>
      </trkpt>
      <trkpt lat="48.88232" lon="2.33751">
        <ele>98.5</ele>
        <time>2013-08-13T18:18:41.603Z</time>
      </trkpt>
      <trkpt lat="48.88231" lon="2.33759">
        <ele>101.1</ele>
        <time>2013-08-13T18:18:42.791Z</time>
      </trkpt>
      <trkpt lat="48.8823" lon="2.33765">
        <ele>103</ele>
        <time>2013-08-13T18:18:43.621Z</time>
      </trkpt>
      <trkpt lat="48.88229" lon="2.33772">
        <ele>103.9</ele>
        <time>2013-08-13T18:18:44.690Z</time>
      </trkpt>
      <trkpt lat="48.88228" lon="2.33778">
        <ele>103.8</ele>
        <time>2013-08-13T18:18:45.623Z</time>
      </trkpt>
      <trkpt lat="48.88227" lon="2.33785">
        <ele>103.9</ele>
        <time>2013-08-13T18:18:46.627Z</time>
      </trkpt>
      <trkpt lat="48.88226" lon="2.33792">
        <ele>102.5</ele>
        <time>2013-08-13T18:18:47.604Z</time>
      </trkpt>
      <trkpt lat="48.88224" lon="2.33798">
        <ele>101.8</ele>
        <time>2013-08-13T18:18:48.680Z</time>
      </trkpt>
      <trkpt lat="48.88223" lon="2.33805">
        <ele>101.7</ele>
        <time>2013-08-13T18:18:49.638Z</time>
      </trkpt>
      <trkpt lat="48.88221" lon="2.33811">
        <ele>102</ele>
        <time>2013-08-13T18:18:50.617Z</time>
      </trkpt>
      <trkpt lat="48.8822" lon="2.33818">
        <ele>103.5</ele>
        <time>2013-08-13T18:18:51.607Z</time>
      </trkpt>
      <trkpt lat="48.88219" lon="2.33825">
        <ele>104</ele>
        <time>2013-08-13T18:18:52.606Z</time>
      </trkpt>
      <trkpt lat="48.88218" lon="2.33833">
        <ele>103.5</ele>
        <time>2013-08-13T18:18:53.628Z</time>
      </trkpt>
      <trkpt lat="48.88217" lon="2.3384">
        <ele>103.4</ele>
        <time>2013-08-13T18:18:54.628Z</time>
      </trkpt>
      <trkpt lat="48.88217" lon="2.33848">
        <ele>104.4</ele>
        <time>2013-08-13T18:18:55.619Z</time>
      </trkpt>
      <trkpt lat="48.88216" lon="2.33855">
        <ele>103.9</ele>
        <time>2013-08-13T18:18:56.641Z</time>
      </trkpt>
      <trkpt lat="48.88215" lon="2.33862">
        <ele>103.8</ele>
        <time>2013-08-13T18:18:57.623Z</time>
      </trkpt>
      <trkpt lat="48.88214" lon="2.33875">
        <ele>103.6</ele>
        <time>2013-08-13T18:18:59.623Z</time>
      </trkpt>
      <trkpt lat="48.88213" lon="2.33881">
        <ele>103.4</ele>
        <time>2013-08-13T18:19:00.608Z</time>
      </trkpt>
      <trkpt lat="48.88212" lon="2.33894">
        <ele>104.2</ele>
        <time>2013-08-13T18:19:02.631Z</time>
      </trkpt>
      <trkpt lat="48.88212" lon="2.33899">
        <ele>102.3</ele>
        <time>2013-08-13T18:19:03.645Z</time>
      </trkpt>
      <trkpt lat="48.8821" lon="2.33909">
        <ele>100.5</ele>
        <time>2013-08-13T18:19:05.654Z</time>
      </trkpt>
      <trkpt lat="48.8821" lon="2.33914">
        <ele>100.7</ele>
        <time>2013-08-13T18:19:06.608Z</time>
      </trkpt>
      <trkpt lat="48.88208" lon="2.33925">
        <ele>99.3</ele>
        <time>2013-08-13T18:19:08.645Z</time>
      </trkpt>
      <trkpt lat="48.88207" lon="2.3393">
        <ele>99.9</ele>
        <time>2013-08-13T18:19:09.608Z</time>
      </trkpt>
      <trkpt lat="48.88203" lon="2.33937">
        <ele>101.3</ele>
        <time>2013-08-13T18:19:20.626Z</time>
      </trkpt>
      <trkpt lat="48.88203" lon="2.33938">
        <ele>101.3</ele>
        <time>2013-08-13T18:19:21.624Z</time>
      </trkpt>
      <trkpt lat="48.88203" lon="2.33939">
        <ele>103.6</ele>
        <time>2013-08-13T18:19:27.593Z</time>
      </trkpt>
      <trkpt lat="48.88203" lon="2.33939">
        <ele>103.8</ele>
        <time>2013-08-13T18:19:28.619Z</time>
      </trkpt>
      <trkpt lat="48.88203" lon="2.33939">
        <ele>103.8</ele>
        <time>2013-08-13T18:19:29.638Z</time>
      </trkpt>
      <trkpt lat="48.88202" lon="2.3394">
        <ele>104.1</ele>
        <time>2013-08-13T18:19:36.608Z</time>
      </trkpt>
      <trkpt lat="48.88203" lon="2.33941">
        <ele>104.1</ele>
        <time>2013-08-13T18:19:37.644Z</time>
      </trkpt>
      <trkpt lat="48.88203" lon="2.33954">
        <ele>107.8</ele>
        <time>2013-08-13T18:19:41.604Z</time>
      </trkpt>
      <trkpt lat="48.88203" lon="2.33958">
        <ele>108.1</ele>
        <time>2013-08-13T18:19:42.616Z</time>
      </trkpt>
      <trkpt lat="48.88202" lon="2.33971">
        <ele>109</ele>
        <time>2013-08-13T18:19:45.608Z</time>
      </trkpt>
      <trkpt lat="48.88203" lon="2.33975">
        <ele>109.6</ele>
        <time>2013-08-13T18:19:46.612Z</time>
      </trkpt>
      <trkpt lat="48.88204" lon="2.33985">
        <ele>111.4</ele>
        <time>2013-08-13T18:19:48.609Z</time>
      </trkpt>
      <trkpt lat="48.88205" lon="2.33992">
        <ele>112.2</ele>
        <time>2013-08-13T18:19:49.612Z</time>
      </trkpt>
      <trkpt lat="48.88206" lon="2.33999">
        <ele>113.2</ele>
        <time>2013-08-13T18:19:50.629Z</time>
      </trkpt>
      <trkpt lat="48.88207" lon="2.34006">
        <ele>114</ele>
        <time>2013-08-13T18:19:51.612Z</time>
      </trkpt>
      <trkpt lat="48.88208" lon="2.34013">
        <ele>114</ele>
        <time>2013-08-13T18:19:52.614Z</time>
      </trkpt>
      <trkpt lat="48.88209" lon="2.3402">
        <ele>111.9</ele>
        <time>2013-08-13T18:19:53.636Z</time>
      </trkpt>
      <trkpt lat="48.88212" lon="2.34032">
        <ele>111.4</ele>
        <time>2013-08-13T18:19:55.623Z</time>
      </trkpt>
      <trkpt lat="48.88213" lon="2.34037">
        <ele>112.4</ele>
        <time>2013-08-13T18:19:56.629Z</time>
      </trkpt>
      <trkpt lat="48.88216" lon="2.34046">
        <ele>111.4</ele>
        <time>2013-08-13T18:19:58.614Z</time>
      </trkpt>
      <trkpt lat="48.88218" lon="2.34051">
        <ele>111.3</ele>
        <time>2013-08-13T18:19:59.602Z</time>
      </trkpt>
      <trkpt lat="48.88222" lon="2.3406">
        <ele>111.3</ele>
        <time>2013-08-13T18:20:01.617Z</time>
      </trkpt>
      <trkpt lat="48.88223" lon="2.34064">
        <ele>111.1</ele>
        <time>2013-08-13T18:20:02.609Z</time>
      </trkpt>
      <trkpt lat="48.88227" lon="2.34074">
        <ele>109.8</ele>
        <time>2013-08-13T18:20:04.607Z</time>
      </trkpt>
      <trkpt lat="48.88229" lon="2.34078">
        <ele>109.9</ele>
        <time>2013-08-13T18:20:05.613Z</time>
      </trkpt>
      <trkpt lat="48.88231" lon="2.34088">
        <ele>108.4</ele>
        <time>2013-08-13T18:20:07.628Z</time>
      </trkpt>
      <trkpt lat="48.88233" lon="2.34093">
        <ele>107.9</ele>
        <time>2013-08-13T18:20:08.637Z</time>
      </trkpt>
      <trkpt lat="48.88237" lon="2.34101">
        <ele>107.9</ele>
        <time>2013-08-13T18:20:10.605Z</time>
      </trkpt>
      <trkpt lat="48.88239" lon="2.34104">
        <ele>107.3</ele>
        <time>2013-08-13T18:20:11.613Z</time>
      </trkpt>
      <trkpt lat="48.88244" lon="2.34113">
        <ele>107.2</ele>
        <time>2013-08-13T18:20:13.615Z</time>
      </trkpt>
      <trkpt lat="48.88246" lon="2.34119">
        <ele>107.7</ele>
        <time>2013-08-13T18:20:14.615Z</time>
      </trkpt>
      <trkpt lat="48.88249" lon="2.3413">
        <ele>106.6</ele>
        <time>2013-08-13T18:20:16.633Z</time>
      </trkpt>
      <trkpt lat="48.8825" lon="2.34136">
        <ele>106.9</ele>
        <time>2013-08-13T18:20:17.656Z</time>
      </trkpt>
      <trkpt lat="48.88252" lon="2.34148">
        <ele>106.7</ele>
        <time>2013-08-13T18:20:19.606Z</time>
      </trkpt>
      <trkpt lat="48.88253" lon="2.34155">
        <ele>107.3</ele>
        <time>2013-08-13T18:20:20.624Z</time>
      </trkpt>
      <trkpt lat="48.88254" lon="2.34161">
        <ele>105.9</ele>
        <time>2013-08-13T18:20:21.623Z</time>
      </trkpt>
      <trkpt lat="48.88256" lon="2.34168">
        <ele>106.7</ele>
        <time>2013-08-13T18:20:22.674Z</time>
      </trkpt>
      <trkpt lat="48.88257" lon="2.34175">
        <ele>106.3</ele>
        <time>2013-08-13T18:20:23.647Z</time>
      </trkpt>
      <trkpt lat="48.88258" lon="2.34182">
        <ele>106.9</ele>
        <time>2013-08-13T18:20:24.636Z</time>
      </trkpt>
      <trkpt lat="48.88259" lon="2.34189">
        <ele>106.4</ele>
        <time>2013-08-13T18:20:25.633Z</time>
      </trkpt>
      <trkpt lat="48.88261" lon="2.34196">
        <ele>105.5</ele>
        <time>2013-08-13T18:20:26.636Z</time>
      </trkpt>
      <trkpt lat="48.88262" lon="2.34203">
        <ele>105.5</ele>
        <time>2013-08-13T18:20:27.633Z</time>
      </trkpt>
      <trkpt lat="48.88263" lon="2.3421">
        <ele>105.1</ele>
        <time>2013-08-13T18:20:28.607Z</time>
      </trkpt>
      <trkpt lat="48.88267" lon="2.34222">
        <ele>102.2</ele>
        <time>2013-08-13T18:20:30.621Z</time>
      </trkpt>
      <trkpt lat="48.88268" lon="2.34226">
        <ele>103.2</ele>
        <time>2013-08-13T18:20:31.616Z</time>
      </trkpt>
      <trkpt lat="48.88271" lon="2.34238">
        <ele>100.7</ele>
        <time>2013-08-13T18:20:34.650Z</time>
      </trkpt>
      <trkpt lat="48.88272" lon="2.34242">
        <ele>102.7</ele>
        <time>2013-08-13T18:20:35.658Z</time>
      </trkpt>
      <trkpt lat="48.88275" lon="2.34251">
        <ele>103.3</ele>
        <time>2013-08-13T18:20:37.640Z</time>
      </trkpt>
      <trkpt lat="48.88276" lon="2.34256">
        <ele>102</ele>
        <time>2013-08-13T18:20:38.782Z</time>
      </trkpt>
      <trkpt lat="48.88279" lon="2.34266">
        <ele>102.7</ele>
        <time>2013-08-13T18:20:40.629Z</time>
      </trkpt>
      <trkpt lat="48.88281" lon="2.34273">
        <ele>102.9</ele>
        <time>2013-08-13T18:20:41.625Z</time>
      </trkpt>
      <trkpt lat="48.88282" lon="2.3428">
        <ele>102.7</ele>
        <time>2013-08-13T18:20:42.674Z</time>
      </trkpt>
      <trkpt lat="48.88282" lon="2.34288">
        <ele>103.1</ele>
        <time>2013-08-13T18:20:43.627Z</time>
      </trkpt>
      <trkpt lat="48.88283" lon="2.34296">
        <ele>104.9</ele>
        <time>2013-08-13T18:20:44.621Z</time>
      </trkpt>
      <trkpt lat="48.88284" lon="2.34303">
        <ele>102</ele>
        <time>2013-08-13T18:20:45.624Z</time>
      </trkpt>
      <trkpt lat="48.88285" lon="2.34311">
        <ele>101</ele>
        <time>2013-08-13T18:20:46.609Z</time>
      </trkpt>
      <trkpt lat="48.88286" lon="2.34319">
        <ele>100.7</ele>
        <time>2013-08-13T18:20:47.642Z</time>
      </trkpt>
      <trkpt lat="48.88287" lon="2.34326">
        <ele>101.7</ele>
        <time>2013-08-13T18:20:48.651Z</time>
      </trkpt>
      <trkpt lat="48.88288" lon="2.34332">
        <ele>103.2</ele>
        <time>2013-08-13T18:20:49.616Z</time>
      </trkpt>
      <trkpt lat="48.88289" lon="2.34339">
        <ele>105.4</ele>
        <time>2013-08-13T18:20:50.654Z</time>
      </trkpt>
      <trkpt lat="48.8829" lon="2.34346">
        <ele>108.1</ele>
        <time>2013-08-13T18:20:51.627Z</time>
      </trkpt>
      <trkpt lat="48.88291" lon="2.34354">
        <ele>109.9</ele>
        <time>2013-08-13T18:20:52.610Z</time>
      </trkpt>
      <trkpt lat="48.88292" lon="2.34363">
        <ele>107.4</ele>
        <time>2013-08-13T18:20:53.643Z</time>
      </trkpt>
      <trkpt lat="48.88292" lon="2.34373">
        <ele>109.2</ele>
        <time>2013-08-13T18:20:54.612Z</time>
      </trkpt>
      <trkpt lat="48.88293" lon="2.34383">
        <ele>110.8</ele>
        <time>2013-08-13T18:20:55.643Z</time>
      </trkpt>
      <trkpt lat="48.88294" lon="2.34393">
        <ele>111.6</ele>
        <time>2013-08-13T18:20:56.637Z</time>
      </trkpt>
      <trkpt lat="48.88296" lon="2.34403">
        <ele>112</ele>
        <time>2013-08-13T18:20:57.646Z</time>
      </trkpt>
      <trkpt lat="48.88297" lon="2.34418">
        <ele>113</ele>
        <time>2013-08-13T18:20:58.640Z</time>
      </trkpt>
      <trkpt lat="48.88298" lon="2.3443">
        <ele>112.4</ele>
        <time>2013-08-13T18:20:59.619Z</time>
      </trkpt>
      <trkpt lat="48.883" lon="2.3444">
        <ele>113.3</ele>
        <time>2013-08-13T18:21:00.635Z</time>
      </trkpt>
      <trkpt lat="48.88302" lon="2.34449">
        <ele>113.7</ele>
        <time>2013-08-13T18:21:01.634Z</time>
      </trkpt>
      <trkpt lat="48.88304" lon="2.34456">
        <ele>113.7</ele>
        <time>2013-08-13T18:21:02.624Z</time>
      </trkpt>
      <trkpt lat="48.88306" lon="2.34463">
        <ele>113.4</ele>
        <time>2013-08-13T18:21:03.598Z</time>
      </trkpt>
      <trkpt lat="48.88308" lon="2.3447">
        <ele>113.6</ele>
        <time>2013-08-13T18:21:04.636Z</time>
      </trkpt>
      <trkpt lat="48.88311" lon="2.34482">
        <ele>108.1</ele>
        <time>2013-08-13T18:21:06.637Z</time>
      </trkpt>
      <trkpt lat="48.88313" lon="2.34487">
        <ele>107.9</ele>
        <time>2013-08-13T18:21:07.617Z</time>
      </trkpt>
      <trkpt lat="48.88314" lon="2.34497">
        <ele>105</ele>
        <time>2013-08-13T18:21:09.625Z</time>
      </trkpt>
      <trkpt lat="48.88315" lon="2.34502">
        <ele>104.4</ele>
        <time>2013-08-13T18:21:10.635Z</time>
      </trkpt>
      <trkpt lat="48.88317" lon="2.3451">
        <ele>103.3</ele>
        <time>2013-08-13T18:21:12.621Z</time>
      </trkpt>
      <trkpt lat="48.88318" lon="2.34515">
        <ele>104.1</ele>
        <time>2013-08-13T18:21:13.645Z</time>
      </trkpt>
      <trkpt lat="48.88321" lon="2.34526">
        <ele>105.5</ele>
        <time>2013-08-13T18:21:15.646Z</time>
      </trkpt>
      <trkpt lat="48.88323" lon="2.34533">
        <ele>105</ele>
        <time>2013-08-13T18:21:16.645Z</time>
      </trkpt>
      <trkpt lat="48.88325" lon="2.3454">
        <ele>106.6</ele>
        <time>2013-08-13T18:21:17.651Z</time>
      </trkpt>
      <trkpt lat="48.88326" lon="2.34546">
        <ele>106.7</ele>
        <time>2013-08-13T18:21:18.617Z</time>
      </trkpt>
      <trkpt lat="48.88328" lon="2.34553">
        <ele>107.1</ele>
        <time>2013-08-13T18:21:19.618Z</time>
      </trkpt>
      <trkpt lat="48.8833" lon="2.3456">
        <ele>108.6</ele>
        <time>2013-08-13T18:21:20.638Z</time>
      </trkpt>
      <trkpt lat="48.88331" lon="2.34567">
        <ele>107.7</ele>
        <time>2013-08-13T18:21:21.627Z</time>
      </trkpt>
      <trkpt lat="48.88333" lon="2.34574">
        <ele>106.3</ele>
        <time>2013-08-13T18:21:22.624Z</time>
      </trkpt>
      <trkpt lat="48.88335" lon="2.3458">
        <ele>105.9</ele>
        <time>2013-08-13T18:21:23.608Z</time>
      </trkpt>
      <trkpt lat="48.88338" lon="2.34586">
        <ele>106.4</ele>
        <time>2013-08-13T18:21:24.665Z</time>
      </trkpt>
      <trkpt lat="48.88341" lon="2.34597">
        <ele>100.9</ele>
        <time>2013-08-13T18:21:26.695Z</time>
      </trkpt>
      <trkpt lat="48.88342" lon="2.34602">
        <ele>100.7</ele>
        <time>2013-08-13T18:21:27.635Z</time>
      </trkpt>
      <trkpt lat="48.88342" lon="2.34613">
        <ele>100.6</ele>
        <time>2013-08-13T18:21:29.641Z</time>
      </trkpt>
      <trkpt lat="48.88343" lon="2.34618">
        <ele>100.7</ele>
        <time>2013-08-13T18:21:30.640Z</time>
      </trkpt>
      <trkpt lat="48.88343" lon="2.3463">
        <ele>99.7</ele>
        <time>2013-08-13T18:21:33.717Z</time>
      </trkpt>
      <trkpt lat="48.88343" lon="2.34633">
        <ele>100</ele>
        <time>2013-08-13T18:21:34.615Z</time>
      </trkpt>
      <trkpt lat="48.8834" lon="2.34645">
        <ele>102</ele>
        <time>2013-08-13T18:21:40.647Z</time>
      </trkpt>
      <trkpt lat="48.88339" lon="2.34646">
        <ele>103.7</ele>
        <time>2013-08-13T18:21:41.635Z</time>
      </trkpt>
      <trkpt lat="48.88336" lon="2.34644">
        <ele>107.5</ele>
        <time>2013-08-13T18:21:48.662Z</time>
      </trkpt>
      <trkpt lat="48.88336" lon="2.34645">
        <ele>107.7</ele>
        <time>2013-08-13T18:21:49.623Z</time>
      </trkpt>
      <trkpt lat="48.88336" lon="2.34647">
        <ele>107.4</ele>
        <time>2013-08-13T18:21:50.665Z</time>
      </trkpt>
      <trkpt lat="48.88332" lon="2.34658">
        <ele>106.7</ele>
        <time>2013-08-13T18:22:08.636Z</time>
      </trkpt>
      <trkpt lat="48.88333" lon="2.34661">
        <ele>107.2</ele>
        <time>2013-08-13T18:22:09.644Z</time>
      </trkpt>
      <trkpt lat="48.88337" lon="2.3467">
        <ele>110.9</ele>
        <time>2013-08-13T18:22:12.623Z</time>
      </trkpt>
      <trkpt lat="48.88338" lon="2.34675">
        <ele>112.9</ele>
        <time>2013-08-13T18:22:13.657Z</time>
      </trkpt>
      <trkpt lat="48.88338" lon="2.34686">
        <ele>118.3</ele>
        <time>2013-08-13T18:22:15.667Z</time>
      </trkpt>
      <trkpt lat="48.88338" lon="2.34694">
        <ele>119.7</ele>
        <time>2013-08-13T18:22:16.657Z</time>
      </trkpt>
      <trkpt lat="48.88339" lon="2.34703">
        <ele>121.3</ele>
        <time>2013-08-13T18:22:17.646Z</time>
      </trkpt>
      <trkpt lat="48.88339" lon="2.34712">
        <ele>121.5</ele>
        <time>2013-08-13T18:22:18.646Z</time>
      </trkpt>
      <trkpt lat="48.88341" lon="2.34728">
        <ele>121.1</ele>
        <time>2013-08-13T18:22:19.638Z</time>
      </trkpt>
      <trkpt lat="48.88343" lon="2.34743">
        <ele>120.7</ele>
        <time>2013-08-13T18:22:20.634Z</time>
      </trkpt>
      <trkpt lat="48.88344" lon="2.34758">
        <ele>121.6</ele>
        <time>2013-08-13T18:22:21.648Z</time>
      </trkpt>
      <trkpt lat="48.88347" lon="2.34771">
        <ele>121.7</ele>
        <time>2013-08-13T18:22:22.673Z</time>
      </trkpt>
      <trkpt lat="48.88349" lon="2.34782">
        <ele>121.6</ele>
        <time>2013-08-13T18:22:23.619Z</time>
      </trkpt>
      <trkpt lat="48.88354" lon="2.34794">
        <ele>121.3</ele>
        <time>2013-08-13T18:22:24.663Z</time>
      </trkpt>
      <trkpt lat="48.88358" lon="2.34804">
        <ele>120.6</ele>
        <time>2013-08-13T18:22:25.623Z</time>
      </trkpt>
      <trkpt lat="48.88362" lon="2.34814">
        <ele>121</ele>
        <time>2013-08-13T18:22:26.656Z</time>
      </trkpt>
      <trkpt lat="48.88364" lon="2.34823">
        <ele>120.9</ele>
        <time>2013-08-13T18:22:27.635Z</time>
      </trkpt>
      <trkpt lat="48.88365" lon="2.34832">
        <ele>121.5</ele>
        <time>2013-08-13T18:22:28.675Z</time>
      </trkpt>
      <trkpt lat="48.88367" lon="2.34839">
        <ele>120.8</ele>
        <time>2013-08-13T18:22:29.669Z</time>
      </trkpt>
      <trkpt lat="48.8837" lon="2.34846">
        <ele>120.9</ele>
        <time>2013-08-13T18:22:30.685Z</time>
      </trkpt>
      <trkpt lat="48.88372" lon="2.34853">
        <ele>120.8</ele>
        <time>2013-08-13T18:22:31.633Z</time>
      </trkpt>
      <trkpt lat="48.88373" lon="2.3486">
        <ele>120.4</ele>
        <time>2013-08-13T18:22:32.656Z</time>
      </trkpt>
      <trkpt lat="48.88372" lon="2.34868">
        <ele>121.1</ele>
        <time>2013-08-13T18:22:33.658Z</time>
      </trkpt>
      <trkpt lat="48.88371" lon="2.34874">
        <ele>121.9</ele>
        <time>2013-08-13T18:22:34.624Z</time>
      </trkpt>
      <trkpt lat="48.88369" lon="2.34887">
        <ele>121.3</ele>
        <time>2013-08-13T18:22:36.619Z</time>
      </trkpt>
      <trkpt lat="48.88369" lon="2.34893">
        <ele>121.7</ele>
        <time>2013-08-13T18:22:37.627Z</time>
      </trkpt>
      <trkpt lat="48.88372" lon="2.34904">
        <ele>125.8</ele>
        <time>2013-08-13T18:22:39.624Z</time>
      </trkpt>
      <trkpt lat="48.88373" lon="2.34909">
        <ele>124.6</ele>
        <time>2013-08-13T18:22:40.677Z</time>
      </trkpt>
      <trkpt lat="48.88372" lon="2.34921">
        <ele>119.1</ele>
        <time>2013-08-13T18:22:43.879Z</time>
      </trkpt>
      <trkpt lat="48.88371" lon="2.34924">
        <ele>119.5</ele>
        <time>2013-08-13T18:22:44.864Z</time>
      </trkpt>
      <trkpt lat="48.88363" lon="2.34928">
        <ele>121.5</ele>
        <time>2013-08-13T18:22:55.651Z</time>
      </trkpt>
      <trkpt lat="48.88362" lon="2.34928">
        <ele>121.5</ele>
        <time>2013-08-13T18:22:56.650Z</time>
      </trkpt>
      <trkpt lat="48.88362" lon="2.34928">
        <ele>121.4</ele>
        <time>2013-08-13T18:23:00.633Z</time>
      </trkpt>
      <trkpt lat="48.88362" lon="2.34929">
        <ele>121.2</ele>
        <time>2013-08-13T18:23:01.608Z</time>
      </trkpt>
      <trkpt lat="48.88361" lon="2.34929">
        <ele>118.2</ele>
        <time>2013-08-13T18:23:25.603Z</time>
      </trkpt>
      <trkpt lat="48.8836" lon="2.34929">
        <ele>116</ele>
        <time>2013-08-13T18:23:26.601Z</time>
      </trkpt>
      <trkpt lat="48.88361" lon="2.34936">
        <ele>116.7</ele>
        <time>2013-08-13T18:23:40.628Z</time>
      </trkpt>
      <trkpt lat="48.88361" lon="2.34936">
        <ele>116.5</ele>
        <time>2013-08-13T18:23:41.665Z</time>
      </trkpt>
      <trkpt lat="48.8836" lon="2.34936">
        <ele>115.8</ele>
        <time>2013-08-13T18:23:42.649Z</time>
      </trkpt>
      <trkpt lat="48.8836" lon="2.34936">
        <ele>115.5</ele>
        <time>2013-08-13T18:23:43.603Z</time>
      </trkpt>
      <trkpt lat="48.88358" lon="2.34936">
        <ele>116.2</ele>
        <time>2013-08-13T18:23:47.645Z</time>
      </trkpt>
      <trkpt lat="48.88358" lon="2.34936">
        <ele>116.3</ele>
        <time>2013-08-13T18:23:48.615Z</time>
      </trkpt>
      <trkpt lat="48.88359" lon="2.34937">
        <ele>116.7</ele>
        <time>2013-08-13T18:24:30.643Z</time>
      </trkpt>
      <trkpt lat="48.88359" lon="2.34938">
        <ele>118.4</ele>
        <time>2013-08-13T18:24:31.621Z</time>
      </trkpt>
      <trkpt lat="48.88362" lon="2.34949">
        <ele>118.2</ele>
        <time>2013-08-13T18:24:36.631Z</time>
      </trkpt>
      <trkpt lat="48.88364" lon="2.34952">
        <ele>119.6</ele>
        <time>2013-08-13T18:24:37.626Z</time>
      </trkpt>
      <trkpt lat="48.88367" lon="2.34961">
        <ele>121.7</ele>
        <time>2013-08-13T18:24:40.617Z</time>
      </trkpt>
      <trkpt lat="48.88367" lon="2.34964">
        <ele>122.2</ele>
        <time>2013-08-13T18:24:41.627Z</time>
      </trkpt>
      <trkpt lat="48.88369" lon="2.34975">
        <ele>122.1</ele>
        <time>2013-08-13T18:24:44.631Z</time>
      </trkpt>
      <trkpt lat="48.8837" lon="2.3498">
        <ele>122.4</ele>
        <time>2013-08-13T18:24:45.628Z</time>
      </trkpt>
      <trkpt lat="48.88372" lon="2.34989">
        <ele>122.1</ele>
        <time>2013-08-13T18:24:47.624Z</time>
      </trkpt>
      <trkpt lat="48.88373" lon="2.34994">
        <ele>120.2</ele>
        <time>2013-08-13T18:24:48.671Z</time>
      </trkpt>
      <trkpt lat="48.88376" lon="2.35003">
        <ele>120.5</ele>
        <time>2013-08-13T18:24:50.624Z</time>
      </trkpt>
      <trkpt lat="48.88378" lon="2.35008">
        <ele>120.1</ele>
        <time>2013-08-13T18:24:51.628Z</time>
      </trkpt>
      <trkpt lat="48.88381" lon="2.35019">
        <ele>120.3</ele>
        <time>2013-08-13T18:24:53.668Z</time>
      </trkpt>
      <trkpt lat="48.88383" lon="2.35025">
        <ele>121.5</ele>
        <time>2013-08-13T18:24:54.632Z</time>
      </trkpt>
      <trkpt lat="48.88386" lon="2.35036">
        <ele>121.2</ele>
        <time>2013-08-13T18:24:56.630Z</time>
      </trkpt>
      <trkpt lat="48.88388" lon="2.35041">
        <ele>121.1</ele>
        <time>2013-08-13T18:24:57.845Z</time>
      </trkpt>
      <trkpt lat="48.88391" lon="2.35052">
        <ele>120.1</ele>
        <time>2013-08-13T18:24:59.888Z</time>
      </trkpt>
      <trkpt lat="48.88392" lon="2.35056">
        <ele>118.4</ele>
        <time>2013-08-13T18:25:00.714Z</time>
      </trkpt>
      <trkpt lat="48.88394" lon="2.35066">
        <ele>118</ele>
        <time>2013-08-13T18:25:02.649Z</time>
      </trkpt>
      <trkpt lat="48.88395" lon="2.35071">
        <ele>117.8</ele>
        <time>2013-08-13T18:25:03.627Z</time>
      </trkpt>
      <trkpt lat="48.88397" lon="2.35081">
        <ele>115.8</ele>
        <time>2013-08-13T18:25:05.642Z</time>
      </trkpt>
      <trkpt lat="48.88397" lon="2.35086">
        <ele>115.5</ele>
        <time>2013-08-13T18:25:06.643Z</time>
      </trkpt>
      <trkpt lat="48.88396" lon="2.35097">
        <ele>114.6</ele>
        <time>2013-08-13T18:25:09.662Z</time>
      </trkpt>
      <trkpt lat="48.88394" lon="2.351">
        <ele>114.8</ele>
        <time>2013-08-13T18:25:10.648Z</time>
      </trkpt>
      <trkpt lat="48.88389" lon="2.35107">
        <ele>113</ele>
        <time>2013-08-13T18:25:12.632Z</time>
      </trkpt>
      <trkpt lat="48.88387" lon="2.3511">
        <ele>110.9</ele>
        <time>2013-08-13T18:25:13.636Z</time>
      </trkpt>
      <trkpt lat="48.88382" lon="2.3512">
        <ele>108.7</ele>
        <time>2013-08-13T18:25:16.654Z</time>
      </trkpt>
      <trkpt lat="48.88382" lon="2.35122">
        <ele>110.2</ele>
        <time>2013-08-13T18:25:17.636Z</time>
      </trkpt>
      <trkpt lat="48.88382" lon="2.35132">
        <ele>110.1</ele>
        <time>2013-08-13T18:25:22.620Z</time>
      </trkpt>
      <trkpt lat="48.88382" lon="2.35137">
        <ele>110.9</ele>
        <time>2013-08-13T18:25:24.004Z</time>
      </trkpt>
      <trkpt lat="48.88384" lon="2.35148">
        <ele>113.2</ele>
        <time>2013-08-13T18:25:26.626Z</time>
      </trkpt>
      <trkpt lat="48.88384" lon="2.35152">
        <ele>114</ele>
        <time>2013-08-13T18:25:27.719Z</time>
      </trkpt>
      <trkpt lat="48.88385" lon="2.35162">
        <ele>114.4</ele>
        <time>2013-08-13T18:25:29.668Z</time>
      </trkpt>
      <trkpt lat="48.88386" lon="2.35167">
        <ele>113.5</ele>
        <time>2013-08-13T18:25:30.655Z</time>
      </trkpt>
      <trkpt lat="48.88387" lon="2.35177">
        <ele>113.2</ele>
        <time>2013-08-13T18:25:32.633Z</time>
      </trkpt>
      <trkpt lat="48.88388" lon="2.35182">
        <ele>113.6</ele>
        <time>2013-08-13T18:25:33.638Z</time>
      </trkpt>
      <trkpt lat="48.88389" lon="2.35191">
        <ele>113.2</ele>
        <time>2013-08-13T18:25:35.634Z</time>
      </trkpt>
      <trkpt lat="48.8839" lon="2.35196">
        <ele>113.8</ele>
        <time>2013-08-13T18:25:36.658Z</time>
      </trkpt>
      <trkpt lat="48.88391" lon="2.35209">
        <ele>111.9</ele>
        <time>2013-08-13T18:25:39.629Z</time>
      </trkpt>
      <trkpt lat="48.88391" lon="2.35214">
        <ele>111.8</ele>
        <time>2013-08-13T18:25:40.641Z</time>
      </trkpt>
      <trkpt lat="48.88392" lon="2.35226">
        <ele>111.8</ele>
        <time>2013-08-13T18:25:42.683Z</time>
      </trkpt>
      <trkpt lat="48.88392" lon="2.35234">
        <ele>113.1</ele>
        <time>2013-08-13T18:25:43.615Z</time>
      </trkpt>
      <trkpt lat="48.88392" lon="2.35242">
        <ele>113.6</ele>
        <time>2013-08-13T18:25:44.637Z</time>
      </trkpt>
      <trkpt lat="48.88392" lon="2.35251">
        <ele>112.7</ele>
        <time>2013-08-13T18:25:45.641Z</time>
      </trkpt>
      <trkpt lat="48.88392" lon="2.35259">
        <ele>112.9</ele>
        <time>2013-08-13T18:25:46.615Z</time>
      </trkpt>
      <trkpt lat="48.88392" lon="2.35267">
        <ele>110.9</ele>
        <time>2013-08-13T18:25:47.666Z</time>
      </trkpt>
      <trkpt lat="48.88392" lon="2.35274">
        <ele>109.1</ele>
        <time>2013-08-13T18:25:48.641Z</time>
      </trkpt>
      <trkpt lat="48.88392" lon="2.35281">
        <ele>108</ele>
        <time>2013-08-13T18:25:49.645Z</time>
      </trkpt>
      <trkpt lat="48.88393" lon="2.35294">
        <ele>107.9</ele>
        <time>2013-08-13T18:25:51.636Z</time>
      </trkpt>
      <trkpt lat="48.88394" lon="2.35301">
        <ele>107.3</ele>
        <time>2013-08-13T18:25:52.664Z</time>
      </trkpt>
      <trkpt lat="48.88395" lon="2.35314">
        <ele>104.7</ele>
        <time>2013-08-13T18:25:54.637Z</time>
      </trkpt>
      <trkpt lat="48.88395" lon="2.3532">
        <ele>104.6</ele>
        <time>2013-08-13T18:25:55.650Z</time>
      </trkpt>
      <trkpt lat="48.88396" lon="2.35333">
        <ele>103.4</ele>
        <time>2013-08-13T18:25:57.645Z</time>
      </trkpt>
      <trkpt lat="48.88397" lon="2.3534">
        <ele>102</ele>
        <time>2013-08-13T18:25:58.648Z</time>
      </trkpt>
      <trkpt lat="48.88397" lon="2.35353">
        <ele>101.5</ele>
        <time>2013-08-13T18:26:00.769Z</time>
      </trkpt>
      <trkpt lat="48.88398" lon="2.35359">
        <ele>100.2</ele>
        <time>2013-08-13T18:26:01.712Z</time>
      </trkpt>
      <trkpt lat="48.88398" lon="2.35371">
        <ele>97.6</ele>
        <time>2013-08-13T18:26:03.688Z</time>
      </trkpt>
      <trkpt lat="48.88398" lon="2.35376">
        <ele>96.9</ele>
        <time>2013-08-13T18:26:04.796Z</time>
      </trkpt>
      <trkpt lat="48.88399" lon="2.35389">
        <ele>97.5</ele>
        <time>2013-08-13T18:26:07.656Z</time>
      </trkpt>
      <trkpt lat="48.88399" lon="2.35394">
        <ele>97.2</ele>
        <time>2013-08-13T18:26:08.708Z</time>
      </trkpt>
      <trkpt lat="48.884" lon="2.35405">
        <ele>96.2</ele>
        <time>2013-08-13T18:26:10.637Z</time>
      </trkpt>
      <trkpt lat="48.88401" lon="2.3541">
        <ele>95.5</ele>
        <time>2013-08-13T18:26:11.627Z</time>
      </trkpt>
      <trkpt lat="48.88402" lon="2.35423">
        <ele>94.1</ele>
        <time>2013-08-13T18:26:13.685Z</time>
      </trkpt>
      <trkpt lat="48.88403" lon="2.35429">
        <ele>94.9</ele>
        <time>2013-08-13T18:26:14.636Z</time>
      </trkpt>
      <trkpt lat="48.88404" lon="2.35442">
        <ele>96.1</ele>
        <time>2013-08-13T18:26:16.636Z</time>
      </trkpt>
      <trkpt lat="48.88405" lon="2.35448">
        <ele>96.1</ele>
        <time>2013-08-13T18:26:17.653Z</time>
      </trkpt>
      <trkpt lat="48.88406" lon="2.35455">
        <ele>96</ele>
        <time>2013-08-13T18:26:18.642Z</time>
      </trkpt>
      <trkpt lat="48.88406" lon="2.35462">
        <ele>95.9</ele>
        <time>2013-08-13T18:26:19.664Z</time>
      </trkpt>
      <trkpt lat="48.88407" lon="2.35475">
        <ele>94.6</ele>
        <time>2013-08-13T18:26:21.637Z</time>
      </trkpt>
      <trkpt lat="48.88408" lon="2.35482">
        <ele>95.5</ele>
        <time>2013-08-13T18:26:22.670Z</time>
      </trkpt>
      <trkpt lat="48.88409" lon="2.35489">
        <ele>96.6</ele>
        <time>2013-08-13T18:26:23.646Z</time>
      </trkpt>
      <trkpt lat="48.88409" lon="2.35496">
        <ele>96.8</ele>
        <time>2013-08-13T18:26:24.642Z</time>
      </trkpt>
      <trkpt lat="48.8841" lon="2.35508">
        <ele>97.3</ele>
        <time>2013-08-13T18:26:26.660Z</time>
      </trkpt>
      <trkpt lat="48.8841" lon="2.35513">
        <ele>97.7</ele>
        <time>2013-08-13T18:26:27.656Z</time>
      </trkpt>
      <trkpt lat="48.88411" lon="2.35522">
        <ele>99.1</ele>
        <time>2013-08-13T18:26:29.637Z</time>
      </trkpt>
      <trkpt lat="48.88411" lon="2.35528">
        <ele>100</ele>
        <time>2013-08-13T18:26:30.651Z</time>
      </trkpt>
      <trkpt lat="48.88414" lon="2.35538">
        <ele>100.9</ele>
        <time>2013-08-13T18:26:32.679Z</time>
      </trkpt>
      <trkpt lat="48.88415" lon="2.35542">
        <ele>102.1</ele>
        <time>2013-08-13T18:26:33.645Z</time>
      </trkpt>
      <trkpt lat="48.88419" lon="2.35549">
        <ele>103.1</ele>
        <time>2013-08-13T18:26:35.699Z</time>
      </trkpt>
      <trkpt lat="48.88421" lon="2.35553">
        <ele>103.2</ele>
        <time>2013-08-13T18:26:36.630Z</time>
      </trkpt>
      <trkpt lat="48.88424" lon="2.35561">
        <ele>102.1</ele>
        <time>2013-08-13T18:26:38.661Z</time>
      </trkpt>
      <trkpt lat="48.88425" lon="2.35566">
        <ele>102.7</ele>
        <time>2013-08-13T18:26:39.674Z</time>
      </trkpt>
      <trkpt lat="48.88426" lon="2.35576">
        <ele>103.8</ele>
        <time>2013-08-13T18:26:41.640Z</time>
      </trkpt>
      <trkpt lat="48.88427" lon="2.35581">
        <ele>103.5</ele>
        <time>2013-08-13T18:26:42.673Z</time>
      </trkpt>
      <trkpt lat="48.88427" lon="2.35591">
        <ele>102.2</ele>
        <time>2013-08-13T18:26:44.627Z</time>
      </trkpt>
      <trkpt lat="48.88428" lon="2.35595">
        <ele>102.9</ele>
        <time>2013-08-13T18:26:45.654Z</time>
      </trkpt>
      <trkpt lat="48.88427" lon="2.35608">
        <ele>106.3</ele>
        <time>2013-08-13T18:26:48.679Z</time>
      </trkpt>
      <trkpt lat="48.88426" lon="2.35612">
        <ele>105.1</ele>
        <time>2013-08-13T18:26:49.651Z</time>
      </trkpt>
      <trkpt lat="48.88424" lon="2.35624">
        <ele>104.3</ele>
        <time>2013-08-13T18:26:52.646Z</time>
      </trkpt>
      <trkpt lat="48.88424" lon="2.35628">
        <ele>105.4</ele>
        <time>2013-08-13T18:26:53.666Z</time>
      </trkpt>
      <trkpt lat="48.88423" lon="2.35641">
        <ele>105.3</ele>
        <time>2013-08-13T18:26:56.662Z</time>
      </trkpt>
      <trkpt lat="48.88423" lon="2.35646">
        <ele>105.5</ele>
        <time>2013-08-13T18:26:57.619Z</time>
      </trkpt>
      <trkpt lat="48.88424" lon="2.35656">
        <ele>106</ele>
        <time>2013-08-13T18:26:59.674Z</time>
      </trkpt>
      <trkpt lat="48.88425" lon="2.35662">
        <ele>107.2</ele>
        <time>2013-08-13T18:27:00.649Z</time>
      </trkpt>
      <trkpt lat="48.88425" lon="2.35675">
        <ele>107.7</ele>
        <time>2013-08-13T18:27:02.682Z</time>
      </trkpt>
      <trkpt lat="48.88425" lon="2.35681">
        <ele>107.7</ele>
        <time>2013-08-13T18:27:03.621Z</time>
      </trkpt>
      <trkpt lat="48.88424" lon="2.35693">
        <ele>107.3</ele>
        <time>2013-08-13T18:27:05.663Z</time>
      </trkpt>
      <trkpt lat="48.88424" lon="2.35699">
        <ele>108.2</ele>
        <time>2013-08-13T18:27:06.667Z</time>
      </trkpt>
      <trkpt lat="48.88425" lon="2.35711">
        <ele>104.7</ele>
        <time>2013-08-13T18:27:08.685Z</time>
      </trkpt>
      <trkpt lat="48.88426" lon="2.35718">
        <ele>105.2</ele>
        <time>2013-08-13T18:27:09.793Z</time>
      </trkpt>
      <trkpt lat="48.88426" lon="2.35731">
        <ele>104.3</ele>
        <time>2013-08-13T18:27:11.652Z</time>
      </trkpt>
      <trkpt lat="48.88426" lon="2.35739">
        <ele>103.5</ele>
        <time>2013-08-13T18:27:12.729Z</time>
      </trkpt>
      <trkpt lat="48.88426" lon="2.35746">
        <ele>102.9</ele>
        <time>2013-08-13T18:27:13.678Z</time>
      </trkpt>
      <trkpt lat="48.88425" lon="2.35753">
        <ele>102</ele>
        <time>2013-08-13T18:27:14.730Z</time>
      </trkpt>
      <trkpt lat="48.88425" lon="2.35765">
        <ele>102.4</ele>
        <time>2013-08-13T18:27:16.749Z</time>
      </trkpt>
      <trkpt lat="48.88425" lon="2.35771">
        <ele>102.9</ele>
        <time>2013-08-13T18:27:17.694Z</time>
      </trkpt>
      <trkpt lat="48.88424" lon="2.35783">
        <ele>103.8</ele>
        <time>2013-08-13T18:27:19.677Z</time>
      </trkpt>
      <trkpt lat="48.88424" lon="2.35789">
        <ele>104.8</ele>
        <time>2013-08-13T18:27:20.624Z</time>
      </trkpt>
      <trkpt lat="48.88424" lon="2.35801">
        <ele>105.4</ele>
        <time>2013-08-13T18:27:22.655Z</time>
      </trkpt>
      <trkpt lat="48.88424" lon="2.35807">
        <ele>104.8</ele>
        <time>2013-08-13T18:27:23.655Z</time>
      </trkpt>
      <trkpt lat="48.88424" lon="2.35818">
        <ele>104.9</ele>
        <time>2013-08-13T18:27:25.713Z</time>
      </trkpt>
      <trkpt lat="48.88425" lon="2.35824">
        <ele>104.8</ele>
        <time>2013-08-13T18:27:26.754Z</time>
      </trkpt>
      <trkpt lat="48.88426" lon="2.35836">
        <ele>106</ele>
        <time>2013-08-13T18:27:29.705Z</time>
      </trkpt>
      <trkpt lat="48.88427" lon="2.35839">
        <ele>106.1</ele>
        <time>2013-08-13T18:27:30.656Z</time>
      </trkpt>
      <trkpt lat="48.88429" lon="2.35848">
        <ele>106.2</ele>
        <time>2013-08-13T18:27:32.654Z</time>
      </trkpt>
      <trkpt lat="48.8843" lon="2.35853">
        <ele>105.6</ele>
        <time>2013-08-13T18:27:33.802Z</time>
      </trkpt>
      <trkpt lat="48.88433" lon="2.35864">
        <ele>104</ele>
        <time>2013-08-13T18:27:35.695Z</time>
      </trkpt>
      <trkpt lat="48.88433" lon="2.3587">
        <ele>104.3</ele>
        <time>2013-08-13T18:27:36.731Z</time>
      </trkpt>
      <trkpt lat="48.88434" lon="2.35882">
        <ele>103.3</ele>
        <time>2013-08-13T18:27:38.808Z</time>
      </trkpt>
      <trkpt lat="48.88434" lon="2.35887">
        <ele>103.4</ele>
        <time>2013-08-13T18:27:39.734Z</time>
      </trkpt>
      <trkpt lat="48.88435" lon="2.35899">
        <ele>104</ele>
        <time>2013-08-13T18:27:42.766Z</time>
      </trkpt>
      <trkpt lat="48.88435" lon="2.35902">
        <ele>103.9</ele>
        <time>2013-08-13T18:27:43.712Z</time>
      </trkpt>
      <trkpt lat="48.88432" lon="2.35901">
        <ele>106.5</ele>
        <time>2013-08-13T18:27:50.708Z</time>
      </trkpt>
      <trkpt lat="48.88431" lon="2.35901">
        <ele>106.3</ele>
        <time>2013-08-13T18:27:51.652Z</time>
      </trkpt>
      <trkpt lat="48.88431" lon="2.35902">
        <ele>108.4</ele>
        <time>2013-08-13T18:28:18.642Z</time>
      </trkpt>
      <trkpt lat="48.8843" lon="2.35902">
        <ele>106.1</ele>
        <time>2013-08-13T18:28:19.661Z</time>
      </trkpt>
      <trkpt lat="48.8843" lon="2.35915">
        <ele>107.5</ele>
        <time>2013-08-13T18:28:23.699Z</time>
      </trkpt>
      <trkpt lat="48.8843" lon="2.3592">
        <ele>104.9</ele>
        <time>2013-08-13T18:28:24.653Z</time>
      </trkpt>
      <trkpt lat="48.88431" lon="2.35929">
        <ele>104.7</ele>
        <time>2013-08-13T18:28:26.650Z</time>
      </trkpt>
      <trkpt lat="48.88431" lon="2.35934">
        <ele>104.3</ele>
        <time>2013-08-13T18:28:27.647Z</time>
      </trkpt>
      <trkpt lat="48.88431" lon="2.35946">
        <ele>105.2</ele>
        <time>2013-08-13T18:28:30.637Z</time>
      </trkpt>
      <trkpt lat="48.88432" lon="2.35951">
        <ele>105.2</ele>
        <time>2013-08-13T18:28:31.667Z</time>
      </trkpt>
      <trkpt lat="48.88433" lon="2.35961">
        <ele>106.4</ele>
        <time>2013-08-13T18:28:33.683Z</time>
      </trkpt>
      <trkpt lat="48.88433" lon="2.35966">
        <ele>106.8</ele>
        <time>2013-08-13T18:28:34.677Z</time>
      </trkpt>
      <trkpt lat="48.88433" lon="2.35976">
        <ele>107.6</ele>
        <time>2013-08-13T18:28:36.812Z</time>
      </trkpt>
      <trkpt lat="48.88433" lon="2.35981">
        <ele>107.1</ele>
        <time>2013-08-13T18:28:37.677Z</time>
      </trkpt>
      <trkpt lat="48.88434" lon="2.35993">
        <ele>109</ele>
        <time>2013-08-13T18:28:39.656Z</time>
      </trkpt>
      <trkpt lat="48.88434" lon="2.36">
        <ele>109.2</ele>
        <time>2013-08-13T18:28:40.724Z</time>
      </trkpt>
      <trkpt lat="48.88436" lon="2.36012">
        <ele>108.8</ele>
        <time>2013-08-13T18:28:42.700Z</time>
      </trkpt>
      <trkpt lat="48.88437" lon="2.36018">
        <ele>107.7</ele>
        <time>2013-08-13T18:28:43.654Z</time>
      </trkpt>
      <trkpt lat="48.8844" lon="2.36028">
        <ele>107.9</ele>
        <time>2013-08-13T18:28:45.654Z</time>
      </trkpt>
      <trkpt lat="48.88441" lon="2.36032">
        <ele>107.8</ele>
        <time>2013-08-13T18:28:46.646Z</time>
      </trkpt>
      <trkpt lat="48.88443" lon="2.36041">
        <ele>108.2</ele>
        <time>2013-08-13T18:28:48.721Z</time>
      </trkpt>
      <trkpt lat="48.88444" lon="2.36045">
        <ele>108.4</ele>
        <time>2013-08-13T18:28:49.708Z</time>
      </trkpt>
      <trkpt lat="48.88446" lon="2.36055">
        <ele>109.7</ele>
        <time>2013-08-13T18:28:51.674Z</time>
      </trkpt>
      <trkpt lat="48.88446" lon="2.36062">
        <ele>106.8</ele>
        <time>2013-08-13T18:28:53.347Z</time>
      </trkpt>
      <trkpt lat="48.88439" lon="2.36061">
        <ele>107.7</ele>
        <time>2013-08-13T18:29:03.683Z</time>
      </trkpt>
      <trkpt lat="48.88439" lon="2.36062">
        <ele>107.2</ele>
        <time>2013-08-13T18:29:04.684Z</time>
      </trkpt>
      <trkpt lat="48.88439" lon="2.36063">
        <ele>106.3</ele>
        <time>2013-08-13T18:29:06.653Z</time>
      </trkpt>
      <trkpt lat="48.8844" lon="2.36064">
        <ele>105.5</ele>
        <time>2013-08-13T18:29:07.667Z</time>
      </trkpt>
      <trkpt lat="48.88439" lon="2.36077">
        <ele>97.7</ele>
        <time>2013-08-13T18:29:11.669Z</time>
      </trkpt>
      <trkpt lat="48.88439" lon="2.36083">
        <ele>98.1</ele>
        <time>2013-08-13T18:29:13.311Z</time>
      </trkpt>
      <trkpt lat="48.88439" lon="2.36093">
        <ele>97.1</ele>
        <time>2013-08-13T18:29:14.792Z</time>
      </trkpt>
      <trkpt lat="48.88438" lon="2.36099">
        <ele>97.2</ele>
        <time>2013-08-13T18:29:15.674Z</time>
      </trkpt>
      <trkpt lat="48.88438" lon="2.36111">
        <ele>96.2</ele>
        <time>2013-08-13T18:29:17.664Z</time>
      </trkpt>
      <trkpt lat="48.88437" lon="2.36116">
        <ele>95.2</ele>
        <time>2013-08-13T18:29:18.676Z</time>
      </trkpt>
      <trkpt lat="48.88435" lon="2.36127">
        <ele>95</ele>
        <time>2013-08-13T18:29:21.811Z</time>
      </trkpt>
      <trkpt lat="48.88435" lon="2.3613">
        <ele>95.9</ele>
        <time>2013-08-13T18:29:22.886Z</time>
      </trkpt>
      <trkpt lat="48.88436" lon="2.36141">
        <ele>98.1</ele>
        <time>2013-08-13T18:29:25.699Z</time>
      </trkpt>
      <trkpt lat="48.88437" lon="2.36146">
        <ele>98.7</ele>
        <time>2013-08-13T18:29:26.677Z</time>
      </trkpt>
      <trkpt lat="48.8844" lon="2.36157">
        <ele>100.4</ele>
        <time>2013-08-13T18:29:28.649Z</time>
      </trkpt>
      <trkpt lat="48.88441" lon="2.36162">
        <ele>100.3</ele>
        <time>2013-08-13T18:29:29.658Z</time>
      </trkpt>
      <trkpt lat="48.88443" lon="2.36173">
        <ele>102.6</ele>
        <time>2013-08-13T18:29:31.663Z</time>
      </trkpt>
      <trkpt lat="48.88443" lon="2.36178">
        <ele>104.4</ele>
        <time>2013-08-13T18:29:32.697Z</time>
      </trkpt>
      <trkpt lat="48.88443" lon="2.36189">
        <ele>100</ele>
        <time>2013-08-13T18:29:34.658Z</time>
      </trkpt>
      <trkpt lat="48.88442" lon="2.36195">
        <ele>98.4</ele>
        <time>2013-08-13T18:29:35.661Z</time>
      </trkpt>
      <trkpt lat="48.88439" lon="2.36207">
        <ele>95.6</ele>
        <time>2013-08-13T18:29:37.642Z</time>
      </trkpt>
      <trkpt lat="48.88437" lon="2.36214">
        <ele>95.6</ele>
        <time>2013-08-13T18:29:38.768Z</time>
      </trkpt>
      <trkpt lat="48.88436" lon="2.36221">
        <ele>93.1</ele>
        <time>2013-08-13T18:29:39.703Z</time>
      </trkpt>
      <trkpt lat="48.88436" lon="2.36228">
        <ele>92.4</ele>
        <time>2013-08-13T18:29:40.666Z</time>
      </trkpt>
      <trkpt lat="48.88435" lon="2.36235">
        <ele>93.6</ele>
        <time>2013-08-13T18:29:41.688Z</time>
      </trkpt>
      <trkpt lat="48.88435" lon="2.36243">
        <ele>95.3</ele>
        <time>2013-08-13T18:29:42.663Z</time>
      </trkpt>
      <trkpt lat="48.88434" lon="2.3625">
        <ele>96</ele>
        <time>2013-08-13T18:29:43.649Z</time>
      </trkpt>
      <trkpt lat="48.88434" lon="2.36258">
        <ele>96.2</ele>
        <time>2013-08-13T18:29:44.661Z</time>
      </trkpt>
      <trkpt lat="48.88434" lon="2.36265">
        <ele>96.8</ele>
        <time>2013-08-13T18:29:45.656Z</time>
      </trkpt>
      <trkpt lat="48.88434" lon="2.36272">
        <ele>97</ele>
        <time>2013-08-13T18:29:46.684Z</time>
      </trkpt>
      <trkpt lat="48.88434" lon="2.36282">
        <ele>99.9</ele>
        <time>2013-08-13T18:29:48.661Z</time>
      </trkpt>
      <trkpt lat="48.88435" lon="2.36288">
        <ele>100.5</ele>
        <time>2013-08-13T18:29:49.683Z</time>
      </trkpt>
      <trkpt lat="48.88435" lon="2.363">
        <ele>103.6</ele>
        <time>2013-08-13T18:29:51.713Z</time>
      </trkpt>
      <trkpt lat="48.88435" lon="2.36306">
        <ele>109.3</ele>
        <time>2013-08-13T18:29:52.657Z</time>
      </trkpt>
      <trkpt lat="48.88435" lon="2.36318">
        <ele>111.1</ele>
        <time>2013-08-13T18:29:54.669Z</time>
      </trkpt>
      <trkpt lat="48.88436" lon="2.36323">
        <ele>111.5</ele>
        <time>2013-08-13T18:29:55.672Z</time>
      </trkpt>
      <trkpt lat="48.88436" lon="2.36335">
        <ele>111.7</ele>
        <time>2013-08-13T18:29:57.673Z</time>
      </trkpt>
      <trkpt lat="48.88436" lon="2.36341">
        <ele>110</ele>
        <time>2013-08-13T18:29:58.689Z</time>
      </trkpt>
      <trkpt lat="48.88436" lon="2.36348">
        <ele>109.3</ele>
        <time>2013-08-13T18:29:59.670Z</time>
      </trkpt>
      <trkpt lat="48.88436" lon="2.36356">
        <ele>107.9</ele>
        <time>2013-08-13T18:30:00.676Z</time>
      </trkpt>
      <trkpt lat="48.88436" lon="2.36363">
        <ele>106.4</ele>
        <time>2013-08-13T18:30:01.699Z</time>
      </trkpt>
      <trkpt lat="48.88435" lon="2.3637">
        <ele>104.6</ele>
        <time>2013-08-13T18:30:02.642Z</time>
      </trkpt>
      <trkpt lat="48.88435" lon="2.36377">
        <ele>102.9</ele>
        <time>2013-08-13T18:30:03.660Z</time>
      </trkpt>
      <trkpt lat="48.88434" lon="2.36384">
        <ele>101.1</ele>
        <time>2013-08-13T18:30:04.654Z</time>
      </trkpt>
      <trkpt lat="48.88433" lon="2.36391">
        <ele>100.8</ele>
        <time>2013-08-13T18:30:05.664Z</time>
      </trkpt>
      <trkpt lat="48.88432" lon="2.36398">
        <ele>101.4</ele>
        <time>2013-08-13T18:30:06.700Z</time>
      </trkpt>
      <trkpt lat="48.88428" lon="2.3641">
        <ele>101</ele>
        <time>2013-08-13T18:30:08.673Z</time>
      </trkpt>
      <trkpt lat="48.88426" lon="2.36415">
        <ele>100.8</ele>
        <time>2013-08-13T18:30:09.715Z</time>
      </trkpt>
      <trkpt lat="48.88424" lon="2.36428">
        <ele>100.8</ele>
        <time>2013-08-13T18:30:12.670Z</time>
      </trkpt>
      <trkpt lat="48.88424" lon="2.36432">
        <ele>100.9</ele>
        <time>2013-08-13T18:30:13.715Z</time>
      </trkpt>
      <trkpt lat="48.8843" lon="2.36443">
        <ele>101.6</ele>
        <time>2013-08-13T18:30:22.647Z</time>
      </trkpt>
      <trkpt lat="48.8843" lon="2.36443">
        <ele>101.6</ele>
        <time>2013-08-13T18:30:23.884Z</time>
      </trkpt>
      <trkpt lat="48.8843" lon="2.36443">
        <ele>102.3</ele>
        <time>2013-08-13T18:30:25.675Z</time>
      </trkpt>
      <trkpt lat="48.88429" lon="2.36443">
        <ele>102</ele>
        <time>2013-08-13T18:30:26.716Z</time>
      </trkpt>
      <trkpt lat="48.88429" lon="2.36445">
        <ele>102.8</ele>
        <time>2013-08-13T18:30:35.680Z</time>
      </trkpt>
      <trkpt lat="48.8843" lon="2.36447">
        <ele>102.2</ele>
        <time>2013-08-13T18:30:36.677Z</time>
      </trkpt>
      <trkpt lat="48.88431" lon="2.36456">
        <ele>104.1</ele>
        <time>2013-08-13T18:30:39.675Z</time>
      </trkpt>
      <trkpt lat="48.88432" lon="2.3646">
        <ele>104.8</ele>
        <time>2013-08-13T18:30:40.675Z</time>
      </trkpt>
      <trkpt lat="48.88434" lon="2.36469">
        <ele>105.4</ele>
        <time>2013-08-13T18:30:42.687Z</time>
      </trkpt>
      <trkpt lat="48.88435" lon="2.36474">
        <ele>102.8</ele>
        <time>2013-08-13T18:30:43.648Z</time>
      </trkpt>
      <trkpt lat="48.88435" lon="2.36484">
        <ele>102.3</ele>
        <time>2013-08-13T18:30:45.673Z</time>
      </trkpt>
      <trkpt lat="48.88435" lon="2.36489">
        <ele>102.3</ele>
        <time>2013-08-13T18:30:46.643Z</time>
      </trkpt>
      <trkpt lat="48.88434" lon="2.36501">
        <ele>103.6</ele>
        <time>2013-08-13T18:30:48.695Z</time>
      </trkpt>
      <trkpt lat="48.88433" lon="2.36508">
        <ele>105.5</ele>
        <time>2013-08-13T18:30:49.669Z</time>
      </trkpt>
      <trkpt lat="48.88432" lon="2.36514">
        <ele>105.7</ele>
        <time>2013-08-13T18:30:50.664Z</time>
      </trkpt>
      <trkpt lat="48.88432" lon="2.36521">
        <ele>106.1</ele>
        <time>2013-08-13T18:30:51.642Z</time>
      </trkpt>
      <trkpt lat="48.88431" lon="2.36528">
        <ele>106.7</ele>
        <time>2013-08-13T18:30:52.639Z</time>
      </trkpt>
      <trkpt lat="48.88431" lon="2.36535">
        <ele>106.4</ele>
        <time>2013-08-13T18:30:53.699Z</time>
      </trkpt>
      <trkpt lat="48.8843" lon="2.36548">
        <ele>106.2</ele>
        <time>2013-08-13T18:30:55.685Z</time>
      </trkpt>
      <trkpt lat="48.8843" lon="2.36554">
        <ele>105.4</ele>
        <time>2013-08-13T18:30:56.684Z</time>
      </trkpt>
      <trkpt lat="48.88431" lon="2.36567">
        <ele>104.7</ele>
        <time>2013-08-13T18:30:58.685Z</time>
      </trkpt>
      <trkpt lat="48.88431" lon="2.36572">
        <ele>104.7</ele>
        <time>2013-08-13T18:30:59.697Z</time>
      </trkpt>
      <trkpt lat="48.88432" lon="2.36586">
        <ele>103.9</ele>
        <time>2013-08-13T18:31:02.666Z</time>
      </trkpt>
      <trkpt lat="48.88433" lon="2.36589">
        <ele>103.6</ele>
        <time>2013-08-13T18:31:03.649Z</time>
      </trkpt>
      <trkpt lat="48.88431" lon="2.36602">
        <ele>103</ele>
        <time>2013-08-13T18:31:06.651Z</time>
      </trkpt>
      <trkpt lat="48.8843" lon="2.36607">
        <ele>102.1</ele>
        <time>2013-08-13T18:31:07.723Z</time>
      </trkpt>
      <trkpt lat="48.88428" lon="2.36617">
        <ele>102</ele>
        <time>2013-08-13T18:31:09.696Z</time>
      </trkpt>
      <trkpt lat="48.88427" lon="2.36621">
        <ele>101</ele>
        <time>2013-08-13T18:31:10.666Z</time>
      </trkpt>
      <trkpt lat="48.88427" lon="2.3663">
        <ele>99.8</ele>
        <time>2013-08-13T18:31:12.687Z</time>
      </trkpt>
      <trkpt lat="48.88427" lon="2.36635">
        <ele>101</ele>
        <time>2013-08-13T18:31:13.820Z</time>
      </trkpt>
      <trkpt lat="48.88427" lon="2.36643">
        <ele>99.9</ele>
        <time>2013-08-13T18:31:15.726Z</time>
      </trkpt>
      <trkpt lat="48.88426" lon="2.36649">
        <ele>101.6</ele>
        <time>2013-08-13T18:31:17.395Z</time>
      </trkpt>
      <trkpt lat="48.88423" lon="2.36658">
        <ele>101.1</ele>
        <time>2013-08-13T18:31:19.156Z</time>
      </trkpt>
      <trkpt lat="48.88422" lon="2.36662">
        <ele>100.7</ele>
        <time>2013-08-13T18:31:19.707Z</time>
      </trkpt>
      <trkpt lat="48.8842" lon="2.36672">
        <ele>100.6</ele>
        <time>2013-08-13T18:31:21.710Z</time>
      </trkpt>
      <trkpt lat="48.8842" lon="2.36677">
        <ele>100.2</ele>
        <time>2013-08-13T18:31:22.715Z</time>
      </trkpt>
      <trkpt lat="48.88418" lon="2.36688">
        <ele>99.6</ele>
        <time>2013-08-13T18:31:24.656Z</time>
      </trkpt>
      <trkpt lat="48.88417" lon="2.36693">
        <ele>99</ele>
        <time>2013-08-13T18:31:25.846Z</time>
      </trkpt>
      <trkpt lat="48.88416" lon="2.36703">
        <ele>99.4</ele>
        <time>2013-08-13T18:31:27.803Z</time>
      </trkpt>
      <trkpt lat="48.88415" lon="2.36707">
        <ele>98.9</ele>
        <time>2013-08-13T18:31:28.601Z</time>
      </trkpt>
      <trkpt lat="48.88415" lon="2.36718">
        <ele>101.7</ele>
        <time>2013-08-13T18:31:31.603Z</time>
      </trkpt>
      <trkpt lat="48.88415" lon="2.36721">
        <ele>102.4</ele>
        <time>2013-08-13T18:31:32.584Z</time>
      </trkpt>
      <trkpt lat="48.88413" lon="2.36734">
        <ele>100.5</ele>
        <time>2013-08-13T18:31:36.604Z</time>
      </trkpt>
      <trkpt lat="48.88413" lon="2.36736">
        <ele>101</ele>
        <time>2013-08-13T18:31:37.593Z</time>
      </trkpt>
      <trkpt lat="48.88413" lon="2.36747">
        <ele>102.3</ele>
        <time>2013-08-13T18:31:41.603Z</time>
      </trkpt>
      <trkpt lat="48.88413" lon="2.36752">
        <ele>102.3</ele>
        <time>2013-08-13T18:31:42.572Z</time>
      </trkpt>
      <trkpt lat="48.88413" lon="2.36761">
        <ele>103.5</ele>
        <time>2013-08-13T18:31:44.609Z</time>
      </trkpt>
      <trkpt lat="48.88413" lon="2.36766">
        <ele>102.9</ele>
        <time>2013-08-13T18:31:45.618Z</time>
      </trkpt>
      <trkpt lat="48.88414" lon="2.36776">
        <ele>104.8</ele>
        <time>2013-08-13T18:31:48.685Z</time>
      </trkpt>
      <trkpt lat="48.88414" lon="2.3678">
        <ele>103.7</ele>
        <time>2013-08-13T18:31:49.609Z</time>
      </trkpt>
      <trkpt lat="48.88414" lon="2.3679">
        <ele>102.9</ele>
        <time>2013-08-13T18:31:52.581Z</time>
      </trkpt>
      <trkpt lat="48.88413" lon="2.36795">
        <ele>99.6</ele>
        <time>2013-08-13T18:31:53.656Z</time>
      </trkpt>
      <trkpt lat="48.88411" lon="2.36807">
        <ele>98.1</ele>
        <time>2013-08-13T18:31:56.680Z</time>
      </trkpt>
      <trkpt lat="48.8841" lon="2.36811">
        <ele>100.5</ele>
        <time>2013-08-13T18:31:57.738Z</time>
      </trkpt>
      <trkpt lat="48.88408" lon="2.36821">
        <ele>103.6</ele>
        <time>2013-08-13T18:31:59.701Z</time>
      </trkpt>
      <trkpt lat="48.88407" lon="2.36826">
        <ele>104.2</ele>
        <time>2013-08-13T18:32:00.673Z</time>
      </trkpt>
      <trkpt lat="48.88403" lon="2.36833">
        <ele>106.1</ele>
        <time>2013-08-13T18:32:02.615Z</time>
      </trkpt>
      <trkpt lat="48.88401" lon="2.36837">
        <ele>106.4</ele>
        <time>2013-08-13T18:32:03.618Z</time>
      </trkpt>
      <trkpt lat="48.88393" lon="2.36843">
        <ele>108.9</ele>
        <time>2013-08-13T18:32:08.685Z</time>
      </trkpt>
      <trkpt lat="48.88394" lon="2.36842">
        <ele>109.1</ele>
        <time>2013-08-13T18:32:09.652Z</time>
      </trkpt>
      <trkpt lat="48.88394" lon="2.36842">
        <ele>111.6</ele>
        <time>2013-08-13T18:32:35.591Z</time>
      </trkpt>
      <trkpt lat="48.88393" lon="2.36843">
        <ele>112.3</ele>
        <time>2013-08-13T18:32:36.636Z</time>
      </trkpt>
      <trkpt lat="48.88389" lon="2.36852">
        <ele>111.1</ele>
        <time>2013-08-13T18:32:39.606Z</time>
      </trkpt>
      <trkpt lat="48.88387" lon="2.36855">
        <ele>110.4</ele>
        <time>2013-08-13T18:32:40.589Z</time>
      </trkpt>
      <trkpt lat="48.88382" lon="2.36863">
        <ele>107.8</ele>
        <time>2013-08-13T18:32:42.612Z</time>
      </trkpt>
      <trkpt lat="48.88379" lon="2.36867">
        <ele>107.2</ele>
        <time>2013-08-13T18:32:43.644Z</time>
      </trkpt>
      <trkpt lat="48.88372" lon="2.36874">
        <ele>104.8</ele>
        <time>2013-08-13T18:32:45.640Z</time>
      </trkpt>
      <trkpt lat="48.88368" lon="2.36877">
        <ele>104.6</ele>
        <time>2013-08-13T18:32:46.622Z</time>
      </trkpt>
      <trkpt lat="48.88363" lon="2.3688">
        <ele>105.5</ele>
        <time>2013-08-13T18:32:47.629Z</time>
      </trkpt>
      <trkpt lat="48.88359" lon="2.36883">
        <ele>104.1</ele>
        <time>2013-08-13T18:32:48.626Z</time>
      </trkpt>
      <trkpt lat="48.88355" lon="2.36887">
        <ele>104</ele>
        <time>2013-08-13T18:32:49.616Z</time>
      </trkpt>
      <trkpt lat="48.88351" lon="2.3689">
        <ele>103.9</ele>
        <time>2013-08-13T18:32:50.595Z</time>
      </trkpt>
      <trkpt lat="48.88343" lon="2.36896">
        <ele>103.8</ele>
        <time>2013-08-13T18:32:52.594Z</time>
      </trkpt>
      <trkpt lat="48.8834" lon="2.36899">
        <ele>104.6</ele>
        <time>2013-08-13T18:32:53.639Z</time>
      </trkpt>
      <trkpt lat="48.88333" lon="2.36905">
        <ele>105.8</ele>
        <time>2013-08-13T18:32:55.601Z</time>
      </trkpt>
      <trkpt lat="48.88329" lon="2.36909">
        <ele>106.3</ele>
        <time>2013-08-13T18:32:56.616Z</time>
      </trkpt>
      <trkpt lat="48.88324" lon="2.36916">
        <ele>107.1</ele>
        <time>2013-08-13T18:32:58.637Z</time>
      </trkpt>
      <trkpt lat="48.88322" lon="2.3692">
        <ele>106.6</ele>
        <time>2013-08-13T18:32:59.613Z</time>
      </trkpt>
      <trkpt lat="48.88317" lon="2.36927">
        <ele>106</ele>
        <time>2013-08-13T18:33:01.601Z</time>
      </trkpt>
      <trkpt lat="48.88314" lon="2.36931">
        <ele>106.7</ele>
        <time>2013-08-13T18:33:02.653Z</time>
      </trkpt>
      <trkpt lat="48.88309" lon="2.36938">
        <ele>105.5</ele>
        <time>2013-08-13T18:33:04.628Z</time>
      </trkpt>
      <trkpt lat="48.88307" lon="2.36941">
        <ele>104.8</ele>
        <time>2013-08-13T18:33:05.635Z</time>
      </trkpt>
      <trkpt lat="48.88301" lon="2.36948">
        <ele>106.7</ele>
        <time>2013-08-13T18:33:07.604Z</time>
      </trkpt>
      <trkpt lat="48.88299" lon="2.36951">
        <ele>105.5</ele>
        <time>2013-08-13T18:33:08.620Z</time>
      </trkpt>
      <trkpt lat="48.88294" lon="2.36957">
        <ele>103.7</ele>
        <time>2013-08-13T18:33:10.582Z</time>
      </trkpt>
      <trkpt lat="48.88291" lon="2.36961">
        <ele>103.3</ele>
        <time>2013-08-13T18:33:11.617Z</time>
      </trkpt>
      <trkpt lat="48.88284" lon="2.36969">
        <ele>99.4</ele>
        <time>2013-08-13T18:33:14.707Z</time>
      </trkpt>
      <trkpt lat="48.88283" lon="2.36971">
        <ele>99.2</ele>
        <time>2013-08-13T18:33:15.648Z</time>
      </trkpt>
      <trkpt lat="48.88277" lon="2.3698">
        <ele>100.9</ele>
        <time>2013-08-13T18:33:21.621Z</time>
      </trkpt>
      <trkpt lat="48.88276" lon="2.36981">
        <ele>101.1</ele>
        <time>2013-08-13T18:33:22.700Z</time>
      </trkpt>
      <trkpt lat="48.88276" lon="2.3698">
        <ele>101.2</ele>
        <time>2013-08-13T18:33:25.598Z</time>
      </trkpt>
      <trkpt lat="48.88276" lon="2.3698">
        <ele>102</ele>
        <time>2013-08-13T18:33:26.643Z</time>
      </trkpt>
      <trkpt lat="48.88276" lon="2.36978">
        <ele>101.3</ele>
        <time>2013-08-13T18:33:37.602Z</time>
      </trkpt>
      <trkpt lat="48.88276" lon="2.36979">
        <ele>100.3</ele>
        <time>2013-08-13T18:33:38.631Z</time>
      </trkpt>
      <trkpt lat="48.88268" lon="2.36983">
        <ele>101.4</ele>
        <time>2013-08-13T18:33:42.624Z</time>
      </trkpt>
      <trkpt lat="48.88264" lon="2.36984">
        <ele>102.9</ele>
        <time>2013-08-13T18:33:43.639Z</time>
      </trkpt>
      <trkpt lat="48.88257" lon="2.3699">
        <ele>104.2</ele>
        <time>2013-08-13T18:33:46.689Z</time>
      </trkpt>
      <trkpt lat="48.88255" lon="2.36992">
        <ele>104.2</ele>
        <time>2013-08-13T18:33:47.603Z</time>
      </trkpt>
      <trkpt lat="48.88249" lon="2.37">
        <ele>104.5</ele>
        <time>2013-08-13T18:33:50.628Z</time>
      </trkpt>
      <trkpt lat="48.88247" lon="2.37002">
        <ele>104.7</ele>
        <time>2013-08-13T18:33:51.714Z</time>
      </trkpt>
      <trkpt lat="48.88239" lon="2.37007">
        <ele>106.2</ele>
        <time>2013-08-13T18:33:54.754Z</time>
      </trkpt>
      <trkpt lat="48.88236" lon="2.37008">
        <ele>106</ele>
        <time>2013-08-13T18:33:55.661Z</time>
      </trkpt>
      <trkpt lat="48.88227" lon="2.37009">
        <ele>105.8</ele>
        <time>2013-08-13T18:33:58.592Z</time>
      </trkpt>
      <trkpt lat="48.88225" lon="2.3701">
        <ele>106.8</ele>
        <time>2013-08-13T18:33:59.616Z</time>
      </trkpt>
      <trkpt lat="48.88219" lon="2.37011">
        <ele>105.4</ele>
        <time>2013-08-13T18:34:01.597Z</time>
      </trkpt>
      <trkpt lat="48.88216" lon="2.37011">
        <ele>104.9</ele>
        <time>2013-08-13T18:34:02.580Z</time>
      </trkpt>
      <trkpt lat="48.88208" lon="2.3701">
        <ele>103</ele>
        <time>2013-08-13T18:34:04.606Z</time>
      </trkpt>
      <trkpt lat="48.88205" lon="2.3701">
        <ele>102.5</ele>
        <time>2013-08-13T18:34:05.596Z</time>
      </trkpt>
      <trkpt lat="48.88198" lon="2.37009">
        <ele>102</ele>
        <time>2013-08-13T18:34:07.596Z</time>
      </trkpt>
      <trkpt lat="48.88195" lon="2.3701">
        <ele>102.5</ele>
        <time>2013-08-13T18:34:08.618Z</time>
      </trkpt>
      <trkpt lat="48.88188" lon="2.37011">
        <ele>100.1</ele>
        <time>2013-08-13T18:34:10.605Z</time>
      </trkpt>
      <trkpt lat="48.88185" lon="2.37011">
        <ele>98.6</ele>
        <time>2013-08-13T18:34:11.608Z</time>
      </trkpt>
      <trkpt lat="48.88179" lon="2.37012">
        <ele>98.1</ele>
        <time>2013-08-13T18:34:13.604Z</time>
      </trkpt>
      <trkpt lat="48.88175" lon="2.37012">
        <ele>97.4</ele>
        <time>2013-08-13T18:34:14.621Z</time>
      </trkpt>
      <trkpt lat="48.88169" lon="2.37013">
        <ele>98.4</ele>
        <time>2013-08-13T18:34:16.614Z</time>
      </trkpt>
      <trkpt lat="48.88166" lon="2.37013">
        <ele>98.4</ele>
        <time>2013-08-13T18:34:17.615Z</time>
      </trkpt>
      <trkpt lat="48.88159" lon="2.37019">
        <ele>99.8</ele>
        <time>2013-08-13T18:34:20.602Z</time>
      </trkpt>
      <trkpt lat="48.88157" lon="2.37021">
        <ele>99.8</ele>
        <time>2013-08-13T18:34:21.607Z</time>
      </trkpt>
      <trkpt lat="48.88149" lon="2.37023">
        <ele>99.4</ele>
        <time>2013-08-13T18:34:24.599Z</time>
      </trkpt>
      <trkpt lat="48.88147" lon="2.37024">
        <ele>99.2</ele>
        <time>2013-08-13T18:34:25.615Z</time>
      </trkpt>
      <trkpt lat="48.8814" lon="2.37025">
        <ele>101.7</ele>
        <time>2013-08-13T18:34:27.599Z</time>
      </trkpt>
      <trkpt lat="48.88136" lon="2.37026">
        <ele>101.7</ele>
        <time>2013-08-13T18:34:28.612Z</time>
      </trkpt>
      <trkpt lat="48.88132" lon="2.37025">
        <ele>102.2</ele>
        <time>2013-08-13T18:34:29.624Z</time>
      </trkpt>
      <trkpt lat="48.88127" lon="2.37025">
        <ele>102.1</ele>
        <time>2013-08-13T18:34:30.650Z</time>
      </trkpt>
      <trkpt lat="48.88121" lon="2.37023">
        <ele>103.7</ele>
        <time>2013-08-13T18:34:31.655Z</time>
      </trkpt>
      <trkpt lat="48.88116" lon="2.37022">
        <ele>104.1</ele>
        <time>2013-08-13T18:34:32.621Z</time>
      </trkpt>
      <trkpt lat="48.8811" lon="2.3702">
        <ele>103.8</ele>
        <time>2013-08-13T18:34:33.636Z</time>
      </trkpt>
      <trkpt lat="48.88105" lon="2.37019">
        <ele>104.1</ele>
        <time>2013-08-13T18:34:34.663Z</time>
      </trkpt>
      <trkpt lat="48.881" lon="2.37019">
        <ele>106</ele>
        <time>2013-08-13T18:34:35.611Z</time>
      </trkpt>
      <trkpt lat="48.88095" lon="2.37019">
        <ele>105.8</ele>
        <time>2013-08-13T18:34:36.624Z</time>
      </trkpt>
      <trkpt lat="48.88088" lon="2.37019">
        <ele>107.8</ele>
        <time>2013-08-13T18:34:37.606Z</time>
      </trkpt>
      <trkpt lat="48.88081" lon="2.37018">
        <ele>108.4</ele>
        <time>2013-08-13T18:34:38.621Z</time>
      </trkpt>
      <trkpt lat="48.88076" lon="2.37019">
        <ele>109.1</ele>
        <time>2013-08-13T18:34:39.603Z</time>
      </trkpt>
      <trkpt lat="48.8807" lon="2.3702">
        <ele>110</ele>
        <time>2013-08-13T18:34:40.694Z</time>
      </trkpt>
      <trkpt lat="48.88065" lon="2.3702">
        <ele>109.9</ele>
        <time>2013-08-13T18:34:41.624Z</time>
      </trkpt>
      <trkpt lat="48.8806" lon="2.3702">
        <ele>110.3</ele>
        <time>2013-08-13T18:34:42.600Z</time>
      </trkpt>
      <trkpt lat="48.88055" lon="2.37019">
        <ele>110.2</ele>
        <time>2013-08-13T18:34:43.625Z</time>
      </trkpt>
      <trkpt lat="48.88051" lon="2.3702">
        <ele>111</ele>
        <time>2013-08-13T18:34:44.621Z</time>
      </trkpt>
      <trkpt lat="48.88042" lon="2.37022">
        <ele>111.6</ele>
        <time>2013-08-13T18:34:46.623Z</time>
      </trkpt>
      <trkpt lat="48.88038" lon="2.37023">
        <ele>112.3</ele>
        <time>2013-08-13T18:34:47.801Z</time>
      </trkpt>
      <trkpt lat="48.8803" lon="2.37023">
        <ele>114.5</ele>
        <time>2013-08-13T18:34:49.739Z</time>
      </trkpt>
      <trkpt lat="48.88025" lon="2.37023">
        <ele>114.6</ele>
        <time>2013-08-13T18:34:50.817Z</time>
      </trkpt>
      <trkpt lat="48.88021" lon="2.37021">
        <ele>115.2</ele>
        <time>2013-08-13T18:34:51.649Z</time>
      </trkpt>
      <trkpt lat="48.88015" lon="2.37019">
        <ele>115.3</ele>
        <time>2013-08-13T18:34:52.832Z</time>
      </trkpt>
      <trkpt lat="48.88011" lon="2.37018">
        <ele>115.8</ele>
        <time>2013-08-13T18:34:53.615Z</time>
      </trkpt>
      <trkpt lat="48.88006" lon="2.37017">
        <ele>115.6</ele>
        <time>2013-08-13T18:34:54.823Z</time>
      </trkpt>
      <trkpt lat="48.88001" lon="2.37016">
        <ele>116.2</ele>
        <time>2013-08-13T18:34:55.610Z</time>
      </trkpt>
      <trkpt lat="48.87996" lon="2.37016">
        <ele>116.6</ele>
        <time>2013-08-13T18:34:56.613Z</time>
      </trkpt>
      <trkpt lat="48.87991" lon="2.37016">
        <ele>117.4</ele>
        <time>2013-08-13T18:34:57.793Z</time>
      </trkpt>
      <trkpt lat="48.87987" lon="2.37015">
        <ele>114.3</ele>
        <time>2013-08-13T18:34:58.740Z</time>
      </trkpt>
      <trkpt lat="48.87979" lon="2.37013">
        <ele>112.5</ele>
        <time>2013-08-13T18:35:00.637Z</time>
      </trkpt>
      <trkpt lat="48.87974" lon="2.37012">
        <ele>109.1</ele>
        <time>2013-08-13T18:35:01.608Z</time>
      </trkpt>
      <trkpt lat="48.87969" lon="2.37012">
        <ele>107.3</ele>
        <time>2013-08-13T18:35:02.609Z</time>
      </trkpt>
      <trkpt lat="48.87964" lon="2.37011">
        <ele>108.1</ele>
        <time>2013-08-13T18:35:03.634Z</time>
      </trkpt>
      <trkpt lat="48.87958" lon="2.3701">
        <ele>108.4</ele>
        <time>2013-08-13T18:35:04.598Z</time>
      </trkpt>
      <trkpt lat="48.87953" lon="2.37011">
        <ele>108.5</ele>
        <time>2013-08-13T18:35:05.613Z</time>
      </trkpt>
      <trkpt lat="48.87948" lon="2.37012">
        <ele>108.1</ele>
        <time>2013-08-13T18:35:06.624Z</time>
      </trkpt>
      <trkpt lat="48.87943" lon="2.37013">
        <ele>108.6</ele>
        <time>2013-08-13T18:35:07.649Z</time>
      </trkpt>
      <trkpt lat="48.87939" lon="2.37014">
        <ele>108.4</ele>
        <time>2013-08-13T18:35:08.622Z</time>
      </trkpt>
      <trkpt lat="48.87934" lon="2.37016">
        <ele>109.1</ele>
        <time>2013-08-13T18:35:09.616Z</time>
      </trkpt>
      <trkpt lat="48.87929" lon="2.37017">
        <ele>109.1</ele>
        <time>2013-08-13T18:35:10.628Z</time>
      </trkpt>
      <trkpt lat="48.87923" lon="2.37018">
        <ele>108.6</ele>
        <time>2013-08-13T18:35:11.626Z</time>
      </trkpt>
      <trkpt lat="48.87917" lon="2.3702">
        <ele>110.1</ele>
        <time>2013-08-13T18:35:12.783Z</time>
      </trkpt>
      <trkpt lat="48.87911" lon="2.37021">
        <ele>111.7</ele>
        <time>2013-08-13T18:35:13.813Z</time>
      </trkpt>
      <trkpt lat="48.87907" lon="2.37021">
        <ele>112</ele>
        <time>2013-08-13T18:35:14.698Z</time>
      </trkpt>
      <trkpt lat="48.87902" lon="2.37021">
        <ele>111.4</ele>
        <time>2013-08-13T18:35:15.598Z</time>
      </trkpt>
      <trkpt lat="48.87897" lon="2.37021">
        <ele>111.1</ele>
        <time>2013-08-13T18:35:16.624Z</time>
      </trkpt>
      <trkpt lat="48.87893" lon="2.37021">
        <ele>110.9</ele>
        <time>2013-08-13T18:35:17.626Z</time>
      </trkpt>
      <trkpt lat="48.87884" lon="2.3702">
        <ele>111.6</ele>
        <time>2013-08-13T18:35:19.797Z</time>
      </trkpt>
      <trkpt lat="48.8788" lon="2.37019">
        <ele>110.9</ele>
        <time>2013-08-13T18:35:20.747Z</time>
      </trkpt>
      <trkpt lat="48.87875" lon="2.37019">
        <ele>110.1</ele>
        <time>2013-08-13T18:35:21.717Z</time>
      </trkpt>
      <trkpt lat="48.8787" lon="2.3702">
        <ele>110.6</ele>
        <time>2013-08-13T18:35:22.636Z</time>
      </trkpt>
      <trkpt lat="48.87865" lon="2.37021">
        <ele>111.4</ele>
        <time>2013-08-13T18:35:23.632Z</time>
      </trkpt>
      <trkpt lat="48.87861" lon="2.37021">
        <ele>112.3</ele>
        <time>2013-08-13T18:35:24.664Z</time>
      </trkpt>
      <trkpt lat="48.87854" lon="2.37017">
        <ele>108.6</ele>
        <time>2013-08-13T18:35:32.587Z</time>
      </trkpt>
      <trkpt lat="48.87854" lon="2.37018">
        <ele>108.6</ele>
        <time>2013-08-13T18:35:33.666Z</time>
      </trkpt>
      <trkpt lat="48.87855" lon="2.37018">
        <ele>108.6</ele>
        <time>2013-08-13T18:36:05.865Z</time>
      </trkpt>
      <trkpt lat="48.87854" lon="2.37018">
        <ele>108.2</ele>
        <time>2013-08-13T18:36:06.647Z</time>
      </trkpt>
      <trkpt lat="48.87853" lon="2.37016">
        <ele>109.3</ele>
        <time>2013-08-13T18:36:11.613Z</time>
      </trkpt>
      <trkpt lat="48.87853" lon="2.37016">
        <ele>109.4</ele>
        <time>2013-08-13T18:36:12.636Z</time>
      </trkpt>
      <trkpt lat="48.87852" lon="2.37015">
        <ele>108.2</ele>
        <time>2013-08-13T18:36:42.638Z</time>
      </trkpt>
      <trkpt lat="48.87852" lon="2.37014">
        <ele>108.2</ele>
        <time>2013-08-13T18:36:43.663Z</time>
      </trkpt>
      <trkpt lat="48.87847" lon="2.37004">
        <ele>109.9</ele>
        <time>2013-08-13T18:36:46.587Z</time>
      </trkpt>
      <trkpt lat="48.87845" lon="2.37002">
        <ele>111.7</ele>
        <time>2013-08-13T18:36:47.654Z</time>
      </trkpt>
      <trkpt lat="48.87839" lon="2.36996">
        <ele>108.4</ele>
        <time>2013-08-13T18:36:50.627Z</time>
      </trkpt>
      <trkpt lat="48.87837" lon="2.36994">
        <ele>109</ele>
        <time>2013-08-13T18:36:51.616Z</time>
      </trkpt>
      <trkpt lat="48.87829" lon="2.36989">
        <ele>110.3</ele>
        <time>2013-08-13T18:36:54.596Z</time>
      </trkpt>
      <trkpt lat="48.87825" lon="2.36989">
        <ele>110.7</ele>
        <time>2013-08-13T18:36:55.653Z</time>
      </trkpt>
      <trkpt lat="48.87821" lon="2.36988">
        <ele>109.4</ele>
        <time>2013-08-13T18:36:56.592Z</time>
      </trkpt>
      <trkpt lat="48.87816" lon="2.36986">
        <ele>109.4</ele>
        <time>2013-08-13T18:36:57.626Z</time>
      </trkpt>
      <trkpt lat="48.87811" lon="2.36985">
        <ele>109</ele>
        <time>2013-08-13T18:36:58.631Z</time>
      </trkpt>
      <trkpt lat="48.87806" lon="2.36983">
        <ele>108.9</ele>
        <time>2013-08-13T18:36:59.624Z</time>
      </trkpt>
      <trkpt lat="48.87801" lon="2.36982">
        <ele>105</ele>
        <time>2013-08-13T18:37:00.626Z</time>
      </trkpt>
      <trkpt lat="48.87797" lon="2.36981">
        <ele>105.1</ele>
        <time>2013-08-13T18:37:01.593Z</time>
      </trkpt>
      <trkpt lat="48.87789" lon="2.36981">
        <ele>107</ele>
        <time>2013-08-13T18:37:03.702Z</time>
      </trkpt>
      <trkpt lat="48.87785" lon="2.36983">
        <ele>107.6</ele>
        <time>2013-08-13T18:37:04.728Z</time>
      </trkpt>
      <trkpt lat="48.87778" lon="2.36988">
        <ele>107.9</ele>
        <time>2013-08-13T18:37:06.746Z</time>
      </trkpt>
      <trkpt lat="48.87775" lon="2.36991">
        <ele>107.7</ele>
        <time>2013-08-13T18:37:07.680Z</time>
      </trkpt>
      <trkpt lat="48.87769" lon="2.37001">
        <ele>107.2</ele>
        <time>2013-08-13T18:37:10.603Z</time>
      </trkpt>
      <trkpt lat="48.87769" lon="2.37003">
        <ele>107.6</ele>
        <time>2013-08-13T18:37:11.624Z</time>
      </trkpt>
      <trkpt lat="48.87765" lon="2.37014">
        <ele>101.9</ele>
        <time>2013-08-13T18:37:20.622Z</time>
      </trkpt>
      <trkpt lat="48.87764" lon="2.37016">
        <ele>101.9</ele>
        <time>2013-08-13T18:37:21.620Z</time>
      </trkpt>
      <trkpt lat="48.87757" lon="2.37024">
        <ele>101</ele>
        <time>2013-08-13T18:37:27.631Z</time>
      </trkpt>
      <trkpt lat="48.87757" lon="2.37025">
        <ele>101.4</ele>
        <time>2013-08-13T18:37:28.616Z</time>
      </trkpt>
      <trkpt lat="48.87751" lon="2.37025">
        <ele>101.9</ele>
        <time>2013-08-13T18:37:40.624Z</time>
      </trkpt>
      <trkpt lat="48.87751" lon="2.37025">
        <ele>102</ele>
        <time>2013-08-13T18:37:41.617Z</time>
      </trkpt>
      <trkpt lat="48.87752" lon="2.37026">
        <ele>102.9</ele>
        <time>2013-08-13T18:37:43.632Z</time>
      </trkpt>
      <trkpt lat="48.87752" lon="2.37027">
        <ele>102.6</ele>
        <time>2013-08-13T18:37:44.648Z</time>
      </trkpt>
      <trkpt lat="48.87753" lon="2.37038">
        <ele>106.4</ele>
        <time>2013-08-13T18:37:49.681Z</time>
      </trkpt>
      <trkpt lat="48.87754" lon="2.37041">
        <ele>107</ele>
        <time>2013-08-13T18:37:50.626Z</time>
      </trkpt>
      <trkpt lat="48.87755" lon="2.37053">
        <ele>103.6</ele>
        <time>2013-08-13T18:37:53.634Z</time>
      </trkpt>
      <trkpt lat="48.87754" lon="2.37057">
        <ele>102.3</ele>
        <time>2013-08-13T18:37:54.619Z</time>
      </trkpt>
      <trkpt lat="48.87748" lon="2.37063">
        <ele>101.5</ele>
        <time>2013-08-13T18:37:56.672Z</time>
      </trkpt>
      <trkpt lat="48.87745" lon="2.37064">
        <ele>101.2</ele>
        <time>2013-08-13T18:37:57.621Z</time>
      </trkpt>
      <trkpt lat="48.87738" lon="2.37067">
        <ele>99.8</ele>
        <time>2013-08-13T18:37:59.796Z</time>
      </trkpt>
      <trkpt lat="48.87735" lon="2.37069">
        <ele>99.4</ele>
        <time>2013-08-13T18:38:00.745Z</time>
      </trkpt>
      <trkpt lat="48.87728" lon="2.37073">
        <ele>100.3</ele>
        <time>2013-08-13T18:38:02.608Z</time>
      </trkpt>
      <trkpt lat="48.87725" lon="2.37076">
        <ele>101</ele>
        <time>2013-08-13T18:38:03.674Z</time>
      </trkpt>
      <trkpt lat="48.87718" lon="2.37082">
        <ele>100.7</ele>
        <time>2013-08-13T18:38:05.625Z</time>
      </trkpt>
      <trkpt lat="48.87715" lon="2.37085">
        <ele>100.1</ele>
        <time>2013-08-13T18:38:06.627Z</time>
      </trkpt>
      <trkpt lat="48.87711" lon="2.37093">
        <ele>98.7</ele>
        <time>2013-08-13T18:38:08.644Z</time>
      </trkpt>
      <trkpt lat="48.87708" lon="2.37097">
        <ele>98.1</ele>
        <time>2013-08-13T18:38:09.643Z</time>
      </trkpt>
      <trkpt lat="48.87703" lon="2.37104">
        <ele>98.4</ele>
        <time>2013-08-13T18:38:11.644Z</time>
      </trkpt>
      <trkpt lat="48.87701" lon="2.37107">
        <ele>97.5</ele>
        <time>2013-08-13T18:38:12.655Z</time>
      </trkpt>
      <trkpt lat="48.87696" lon="2.37115">
        <ele>97.9</ele>
        <time>2013-08-13T18:38:14.615Z</time>
      </trkpt>
      <trkpt lat="48.87693" lon="2.37118">
        <ele>98.3</ele>
        <time>2013-08-13T18:38:15.726Z</time>
      </trkpt>
      <trkpt lat="48.8769" lon="2.37126">
        <ele>102.4</ele>
        <time>2013-08-13T18:38:17.632Z</time>
      </trkpt>
      <trkpt lat="48.87688" lon="2.3713">
        <ele>102.4</ele>
        <time>2013-08-13T18:38:18.619Z</time>
      </trkpt>
      <trkpt lat="48.87684" lon="2.37139">
        <ele>102.4</ele>
        <time>2013-08-13T18:38:20.636Z</time>
      </trkpt>
      <trkpt lat="48.87681" lon="2.37143">
        <ele>100.9</ele>
        <time>2013-08-13T18:38:21.625Z</time>
      </trkpt>
      <trkpt lat="48.87674" lon="2.3715">
        <ele>100.7</ele>
        <time>2013-08-13T18:38:23.631Z</time>
      </trkpt>
      <trkpt lat="48.87671" lon="2.37153">
        <ele>100.3</ele>
        <time>2013-08-13T18:38:24.624Z</time>
      </trkpt>
      <trkpt lat="48.87667" lon="2.37156">
        <ele>100.6</ele>
        <time>2013-08-13T18:38:25.623Z</time>
      </trkpt>
      <trkpt lat="48.87662" lon="2.3716">
        <ele>100.1</ele>
        <time>2013-08-13T18:38:26.671Z</time>
      </trkpt>
      <trkpt lat="48.87658" lon="2.37164">
        <ele>101.1</ele>
        <time>2013-08-13T18:38:27.612Z</time>
      </trkpt>
      <trkpt lat="48.87651" lon="2.37171">
        <ele>101.2</ele>
        <time>2013-08-13T18:38:28.626Z</time>
      </trkpt>
      <trkpt lat="48.87646" lon="2.37177">
        <ele>102</ele>
        <time>2013-08-13T18:38:29.622Z</time>
      </trkpt>
      <trkpt lat="48.87641" lon="2.37183">
        <ele>102.2</ele>
        <time>2013-08-13T18:38:30.633Z</time>
      </trkpt>
      <trkpt lat="48.87637" lon="2.37188">
        <ele>102.3</ele>
        <time>2013-08-13T18:38:31.665Z</time>
      </trkpt>
      <trkpt lat="48.87634" lon="2.37193">
        <ele>102.3</ele>
        <time>2013-08-13T18:38:32.650Z</time>
      </trkpt>
      <trkpt lat="48.8763" lon="2.37198">
        <ele>101.6</ele>
        <time>2013-08-13T18:38:33.638Z</time>
      </trkpt>
      <trkpt lat="48.87627" lon="2.37203">
        <ele>100.2</ele>
        <time>2013-08-13T18:38:34.643Z</time>
      </trkpt>
      <trkpt lat="48.87623" lon="2.37208">
        <ele>102.2</ele>
        <time>2013-08-13T18:38:35.648Z</time>
      </trkpt>
      <trkpt lat="48.87619" lon="2.37214">
        <ele>103.5</ele>
        <time>2013-08-13T18:38:36.662Z</time>
      </trkpt>
      <trkpt lat="48.87615" lon="2.37219">
        <ele>102.6</ele>
        <time>2013-08-13T18:38:37.644Z</time>
      </trkpt>
      <trkpt lat="48.87611" lon="2.37225">
        <ele>102.1</ele>
        <time>2013-08-13T18:38:38.722Z</time>
      </trkpt>
      <trkpt lat="48.87604" lon="2.37233">
        <ele>101.4</ele>
        <time>2013-08-13T18:38:40.663Z</time>
      </trkpt>
      <trkpt lat="48.876" lon="2.37237">
        <ele>102.7</ele>
        <time>2013-08-13T18:38:41.627Z</time>
      </trkpt>
      <trkpt lat="48.87596" lon="2.37242">
        <ele>102.3</ele>
        <time>2013-08-13T18:38:42.663Z</time>
      </trkpt>
      <trkpt lat="48.87592" lon="2.37247">
        <ele>101.8</ele>
        <time>2013-08-13T18:38:43.630Z</time>
      </trkpt>
      <trkpt lat="48.87588" lon="2.37252">
        <ele>101.2</ele>
        <time>2013-08-13T18:38:44.655Z</time>
      </trkpt>
      <trkpt lat="48.87584" lon="2.37257">
        <ele>101.6</ele>
        <time>2013-08-13T18:38:45.679Z</time>
      </trkpt>
      <trkpt lat="48.8758" lon="2.37263">
        <ele>102.6</ele>
        <time>2013-08-13T18:38:46.634Z</time>
      </trkpt>
      <trkpt lat="48.87576" lon="2.37267">
        <ele>102.8</ele>
        <time>2013-08-13T18:38:47.636Z</time>
      </trkpt>
      <trkpt lat="48.87571" lon="2.37272">
        <ele>103.3</ele>
        <time>2013-08-13T18:38:48.634Z</time>
      </trkpt>
      <trkpt lat="48.87567" lon="2.37276">
        <ele>102.6</ele>
        <time>2013-08-13T18:38:49.651Z</time>
      </trkpt>
      <trkpt lat="48.87562" lon="2.3728">
        <ele>103.5</ele>
        <time>2013-08-13T18:38:50.636Z</time>
      </trkpt>
      <trkpt lat="48.87558" lon="2.37285">
        <ele>103.9</ele>
        <time>2013-08-13T18:38:51.632Z</time>
      </trkpt>
      <trkpt lat="48.87553" lon="2.37289">
        <ele>104.3</ele>
        <time>2013-08-13T18:38:52.639Z</time>
      </trkpt>
      <trkpt lat="48.87549" lon="2.37293">
        <ele>103</ele>
        <time>2013-08-13T18:38:53.647Z</time>
      </trkpt>
      <trkpt lat="48.87544" lon="2.37298">
        <ele>103</ele>
        <time>2013-08-13T18:38:54.664Z</time>
      </trkpt>
      <trkpt lat="48.8754" lon="2.37302">
        <ele>102.8</ele>
        <time>2013-08-13T18:38:55.637Z</time>
      </trkpt>
      <trkpt lat="48.87535" lon="2.37308">
        <ele>103.8</ele>
        <time>2013-08-13T18:38:56.639Z</time>
      </trkpt>
      <trkpt lat="48.87531" lon="2.37315">
        <ele>104.4</ele>
        <time>2013-08-13T18:38:57.643Z</time>
      </trkpt>
      <trkpt lat="48.87526" lon="2.37322">
        <ele>105.5</ele>
        <time>2013-08-13T18:38:58.958Z</time>
      </trkpt>
      <trkpt lat="48.87521" lon="2.37326">
        <ele>103.4</ele>
        <time>2013-08-13T18:38:59.666Z</time>
      </trkpt>
      <trkpt lat="48.87516" lon="2.37332">
        <ele>103.1</ele>
        <time>2013-08-13T18:39:00.774Z</time>
      </trkpt>
      <trkpt lat="48.87511" lon="2.37336">
        <ele>102.4</ele>
        <time>2013-08-13T18:39:01.805Z</time>
      </trkpt>
      <trkpt lat="48.87507" lon="2.37341">
        <ele>102.9</ele>
        <time>2013-08-13T18:39:02.770Z</time>
      </trkpt>
      <trkpt lat="48.87502" lon="2.37346">
        <ele>101.9</ele>
        <time>2013-08-13T18:39:03.808Z</time>
      </trkpt>
      <trkpt lat="48.87498" lon="2.3735">
        <ele>102.1</ele>
        <time>2013-08-13T18:39:04.694Z</time>
      </trkpt>
      <trkpt lat="48.87493" lon="2.37355">
        <ele>100.8</ele>
        <time>2013-08-13T18:39:06.299Z</time>
      </trkpt>
      <trkpt lat="48.87486" lon="2.3736">
        <ele>99.9</ele>
        <time>2013-08-13T18:39:07.705Z</time>
      </trkpt>
      <trkpt lat="48.87482" lon="2.37364">
        <ele>101.5</ele>
        <time>2013-08-13T18:39:08.544Z</time>
      </trkpt>
      <trkpt lat="48.87478" lon="2.3737">
        <ele>102.7</ele>
        <time>2013-08-13T18:39:09.671Z</time>
      </trkpt>
      <trkpt lat="48.87474" lon="2.37375">
        <ele>102.5</ele>
        <time>2013-08-13T18:39:10.801Z</time>
      </trkpt>
      <trkpt lat="48.87471" lon="2.3738">
        <ele>103.8</ele>
        <time>2013-08-13T18:39:11.595Z</time>
      </trkpt>
      <trkpt lat="48.87466" lon="2.37385">
        <ele>104.7</ele>
        <time>2013-08-13T18:39:12.772Z</time>
      </trkpt>
      <trkpt lat="48.87463" lon="2.37389">
        <ele>105</ele>
        <time>2013-08-13T18:39:13.544Z</time>
      </trkpt>
      <trkpt lat="48.87458" lon="2.37394">
        <ele>105</ele>
        <time>2013-08-13T18:39:14.529Z</time>
      </trkpt>
      <trkpt lat="48.87453" lon="2.37399">
        <ele>105.5</ele>
        <time>2013-08-13T18:39:15.543Z</time>
      </trkpt>
      <trkpt lat="48.87449" lon="2.37404">
        <ele>104.9</ele>
        <time>2013-08-13T18:39:16.543Z</time>
      </trkpt>
      <trkpt lat="48.87444" lon="2.37409">
        <ele>106.3</ele>
        <time>2013-08-13T18:39:17.545Z</time>
      </trkpt>
      <trkpt lat="48.8744" lon="2.37414">
        <ele>106.7</ele>
        <time>2013-08-13T18:39:18.533Z</time>
      </trkpt>
      <trkpt lat="48.87436" lon="2.37418">
        <ele>105.7</ele>
        <time>2013-08-13T18:39:19.511Z</time>
      </trkpt>
      <trkpt lat="48.87432" lon="2.37423">
        <ele>105.3</ele>
        <time>2013-08-13T18:39:20.544Z</time>
      </trkpt>
      <trkpt lat="48.87428" lon="2.37433">
        <ele>105.4</ele>
        <time>2013-08-13T18:39:22.544Z</time>
      </trkpt>
      <trkpt lat="48.87424" lon="2.37437">
        <ele>103.3</ele>
        <time>2013-08-13T18:39:23.533Z</time>
      </trkpt>
      <trkpt lat="48.87421" lon="2.37441">
        <ele>103.2</ele>
        <time>2013-08-13T18:39:24.536Z</time>
      </trkpt>
      <trkpt lat="48.87417" lon="2.37446">
        <ele>102.7</ele>
        <time>2013-08-13T18:39:25.546Z</time>
      </trkpt>
      <trkpt lat="48.87413" lon="2.3745">
        <ele>102.7</ele>
        <time>2013-08-13T18:39:26.565Z</time>
      </trkpt>
      <trkpt lat="48.87409" lon="2.37454">
        <ele>101.2</ele>
        <time>2013-08-13T18:39:27.545Z</time>
      </trkpt>
      <trkpt lat="48.87405" lon="2.37458">
        <ele>99.6</ele>
        <time>2013-08-13T18:39:28.611Z</time>
      </trkpt>
      <trkpt lat="48.874" lon="2.37462">
        <ele>100.6</ele>
        <time>2013-08-13T18:39:29.532Z</time>
      </trkpt>
      <trkpt lat="48.87396" lon="2.37466">
        <ele>100.2</ele>
        <time>2013-08-13T18:39:30.541Z</time>
      </trkpt>
      <trkpt lat="48.87391" lon="2.37471">
        <ele>100</ele>
        <time>2013-08-13T18:39:31.544Z</time>
      </trkpt>
      <trkpt lat="48.87387" lon="2.37475">
        <ele>100.6</ele>
        <time>2013-08-13T18:39:32.531Z</time>
      </trkpt>
      <trkpt lat="48.87383" lon="2.37478">
        <ele>100.4</ele>
        <time>2013-08-13T18:39:33.521Z</time>
      </trkpt>
      <trkpt lat="48.87379" lon="2.37482">
        <ele>100.4</ele>
        <time>2013-08-13T18:39:34.535Z</time>
      </trkpt>
      <trkpt lat="48.87376" lon="2.37486">
        <ele>100.2</ele>
        <time>2013-08-13T18:39:35.545Z</time>
      </trkpt>
      <trkpt lat="48.87369" lon="2.37496">
        <ele>102.1</ele>
        <time>2013-08-13T18:39:37.543Z</time>
      </trkpt>
      <trkpt lat="48.87366" lon="2.375">
        <ele>102.7</ele>
        <time>2013-08-13T18:39:38.572Z</time>
      </trkpt>
      <trkpt lat="48.87359" lon="2.37508">
        <ele>103.3</ele>
        <time>2013-08-13T18:39:40.546Z</time>
      </trkpt>
      <trkpt lat="48.87356" lon="2.37513">
        <ele>105.1</ele>
        <time>2013-08-13T18:39:41.530Z</time>
      </trkpt>
      <trkpt lat="48.87353" lon="2.37519">
        <ele>105.9</ele>
        <time>2013-08-13T18:39:42.545Z</time>
      </trkpt>
      <trkpt lat="48.8735" lon="2.37523">
        <ele>107</ele>
        <time>2013-08-13T18:39:43.545Z</time>
      </trkpt>
      <trkpt lat="48.87346" lon="2.37529">
        <ele>107.3</ele>
        <time>2013-08-13T18:39:44.550Z</time>
      </trkpt>
      <trkpt lat="48.87343" lon="2.37534">
        <ele>108.4</ele>
        <time>2013-08-13T18:39:45.562Z</time>
      </trkpt>
      <trkpt lat="48.87339" lon="2.37539">
        <ele>109.9</ele>
        <time>2013-08-13T18:39:46.562Z</time>
      </trkpt>
      <trkpt lat="48.87336" lon="2.37544">
        <ele>110.7</ele>
        <time>2013-08-13T18:39:47.551Z</time>
      </trkpt>
      <trkpt lat="48.87329" lon="2.37552">
        <ele>108.6</ele>
        <time>2013-08-13T18:39:49.555Z</time>
      </trkpt>
      <trkpt lat="48.87325" lon="2.37556">
        <ele>108.8</ele>
        <time>2013-08-13T18:39:50.552Z</time>
      </trkpt>
      <trkpt lat="48.87322" lon="2.3756">
        <ele>110</ele>
        <time>2013-08-13T18:39:51.534Z</time>
      </trkpt>
      <trkpt lat="48.87318" lon="2.37564">
        <ele>110.1</ele>
        <time>2013-08-13T18:39:52.524Z</time>
      </trkpt>
      <trkpt lat="48.8731" lon="2.37571">
        <ele>109.9</ele>
        <time>2013-08-13T18:39:54.532Z</time>
      </trkpt>
      <trkpt lat="48.87306" lon="2.37574">
        <ele>110.6</ele>
        <time>2013-08-13T18:39:55.558Z</time>
      </trkpt>
      <trkpt lat="48.87302" lon="2.37578">
        <ele>111</ele>
        <time>2013-08-13T18:39:56.544Z</time>
      </trkpt>
      <trkpt lat="48.87298" lon="2.37581">
        <ele>109.3</ele>
        <time>2013-08-13T18:39:57.537Z</time>
      </trkpt>
      <trkpt lat="48.87291" lon="2.37589">
        <ele>110.4</ele>
        <time>2013-08-13T18:39:59.534Z</time>
      </trkpt>
      <trkpt lat="48.87288" lon="2.37593">
        <ele>110.3</ele>
        <time>2013-08-13T18:40:00.522Z</time>
      </trkpt>
      <trkpt lat="48.87281" lon="2.37601">
        <ele>109.5</ele>
        <time>2013-08-13T18:40:02.509Z</time>
      </trkpt>
      <trkpt lat="48.87278" lon="2.37605">
        <ele>110.3</ele>
        <time>2013-08-13T18:40:03.553Z</time>
      </trkpt>
      <trkpt lat="48.87272" lon="2.37613">
        <ele>110.4</ele>
        <time>2013-08-13T18:40:05.549Z</time>
      </trkpt>
      <trkpt lat="48.87268" lon="2.37618">
        <ele>110.9</ele>
        <time>2013-08-13T18:40:06.602Z</time>
      </trkpt>
      <trkpt lat="48.87265" lon="2.37622">
        <ele>110.6</ele>
        <time>2013-08-13T18:40:07.552Z</time>
      </trkpt>
      <trkpt lat="48.87261" lon="2.37627">
        <ele>110.5</ele>
        <time>2013-08-13T18:40:08.603Z</time>
      </trkpt>
      <trkpt lat="48.87258" lon="2.37632">
        <ele>111.3</ele>
        <time>2013-08-13T18:40:09.555Z</time>
      </trkpt>
      <trkpt lat="48.87254" lon="2.37637">
        <ele>110.7</ele>
        <time>2013-08-13T18:40:10.582Z</time>
      </trkpt>
      <trkpt lat="48.87251" lon="2.37643">
        <ele>112.4</ele>
        <time>2013-08-13T18:40:11.775Z</time>
      </trkpt>
      <trkpt lat="48.87247" lon="2.37648">
        <ele>113.7</ele>
        <time>2013-08-13T18:40:12.579Z</time>
      </trkpt>
      <trkpt lat="48.87244" lon="2.37654">
        <ele>114</ele>
        <time>2013-08-13T18:40:13.733Z</time>
      </trkpt>
      <trkpt lat="48.8724" lon="2.37658">
        <ele>113.1</ele>
        <time>2013-08-13T18:40:14.526Z</time>
      </trkpt>
      <trkpt lat="48.87236" lon="2.37664">
        <ele>112.8</ele>
        <time>2013-08-13T18:40:15.748Z</time>
      </trkpt>
      <trkpt lat="48.87232" lon="2.37669">
        <ele>114</ele>
        <time>2013-08-13T18:40:16.640Z</time>
      </trkpt>
      <trkpt lat="48.87227" lon="2.37673">
        <ele>114.4</ele>
        <time>2013-08-13T18:40:17.674Z</time>
      </trkpt>
      <trkpt lat="48.87223" lon="2.37677">
        <ele>114</ele>
        <time>2013-08-13T18:40:18.793Z</time>
      </trkpt>
      <trkpt lat="48.87215" lon="2.37681">
        <ele>113.4</ele>
        <time>2013-08-13T18:40:21.540Z</time>
      </trkpt>
      <trkpt lat="48.87213" lon="2.37681">
        <ele>114</ele>
        <time>2013-08-13T18:40:22.746Z</time>
      </trkpt>
      <trkpt lat="48.87208" lon="2.37676">
        <ele>110.4</ele>
        <time>2013-08-13T18:40:36.782Z</time>
      </trkpt>
      <trkpt lat="48.87208" lon="2.37676">
        <ele>110.6</ele>
        <time>2013-08-13T18:40:37.542Z</time>
      </trkpt>
      <trkpt lat="48.87208" lon="2.37677">
        <ele>110.8</ele>
        <time>2013-08-13T18:41:21.553Z</time>
      </trkpt>
      <trkpt lat="48.87208" lon="2.37678">
        <ele>108.7</ele>
        <time>2013-08-13T18:41:22.548Z</time>
      </trkpt>
      <trkpt lat="48.87209" lon="2.37689">
        <ele>109.3</ele>
        <time>2013-08-13T18:41:25.544Z</time>
      </trkpt>
      <trkpt lat="48.87209" lon="2.37693">
        <ele>109.9</ele>
        <time>2013-08-13T18:41:26.568Z</time>
      </trkpt>
      <trkpt lat="48.87212" lon="2.37704">
        <ele>112.7</ele>
        <time>2013-08-13T18:41:30.516Z</time>
      </trkpt>
      <trkpt lat="48.87213" lon="2.37706">
        <ele>113</ele>
        <time>2013-08-13T18:41:31.561Z</time>
      </trkpt>
      <trkpt lat="48.87217" lon="2.37716">
        <ele>111.7</ele>
        <time>2013-08-13T18:41:35.561Z</time>
      </trkpt>
      <trkpt lat="48.87218" lon="2.37718">
        <ele>110.8</ele>
        <time>2013-08-13T18:41:36.534Z</time>
      </trkpt>
      <trkpt lat="48.87223" lon="2.37728">
        <ele>108.2</ele>
        <time>2013-08-13T18:41:40.540Z</time>
      </trkpt>
      <trkpt lat="48.87224" lon="2.37732">
        <ele>108.2</ele>
        <time>2013-08-13T18:41:41.531Z</time>
      </trkpt>
      <trkpt lat="48.87227" lon="2.37741">
        <ele>106.6</ele>
        <time>2013-08-13T18:41:43.557Z</time>
      </trkpt>
      <trkpt lat="48.87228" lon="2.37746">
        <ele>106.4</ele>
        <time>2013-08-13T18:41:44.526Z</time>
      </trkpt>
      <trkpt lat="48.87231" lon="2.37756">
        <ele>107.2</ele>
        <time>2013-08-13T18:41:46.553Z</time>
      </trkpt>
      <trkpt lat="48.87232" lon="2.3776">
        <ele>108.8</ele>
        <time>2013-08-13T18:41:47.556Z</time>
      </trkpt>
      <trkpt lat="48.87234" lon="2.3777">
        <ele>109.6</ele>
        <time>2013-08-13T18:41:49.540Z</time>
      </trkpt>
      <trkpt lat="48.87235" lon="2.37775">
        <ele>110.3</ele>
        <time>2013-08-13T18:41:50.552Z</time>
      </trkpt>
      <trkpt lat="48.87239" lon="2.37784">
        <ele>111.7</ele>
        <time>2013-08-13T18:41:52.538Z</time>
      </trkpt>
      <trkpt lat="48.8724" lon="2.37788">
        <ele>111.3</ele>
        <time>2013-08-13T18:41:53.544Z</time>
      </trkpt>
      <trkpt lat="48.87244" lon="2.37795">
        <ele>112.6</ele>
        <time>2013-08-13T18:41:55.633Z</time>
      </trkpt>
      <trkpt lat="48.87246" lon="2.37799">
        <ele>111.8</ele>
        <time>2013-08-13T18:41:56.779Z</time>
      </trkpt>
      <trkpt lat="48.87251" lon="2.37809">
        <ele>106.2</ele>
        <time>2013-08-13T18:41:59.556Z</time>
      </trkpt>
      <trkpt lat="48.87254" lon="2.37812">
        <ele>106.6</ele>
        <time>2013-08-13T18:42:00.716Z</time>
      </trkpt>
      <trkpt lat="48.87258" lon="2.37819">
        <ele>106.4</ele>
        <time>2013-08-13T18:42:02.626Z</time>
      </trkpt>
      <trkpt lat="48.8726" lon="2.37823">
        <ele>107.3</ele>
        <time>2013-08-13T18:42:03.765Z</time>
      </trkpt>
      <trkpt lat="48.87264" lon="2.37831">
        <ele>108.7</ele>
        <time>2013-08-13T18:42:05.847Z</time>
      </trkpt>
      <trkpt lat="48.87266" lon="2.37835">
        <ele>109.3</ele>
        <time>2013-08-13T18:42:06.555Z</time>
      </trkpt>
      <trkpt lat="48.87268" lon="2.37846">
        <ele>108.4</ele>
        <time>2013-08-13T18:42:08.549Z</time>
      </trkpt>
      <trkpt lat="48.87269" lon="2.37852">
        <ele>108.9</ele>
        <time>2013-08-13T18:42:09.550Z</time>
      </trkpt>
      <trkpt lat="48.87269" lon="2.37865">
        <ele>110.4</ele>
        <time>2013-08-13T18:42:11.535Z</time>
      </trkpt>
      <trkpt lat="48.8727" lon="2.37871">
        <ele>110.1</ele>
        <time>2013-08-13T18:42:12.561Z</time>
      </trkpt>
      <trkpt lat="48.87272" lon="2.37883">
        <ele>110.8</ele>
        <time>2013-08-13T18:42:14.546Z</time>
      </trkpt>
      <trkpt lat="48.87274" lon="2.37889">
        <ele>109.8</ele>
        <time>2013-08-13T18:42:15.561Z</time>
      </trkpt>
      <trkpt lat="48.87278" lon="2.37901">
        <ele>108.6</ele>
        <time>2013-08-13T18:42:17.785Z</time>
      </trkpt>
      <trkpt lat="48.87281" lon="2.37905">
        <ele>109.2</ele>
        <time>2013-08-13T18:42:18.655Z</time>
      </trkpt>
      <trkpt lat="48.87287" lon="2.37914">
        <ele>110.2</ele>
        <time>2013-08-13T18:42:20.594Z</time>
      </trkpt>
      <trkpt lat="48.8729" lon="2.3792">
        <ele>111.8</ele>
        <time>2013-08-13T18:42:21.713Z</time>
      </trkpt>
      <trkpt lat="48.87296" lon="2.37929">
        <ele>111.6</ele>
        <time>2013-08-13T18:42:23.745Z</time>
      </trkpt>
      <trkpt lat="48.87298" lon="2.37933">
        <ele>111.7</ele>
        <time>2013-08-13T18:42:24.676Z</time>
      </trkpt>
      <trkpt lat="48.873" lon="2.37942">
        <ele>111.8</ele>
        <time>2013-08-13T18:42:26.761Z</time>
      </trkpt>
      <trkpt lat="48.87301" lon="2.37946">
        <ele>111.6</ele>
        <time>2013-08-13T18:42:27.624Z</time>
      </trkpt>
      <trkpt lat="48.87304" lon="2.37956">
        <ele>108.5</ele>
        <time>2013-08-13T18:42:30.583Z</time>
      </trkpt>
      <trkpt lat="48.87305" lon="2.37959">
        <ele>109.2</ele>
        <time>2013-08-13T18:42:31.536Z</time>
      </trkpt>
      <trkpt lat="48.87307" lon="2.37969">
        <ele>112.6</ele>
        <time>2013-08-13T18:42:34.562Z</time>
      </trkpt>
      <trkpt lat="48.87307" lon="2.37974">
        <ele>112.5</ele>
        <time>2013-08-13T18:42:35.743Z</time>
      </trkpt>
      <trkpt lat="48.87306" lon="2.37985">
        <ele>116</ele>
        <time>2013-08-13T18:42:37.907Z</time>
      </trkpt>
      <trkpt lat="48.87305" lon="2.37989">
        <ele>116.4</ele>
        <time>2013-08-13T18:42:38.594Z</time>
      </trkpt>
      <trkpt lat="48.87306" lon="2.38">
        <ele>116.1</ele>
        <time>2013-08-13T18:42:40.725Z</time>
      </trkpt>
      <trkpt lat="48.87306" lon="2.38004">
        <ele>115.7</ele>
        <time>2013-08-13T18:42:41.675Z</time>
      </trkpt>
      <trkpt lat="48.87308" lon="2.38015">
        <ele>114.3</ele>
        <time>2013-08-13T18:42:45.576Z</time>
      </trkpt>
      <trkpt lat="48.87308" lon="2.3802">
        <ele>114.2</ele>
        <time>2013-08-13T18:42:46.567Z</time>
      </trkpt>
      <trkpt lat="48.8731" lon="2.3803">
        <ele>113.9</ele>
        <time>2013-08-13T18:42:48.542Z</time>
      </trkpt>
      <trkpt lat="48.87311" lon="2.38037">
        <ele>113.3</ele>
        <time>2013-08-13T18:42:49.589Z</time>
      </trkpt>
      <trkpt lat="48.87314" lon="2.38048">
        <ele>113.3</ele>
        <time>2013-08-13T18:42:51.575Z</time>
      </trkpt>
      <trkpt lat="48.87314" lon="2.38053">
        <ele>113.4</ele>
        <time>2013-08-13T18:42:52.582Z</time>
      </trkpt>
      <trkpt lat="48.87315" lon="2.38063">
        <ele>114.7</ele>
        <time>2013-08-13T18:42:54.587Z</time>
      </trkpt>
      <trkpt lat="48.87316" lon="2.38067">
        <ele>114.1</ele>
        <time>2013-08-13T18:42:55.545Z</time>
      </trkpt>
      <trkpt lat="48.87317" lon="2.38079">
        <ele>115.3</ele>
        <time>2013-08-13T18:42:58.584Z</time>
      </trkpt>
      <trkpt lat="48.87318" lon="2.38082">
        <ele>115.1</ele>
        <time>2013-08-13T18:42:59.576Z</time>
      </trkpt>
      <trkpt lat="48.8732" lon="2.38093">
        <ele>114.6</ele>
        <time>2013-08-13T18:43:02.733Z</time>
      </trkpt>
      <trkpt lat="48.87321" lon="2.38096">
        <ele>114.8</ele>
        <time>2013-08-13T18:43:03.561Z</time>
      </trkpt>
      <trkpt lat="48.87323" lon="2.38108">
        <ele>116</ele>
        <time>2013-08-13T18:43:06.637Z</time>
      </trkpt>
      <trkpt lat="48.87324" lon="2.38113">
        <ele>117.8</ele>
        <time>2013-08-13T18:43:07.778Z</time>
      </trkpt>
      <trkpt lat="48.87325" lon="2.38124">
        <ele>117.5</ele>
        <time>2013-08-13T18:43:10.565Z</time>
      </trkpt>
      <trkpt lat="48.87325" lon="2.38128">
        <ele>117.6</ele>
        <time>2013-08-13T18:43:11.713Z</time>
      </trkpt>
      <trkpt lat="48.87327" lon="2.38137">
        <ele>117</ele>
        <time>2013-08-13T18:43:14.556Z</time>
      </trkpt>
      <trkpt lat="48.87329" lon="2.38143">
        <ele>116.9</ele>
        <time>2013-08-13T18:43:16.566Z</time>
      </trkpt>
      <trkpt lat="48.8733" lon="2.38154">
        <ele>115</ele>
        <time>2013-08-13T18:43:19.554Z</time>
      </trkpt>
      <trkpt lat="48.87331" lon="2.38157">
        <ele>114.8</ele>
        <time>2013-08-13T18:43:20.706Z</time>
      </trkpt>
      <trkpt lat="48.87334" lon="2.38168">
        <ele>111.3</ele>
        <time>2013-08-13T18:43:24.583Z</time>
      </trkpt>
      <trkpt lat="48.87334" lon="2.38171">
        <ele>111.1</ele>
        <time>2013-08-13T18:43:25.781Z</time>
      </trkpt>
      <trkpt lat="48.87337" lon="2.38182">
        <ele>110.9</ele>
        <time>2013-08-13T18:43:29.671Z</time>
      </trkpt>
      <trkpt lat="48.87338" lon="2.38185">
        <ele>110.8</ele>
        <time>2013-08-13T18:43:30.541Z</time>
      </trkpt>
      <trkpt lat="48.87339" lon="2.38198">
        <ele>111.1</ele>
        <time>2013-08-13T18:43:33.537Z</time>
      </trkpt>
      <trkpt lat="48.8734" lon="2.38202">
        <ele>111.7</ele>
        <time>2013-08-13T18:43:34.542Z</time>
      </trkpt>
      <trkpt lat="48.87342" lon="2.38213">
        <ele>110.4</ele>
        <time>2013-08-13T18:43:37.556Z</time>
      </trkpt>
      <trkpt lat="48.87342" lon="2.38216">
        <ele>111.6</ele>
        <time>2013-08-13T18:43:38.578Z</time>
      </trkpt>
      <trkpt lat="48.87345" lon="2.38227">
        <ele>111</ele>
        <time>2013-08-13T18:43:42.556Z</time>
      </trkpt>
      <trkpt lat="48.87346" lon="2.38232">
        <ele>113.5</ele>
        <time>2013-08-13T18:43:43.598Z</time>
      </trkpt>
      <trkpt lat="48.87347" lon="2.38242">
        <ele>116</ele>
        <time>2013-08-13T18:43:45.675Z</time>
      </trkpt>
      <trkpt lat="48.87347" lon="2.38246">
        <ele>115.8</ele>
        <time>2013-08-13T18:43:46.588Z</time>
      </trkpt>
      <trkpt lat="48.87349" lon="2.38258">
        <ele>115.2</ele>
        <time>2013-08-13T18:43:49.540Z</time>
      </trkpt>
      <trkpt lat="48.8735" lon="2.38262">
        <ele>115.6</ele>
        <time>2013-08-13T18:43:50.753Z</time>
      </trkpt>
      <trkpt lat="48.87353" lon="2.38274">
        <ele>111.4</ele>
        <time>2013-08-13T18:43:54.566Z</time>
      </trkpt>
      <trkpt lat="48.87353" lon="2.38277">
        <ele>112.3</ele>
        <time>2013-08-13T18:43:55.543Z</time>
      </trkpt>
      <trkpt lat="48.87357" lon="2.38289">
        <ele>118.1</ele>
        <time>2013-08-13T18:44:01.703Z</time>
      </trkpt>
      <trkpt lat="48.87357" lon="2.38291">
        <ele>118.7</ele>
        <time>2013-08-13T18:44:02.627Z</time>
      </trkpt>
      <trkpt lat="48.87357" lon="2.38304">
        <ele>118.9</ele>
        <time>2013-08-13T18:44:07.561Z</time>
      </trkpt>
      <trkpt lat="48.87357" lon="2.38307">
        <ele>118.4</ele>
        <time>2013-08-13T18:44:08.555Z</time>
      </trkpt>
      <trkpt lat="48.8736" lon="2.3832">
        <ele>117.9</ele>
        <time>2013-08-13T18:44:11.582Z</time>
      </trkpt>
      <trkpt lat="48.8736" lon="2.38324">
        <ele>117.7</ele>
        <time>2013-08-13T18:44:12.586Z</time>
      </trkpt>
      <trkpt lat="48.87361" lon="2.38335">
        <ele>115.8</ele>
        <time>2013-08-13T18:44:14.596Z</time>
      </trkpt>
      <trkpt lat="48.87362" lon="2.38339">
        <ele>116.9</ele>
        <time>2013-08-13T18:44:15.557Z</time>
      </trkpt>
      <trkpt lat="48.87363" lon="2.3835">
        <ele>118</ele>
        <time>2013-08-13T18:44:18.553Z</time>
      </trkpt>
      <trkpt lat="48.87363" lon="2.38353">
        <ele>118</ele>
        <time>2013-08-13T18:44:19.587Z</time>
      </trkpt>
      <trkpt lat="48.87365" lon="2.38364">
        <ele>120.7</ele>
        <time>2013-08-13T18:44:22.562Z</time>
      </trkpt>
      <trkpt lat="48.87365" lon="2.38368">
        <ele>120.6</ele>
        <time>2013-08-13T18:44:23.546Z</time>
      </trkpt>
      <trkpt lat="48.87366" lon="2.38379">
        <ele>121.2</ele>
        <time>2013-08-13T18:44:26.575Z</time>
      </trkpt>
      <trkpt lat="48.87366" lon="2.38382">
        <ele>122.1</ele>
        <time>2013-08-13T18:44:27.546Z</time>
      </trkpt>
      <trkpt lat="48.87369" lon="2.38394">
        <ele>123.3</ele>
        <time>2013-08-13T18:44:31.576Z</time>
      </trkpt>
      <trkpt lat="48.87369" lon="2.38397">
        <ele>123.2</ele>
        <time>2013-08-13T18:44:32.556Z</time>
      </trkpt>
      <trkpt lat="48.87371" lon="2.38407">
        <ele>125.4</ele>
        <time>2013-08-13T18:44:35.576Z</time>
      </trkpt>
      <trkpt lat="48.87371" lon="2.38411">
        <ele>125</ele>
        <time>2013-08-13T18:44:36.557Z</time>
      </trkpt>
      <trkpt lat="48.87371" lon="2.38421">
        <ele>124.5</ele>
        <time>2013-08-13T18:44:38.608Z</time>
      </trkpt>
      <trkpt lat="48.87371" lon="2.38426">
        <ele>124.6</ele>
        <time>2013-08-13T18:44:39.553Z</time>
      </trkpt>
      <trkpt lat="48.87371" lon="2.38438">
        <ele>123.5</ele>
        <time>2013-08-13T18:44:41.556Z</time>
      </trkpt>
      <trkpt lat="48.87372" lon="2.38445">
        <ele>123.9</ele>
        <time>2013-08-13T18:44:42.593Z</time>
      </trkpt>
      <trkpt lat="48.87374" lon="2.38457">
        <ele>124.6</ele>
        <time>2013-08-13T18:44:44.556Z</time>
      </trkpt>
      <trkpt lat="48.87376" lon="2.38462">
        <ele>126.1</ele>
        <time>2013-08-13T18:44:45.577Z</time>
      </trkpt>
      <trkpt lat="48.8738" lon="2.38473">
        <ele>124.3</ele>
        <time>2013-08-13T18:44:48.554Z</time>
      </trkpt>
      <trkpt lat="48.87381" lon="2.38476">
        <ele>123.3</ele>
        <time>2013-08-13T18:44:49.559Z</time>
      </trkpt>
      <trkpt lat="48.87383" lon="2.38486">
        <ele>123.2</ele>
        <time>2013-08-13T18:44:52.553Z</time>
      </trkpt>
      <trkpt lat="48.87383" lon="2.3849">
        <ele>122.9</ele>
        <time>2013-08-13T18:44:53.587Z</time>
      </trkpt>
      <trkpt lat="48.87385" lon="2.38503">
        <ele>123.5</ele>
        <time>2013-08-13T18:44:56.557Z</time>
      </trkpt>
      <trkpt lat="48.87385" lon="2.38507">
        <ele>124.4</ele>
        <time>2013-08-13T18:44:57.559Z</time>
      </trkpt>
      <trkpt lat="48.87386" lon="2.38518">
        <ele>127.9</ele>
        <time>2013-08-13T18:45:00.565Z</time>
      </trkpt>
      <trkpt lat="48.87386" lon="2.38521">
        <ele>129.5</ele>
        <time>2013-08-13T18:45:01.593Z</time>
      </trkpt>
      <trkpt lat="48.87391" lon="2.3853">
        <ele>137.7</ele>
        <time>2013-08-13T18:45:12.564Z</time>
      </trkpt>
      <trkpt lat="48.8739" lon="2.38529">
        <ele>138.4</ele>
        <time>2013-08-13T18:45:13.534Z</time>
      </trkpt>
      <trkpt lat="48.8739" lon="2.38529">
        <ele>138.8</ele>
        <time>2013-08-13T18:45:15.560Z</time>
      </trkpt>
      <trkpt lat="48.8739" lon="2.38528">
        <ele>139.8</ele>
        <time>2013-08-13T18:45:16.595Z</time>
      </trkpt>
      <trkpt lat="48.87394" lon="2.38523">
        <ele>141.1</ele>
        <time>2013-08-13T18:45:26.638Z</time>
      </trkpt>
      <trkpt lat="48.87394" lon="2.38523">
        <ele>141.1</ele>
        <time>2013-08-13T18:45:27.661Z</time>
      </trkpt>
      <trkpt lat="48.87395" lon="2.38523">
        <ele>140.8</ele>
        <time>2013-08-13T18:45:33.580Z</time>
      </trkpt>
      <trkpt lat="48.87395" lon="2.38522">
        <ele>140.8</ele>
        <time>2013-08-13T18:45:34.545Z</time>
      </trkpt>
      <trkpt lat="48.87401" lon="2.38518">
        <ele>143.6</ele>
        <time>2013-08-13T18:45:48.564Z</time>
      </trkpt>
      <trkpt lat="48.87401" lon="2.38518">
        <ele>143.7</ele>
        <time>2013-08-13T18:45:49.558Z</time>
      </trkpt>
      <trkpt lat="48.874" lon="2.38518">
        <ele>143.9</ele>
        <time>2013-08-13T18:46:13.729Z</time>
      </trkpt>
      <trkpt lat="48.87401" lon="2.38518">
        <ele>143.5</ele>
        <time>2013-08-13T18:46:14.574Z</time>
      </trkpt>
      <trkpt lat="48.87408" lon="2.38525">
        <ele>140</ele>
        <time>2013-08-13T18:46:19.567Z</time>
      </trkpt>
      <trkpt lat="48.8741" lon="2.38526">
        <ele>140.4</ele>
        <time>2013-08-13T18:46:20.558Z</time>
      </trkpt>
      <trkpt lat="48.87401" lon="2.38521">
        <ele>147.9</ele>
        <time>2013-08-13T18:46:36.558Z</time>
      </trkpt>
      <trkpt lat="48.87401" lon="2.38521">
        <ele>148.1</ele>
        <time>2013-08-13T18:46:37.586Z</time>
      </trkpt>
      <trkpt lat="48.87401" lon="2.38521">
        <ele>148.1</ele>
        <time>2013-08-13T18:46:38.600Z</time>
      </trkpt>
      <trkpt lat="48.87401" lon="2.38521">
        <ele>147.4</ele>
        <time>2013-08-13T18:46:39.569Z</time>
      </trkpt>
      <trkpt lat="48.87401" lon="2.38522">
        <ele>148.1</ele>
        <time>2013-08-13T18:46:41.562Z</time>
      </trkpt>
      <trkpt lat="48.87401" lon="2.38523">
        <ele>148.6</ele>
        <time>2013-08-13T18:46:42.550Z</time>
      </trkpt>
      <trkpt lat="48.87403" lon="2.38534">
        <ele>145.2</ele>
        <time>2013-08-13T18:46:52.774Z</time>
      </trkpt>
      <trkpt lat="48.87404" lon="2.38537">
        <ele>142.6</ele>
        <time>2013-08-13T18:46:53.590Z</time>
      </trkpt>
      <trkpt lat="48.87407" lon="2.38549">
        <ele>140.2</ele>
        <time>2013-08-13T18:46:57.577Z</time>
      </trkpt>
      <trkpt lat="48.87407" lon="2.38552">
        <ele>139.9</ele>
        <time>2013-08-13T18:46:58.572Z</time>
      </trkpt>
      <trkpt lat="48.87406" lon="2.38563">
        <ele>142</ele>
        <time>2013-08-13T18:47:01.568Z</time>
      </trkpt>
      <trkpt lat="48.87405" lon="2.38567">
        <ele>142</ele>
        <time>2013-08-13T18:47:02.552Z</time>
      </trkpt>
      <trkpt lat="48.87404" lon="2.38578">
        <ele>141.8</ele>
        <time>2013-08-13T18:47:04.564Z</time>
      </trkpt>
      <trkpt lat="48.87404" lon="2.38583">
        <ele>141.6</ele>
        <time>2013-08-13T18:47:05.607Z</time>
      </trkpt>
      <trkpt lat="48.87404" lon="2.38595">
        <ele>140.1</ele>
        <time>2013-08-13T18:47:07.592Z</time>
      </trkpt>
      <trkpt lat="48.87404" lon="2.38602">
        <ele>142.1</ele>
        <time>2013-08-13T18:47:08.605Z</time>
      </trkpt>
      <trkpt lat="48.87405" lon="2.38613">
        <ele>140.2</ele>
        <time>2013-08-13T18:47:10.563Z</time>
      </trkpt>
      <trkpt lat="48.87406" lon="2.38618">
        <ele>139.1</ele>
        <time>2013-08-13T18:47:11.602Z</time>
      </trkpt>
      <trkpt lat="48.87409" lon="2.38626">
        <ele>139.3</ele>
        <time>2013-08-13T18:47:13.586Z</time>
      </trkpt>
      <trkpt lat="48.87409" lon="2.38631">
        <ele>140.1</ele>
        <time>2013-08-13T18:47:14.577Z</time>
      </trkpt>
      <trkpt lat="48.87409" lon="2.38642">
        <ele>141.1</ele>
        <time>2013-08-13T18:47:16.570Z</time>
      </trkpt>
      <trkpt lat="48.87408" lon="2.38649">
        <ele>140.7</ele>
        <time>2013-08-13T18:47:17.604Z</time>
      </trkpt>
      <trkpt lat="48.87407" lon="2.38662">
        <ele>142.2</ele>
        <time>2013-08-13T18:47:19.603Z</time>
      </trkpt>
      <trkpt lat="48.87406" lon="2.38667">
        <ele>141.8</ele>
        <time>2013-08-13T18:47:20.574Z</time>
      </trkpt>
      <trkpt lat="48.87405" lon="2.38679">
        <ele>142.3</ele>
        <time>2013-08-13T18:47:23.589Z</time>
      </trkpt>
      <trkpt lat="48.87405" lon="2.38683">
        <ele>142.3</ele>
        <time>2013-08-13T18:47:24.573Z</time>
      </trkpt>
      <trkpt lat="48.87404" lon="2.38692">
        <ele>144</ele>
        <time>2013-08-13T18:47:26.604Z</time>
      </trkpt>
      <trkpt lat="48.87404" lon="2.38697">
        <ele>144.5</ele>
        <time>2013-08-13T18:47:27.573Z</time>
      </trkpt>
      <trkpt lat="48.87403" lon="2.3871">
        <ele>144.7</ele>
        <time>2013-08-13T18:47:29.561Z</time>
      </trkpt>
      <trkpt lat="48.87403" lon="2.38717">
        <ele>145.9</ele>
        <time>2013-08-13T18:47:30.563Z</time>
      </trkpt>
      <trkpt lat="48.87403" lon="2.3873">
        <ele>146.9</ele>
        <time>2013-08-13T18:47:32.574Z</time>
      </trkpt>
      <trkpt lat="48.87403" lon="2.38736">
        <ele>147.7</ele>
        <time>2013-08-13T18:47:33.576Z</time>
      </trkpt>
      <trkpt lat="48.87403" lon="2.38749">
        <ele>146.3</ele>
        <time>2013-08-13T18:47:35.592Z</time>
      </trkpt>
      <trkpt lat="48.87402" lon="2.38755">
        <ele>146</ele>
        <time>2013-08-13T18:47:36.588Z</time>
      </trkpt>
      <trkpt lat="48.874" lon="2.38767">
        <ele>144.1</ele>
        <time>2013-08-13T18:47:38.932Z</time>
      </trkpt>
      <trkpt lat="48.874" lon="2.3877">
        <ele>142.7</ele>
        <time>2013-08-13T18:47:39.591Z</time>
      </trkpt>
      <trkpt lat="48.87394" lon="2.38779">
        <ele>134.9</ele>
        <time>2013-08-13T18:47:42.741Z</time>
      </trkpt>
      <trkpt lat="48.87392" lon="2.3878">
        <ele>135.7</ele>
        <time>2013-08-13T18:47:43.695Z</time>
      </trkpt>
      <trkpt lat="48.87387" lon="2.38791">
        <ele>130.3</ele>
        <time>2013-08-13T18:47:48.611Z</time>
      </trkpt>
      <trkpt lat="48.87387" lon="2.38795">
        <ele>131.2</ele>
        <time>2013-08-13T18:47:49.585Z</time>
      </trkpt>
      <trkpt lat="48.87386" lon="2.38804">
        <ele>135</ele>
        <time>2013-08-13T18:47:51.588Z</time>
      </trkpt>
      <trkpt lat="48.87385" lon="2.38809">
        <ele>136.9</ele>
        <time>2013-08-13T18:47:52.814Z</time>
      </trkpt>
      <trkpt lat="48.87379" lon="2.38817">
        <ele>139.7</ele>
        <time>2013-08-13T18:48:00.563Z</time>
      </trkpt>
      <trkpt lat="48.87378" lon="2.38817">
        <ele>140.1</ele>
        <time>2013-08-13T18:48:01.574Z</time>
      </trkpt>
      <trkpt lat="48.87377" lon="2.38816">
        <ele>140.3</ele>
        <time>2013-08-13T18:48:06.567Z</time>
      </trkpt>
      <trkpt lat="48.87377" lon="2.38816">
        <ele>140.3</ele>
        <time>2013-08-13T18:48:07.601Z</time>
      </trkpt>
      <trkpt lat="48.87377" lon="2.38816">
        <ele>139.5</ele>
        <time>2013-08-13T18:48:18.583Z</time>
      </trkpt>
      <trkpt lat="48.87377" lon="2.38818">
        <ele>138.4</ele>
        <time>2013-08-13T18:48:19.570Z</time>
      </trkpt>
      <trkpt lat="48.87373" lon="2.38829">
        <ele>136.5</ele>
        <time>2013-08-13T18:48:28.625Z</time>
      </trkpt>
      <trkpt lat="48.87371" lon="2.38831">
        <ele>133.9</ele>
        <time>2013-08-13T18:48:29.584Z</time>
      </trkpt>
      <trkpt lat="48.87365" lon="2.3884">
        <ele>132.7</ele>
        <time>2013-08-13T18:48:31.575Z</time>
      </trkpt>
      <trkpt lat="48.87363" lon="2.38846">
        <ele>130.7</ele>
        <time>2013-08-13T18:48:32.581Z</time>
      </trkpt>
      <trkpt lat="48.8736" lon="2.38852">
        <ele>131.7</ele>
        <time>2013-08-13T18:48:33.569Z</time>
      </trkpt>
      <trkpt lat="48.87357" lon="2.38858">
        <ele>131.6</ele>
        <time>2013-08-13T18:48:34.597Z</time>
      </trkpt>
      <trkpt lat="48.87351" lon="2.38868">
        <ele>132.6</ele>
        <time>2013-08-13T18:48:36.582Z</time>
      </trkpt>
      <trkpt lat="48.87348" lon="2.38873">
        <ele>133</ele>
        <time>2013-08-13T18:48:37.619Z</time>
      </trkpt>
      <trkpt lat="48.87342" lon="2.38882">
        <ele>132.3</ele>
        <time>2013-08-13T18:48:39.580Z</time>
      </trkpt>
      <trkpt lat="48.87339" lon="2.38887">
        <ele>132.8</ele>
        <time>2013-08-13T18:48:40.598Z</time>
      </trkpt>
      <trkpt lat="48.87336" lon="2.38893">
        <ele>132.9</ele>
        <time>2013-08-13T18:48:41.593Z</time>
      </trkpt>
      <trkpt lat="48.87333" lon="2.38899">
        <ele>132.6</ele>
        <time>2013-08-13T18:48:42.595Z</time>
      </trkpt>
      <trkpt lat="48.8733" lon="2.38906">
        <ele>132.6</ele>
        <time>2013-08-13T18:48:43.600Z</time>
      </trkpt>
      <trkpt lat="48.87327" lon="2.38912">
        <ele>132.7</ele>
        <time>2013-08-13T18:48:44.576Z</time>
      </trkpt>
      <trkpt lat="48.87322" lon="2.38923">
        <ele>133.4</ele>
        <time>2013-08-13T18:48:46.578Z</time>
      </trkpt>
      <trkpt lat="48.8732" lon="2.38928">
        <ele>132.8</ele>
        <time>2013-08-13T18:48:47.624Z</time>
      </trkpt>
      <trkpt lat="48.87315" lon="2.38938">
        <ele>132.7</ele>
        <time>2013-08-13T18:48:49.569Z</time>
      </trkpt>
      <trkpt lat="48.87312" lon="2.38942">
        <ele>133.1</ele>
        <time>2013-08-13T18:48:50.590Z</time>
      </trkpt>
      <trkpt lat="48.87305" lon="2.3895">
        <ele>131.7</ele>
        <time>2013-08-13T18:48:52.594Z</time>
      </trkpt>
      <trkpt lat="48.87302" lon="2.38951">
        <ele>132.9</ele>
        <time>2013-08-13T18:48:53.593Z</time>
      </trkpt>
      <trkpt lat="48.87297" lon="2.38956">
        <ele>134.1</ele>
        <time>2013-08-13T18:48:55.573Z</time>
      </trkpt>
      <trkpt lat="48.87295" lon="2.3896">
        <ele>133.8</ele>
        <time>2013-08-13T18:48:56.594Z</time>
      </trkpt>
      <trkpt lat="48.8729" lon="2.3897">
        <ele>133.3</ele>
        <time>2013-08-13T18:48:58.624Z</time>
      </trkpt>
      <trkpt lat="48.87288" lon="2.38974">
        <ele>132.9</ele>
        <time>2013-08-13T18:48:59.595Z</time>
      </trkpt>
      <trkpt lat="48.87285" lon="2.38967">
        <ele>134.4</ele>
        <time>2013-08-13T18:49:13.592Z</time>
      </trkpt>
      <trkpt lat="48.87285" lon="2.38967">
        <ele>134.7</ele>
        <time>2013-08-13T18:49:14.594Z</time>
      </trkpt>
      <trkpt lat="48.87285" lon="2.38967">
        <ele>134.7</ele>
        <time>2013-08-13T18:49:20.684Z</time>
      </trkpt>
      <trkpt lat="48.87285" lon="2.38968">
        <ele>134.7</ele>
        <time>2013-08-13T18:49:21.640Z</time>
      </trkpt>
      <trkpt lat="48.87278" lon="2.38974">
        <ele>130.9</ele>
        <time>2013-08-13T18:49:25.552Z</time>
      </trkpt>
      <trkpt lat="48.87276" lon="2.38979">
        <ele>130.2</ele>
        <time>2013-08-13T18:49:26.597Z</time>
      </trkpt>
      <trkpt lat="48.87273" lon="2.38984">
        <ele>128.7</ele>
        <time>2013-08-13T18:49:27.565Z</time>
      </trkpt>
      <trkpt lat="48.87271" lon="2.3899">
        <ele>127.6</ele>
        <time>2013-08-13T18:49:28.587Z</time>
      </trkpt>
      <trkpt lat="48.87267" lon="2.39001">
        <ele>127.9</ele>
        <time>2013-08-13T18:49:30.579Z</time>
      </trkpt>
      <trkpt lat="48.87266" lon="2.39006">
        <ele>127.9</ele>
        <time>2013-08-13T18:49:31.596Z</time>
      </trkpt>
      <trkpt lat="48.87265" lon="2.39014">
        <ele>125</ele>
        <time>2013-08-13T18:49:33.601Z</time>
      </trkpt>
      <trkpt lat="48.87264" lon="2.3902">
        <ele>123.9</ele>
        <time>2013-08-13T18:49:34.755Z</time>
      </trkpt>
      <trkpt lat="48.87262" lon="2.3903">
        <ele>122.7</ele>
        <time>2013-08-13T18:49:36.605Z</time>
      </trkpt>
      <trkpt lat="48.87259" lon="2.39037">
        <ele>122.1</ele>
        <time>2013-08-13T18:49:37.724Z</time>
      </trkpt>
      <trkpt lat="48.87257" lon="2.39043">
        <ele>121.7</ele>
        <time>2013-08-13T18:49:38.654Z</time>
      </trkpt>
      <trkpt lat="48.87253" lon="2.39049">
        <ele>122.2</ele>
        <time>2013-08-13T18:49:39.691Z</time>
      </trkpt>
      <trkpt lat="48.8725" lon="2.39053">
        <ele>122</ele>
        <time>2013-08-13T18:49:40.599Z</time>
      </trkpt>
      <trkpt lat="48.87245" lon="2.39057">
        <ele>121.7</ele>
        <time>2013-08-13T18:49:41.775Z</time>
      </trkpt>
      <trkpt lat="48.87237" lon="2.39061">
        <ele>123.8</ele>
        <time>2013-08-13T18:49:43.690Z</time>
      </trkpt>
      <trkpt lat="48.87233" lon="2.39064">
        <ele>123.3</ele>
        <time>2013-08-13T18:49:44.585Z</time>
      </trkpt>
      <trkpt lat="48.87228" lon="2.39069">
        <ele>123.4</ele>
        <time>2013-08-13T18:49:46.581Z</time>
      </trkpt>
      <trkpt lat="48.87225" lon="2.39073">
        <ele>124.8</ele>
        <time>2013-08-13T18:49:47.578Z</time>
      </trkpt>
      <trkpt lat="48.8722" lon="2.3908">
        <ele>126.1</ele>
        <time>2013-08-13T18:49:49.603Z</time>
      </trkpt>
      <trkpt lat="48.87217" lon="2.39084">
        <ele>126.5</ele>
        <time>2013-08-13T18:49:50.578Z</time>
      </trkpt>
      <trkpt lat="48.87211" lon="2.39093">
        <ele>126.5</ele>
        <time>2013-08-13T18:49:52.565Z</time>
      </trkpt>
      <trkpt lat="48.87209" lon="2.39098">
        <ele>126.6</ele>
        <time>2013-08-13T18:49:53.583Z</time>
      </trkpt>
      <trkpt lat="48.87203" lon="2.39105">
        <ele>128.1</ele>
        <time>2013-08-13T18:49:55.565Z</time>
      </trkpt>
      <trkpt lat="48.872" lon="2.39107">
        <ele>129</ele>
        <time>2013-08-13T18:49:56.596Z</time>
      </trkpt>
      <trkpt lat="48.87193" lon="2.39114">
        <ele>129.3</ele>
        <time>2013-08-13T18:49:59.595Z</time>
      </trkpt>
      <trkpt lat="48.8719" lon="2.39115">
        <ele>128.6</ele>
        <time>2013-08-13T18:50:00.589Z</time>
      </trkpt>
      <trkpt lat="48.87184" lon="2.39121">
        <ele>128.4</ele>
        <time>2013-08-13T18:50:03.581Z</time>
      </trkpt>
      <trkpt lat="48.87182" lon="2.39123">
        <ele>127.9</ele>
        <time>2013-08-13T18:50:04.604Z</time>
      </trkpt>
      <trkpt lat="48.87178" lon="2.39134">
        <ele>126.8</ele>
        <time>2013-08-13T18:50:07.572Z</time>
      </trkpt>
      <trkpt lat="48.87177" lon="2.39137">
        <ele>127.1</ele>
        <time>2013-08-13T18:50:08.592Z</time>
      </trkpt>
      <trkpt lat="48.87172" lon="2.39148">
        <ele>127.5</ele>
        <time>2013-08-13T18:50:13.571Z</time>
      </trkpt>
      <trkpt lat="48.87171" lon="2.39148">
        <ele>127.4</ele>
        <time>2013-08-13T18:50:14.576Z</time>
      </trkpt>
      <trkpt lat="48.87165" lon="2.39144">
        <ele>128.6</ele>
        <time>2013-08-13T18:50:25.586Z</time>
      </trkpt>
      <trkpt lat="48.87165" lon="2.39144">
        <ele>128.7</ele>
        <time>2013-08-13T18:50:26.586Z</time>
      </trkpt>
      <trkpt lat="48.87164" lon="2.39144">
        <ele>130.3</ele>
        <time>2013-08-13T18:50:46.569Z</time>
      </trkpt>
      <trkpt lat="48.87163" lon="2.39144">
        <ele>131.3</ele>
        <time>2013-08-13T18:50:47.596Z</time>
      </trkpt>
      <trkpt lat="48.87156" lon="2.39141">
        <ele>131.1</ele>
        <time>2013-08-13T18:50:51.585Z</time>
      </trkpt>
      <trkpt lat="48.87153" lon="2.3914">
        <ele>130.4</ele>
        <time>2013-08-13T18:50:52.594Z</time>
      </trkpt>
      <trkpt lat="48.87146" lon="2.39136">
        <ele>132.4</ele>
        <time>2013-08-13T18:50:55.592Z</time>
      </trkpt>
      <trkpt lat="48.87143" lon="2.39134">
        <ele>133.4</ele>
        <time>2013-08-13T18:50:56.586Z</time>
      </trkpt>
      <trkpt lat="48.87137" lon="2.3913">
        <ele>134.4</ele>
        <time>2013-08-13T18:50:58.587Z</time>
      </trkpt>
      <trkpt lat="48.87134" lon="2.39128">
        <ele>134.2</ele>
        <time>2013-08-13T18:50:59.577Z</time>
      </trkpt>
      <trkpt lat="48.87128" lon="2.39124">
        <ele>134.1</ele>
        <time>2013-08-13T18:51:01.595Z</time>
      </trkpt>
      <trkpt lat="48.87125" lon="2.39121">
        <ele>133.3</ele>
        <time>2013-08-13T18:51:02.641Z</time>
      </trkpt>
      <trkpt lat="48.87119" lon="2.39116">
        <ele>133.1</ele>
        <time>2013-08-13T18:51:04.572Z</time>
      </trkpt>
      <trkpt lat="48.87115" lon="2.39113">
        <ele>131.9</ele>
        <time>2013-08-13T18:51:05.594Z</time>
      </trkpt>
      <trkpt lat="48.8711" lon="2.39109">
        <ele>131.9</ele>
        <time>2013-08-13T18:51:06.615Z</time>
      </trkpt>
      <trkpt lat="48.87106" lon="2.39107">
        <ele>131.7</ele>
        <time>2013-08-13T18:51:07.577Z</time>
      </trkpt>
      <trkpt lat="48.87102" lon="2.39104">
        <ele>131.9</ele>
        <time>2013-08-13T18:51:08.593Z</time>
      </trkpt>
      <trkpt lat="48.87098" lon="2.39102">
        <ele>131.8</ele>
        <time>2013-08-13T18:51:09.593Z</time>
      </trkpt>
      <trkpt lat="48.87093" lon="2.391">
        <ele>131.8</ele>
        <time>2013-08-13T18:51:10.594Z</time>
      </trkpt>
      <trkpt lat="48.87088" lon="2.39099">
        <ele>133.2</ele>
        <time>2013-08-13T18:51:11.569Z</time>
      </trkpt>
      <trkpt lat="48.87083" lon="2.39099">
        <ele>135.1</ele>
        <time>2013-08-13T18:51:12.604Z</time>
      </trkpt>
      <trkpt lat="48.87077" lon="2.39099">
        <ele>136.6</ele>
        <time>2013-08-13T18:51:13.604Z</time>
      </trkpt>
      <trkpt lat="48.87072" lon="2.39099">
        <ele>137.8</ele>
        <time>2013-08-13T18:51:14.582Z</time>
      </trkpt>
      <trkpt lat="48.87067" lon="2.39099">
        <ele>136.8</ele>
        <time>2013-08-13T18:51:15.625Z</time>
      </trkpt>
      <trkpt lat="48.87063" lon="2.39099">
        <ele>137</ele>
        <time>2013-08-13T18:51:16.581Z</time>
      </trkpt>
      <trkpt lat="48.87058" lon="2.39098">
        <ele>138.4</ele>
        <time>2013-08-13T18:51:17.611Z</time>
      </trkpt>
      <trkpt lat="48.8705" lon="2.39096">
        <ele>140</ele>
        <time>2013-08-13T18:51:19.604Z</time>
      </trkpt>
      <trkpt lat="48.87046" lon="2.39095">
        <ele>139.6</ele>
        <time>2013-08-13T18:51:20.584Z</time>
      </trkpt>
      <trkpt lat="48.87038" lon="2.39092">
        <ele>139.4</ele>
        <time>2013-08-13T18:51:22.596Z</time>
      </trkpt>
      <trkpt lat="48.87033" lon="2.39091">
        <ele>139.6</ele>
        <time>2013-08-13T18:51:23.635Z</time>
      </trkpt>
      <trkpt lat="48.87026" lon="2.39086">
        <ele>136.8</ele>
        <time>2013-08-13T18:51:25.599Z</time>
      </trkpt>
      <trkpt lat="48.87022" lon="2.39084">
        <ele>136.7</ele>
        <time>2013-08-13T18:51:26.754Z</time>
      </trkpt>
      <trkpt lat="48.87017" lon="2.39079">
        <ele>135.7</ele>
        <time>2013-08-13T18:51:28.755Z</time>
      </trkpt>
      <trkpt lat="48.87014" lon="2.39077">
        <ele>136.2</ele>
        <time>2013-08-13T18:51:29.617Z</time>
      </trkpt>
      <trkpt lat="48.87007" lon="2.39075">
        <ele>134.7</ele>
        <time>2013-08-13T18:51:31.587Z</time>
      </trkpt>
      <trkpt lat="48.87003" lon="2.39074">
        <ele>132.1</ele>
        <time>2013-08-13T18:51:32.614Z</time>
      </trkpt>
      <trkpt lat="48.86995" lon="2.39076">
        <ele>128.8</ele>
        <time>2013-08-13T18:51:34.624Z</time>
      </trkpt>
      <trkpt lat="48.86992" lon="2.39078">
        <ele>129.5</ele>
        <time>2013-08-13T18:51:35.594Z</time>
      </trkpt>
      <trkpt lat="48.86986" lon="2.39084">
        <ele>124.2</ele>
        <time>2013-08-13T18:51:37.609Z</time>
      </trkpt>
      <trkpt lat="48.86982" lon="2.39086">
        <ele>122.8</ele>
        <time>2013-08-13T18:51:38.663Z</time>
      </trkpt>
      <trkpt lat="48.86976" lon="2.39092">
        <ele>121.6</ele>
        <time>2013-08-13T18:51:40.732Z</time>
      </trkpt>
      <trkpt lat="48.86973" lon="2.39094">
        <ele>121.1</ele>
        <time>2013-08-13T18:51:41.594Z</time>
      </trkpt>
      <trkpt lat="48.86967" lon="2.39099">
        <ele>118.9</ele>
        <time>2013-08-13T18:51:43.614Z</time>
      </trkpt>
      <trkpt lat="48.86963" lon="2.39101">
        <ele>119</ele>
        <time>2013-08-13T18:51:44.700Z</time>
      </trkpt>
      <trkpt lat="48.86957" lon="2.39106">
        <ele>117.6</ele>
        <time>2013-08-13T18:51:46.662Z</time>
      </trkpt>
      <trkpt lat="48.86953" lon="2.39108">
        <ele>116.5</ele>
        <time>2013-08-13T18:51:47.752Z</time>
      </trkpt>
      <trkpt lat="48.86946" lon="2.39114">
        <ele>117.9</ele>
        <time>2013-08-13T18:51:49.615Z</time>
      </trkpt>
      <trkpt lat="48.86943" lon="2.39117">
        <ele>116.9</ele>
        <time>2013-08-13T18:51:50.572Z</time>
      </trkpt>
      <trkpt lat="48.86936" lon="2.39124">
        <ele>116.2</ele>
        <time>2013-08-13T18:51:52.612Z</time>
      </trkpt>
      <trkpt lat="48.86934" lon="2.39128">
        <ele>117.5</ele>
        <time>2013-08-13T18:51:53.595Z</time>
      </trkpt>
      <trkpt lat="48.86929" lon="2.39134">
        <ele>119.1</ele>
        <time>2013-08-13T18:51:55.589Z</time>
      </trkpt>
      <trkpt lat="48.86927" lon="2.39137">
        <ele>120.8</ele>
        <time>2013-08-13T18:51:56.584Z</time>
      </trkpt>
      <trkpt lat="48.86919" lon="2.39143">
        <ele>125.1</ele>
        <time>2013-08-13T18:52:00.633Z</time>
      </trkpt>
      <trkpt lat="48.86918" lon="2.39145">
        <ele>124.9</ele>
        <time>2013-08-13T18:52:01.601Z</time>
      </trkpt>
      <trkpt lat="48.86917" lon="2.39157">
        <ele>128</ele>
        <time>2013-08-13T18:52:06.572Z</time>
      </trkpt>
      <trkpt lat="48.86917" lon="2.39159">
        <ele>128.5</ele>
        <time>2013-08-13T18:52:07.593Z</time>
      </trkpt>
      <trkpt lat="48.86923" lon="2.39167">
        <ele>126.3</ele>
        <time>2013-08-13T18:52:12.571Z</time>
      </trkpt>
      <trkpt lat="48.86924" lon="2.39168">
        <ele>124.5</ele>
        <time>2013-08-13T18:52:13.594Z</time>
      </trkpt>
      <trkpt lat="48.86921" lon="2.39181">
        <ele>129.6</ele>
        <time>2013-08-13T18:52:21.666Z</time>
      </trkpt>
      <trkpt lat="48.86921" lon="2.39181">
        <ele>129.7</ele>
        <time>2013-08-13T18:52:22.594Z</time>
      </trkpt>
      <trkpt lat="48.86914" lon="2.39189">
        <ele>136.7</ele>
        <time>2013-08-13T18:52:34.618Z</time>
      </trkpt>
      <trkpt lat="48.86912" lon="2.39191">
        <ele>137.3</ele>
        <time>2013-08-13T18:52:35.641Z</time>
      </trkpt>
      <trkpt lat="48.86905" lon="2.39195">
        <ele>136.2</ele>
        <time>2013-08-13T18:52:38.634Z</time>
      </trkpt>
      <trkpt lat="48.86903" lon="2.39196">
        <ele>135.2</ele>
        <time>2013-08-13T18:52:39.604Z</time>
      </trkpt>
      <trkpt lat="48.86895" lon="2.392">
        <ele>134.1</ele>
        <time>2013-08-13T18:52:42.604Z</time>
      </trkpt>
      <trkpt lat="48.86893" lon="2.39202">
        <ele>134.5</ele>
        <time>2013-08-13T18:52:43.609Z</time>
      </trkpt>
      <trkpt lat="48.86885" lon="2.39207">
        <ele>134.7</ele>
        <time>2013-08-13T18:52:46.596Z</time>
      </trkpt>
      <trkpt lat="48.86882" lon="2.39209">
        <ele>135.1</ele>
        <time>2013-08-13T18:52:47.605Z</time>
      </trkpt>
      <trkpt lat="48.86876" lon="2.39211">
        <ele>133.8</ele>
        <time>2013-08-13T18:52:49.592Z</time>
      </trkpt>
      <trkpt lat="48.86873" lon="2.39212">
        <ele>133.2</ele>
        <time>2013-08-13T18:52:50.616Z</time>
      </trkpt>
      <trkpt lat="48.86866" lon="2.39212">
        <ele>131.9</ele>
        <time>2013-08-13T18:52:52.591Z</time>
      </trkpt>
      <trkpt lat="48.86862" lon="2.39212">
        <ele>132</ele>
        <time>2013-08-13T18:52:53.615Z</time>
      </trkpt>
      <trkpt lat="48.86854" lon="2.39214">
        <ele>131.1</ele>
        <time>2013-08-13T18:52:55.613Z</time>
      </trkpt>
      <trkpt lat="48.8685" lon="2.39216">
        <ele>131</ele>
        <time>2013-08-13T18:52:56.588Z</time>
      </trkpt>
      <trkpt lat="48.86845" lon="2.39219">
        <ele>131.7</ele>
        <time>2013-08-13T18:52:57.603Z</time>
      </trkpt>
      <trkpt lat="48.8684" lon="2.39222">
        <ele>130.9</ele>
        <time>2013-08-13T18:52:58.617Z</time>
      </trkpt>
      <trkpt lat="48.86836" lon="2.39224">
        <ele>126.8</ele>
        <time>2013-08-13T18:52:59.613Z</time>
      </trkpt>
      <trkpt lat="48.86832" lon="2.39227">
        <ele>124</ele>
        <time>2013-08-13T18:53:00.616Z</time>
      </trkpt>
      <trkpt lat="48.86823" lon="2.3923">
        <ele>121.9</ele>
        <time>2013-08-13T18:53:02.586Z</time>
      </trkpt>
      <trkpt lat="48.86819" lon="2.39231">
        <ele>122.4</ele>
        <time>2013-08-13T18:53:03.600Z</time>
      </trkpt>
      <trkpt lat="48.86811" lon="2.39232">
        <ele>121.6</ele>
        <time>2013-08-13T18:53:04.613Z</time>
      </trkpt>
      <trkpt lat="48.86803" lon="2.39234">
        <ele>121.4</ele>
        <time>2013-08-13T18:53:05.607Z</time>
      </trkpt>
      <trkpt lat="48.86796" lon="2.39236">
        <ele>121.5</ele>
        <time>2013-08-13T18:53:06.654Z</time>
      </trkpt>
      <trkpt lat="48.86788" lon="2.39239">
        <ele>122.2</ele>
        <time>2013-08-13T18:53:07.581Z</time>
      </trkpt>
      <trkpt lat="48.86782" lon="2.39242">
        <ele>122.9</ele>
        <time>2013-08-13T18:53:08.646Z</time>
      </trkpt>
      <trkpt lat="48.86776" lon="2.39245">
        <ele>123.3</ele>
        <time>2013-08-13T18:53:09.603Z</time>
      </trkpt>
      <trkpt lat="48.8677" lon="2.39249">
        <ele>123.8</ele>
        <time>2013-08-13T18:53:10.593Z</time>
      </trkpt>
      <trkpt lat="48.86764" lon="2.39253">
        <ele>124.3</ele>
        <time>2013-08-13T18:53:11.616Z</time>
      </trkpt>
      <trkpt lat="48.86758" lon="2.39257">
        <ele>125.6</ele>
        <time>2013-08-13T18:53:12.571Z</time>
      </trkpt>
      <trkpt lat="48.86751" lon="2.3926">
        <ele>126.5</ele>
        <time>2013-08-13T18:53:13.593Z</time>
      </trkpt>
      <trkpt lat="48.86745" lon="2.39263">
        <ele>127.4</ele>
        <time>2013-08-13T18:53:14.601Z</time>
      </trkpt>
      <trkpt lat="48.86738" lon="2.39267">
        <ele>128.3</ele>
        <time>2013-08-13T18:53:15.595Z</time>
      </trkpt>
      <trkpt lat="48.86731" lon="2.3927">
        <ele>127.6</ele>
        <time>2013-08-13T18:53:16.709Z</time>
      </trkpt>
      <trkpt lat="48.86726" lon="2.39272">
        <ele>126.9</ele>
        <time>2013-08-13T18:53:17.601Z</time>
      </trkpt>
      <trkpt lat="48.86719" lon="2.39274">
        <ele>126.6</ele>
        <time>2013-08-13T18:53:18.664Z</time>
      </trkpt>
      <trkpt lat="48.86713" lon="2.39277">
        <ele>127.5</ele>
        <time>2013-08-13T18:53:19.733Z</time>
      </trkpt>
      <trkpt lat="48.86708" lon="2.39279">
        <ele>127.9</ele>
        <time>2013-08-13T18:53:20.612Z</time>
      </trkpt>
      <trkpt lat="48.86703" lon="2.39282">
        <ele>127.2</ele>
        <time>2013-08-13T18:53:21.755Z</time>
      </trkpt>
      <trkpt lat="48.86698" lon="2.39285">
        <ele>127.9</ele>
        <time>2013-08-13T18:53:22.653Z</time>
      </trkpt>
      <trkpt lat="48.86693" lon="2.39289">
        <ele>128.3</ele>
        <time>2013-08-13T18:53:23.755Z</time>
      </trkpt>
      <trkpt lat="48.86689" lon="2.39291">
        <ele>128.6</ele>
        <time>2013-08-13T18:53:24.714Z</time>
      </trkpt>
      <trkpt lat="48.86685" lon="2.39293">
        <ele>127.3</ele>
        <time>2013-08-13T18:53:25.672Z</time>
      </trkpt>
      <trkpt lat="48.86679" lon="2.39297">
        <ele>127.1</ele>
        <time>2013-08-13T18:53:27.612Z</time>
      </trkpt>
      <trkpt lat="48.86676" lon="2.39299">
        <ele>127.8</ele>
        <time>2013-08-13T18:53:28.786Z</time>
      </trkpt>
      <trkpt lat="48.86675" lon="2.39304">
        <ele>129.4</ele>
        <time>2013-08-13T18:53:34.643Z</time>
      </trkpt>
      <trkpt lat="48.86676" lon="2.39304">
        <ele>129.2</ele>
        <time>2013-08-13T18:53:35.774Z</time>
      </trkpt>
      <trkpt lat="48.86676" lon="2.39303">
        <ele>129.2</ele>
        <time>2013-08-13T18:53:36.627Z</time>
      </trkpt>
      <trkpt lat="48.86679" lon="2.39291">
        <ele>127.5</ele>
        <time>2013-08-13T18:53:49.598Z</time>
      </trkpt>
      <trkpt lat="48.86679" lon="2.3929">
        <ele>127.9</ele>
        <time>2013-08-13T18:53:50.615Z</time>
      </trkpt>
      <trkpt lat="48.86681" lon="2.39279">
        <ele>125.5</ele>
        <time>2013-08-13T18:54:01.634Z</time>
      </trkpt>
      <trkpt lat="48.86682" lon="2.39276">
        <ele>125.1</ele>
        <time>2013-08-13T18:54:02.617Z</time>
      </trkpt>
      <trkpt lat="48.86685" lon="2.39268">
        <ele>124.6</ele>
        <time>2013-08-13T18:54:04.629Z</time>
      </trkpt>
      <trkpt lat="48.86687" lon="2.39263">
        <ele>124.7</ele>
        <time>2013-08-13T18:54:05.598Z</time>
      </trkpt>
      <trkpt lat="48.86692" lon="2.39254">
        <ele>125.3</ele>
        <time>2013-08-13T18:54:07.612Z</time>
      </trkpt>
      <trkpt lat="48.86694" lon="2.39249">
        <ele>125.6</ele>
        <time>2013-08-13T18:54:08.643Z</time>
      </trkpt>
      <trkpt lat="48.867" lon="2.39239">
        <ele>125.4</ele>
        <time>2013-08-13T18:54:10.618Z</time>
      </trkpt>
      <trkpt lat="48.86703" lon="2.39235">
        <ele>125.9</ele>
        <time>2013-08-13T18:54:11.615Z</time>
      </trkpt>
      <trkpt lat="48.86709" lon="2.39226">
        <ele>126.3</ele>
        <time>2013-08-13T18:54:13.616Z</time>
      </trkpt>
      <trkpt lat="48.86714" lon="2.39219">
        <ele>125.4</ele>
        <time>2013-08-13T18:54:14.625Z</time>
      </trkpt>
      <trkpt lat="48.86718" lon="2.39213">
        <ele>124.8</ele>
        <time>2013-08-13T18:54:15.631Z</time>
      </trkpt>
      <trkpt lat="48.86722" lon="2.39205">
        <ele>124.1</ele>
        <time>2013-08-13T18:54:16.768Z</time>
      </trkpt>
      <trkpt lat="48.86725" lon="2.39199">
        <ele>123.7</ele>
        <time>2013-08-13T18:54:17.624Z</time>
      </trkpt>
      <trkpt lat="48.86729" lon="2.39192">
        <ele>123.6</ele>
        <time>2013-08-13T18:54:18.783Z</time>
      </trkpt>
      <trkpt lat="48.86731" lon="2.39185">
        <ele>123.5</ele>
        <time>2013-08-13T18:54:19.595Z</time>
      </trkpt>
      <trkpt lat="48.86735" lon="2.39176">
        <ele>123.4</ele>
        <time>2013-08-13T18:54:20.599Z</time>
      </trkpt>
      <trkpt lat="48.86738" lon="2.39168">
        <ele>121.6</ele>
        <time>2013-08-13T18:54:21.615Z</time>
      </trkpt>
      <trkpt lat="48.86742" lon="2.3916">
        <ele>120.7</ele>
        <time>2013-08-13T18:54:22.604Z</time>
      </trkpt>
      <trkpt lat="48.86745" lon="2.39151">
        <ele>120.8</ele>
        <time>2013-08-13T18:54:23.643Z</time>
      </trkpt>
      <trkpt lat="48.86748" lon="2.39142">
        <ele>120.7</ele>
        <time>2013-08-13T18:54:24.728Z</time>
      </trkpt>
      <trkpt lat="48.86751" lon="2.39136">
        <ele>121.7</ele>
        <time>2013-08-13T18:54:25.596Z</time>
      </trkpt>
      <trkpt lat="48.86756" lon="2.39129">
        <ele>121.8</ele>
        <time>2013-08-13T18:54:26.626Z</time>
      </trkpt>
      <trkpt lat="48.8676" lon="2.39122">
        <ele>121.5</ele>
        <time>2013-08-13T18:54:27.627Z</time>
      </trkpt>
      <trkpt lat="48.86763" lon="2.39114">
        <ele>122.2</ele>
        <time>2013-08-13T18:54:28.635Z</time>
      </trkpt>
      <trkpt lat="48.86767" lon="2.39107">
        <ele>122.1</ele>
        <time>2013-08-13T18:54:29.641Z</time>
      </trkpt>
      <trkpt lat="48.86771" lon="2.39101">
        <ele>122.6</ele>
        <time>2013-08-13T18:54:30.614Z</time>
      </trkpt>
      <trkpt lat="48.86774" lon="2.39094">
        <ele>123</ele>
        <time>2013-08-13T18:54:31.590Z</time>
      </trkpt>
      <trkpt lat="48.86778" lon="2.39086">
        <ele>122.9</ele>
        <time>2013-08-13T18:54:32.615Z</time>
      </trkpt>
      <trkpt lat="48.86781" lon="2.39079">
        <ele>122.7</ele>
        <time>2013-08-13T18:54:33.598Z</time>
      </trkpt>
      <trkpt lat="48.86783" lon="2.39071">
        <ele>124</ele>
        <time>2013-08-13T18:54:34.629Z</time>
      </trkpt>
      <trkpt lat="48.86785" lon="2.39064">
        <ele>124.4</ele>
        <time>2013-08-13T18:54:35.616Z</time>
      </trkpt>
      <trkpt lat="48.86784" lon="2.39057">
        <ele>124.9</ele>
        <time>2013-08-13T18:54:36.615Z</time>
      </trkpt>
      <trkpt lat="48.86782" lon="2.39044">
        <ele>125.2</ele>
        <time>2013-08-13T18:54:38.644Z</time>
      </trkpt>
      <trkpt lat="48.86777" lon="2.39038">
        <ele>124.2</ele>
        <time>2013-08-13T18:54:40.284Z</time>
      </trkpt>
      <trkpt lat="48.86773" lon="2.39041">
        <ele>123.4</ele>
        <time>2013-08-13T18:54:40.499Z</time>
      </trkpt>
      <trkpt lat="48.86768" lon="2.39043">
        <ele>122.9</ele>
        <time>2013-08-13T18:54:41.518Z</time>
      </trkpt>
      <trkpt lat="48.86763" lon="2.39047">
        <ele>123.1</ele>
        <time>2013-08-13T18:54:42.636Z</time>
      </trkpt>
      <trkpt lat="48.86759" lon="2.3905">
        <ele>123.2</ele>
        <time>2013-08-13T18:54:43.491Z</time>
      </trkpt>
      <trkpt lat="48.86752" lon="2.39056">
        <ele>124</ele>
        <time>2013-08-13T18:54:45.498Z</time>
      </trkpt>
      <trkpt lat="48.86749" lon="2.39058">
        <ele>123.6</ele>
        <time>2013-08-13T18:54:46.513Z</time>
      </trkpt>
      <trkpt lat="48.86742" lon="2.39061">
        <ele>124.9</ele>
        <time>2013-08-13T18:54:54.493Z</time>
      </trkpt>
      <trkpt lat="48.86743" lon="2.39061">
        <ele>125.1</ele>
        <time>2013-08-13T18:54:55.495Z</time>
      </trkpt>
      <trkpt lat="48.86744" lon="2.39061">
        <ele>125</ele>
        <time>2013-08-13T18:54:56.492Z</time>
      </trkpt>
      <trkpt lat="48.86746" lon="2.39061">
        <ele>126.1</ele>
        <time>2013-08-13T18:55:02.527Z</time>
      </trkpt>
      <trkpt lat="48.86746" lon="2.39061">
        <ele>126.2</ele>
        <time>2013-08-13T18:55:03.563Z</time>
      </trkpt>
      <trkpt lat="48.86745" lon="2.39061">
        <ele>126.4</ele>
        <time>2013-08-13T18:55:10.534Z</time>
      </trkpt>
      <trkpt lat="48.86745" lon="2.39061">
        <ele>126.6</ele>
        <time>2013-08-13T18:55:11.532Z</time>
      </trkpt>
      <trkpt lat="48.86737" lon="2.39057">
        <ele>125.4</ele>
        <time>2013-08-13T18:55:17.589Z</time>
      </trkpt>
      <trkpt lat="48.86736" lon="2.39055">
        <ele>127.1</ele>
        <time>2013-08-13T18:55:18.633Z</time>
      </trkpt>
      <trkpt lat="48.86737" lon="2.39042">
        <ele>127.6</ele>
        <time>2013-08-13T18:55:24.702Z</time>
      </trkpt>
      <trkpt lat="48.86738" lon="2.3904">
        <ele>127.9</ele>
        <time>2013-08-13T18:55:25.683Z</time>
      </trkpt>
      <trkpt lat="48.86746" lon="2.39039">
        <ele>126.4</ele>
        <time>2013-08-13T18:55:31.646Z</time>
      </trkpt>
      <trkpt lat="48.86747" lon="2.39041">
        <ele>127.4</ele>
        <time>2013-08-13T18:55:32.706Z</time>
      </trkpt>
      <trkpt lat="48.86754" lon="2.39045">
        <ele>131.4</ele>
        <time>2013-08-13T18:55:35.576Z</time>
      </trkpt>
      <trkpt lat="48.86759" lon="2.39043">
        <ele>131.7</ele>
        <time>2013-08-13T18:55:36.744Z</time>
      </trkpt>
      <trkpt lat="48.86764" lon="2.39041">
        <ele>133.9</ele>
        <time>2013-08-13T18:55:37.528Z</time>
      </trkpt>
      <trkpt lat="48.86774" lon="2.39028">
        <ele>130.5</ele>
        <time>2013-08-13T18:55:38.810Z</time>
      </trkpt>
      <trkpt lat="48.86781" lon="2.39019">
        <ele>129.5</ele>
        <time>2013-08-13T18:55:39.653Z</time>
      </trkpt>
      <trkpt lat="48.86785" lon="2.3901">
        <ele>129.6</ele>
        <time>2013-08-13T18:55:40.616Z</time>
      </trkpt>
      <trkpt lat="48.86788" lon="2.39002">
        <ele>128.9</ele>
        <time>2013-08-13T18:55:41.506Z</time>
      </trkpt>
      <trkpt lat="48.86789" lon="2.38994">
        <ele>129.4</ele>
        <time>2013-08-13T18:55:42.562Z</time>
      </trkpt>
      <trkpt lat="48.86788" lon="2.38985">
        <ele>130.8</ele>
        <time>2013-08-13T18:55:43.543Z</time>
      </trkpt>
      <trkpt lat="48.86786" lon="2.38974">
        <ele>127.9</ele>
        <time>2013-08-13T18:55:44.516Z</time>
      </trkpt>
      <trkpt lat="48.86785" lon="2.38963">
        <ele>127.4</ele>
        <time>2013-08-13T18:55:45.514Z</time>
      </trkpt>
      <trkpt lat="48.86783" lon="2.38952">
        <ele>126.8</ele>
        <time>2013-08-13T18:55:46.513Z</time>
      </trkpt>
      <trkpt lat="48.86782" lon="2.38944">
        <ele>127</ele>
        <time>2013-08-13T18:55:47.524Z</time>
      </trkpt>
      <trkpt lat="48.8678" lon="2.38936">
        <ele>126.3</ele>
        <time>2013-08-13T18:55:48.505Z</time>
      </trkpt>
      <trkpt lat="48.86779" lon="2.38928">
        <ele>125.8</ele>
        <time>2013-08-13T18:55:49.511Z</time>
      </trkpt>
      <trkpt lat="48.86776" lon="2.38922">
        <ele>123.7</ele>
        <time>2013-08-13T18:55:50.527Z</time>
      </trkpt>
      <trkpt lat="48.86773" lon="2.38917">
        <ele>122.5</ele>
        <time>2013-08-13T18:55:51.511Z</time>
      </trkpt>
      <trkpt lat="48.86771" lon="2.3891">
        <ele>122.1</ele>
        <time>2013-08-13T18:55:52.540Z</time>
      </trkpt>
      <trkpt lat="48.86768" lon="2.38902">
        <ele>122.2</ele>
        <time>2013-08-13T18:55:53.528Z</time>
      </trkpt>
      <trkpt lat="48.86766" lon="2.38895">
        <ele>122.5</ele>
        <time>2013-08-13T18:55:54.558Z</time>
      </trkpt>
      <trkpt lat="48.86767" lon="2.38882">
        <ele>124.1</ele>
        <time>2013-08-13T18:55:56.556Z</time>
      </trkpt>
      <trkpt lat="48.86768" lon="2.38876">
        <ele>125.1</ele>
        <time>2013-08-13T18:55:57.497Z</time>
      </trkpt>
      <trkpt lat="48.86769" lon="2.38865">
        <ele>124.8</ele>
        <time>2013-08-13T18:55:59.524Z</time>
      </trkpt>
      <trkpt lat="48.8677" lon="2.38861">
        <ele>124.7</ele>
        <time>2013-08-13T18:56:00.526Z</time>
      </trkpt>
      <trkpt lat="48.86773" lon="2.38872">
        <ele>126</ele>
        <time>2013-08-13T18:56:10.535Z</time>
      </trkpt>
      <trkpt lat="48.86774" lon="2.38873">
        <ele>126.3</ele>
        <time>2013-08-13T18:56:11.535Z</time>
      </trkpt>
      <trkpt lat="48.86779" lon="2.3887">
        <ele>128.3</ele>
        <time>2013-08-13T18:56:22.545Z</time>
      </trkpt>
      <trkpt lat="48.86778" lon="2.3887">
        <ele>127.5</ele>
        <time>2013-08-13T18:56:23.527Z</time>
      </trkpt>
      <trkpt lat="48.86778" lon="2.38871">
        <ele>127.1</ele>
        <time>2013-08-13T18:56:24.544Z</time>
      </trkpt>
      <trkpt lat="48.8677" lon="2.38878">
        <ele>123.7</ele>
        <time>2013-08-13T18:56:35.523Z</time>
      </trkpt>
      <trkpt lat="48.8677" lon="2.38879">
        <ele>123.4</ele>
        <time>2013-08-13T18:56:36.524Z</time>
      </trkpt>
      <trkpt lat="48.86764" lon="2.38881">
        <ele>120.8</ele>
        <time>2013-08-13T18:56:41.542Z</time>
      </trkpt>
      <trkpt lat="48.86761" lon="2.38884">
        <ele>120.4</ele>
        <time>2013-08-13T18:56:42.566Z</time>
      </trkpt>
      <trkpt lat="48.86754" lon="2.38891">
        <ele>122</ele>
        <time>2013-08-13T18:56:44.533Z</time>
      </trkpt>
      <trkpt lat="48.86751" lon="2.38895">
        <ele>122.3</ele>
        <time>2013-08-13T18:56:45.542Z</time>
      </trkpt>
      <trkpt lat="48.86744" lon="2.38902">
        <ele>120.2</ele>
        <time>2013-08-13T18:56:47.545Z</time>
      </trkpt>
      <trkpt lat="48.8674" lon="2.38905">
        <ele>120.6</ele>
        <time>2013-08-13T18:56:48.525Z</time>
      </trkpt>
      <trkpt lat="48.86734" lon="2.38909">
        <ele>120.3</ele>
        <time>2013-08-13T18:56:50.535Z</time>
      </trkpt>
      <trkpt lat="48.86731" lon="2.38911">
        <ele>120.9</ele>
        <time>2013-08-13T18:56:51.551Z</time>
      </trkpt>
      <trkpt lat="48.86723" lon="2.38915">
        <ele>124.9</ele>
        <time>2013-08-13T18:56:54.509Z</time>
      </trkpt>
      <trkpt lat="48.86721" lon="2.38916">
        <ele>124.3</ele>
        <time>2013-08-13T18:56:55.503Z</time>
      </trkpt>
      <trkpt lat="48.86715" lon="2.38918">
        <ele>124.2</ele>
        <time>2013-08-13T18:56:57.541Z</time>
      </trkpt>
      <trkpt lat="48.86711" lon="2.38919">
        <ele>125.4</ele>
        <time>2013-08-13T18:56:58.579Z</time>
      </trkpt>
      <trkpt lat="48.86703" lon="2.38922">
        <ele>122.1</ele>
        <time>2013-08-13T18:57:00.536Z</time>
      </trkpt>
      <trkpt lat="48.867" lon="2.38924">
        <ele>121.5</ele>
        <time>2013-08-13T18:57:01.535Z</time>
      </trkpt>
      <trkpt lat="48.86693" lon="2.38928">
        <ele>120.7</ele>
        <time>2013-08-13T18:57:03.527Z</time>
      </trkpt>
      <trkpt lat="48.8669" lon="2.38929">
        <ele>119.4</ele>
        <time>2013-08-13T18:57:04.534Z</time>
      </trkpt>
      <trkpt lat="48.86683" lon="2.38934">
        <ele>121.2</ele>
        <time>2013-08-13T18:57:07.503Z</time>
      </trkpt>
      <trkpt lat="48.86681" lon="2.38938">
        <ele>120.8</ele>
        <time>2013-08-13T18:57:08.573Z</time>
      </trkpt>
      <trkpt lat="48.86676" lon="2.38946">
        <ele>122.5</ele>
        <time>2013-08-13T18:57:10.541Z</time>
      </trkpt>
      <trkpt lat="48.86673" lon="2.38951">
        <ele>125.3</ele>
        <time>2013-08-13T18:57:11.545Z</time>
      </trkpt>
      <trkpt lat="48.86667" lon="2.38961">
        <ele>128.5</ele>
        <time>2013-08-13T18:57:13.507Z</time>
      </trkpt>
      <trkpt lat="48.86664" lon="2.38965">
        <ele>130.3</ele>
        <time>2013-08-13T18:57:14.533Z</time>
      </trkpt>
      <trkpt lat="48.86658" lon="2.38974">
        <ele>132.8</ele>
        <time>2013-08-13T18:57:16.523Z</time>
      </trkpt>
      <trkpt lat="48.86655" lon="2.38978">
        <ele>133.4</ele>
        <time>2013-08-13T18:57:17.539Z</time>
      </trkpt>
      <trkpt lat="48.8665" lon="2.38983">
        <ele>133</ele>
        <time>2013-08-13T18:57:19.526Z</time>
      </trkpt>
      <trkpt lat="48.86648" lon="2.38985">
        <ele>132.7</ele>
        <time>2013-08-13T18:57:20.675Z</time>
      </trkpt>
      <trkpt lat="48.86641" lon="2.3899">
        <ele>132.7</ele>
        <time>2013-08-13T18:57:23.503Z</time>
      </trkpt>
      <trkpt lat="48.86639" lon="2.38992">
        <ele>131.6</ele>
        <time>2013-08-13T18:57:24.525Z</time>
      </trkpt>
      <trkpt lat="48.86632" lon="2.38999">
        <ele>134.9</ele>
        <time>2013-08-13T18:57:38.548Z</time>
      </trkpt>
      <trkpt lat="48.86632" lon="2.39001">
        <ele>136.7</ele>
        <time>2013-08-13T18:57:39.544Z</time>
      </trkpt>
      <trkpt lat="48.86629" lon="2.39014">
        <ele>134.9</ele>
        <time>2013-08-13T18:57:46.544Z</time>
      </trkpt>
      <trkpt lat="48.8663" lon="2.39016">
        <ele>135.7</ele>
        <time>2013-08-13T18:57:47.546Z</time>
      </trkpt>
      <trkpt lat="48.86634" lon="2.39027">
        <ele>133.9</ele>
        <time>2013-08-13T18:57:51.535Z</time>
      </trkpt>
      <trkpt lat="48.86634" lon="2.39031">
        <ele>133.5</ele>
        <time>2013-08-13T18:57:52.549Z</time>
      </trkpt>
      <trkpt lat="48.86636" lon="2.39041">
        <ele>134.1</ele>
        <time>2013-08-13T18:57:55.564Z</time>
      </trkpt>
      <trkpt lat="48.86636" lon="2.39045">
        <ele>134</ele>
        <time>2013-08-13T18:57:56.555Z</time>
      </trkpt>
      <trkpt lat="48.86638" lon="2.39058">
        <ele>134</ele>
        <time>2013-08-13T18:58:00.555Z</time>
      </trkpt>
      <trkpt lat="48.86639" lon="2.39061">
        <ele>132.9</ele>
        <time>2013-08-13T18:58:01.531Z</time>
      </trkpt>
      <trkpt lat="48.86641" lon="2.3907">
        <ele>133.1</ele>
        <time>2013-08-13T18:58:03.535Z</time>
      </trkpt>
      <trkpt lat="48.86642" lon="2.39075">
        <ele>133</ele>
        <time>2013-08-13T18:58:04.538Z</time>
      </trkpt>
      <trkpt lat="48.86644" lon="2.39085">
        <ele>127.6</ele>
        <time>2013-08-13T18:58:06.543Z</time>
      </trkpt>
      <trkpt lat="48.86644" lon="2.3909">
        <ele>127.5</ele>
        <time>2013-08-13T18:58:07.528Z</time>
      </trkpt>
      <trkpt lat="48.86641" lon="2.391">
        <ele>124.5</ele>
        <time>2013-08-13T18:58:12.534Z</time>
      </trkpt>
      <trkpt lat="48.86639" lon="2.39102">
        <ele>123.7</ele>
        <time>2013-08-13T18:58:13.530Z</time>
      </trkpt>
      <trkpt lat="48.86634" lon="2.39111">
        <ele>128.1</ele>
        <time>2013-08-13T18:58:17.556Z</time>
      </trkpt>
      <trkpt lat="48.86632" lon="2.39113">
        <ele>130</ele>
        <time>2013-08-13T18:58:18.706Z</time>
      </trkpt>
      <trkpt lat="48.86625" lon="2.3912">
        <ele>130.3</ele>
        <time>2013-08-13T18:58:22.581Z</time>
      </trkpt>
      <trkpt lat="48.86623" lon="2.39122">
        <ele>131</ele>
        <time>2013-08-13T18:58:23.543Z</time>
      </trkpt>
      <trkpt lat="48.8662" lon="2.39132">
        <ele>131.1</ele>
        <time>2013-08-13T18:58:26.526Z</time>
      </trkpt>
      <trkpt lat="48.86619" lon="2.39136">
        <ele>131.6</ele>
        <time>2013-08-13T18:58:27.535Z</time>
      </trkpt>
      <trkpt lat="48.86617" lon="2.39148">
        <ele>133.5</ele>
        <time>2013-08-13T18:58:31.542Z</time>
      </trkpt>
      <trkpt lat="48.86616" lon="2.39151">
        <ele>132.8</ele>
        <time>2013-08-13T18:58:32.552Z</time>
      </trkpt>
      <trkpt lat="48.86611" lon="2.39162">
        <ele>135.7</ele>
        <time>2013-08-13T18:58:36.552Z</time>
      </trkpt>
      <trkpt lat="48.86609" lon="2.39165">
        <ele>134.9</ele>
        <time>2013-08-13T18:58:37.534Z</time>
      </trkpt>
      <trkpt lat="48.86603" lon="2.3917">
        <ele>134.3</ele>
        <time>2013-08-13T18:58:40.576Z</time>
      </trkpt>
      <trkpt lat="48.86601" lon="2.39172">
        <ele>133</ele>
        <time>2013-08-13T18:58:41.536Z</time>
      </trkpt>
      <trkpt lat="48.86597" lon="2.39182">
        <ele>130.8</ele>
        <time>2013-08-13T18:58:44.556Z</time>
      </trkpt>
      <trkpt lat="48.86596" lon="2.39185">
        <ele>130</ele>
        <time>2013-08-13T18:58:45.556Z</time>
      </trkpt>
      <trkpt lat="48.8659" lon="2.39192">
        <ele>133.2</ele>
        <time>2013-08-13T18:58:49.548Z</time>
      </trkpt>
      <trkpt lat="48.86589" lon="2.39193">
        <ele>134.1</ele>
        <time>2013-08-13T18:58:50.534Z</time>
      </trkpt>
      <trkpt lat="48.86582" lon="2.39201">
        <ele>138.4</ele>
        <time>2013-08-13T18:58:54.556Z</time>
      </trkpt>
      <trkpt lat="48.86581" lon="2.39203">
        <ele>139.5</ele>
        <time>2013-08-13T18:58:55.538Z</time>
      </trkpt>
      <trkpt lat="48.86576" lon="2.39212">
        <ele>138.5</ele>
        <time>2013-08-13T18:58:59.540Z</time>
      </trkpt>
      <trkpt lat="48.86574" lon="2.39215">
        <ele>138.6</ele>
        <time>2013-08-13T18:59:00.534Z</time>
      </trkpt>
      <trkpt lat="48.86571" lon="2.39227">
        <ele>137.6</ele>
        <time>2013-08-13T18:59:03.554Z</time>
      </trkpt>
      <trkpt lat="48.86571" lon="2.39231">
        <ele>136.7</ele>
        <time>2013-08-13T18:59:04.709Z</time>
      </trkpt>
      <trkpt lat="48.86571" lon="2.39242">
        <ele>131.5</ele>
        <time>2013-08-13T18:59:06.703Z</time>
      </trkpt>
      <trkpt lat="48.86571" lon="2.39247">
        <ele>130.2</ele>
        <time>2013-08-13T18:59:07.555Z</time>
      </trkpt>
      <trkpt lat="48.8657" lon="2.39257">
        <ele>130.5</ele>
        <time>2013-08-13T18:59:09.544Z</time>
      </trkpt>
      <trkpt lat="48.8657" lon="2.39262">
        <ele>130.2</ele>
        <time>2013-08-13T18:59:10.533Z</time>
      </trkpt>
      <trkpt lat="48.8657" lon="2.39273">
        <ele>130.7</ele>
        <time>2013-08-13T18:59:13.572Z</time>
      </trkpt>
      <trkpt lat="48.8657" lon="2.39276">
        <ele>131.9</ele>
        <time>2013-08-13T18:59:14.553Z</time>
      </trkpt>
      <trkpt lat="48.86568" lon="2.39288">
        <ele>135.6</ele>
        <time>2013-08-13T18:59:19.566Z</time>
      </trkpt>
      <trkpt lat="48.86567" lon="2.39291">
        <ele>134.7</ele>
        <time>2013-08-13T18:59:20.721Z</time>
      </trkpt>
      <trkpt lat="48.86564" lon="2.39304">
        <ele>131.5</ele>
        <time>2013-08-13T18:59:25.712Z</time>
      </trkpt>
      <trkpt lat="48.86564" lon="2.39304">
        <ele>131.7</ele>
        <time>2013-08-13T18:59:26.575Z</time>
      </trkpt>
      <trkpt lat="48.86564" lon="2.39305">
        <ele>133.9</ele>
        <time>2013-08-13T18:59:30.595Z</time>
      </trkpt>
      <trkpt lat="48.86564" lon="2.39305">
        <ele>134</ele>
        <time>2013-08-13T18:59:31.674Z</time>
      </trkpt>
      <trkpt lat="48.86565" lon="2.39305">
        <ele>134.5</ele>
        <time>2013-08-13T18:59:35.592Z</time>
      </trkpt>
      <trkpt lat="48.86565" lon="2.39305">
        <ele>134.5</ele>
        <time>2013-08-13T18:59:36.644Z</time>
      </trkpt>
      <trkpt lat="48.86565" lon="2.39305">
        <ele>134.6</ele>
        <time>2013-08-13T18:59:37.544Z</time>
      </trkpt>
      <trkpt lat="48.86564" lon="2.39306">
        <ele>135.8</ele>
        <time>2013-08-13T19:00:47.683Z</time>
      </trkpt>
      <trkpt lat="48.86564" lon="2.39306">
        <ele>136.6</ele>
        <time>2013-08-13T19:00:48.572Z</time>
      </trkpt>
      <trkpt lat="48.86561" lon="2.39309">
        <ele>133.8</ele>
        <time>2013-08-13T19:00:58.537Z</time>
      </trkpt>
      <trkpt lat="48.86561" lon="2.39309">
        <ele>134</ele>
        <time>2013-08-13T19:00:59.564Z</time>
      </trkpt>
      <trkpt lat="48.86561" lon="2.39309">
        <ele>135.4</ele>
        <time>2013-08-13T19:01:02.556Z</time>
      </trkpt>
      <trkpt lat="48.86561" lon="2.3931">
        <ele>136</ele>
        <time>2013-08-13T19:01:03.609Z</time>
      </trkpt>
      <trkpt lat="48.86563" lon="2.39323">
        <ele>134</ele>
        <time>2013-08-13T19:01:11.555Z</time>
      </trkpt>
      <trkpt lat="48.86563" lon="2.39326">
        <ele>132.8</ele>
        <time>2013-08-13T19:01:12.576Z</time>
      </trkpt>
      <trkpt lat="48.86565" lon="2.39339">
        <ele>132.1</ele>
        <time>2013-08-13T19:01:17.554Z</time>
      </trkpt>
      <trkpt lat="48.86566" lon="2.39341">
        <ele>131.7</ele>
        <time>2013-08-13T19:01:18.564Z</time>
      </trkpt>
      <trkpt lat="48.86567" lon="2.39354">
        <ele>135.1</ele>
        <time>2013-08-13T19:01:23.696Z</time>
      </trkpt>
      <trkpt lat="48.86567" lon="2.39357">
        <ele>134.2</ele>
        <time>2013-08-13T19:01:24.563Z</time>
      </trkpt>
      <trkpt lat="48.86567" lon="2.39368">
        <ele>135.2</ele>
        <time>2013-08-13T19:01:28.593Z</time>
      </trkpt>
      <trkpt lat="48.86567" lon="2.39371">
        <ele>135.1</ele>
        <time>2013-08-13T19:01:29.565Z</time>
      </trkpt>
      <trkpt lat="48.86569" lon="2.39383">
        <ele>135.9</ele>
        <time>2013-08-13T19:01:34.592Z</time>
      </trkpt>
      <trkpt lat="48.8657" lon="2.39385">
        <ele>136.9</ele>
        <time>2013-08-13T19:01:36.260Z</time>
      </trkpt>
      <trkpt lat="48.86571" lon="2.39398">
        <ele>134</ele>
        <time>2013-08-13T19:01:42.444Z</time>
      </trkpt>
      <trkpt lat="48.86572" lon="2.394">
        <ele>133.5</ele>
        <time>2013-08-13T19:01:43.454Z</time>
      </trkpt>
      <trkpt lat="48.86579" lon="2.39404">
        <ele>132.3</ele>
        <time>2013-08-13T19:01:50.462Z</time>
      </trkpt>
      <trkpt lat="48.8658" lon="2.39406">
        <ele>132.9</ele>
        <time>2013-08-13T19:01:51.576Z</time>
      </trkpt>
      <trkpt lat="48.86582" lon="2.39418">
        <ele>136.6</ele>
        <time>2013-08-13T19:01:57.497Z</time>
      </trkpt>
      <trkpt lat="48.86582" lon="2.39421">
        <ele>136.1</ele>
        <time>2013-08-13T19:01:58.451Z</time>
      </trkpt>
      <trkpt lat="48.86578" lon="2.3943">
        <ele>139.3</ele>
        <time>2013-08-13T19:02:07.456Z</time>
      </trkpt>
      <trkpt lat="48.86578" lon="2.3943">
        <ele>139.8</ele>
        <time>2013-08-13T19:02:08.451Z</time>
      </trkpt>
      <trkpt lat="48.86577" lon="2.39432">
        <ele>138.7</ele>
        <time>2013-08-13T19:02:26.444Z</time>
      </trkpt>
      <trkpt lat="48.86576" lon="2.39433">
        <ele>139.1</ele>
        <time>2013-08-13T19:02:27.417Z</time>
      </trkpt>
      <trkpt lat="48.86572" lon="2.39444">
        <ele>136.6</ele>
        <time>2013-08-13T19:02:32.456Z</time>
      </trkpt>
      <trkpt lat="48.86571" lon="2.39447">
        <ele>135.6</ele>
        <time>2013-08-13T19:02:33.469Z</time>
      </trkpt>
      <trkpt lat="48.86566" lon="2.39457">
        <ele>134.5</ele>
        <time>2013-08-13T19:02:36.456Z</time>
      </trkpt>
      <trkpt lat="48.86564" lon="2.39461">
        <ele>134.5</ele>
        <time>2013-08-13T19:02:37.439Z</time>
      </trkpt>
      <trkpt lat="48.8656" lon="2.39469">
        <ele>134.5</ele>
        <time>2013-08-13T19:02:39.462Z</time>
      </trkpt>
      <trkpt lat="48.86558" lon="2.39473">
        <ele>133.9</ele>
        <time>2013-08-13T19:02:40.436Z</time>
      </trkpt>
      <trkpt lat="48.86553" lon="2.39483">
        <ele>132</ele>
        <time>2013-08-13T19:02:43.435Z</time>
      </trkpt>
      <trkpt lat="48.86551" lon="2.39486">
        <ele>132.7</ele>
        <time>2013-08-13T19:02:44.444Z</time>
      </trkpt>
      <trkpt lat="48.86546" lon="2.39494">
        <ele>132.4</ele>
        <time>2013-08-13T19:02:47.452Z</time>
      </trkpt>
      <trkpt lat="48.86544" lon="2.39497">
        <ele>131.8</ele>
        <time>2013-08-13T19:02:48.659Z</time>
      </trkpt>
      <trkpt lat="48.86539" lon="2.39505">
        <ele>132.5</ele>
        <time>2013-08-13T19:02:50.629Z</time>
      </trkpt>
      <trkpt lat="48.86537" lon="2.39509">
        <ele>132.7</ele>
        <time>2013-08-13T19:02:51.481Z</time>
      </trkpt>
      <trkpt lat="48.86534" lon="2.39514">
        <ele>131</ele>
        <time>2013-08-13T19:02:52.542Z</time>
      </trkpt>
      <trkpt lat="48.86531" lon="2.3952">
        <ele>130.1</ele>
        <time>2013-08-13T19:02:53.658Z</time>
      </trkpt>
      <trkpt lat="48.86529" lon="2.39524">
        <ele>129.3</ele>
        <time>2013-08-13T19:02:54.487Z</time>
      </trkpt>
      <trkpt lat="48.86525" lon="2.3953">
        <ele>129.3</ele>
        <time>2013-08-13T19:02:55.659Z</time>
      </trkpt>
      <trkpt lat="48.8652" lon="2.3954">
        <ele>126.5</ele>
        <time>2013-08-13T19:02:57.674Z</time>
      </trkpt>
      <trkpt lat="48.86518" lon="2.39544">
        <ele>124.9</ele>
        <time>2013-08-13T19:02:58.524Z</time>
      </trkpt>
      <trkpt lat="48.8651" lon="2.39549">
        <ele>126.6</ele>
        <time>2013-08-13T19:03:12.477Z</time>
      </trkpt>
      <trkpt lat="48.8651" lon="2.39549">
        <ele>126.4</ele>
        <time>2013-08-13T19:03:13.458Z</time>
      </trkpt>
      <trkpt lat="48.8651" lon="2.39549">
        <ele>126.4</ele>
        <time>2013-08-13T19:03:14.436Z</time>
      </trkpt>
      <trkpt lat="48.8651" lon="2.39548">
        <ele>126</ele>
        <time>2013-08-13T19:04:14.445Z</time>
      </trkpt>
      <trkpt lat="48.8651" lon="2.39548">
        <ele>126.4</ele>
        <time>2013-08-13T19:04:15.448Z</time>
      </trkpt>
      <trkpt lat="48.86503" lon="2.39541">
        <ele>130.1</ele>
        <time>2013-08-13T19:04:19.456Z</time>
      </trkpt>
      <trkpt lat="48.865" lon="2.39539">
        <ele>130.8</ele>
        <time>2013-08-13T19:04:20.444Z</time>
      </trkpt>
      <trkpt lat="48.86494" lon="2.39531">
        <ele>133.7</ele>
        <time>2013-08-13T19:04:22.456Z</time>
      </trkpt>
      <trkpt lat="48.86491" lon="2.39526">
        <ele>133.7</ele>
        <time>2013-08-13T19:04:23.457Z</time>
      </trkpt>
      <trkpt lat="48.86486" lon="2.39516">
        <ele>133.8</ele>
        <time>2013-08-13T19:04:24.447Z</time>
      </trkpt>
      <trkpt lat="48.86482" lon="2.39506">
        <ele>133.9</ele>
        <time>2013-08-13T19:04:25.477Z</time>
      </trkpt>
      <trkpt lat="48.86479" lon="2.39497">
        <ele>133.9</ele>
        <time>2013-08-13T19:04:26.451Z</time>
      </trkpt>
      <trkpt lat="48.86477" lon="2.39488">
        <ele>134.2</ele>
        <time>2013-08-13T19:04:27.487Z</time>
      </trkpt>
      <trkpt lat="48.86475" lon="2.39479">
        <ele>134.2</ele>
        <time>2013-08-13T19:04:28.467Z</time>
      </trkpt>
      <trkpt lat="48.86473" lon="2.39471">
        <ele>134.5</ele>
        <time>2013-08-13T19:04:29.474Z</time>
      </trkpt>
      <trkpt lat="48.8647" lon="2.39463">
        <ele>134.7</ele>
        <time>2013-08-13T19:04:30.456Z</time>
      </trkpt>
      <trkpt lat="48.86468" lon="2.39456">
        <ele>134.7</ele>
        <time>2013-08-13T19:04:31.456Z</time>
      </trkpt>
      <trkpt lat="48.86465" lon="2.39447">
        <ele>134.7</ele>
        <time>2013-08-13T19:04:32.455Z</time>
      </trkpt>
      <trkpt lat="48.86462" lon="2.39436">
        <ele>135.3</ele>
        <time>2013-08-13T19:04:33.442Z</time>
      </trkpt>
      <trkpt lat="48.86458" lon="2.39426">
        <ele>135.4</ele>
        <time>2013-08-13T19:04:34.466Z</time>
      </trkpt>
      <trkpt lat="48.86456" lon="2.39418">
        <ele>135.5</ele>
        <time>2013-08-13T19:04:35.483Z</time>
      </trkpt>
      <trkpt lat="48.86452" lon="2.39409">
        <ele>135.7</ele>
        <time>2013-08-13T19:04:36.484Z</time>
      </trkpt>
      <trkpt lat="48.86449" lon="2.39398">
        <ele>135.9</ele>
        <time>2013-08-13T19:04:37.444Z</time>
      </trkpt>
      <trkpt lat="48.86445" lon="2.39389">
        <ele>135.6</ele>
        <time>2013-08-13T19:04:38.477Z</time>
      </trkpt>
      <trkpt lat="48.86442" lon="2.39379">
        <ele>135.8</ele>
        <time>2013-08-13T19:04:39.468Z</time>
      </trkpt>
      <trkpt lat="48.86438" lon="2.39365">
        <ele>133.9</ele>
        <time>2013-08-13T19:04:40.461Z</time>
      </trkpt>
      <trkpt lat="48.86434" lon="2.39354">
        <ele>133.2</ele>
        <time>2013-08-13T19:04:41.452Z</time>
      </trkpt>
      <trkpt lat="48.8643" lon="2.39341">
        <ele>133.4</ele>
        <time>2013-08-13T19:04:42.440Z</time>
      </trkpt>
      <trkpt lat="48.86426" lon="2.3933">
        <ele>132.4</ele>
        <time>2013-08-13T19:04:43.444Z</time>
      </trkpt>
      <trkpt lat="48.86423" lon="2.39317">
        <ele>131.7</ele>
        <time>2013-08-13T19:04:44.476Z</time>
      </trkpt>
      <trkpt lat="48.86419" lon="2.39306">
        <ele>131.9</ele>
        <time>2013-08-13T19:04:45.466Z</time>
      </trkpt>
      <trkpt lat="48.86417" lon="2.39294">
        <ele>130.6</ele>
        <time>2013-08-13T19:04:46.508Z</time>
      </trkpt>
      <trkpt lat="48.86416" lon="2.3928">
        <ele>131.1</ele>
        <time>2013-08-13T19:04:47.474Z</time>
      </trkpt>
      <trkpt lat="48.86414" lon="2.39267">
        <ele>130.5</ele>
        <time>2013-08-13T19:04:48.454Z</time>
      </trkpt>
      <trkpt lat="48.86411" lon="2.39255">
        <ele>129.7</ele>
        <time>2013-08-13T19:04:49.465Z</time>
      </trkpt>
      <trkpt lat="48.86412" lon="2.3924">
        <ele>127.3</ele>
        <time>2013-08-13T19:04:50.459Z</time>
      </trkpt>
      <trkpt lat="48.86411" lon="2.39226">
        <ele>126.8</ele>
        <time>2013-08-13T19:04:51.473Z</time>
      </trkpt>
      <trkpt lat="48.86409" lon="2.39213">
        <ele>125.9</ele>
        <time>2013-08-13T19:04:52.488Z</time>
      </trkpt>
      <trkpt lat="48.86405" lon="2.39202">
        <ele>125.2</ele>
        <time>2013-08-13T19:04:53.447Z</time>
      </trkpt>
      <trkpt lat="48.864" lon="2.39192">
        <ele>125.8</ele>
        <time>2013-08-13T19:04:54.450Z</time>
      </trkpt>
      <trkpt lat="48.86397" lon="2.39183">
        <ele>126</ele>
        <time>2013-08-13T19:04:55.475Z</time>
      </trkpt>
      <trkpt lat="48.86394" lon="2.39174">
        <ele>125.4</ele>
        <time>2013-08-13T19:04:56.461Z</time>
      </trkpt>
      <trkpt lat="48.86392" lon="2.39164">
        <ele>125.1</ele>
        <time>2013-08-13T19:04:57.459Z</time>
      </trkpt>
      <trkpt lat="48.86388" lon="2.39154">
        <ele>124.8</ele>
        <time>2013-08-13T19:04:58.473Z</time>
      </trkpt>
      <trkpt lat="48.86385" lon="2.39143">
        <ele>124.6</ele>
        <time>2013-08-13T19:04:59.459Z</time>
      </trkpt>
      <trkpt lat="48.86381" lon="2.39132">
        <ele>124.8</ele>
        <time>2013-08-13T19:05:00.471Z</time>
      </trkpt>
      <trkpt lat="48.86378" lon="2.3912">
        <ele>124.9</ele>
        <time>2013-08-13T19:05:01.463Z</time>
      </trkpt>
      <trkpt lat="48.86375" lon="2.39109">
        <ele>124.9</ele>
        <time>2013-08-13T19:05:02.464Z</time>
      </trkpt>
      <trkpt lat="48.86373" lon="2.39099">
        <ele>123.8</ele>
        <time>2013-08-13T19:05:03.455Z</time>
      </trkpt>
      <trkpt lat="48.8637" lon="2.39087">
        <ele>123.3</ele>
        <time>2013-08-13T19:05:04.462Z</time>
      </trkpt>
      <trkpt lat="48.86366" lon="2.39076">
        <ele>122.3</ele>
        <time>2013-08-13T19:05:05.497Z</time>
      </trkpt>
      <trkpt lat="48.86362" lon="2.39065">
        <ele>122.8</ele>
        <time>2013-08-13T19:05:06.465Z</time>
      </trkpt>
      <trkpt lat="48.8636" lon="2.39052">
        <ele>122.8</ele>
        <time>2013-08-13T19:05:07.450Z</time>
      </trkpt>
      <trkpt lat="48.86357" lon="2.39039">
        <ele>122.9</ele>
        <time>2013-08-13T19:05:08.468Z</time>
      </trkpt>
      <trkpt lat="48.86354" lon="2.39027">
        <ele>122.4</ele>
        <time>2013-08-13T19:05:09.503Z</time>
      </trkpt>
      <trkpt lat="48.86351" lon="2.39017">
        <ele>122.1</ele>
        <time>2013-08-13T19:05:10.478Z</time>
      </trkpt>
      <trkpt lat="48.86348" lon="2.39008">
        <ele>123.1</ele>
        <time>2013-08-13T19:05:11.447Z</time>
      </trkpt>
      <trkpt lat="48.86344" lon="2.38997">
        <ele>122.5</ele>
        <time>2013-08-13T19:05:12.485Z</time>
      </trkpt>
      <trkpt lat="48.86341" lon="2.38991">
        <ele>122.2</ele>
        <time>2013-08-13T19:05:13.473Z</time>
      </trkpt>
      <trkpt lat="48.86338" lon="2.38984">
        <ele>122.5</ele>
        <time>2013-08-13T19:05:14.480Z</time>
      </trkpt>
      <trkpt lat="48.86335" lon="2.38977">
        <ele>123.2</ele>
        <time>2013-08-13T19:05:15.459Z</time>
      </trkpt>
      <trkpt lat="48.86332" lon="2.38969">
        <ele>123.6</ele>
        <time>2013-08-13T19:05:16.433Z</time>
      </trkpt>
      <trkpt lat="48.86328" lon="2.38958">
        <ele>123.6</ele>
        <time>2013-08-13T19:05:17.474Z</time>
      </trkpt>
      <trkpt lat="48.86325" lon="2.38947">
        <ele>123.6</ele>
        <time>2013-08-13T19:05:18.435Z</time>
      </trkpt>
      <trkpt lat="48.86322" lon="2.38936">
        <ele>124.4</ele>
        <time>2013-08-13T19:05:19.467Z</time>
      </trkpt>
      <trkpt lat="48.86319" lon="2.38924">
        <ele>125.5</ele>
        <time>2013-08-13T19:05:20.465Z</time>
      </trkpt>
      <trkpt lat="48.86319" lon="2.38909">
        <ele>125.4</ele>
        <time>2013-08-13T19:05:21.473Z</time>
      </trkpt>
      <trkpt lat="48.86319" lon="2.38894">
        <ele>125.3</ele>
        <time>2013-08-13T19:05:22.435Z</time>
      </trkpt>
      <trkpt lat="48.86319" lon="2.38879">
        <ele>125</ele>
        <time>2013-08-13T19:05:23.461Z</time>
      </trkpt>
      <trkpt lat="48.86318" lon="2.38865">
        <ele>124.5</ele>
        <time>2013-08-13T19:05:24.492Z</time>
      </trkpt>
      <trkpt lat="48.86317" lon="2.38854">
        <ele>124.3</ele>
        <time>2013-08-13T19:05:25.472Z</time>
      </trkpt>
      <trkpt lat="48.86316" lon="2.38846">
        <ele>124.6</ele>
        <time>2013-08-13T19:05:26.446Z</time>
      </trkpt>
      <trkpt lat="48.86313" lon="2.38837">
        <ele>124.7</ele>
        <time>2013-08-13T19:05:27.437Z</time>
      </trkpt>
      <trkpt lat="48.86311" lon="2.3883">
        <ele>125.2</ele>
        <time>2013-08-13T19:05:28.494Z</time>
      </trkpt>
      <trkpt lat="48.86309" lon="2.38822">
        <ele>122.2</ele>
        <time>2013-08-13T19:05:29.503Z</time>
      </trkpt>
      <trkpt lat="48.86307" lon="2.38814">
        <ele>121</ele>
        <time>2013-08-13T19:05:30.432Z</time>
      </trkpt>
      <trkpt lat="48.86305" lon="2.38803">
        <ele>119.5</ele>
        <time>2013-08-13T19:05:31.439Z</time>
      </trkpt>
      <trkpt lat="48.86302" lon="2.38792">
        <ele>119.9</ele>
        <time>2013-08-13T19:05:32.435Z</time>
      </trkpt>
      <trkpt lat="48.86299" lon="2.38781">
        <ele>118.8</ele>
        <time>2013-08-13T19:05:33.438Z</time>
      </trkpt>
      <trkpt lat="48.86297" lon="2.38769">
        <ele>119</ele>
        <time>2013-08-13T19:05:34.486Z</time>
      </trkpt>
      <trkpt lat="48.86296" lon="2.38762">
        <ele>119.1</ele>
        <time>2013-08-13T19:05:35.476Z</time>
      </trkpt>
      <trkpt lat="48.86304" lon="2.38763">
        <ele>114.6</ele>
        <time>2013-08-13T19:05:56.483Z</time>
      </trkpt>
      <trkpt lat="48.86304" lon="2.38763">
        <ele>114.4</ele>
        <time>2013-08-13T19:05:57.551Z</time>
      </trkpt>
      <trkpt lat="48.86304" lon="2.38763">
        <ele>114.5</ele>
        <time>2013-08-13T19:05:59.456Z</time>
      </trkpt>
      <trkpt lat="48.86302" lon="2.38762">
        <ele>113</ele>
        <time>2013-08-13T19:06:00.492Z</time>
      </trkpt>
      <trkpt lat="48.86299" lon="2.3876">
        <ele>111.7</ele>
        <time>2013-08-13T19:06:05.473Z</time>
      </trkpt>
      <trkpt lat="48.863" lon="2.38759">
        <ele>111.9</ele>
        <time>2013-08-13T19:06:06.486Z</time>
      </trkpt>
      <trkpt lat="48.863" lon="2.38759">
        <ele>112.2</ele>
        <time>2013-08-13T19:06:07.468Z</time>
      </trkpt>
      <trkpt lat="48.86301" lon="2.38759">
        <ele>112</ele>
        <time>2013-08-13T19:06:09.475Z</time>
      </trkpt>
      <trkpt lat="48.86301" lon="2.38759">
        <ele>112</ele>
        <time>2013-08-13T19:06:10.449Z</time>
      </trkpt>
      <trkpt lat="48.863" lon="2.38759">
        <ele>111.1</ele>
        <time>2013-08-13T19:06:11.497Z</time>
      </trkpt>
      <trkpt lat="48.86301" lon="2.38761">
        <ele>110.7</ele>
        <time>2013-08-13T19:06:12.470Z</time>
      </trkpt>
      <trkpt lat="48.863" lon="2.38763">
        <ele>110.3</ele>
        <time>2013-08-13T19:06:15.448Z</time>
      </trkpt>
      <trkpt lat="48.863" lon="2.38763">
        <ele>109</ele>
        <time>2013-08-13T19:06:16.461Z</time>
      </trkpt>
      <trkpt lat="48.863" lon="2.38762">
        <ele>108.7</ele>
        <time>2013-08-13T19:08:13.488Z</time>
      </trkpt>
      <trkpt lat="48.863" lon="2.38761">
        <ele>109.4</ele>
        <time>2013-08-13T19:08:14.474Z</time>
      </trkpt>
      <trkpt lat="48.86297" lon="2.38749">
        <ele>110.2</ele>
        <time>2013-08-13T19:08:18.504Z</time>
      </trkpt>
      <trkpt lat="48.86296" lon="2.38747">
        <ele>110.6</ele>
        <time>2013-08-13T19:08:19.478Z</time>
      </trkpt>
      <trkpt lat="48.8629" lon="2.38738">
        <ele>110.3</ele>
        <time>2013-08-13T19:08:24.487Z</time>
      </trkpt>
      <trkpt lat="48.86289" lon="2.38736">
        <ele>111</ele>
        <time>2013-08-13T19:08:25.485Z</time>
      </trkpt>
      <trkpt lat="48.86285" lon="2.38726">
        <ele>109.8</ele>
        <time>2013-08-13T19:08:30.582Z</time>
      </trkpt>
      <trkpt lat="48.86284" lon="2.38724">
        <ele>109.6</ele>
        <time>2013-08-13T19:08:31.631Z</time>
      </trkpt>
      <trkpt lat="48.86287" lon="2.38713">
        <ele>107.1</ele>
        <time>2013-08-13T19:08:38.675Z</time>
      </trkpt>
      <trkpt lat="48.86288" lon="2.3871">
        <ele>108.4</ele>
        <time>2013-08-13T19:08:39.714Z</time>
      </trkpt>
      <trkpt lat="48.86286" lon="2.38697">
        <ele>109.5</ele>
        <time>2013-08-13T19:08:42.514Z</time>
      </trkpt>
      <trkpt lat="48.86285" lon="2.38692">
        <ele>110.7</ele>
        <time>2013-08-13T19:08:43.658Z</time>
      </trkpt>
      <trkpt lat="48.8628" lon="2.38685">
        <ele>112.6</ele>
        <time>2013-08-13T19:08:45.661Z</time>
      </trkpt>
      <trkpt lat="48.86279" lon="2.38681">
        <ele>113</ele>
        <time>2013-08-13T19:08:46.597Z</time>
      </trkpt>
      <trkpt lat="48.86275" lon="2.38672">
        <ele>114.2</ele>
        <time>2013-08-13T19:08:48.675Z</time>
      </trkpt>
      <trkpt lat="48.86273" lon="2.38663">
        <ele>112.2</ele>
        <time>2013-08-13T19:08:49.537Z</time>
      </trkpt>
      <trkpt lat="48.86271" lon="2.3865">
        <ele>112.5</ele>
        <time>2013-08-13T19:08:50.681Z</time>
      </trkpt>
      <trkpt lat="48.86269" lon="2.3864">
        <ele>113.7</ele>
        <time>2013-08-13T19:08:51.486Z</time>
      </trkpt>
      <trkpt lat="48.86267" lon="2.38629">
        <ele>114.1</ele>
        <time>2013-08-13T19:08:52.473Z</time>
      </trkpt>
      <trkpt lat="48.86263" lon="2.38616">
        <ele>113.7</ele>
        <time>2013-08-13T19:08:53.484Z</time>
      </trkpt>
      <trkpt lat="48.86254" lon="2.38618">
        <ele>113.5</ele>
        <time>2013-08-13T19:08:54.491Z</time>
      </trkpt>
      <trkpt lat="48.86248" lon="2.3862">
        <ele>114.5</ele>
        <time>2013-08-13T19:08:55.471Z</time>
      </trkpt>
      <trkpt lat="48.86244" lon="2.3862">
        <ele>114.9</ele>
        <time>2013-08-13T19:08:56.489Z</time>
      </trkpt>
      <trkpt lat="48.8624" lon="2.38615">
        <ele>115.2</ele>
        <time>2013-08-13T19:08:57.494Z</time>
      </trkpt>
      <trkpt lat="48.86238" lon="2.38608">
        <ele>114.7</ele>
        <time>2013-08-13T19:08:58.489Z</time>
      </trkpt>
      <trkpt lat="48.86237" lon="2.38597">
        <ele>113.7</ele>
        <time>2013-08-13T19:08:59.481Z</time>
      </trkpt>
      <trkpt lat="48.86238" lon="2.38585">
        <ele>113.2</ele>
        <time>2013-08-13T19:09:00.468Z</time>
      </trkpt>
      <trkpt lat="48.86235" lon="2.38573">
        <ele>110.9</ele>
        <time>2013-08-13T19:09:01.531Z</time>
      </trkpt>
      <trkpt lat="48.86232" lon="2.38566">
        <ele>111.6</ele>
        <time>2013-08-13T19:09:02.479Z</time>
      </trkpt>
      <trkpt lat="48.86228" lon="2.38563">
        <ele>110</ele>
        <time>2013-08-13T19:09:03.488Z</time>
      </trkpt>
      <trkpt lat="48.86224" lon="2.3856">
        <ele>110</ele>
        <time>2013-08-13T19:09:04.482Z</time>
      </trkpt>
      <trkpt lat="48.86222" lon="2.3855">
        <ele>109.2</ele>
        <time>2013-08-13T19:09:05.482Z</time>
      </trkpt>
      <trkpt lat="48.8622" lon="2.38539">
        <ele>108.7</ele>
        <time>2013-08-13T19:09:06.490Z</time>
      </trkpt>
      <trkpt lat="48.86217" lon="2.38528">
        <ele>108.4</ele>
        <time>2013-08-13T19:09:07.491Z</time>
      </trkpt>
      <trkpt lat="48.86215" lon="2.38518">
        <ele>108.9</ele>
        <time>2013-08-13T19:09:08.468Z</time>
      </trkpt>
      <trkpt lat="48.86213" lon="2.38508">
        <ele>109.1</ele>
        <time>2013-08-13T19:09:09.483Z</time>
      </trkpt>
      <trkpt lat="48.86211" lon="2.38497">
        <ele>109.5</ele>
        <time>2013-08-13T19:09:10.494Z</time>
      </trkpt>
      <trkpt lat="48.86208" lon="2.38485">
        <ele>108.8</ele>
        <time>2013-08-13T19:09:11.475Z</time>
      </trkpt>
      <trkpt lat="48.86205" lon="2.38475">
        <ele>108.4</ele>
        <time>2013-08-13T19:09:12.487Z</time>
      </trkpt>
      <trkpt lat="48.86204" lon="2.38465">
        <ele>108.2</ele>
        <time>2013-08-13T19:09:13.485Z</time>
      </trkpt>
      <trkpt lat="48.86207" lon="2.38455">
        <ele>105.4</ele>
        <time>2013-08-13T19:09:14.488Z</time>
      </trkpt>
      <trkpt lat="48.86209" lon="2.38443">
        <ele>105</ele>
        <time>2013-08-13T19:09:16.490Z</time>
      </trkpt>
      <trkpt lat="48.8621" lon="2.38437">
        <ele>105.1</ele>
        <time>2013-08-13T19:09:17.492Z</time>
      </trkpt>
      <trkpt lat="48.86207" lon="2.38427">
        <ele>105.6</ele>
        <time>2013-08-13T19:09:19.477Z</time>
      </trkpt>
      <trkpt lat="48.86205" lon="2.38423">
        <ele>109.5</ele>
        <time>2013-08-13T19:09:20.478Z</time>
      </trkpt>
      <trkpt lat="48.862" lon="2.38415">
        <ele>110.6</ele>
        <time>2013-08-13T19:09:22.501Z</time>
      </trkpt>
      <trkpt lat="48.86198" lon="2.3841">
        <ele>111.2</ele>
        <time>2013-08-13T19:09:23.489Z</time>
      </trkpt>
      <trkpt lat="48.86194" lon="2.38402">
        <ele>112.2</ele>
        <time>2013-08-13T19:09:25.492Z</time>
      </trkpt>
      <trkpt lat="48.86192" lon="2.38398">
        <ele>112.4</ele>
        <time>2013-08-13T19:09:26.484Z</time>
      </trkpt>
      <trkpt lat="48.86186" lon="2.38389">
        <ele>114.4</ele>
        <time>2013-08-13T19:09:29.496Z</time>
      </trkpt>
      <trkpt lat="48.86183" lon="2.38385">
        <ele>115</ele>
        <time>2013-08-13T19:09:30.469Z</time>
      </trkpt>
      <trkpt lat="48.86179" lon="2.38374">
        <ele>115.4</ele>
        <time>2013-08-13T19:09:32.476Z</time>
      </trkpt>
      <trkpt lat="48.86177" lon="2.38368">
        <ele>115.1</ele>
        <time>2013-08-13T19:09:33.486Z</time>
      </trkpt>
      <trkpt lat="48.86175" lon="2.38361">
        <ele>115.3</ele>
        <time>2013-08-13T19:09:34.518Z</time>
      </trkpt>
      <trkpt lat="48.86173" lon="2.38354">
        <ele>114.6</ele>
        <time>2013-08-13T19:09:35.485Z</time>
      </trkpt>
      <trkpt lat="48.86171" lon="2.38348">
        <ele>114.4</ele>
        <time>2013-08-13T19:09:36.485Z</time>
      </trkpt>
      <trkpt lat="48.86168" lon="2.38343">
        <ele>113.6</ele>
        <time>2013-08-13T19:09:37.494Z</time>
      </trkpt>
      <trkpt lat="48.86162" lon="2.38332">
        <ele>113.9</ele>
        <time>2013-08-13T19:09:39.473Z</time>
      </trkpt>
      <trkpt lat="48.8616" lon="2.38327">
        <ele>113.6</ele>
        <time>2013-08-13T19:09:40.504Z</time>
      </trkpt>
      <trkpt lat="48.86155" lon="2.38317">
        <ele>109.1</ele>
        <time>2013-08-13T19:09:42.494Z</time>
      </trkpt>
      <trkpt lat="48.86153" lon="2.38312">
        <ele>110</ele>
        <time>2013-08-13T19:09:43.485Z</time>
      </trkpt>
      <trkpt lat="48.8615" lon="2.383">
        <ele>111.5</ele>
        <time>2013-08-13T19:09:45.476Z</time>
      </trkpt>
      <trkpt lat="48.86149" lon="2.38294">
        <ele>115.1</ele>
        <time>2013-08-13T19:09:46.494Z</time>
      </trkpt>
      <trkpt lat="48.86146" lon="2.38281">
        <ele>115.7</ele>
        <time>2013-08-13T19:09:48.485Z</time>
      </trkpt>
      <trkpt lat="48.86144" lon="2.38275">
        <ele>117.5</ele>
        <time>2013-08-13T19:09:49.510Z</time>
      </trkpt>
      <trkpt lat="48.86139" lon="2.38265">
        <ele>116.3</ele>
        <time>2013-08-13T19:09:51.485Z</time>
      </trkpt>
      <trkpt lat="48.86136" lon="2.38259">
        <ele>116</ele>
        <time>2013-08-13T19:09:52.518Z</time>
      </trkpt>
      <trkpt lat="48.86133" lon="2.38254">
        <ele>116.1</ele>
        <time>2013-08-13T19:09:53.493Z</time>
      </trkpt>
      <trkpt lat="48.86131" lon="2.38248">
        <ele>115.9</ele>
        <time>2013-08-13T19:09:54.504Z</time>
      </trkpt>
      <trkpt lat="48.86128" lon="2.38242">
        <ele>113.8</ele>
        <time>2013-08-13T19:09:55.469Z</time>
      </trkpt>
      <trkpt lat="48.86126" lon="2.38236">
        <ele>113.3</ele>
        <time>2013-08-13T19:09:56.478Z</time>
      </trkpt>
      <trkpt lat="48.86124" lon="2.38229">
        <ele>113.9</ele>
        <time>2013-08-13T19:09:57.502Z</time>
      </trkpt>
      <trkpt lat="48.86122" lon="2.38223">
        <ele>113.6</ele>
        <time>2013-08-13T19:09:58.495Z</time>
      </trkpt>
      <trkpt lat="48.86119" lon="2.3821">
        <ele>113.4</ele>
        <time>2013-08-13T19:10:00.536Z</time>
      </trkpt>
      <trkpt lat="48.86117" lon="2.38205">
        <ele>112.4</ele>
        <time>2013-08-13T19:10:01.457Z</time>
      </trkpt>
      <trkpt lat="48.86114" lon="2.38196">
        <ele>112.7</ele>
        <time>2013-08-13T19:10:03.482Z</time>
      </trkpt>
      <trkpt lat="48.86112" lon="2.38191">
        <ele>112.8</ele>
        <time>2013-08-13T19:10:04.465Z</time>
      </trkpt>
      <trkpt lat="48.8611" lon="2.38179">
        <ele>108.6</ele>
        <time>2013-08-13T19:10:06.486Z</time>
      </trkpt>
      <trkpt lat="48.86108" lon="2.38172">
        <ele>108.6</ele>
        <time>2013-08-13T19:10:07.495Z</time>
      </trkpt>
      <trkpt lat="48.86108" lon="2.38165">
        <ele>109.7</ele>
        <time>2013-08-13T19:10:08.493Z</time>
      </trkpt>
      <trkpt lat="48.86107" lon="2.38158">
        <ele>111.3</ele>
        <time>2013-08-13T19:10:09.495Z</time>
      </trkpt>
      <trkpt lat="48.86106" lon="2.3815">
        <ele>111.5</ele>
        <time>2013-08-13T19:10:10.533Z</time>
      </trkpt>
      <trkpt lat="48.86105" lon="2.38143">
        <ele>111.4</ele>
        <time>2013-08-13T19:10:11.492Z</time>
      </trkpt>
      <trkpt lat="48.86104" lon="2.38129">
        <ele>112.2</ele>
        <time>2013-08-13T19:10:13.487Z</time>
      </trkpt>
      <trkpt lat="48.86104" lon="2.38124">
        <ele>111.8</ele>
        <time>2013-08-13T19:10:14.495Z</time>
      </trkpt>
      <trkpt lat="48.86102" lon="2.38111">
        <ele>110.5</ele>
        <time>2013-08-13T19:10:16.526Z</time>
      </trkpt>
      <trkpt lat="48.861" lon="2.38104">
        <ele>112.9</ele>
        <time>2013-08-13T19:10:17.474Z</time>
      </trkpt>
      <trkpt lat="48.86097" lon="2.38096">
        <ele>112.7</ele>
        <time>2013-08-13T19:10:18.520Z</time>
      </trkpt>
      <trkpt lat="48.86095" lon="2.38089">
        <ele>112.6</ele>
        <time>2013-08-13T19:10:19.498Z</time>
      </trkpt>
      <trkpt lat="48.86092" lon="2.38081">
        <ele>112.9</ele>
        <time>2013-08-13T19:10:20.477Z</time>
      </trkpt>
      <trkpt lat="48.8609" lon="2.38074">
        <ele>111.5</ele>
        <time>2013-08-13T19:10:21.518Z</time>
      </trkpt>
      <trkpt lat="48.86087" lon="2.38067">
        <ele>111.2</ele>
        <time>2013-08-13T19:10:22.487Z</time>
      </trkpt>
      <trkpt lat="48.86084" lon="2.38055">
        <ele>111</ele>
        <time>2013-08-13T19:10:23.486Z</time>
      </trkpt>
      <trkpt lat="48.86081" lon="2.38043">
        <ele>111</ele>
        <time>2013-08-13T19:10:24.492Z</time>
      </trkpt>
      <trkpt lat="48.86078" lon="2.38032">
        <ele>109.2</ele>
        <time>2013-08-13T19:10:25.521Z</time>
      </trkpt>
      <trkpt lat="48.86074" lon="2.3802">
        <ele>108.3</ele>
        <time>2013-08-13T19:10:26.519Z</time>
      </trkpt>
      <trkpt lat="48.8607" lon="2.38009">
        <ele>109.1</ele>
        <time>2013-08-13T19:10:27.510Z</time>
      </trkpt>
      <trkpt lat="48.86067" lon="2.38">
        <ele>110.1</ele>
        <time>2013-08-13T19:10:28.474Z</time>
      </trkpt>
      <trkpt lat="48.86064" lon="2.3799">
        <ele>110.3</ele>
        <time>2013-08-13T19:10:29.500Z</time>
      </trkpt>
      <trkpt lat="48.86061" lon="2.37981">
        <ele>110.2</ele>
        <time>2013-08-13T19:10:30.464Z</time>
      </trkpt>
      <trkpt lat="48.86058" lon="2.37973">
        <ele>110.1</ele>
        <time>2013-08-13T19:10:31.542Z</time>
      </trkpt>
      <trkpt lat="48.86055" lon="2.37967">
        <ele>110.4</ele>
        <time>2013-08-13T19:10:32.509Z</time>
      </trkpt>
      <trkpt lat="48.86052" lon="2.37961">
        <ele>111.4</ele>
        <time>2013-08-13T19:10:33.535Z</time>
      </trkpt>
      <trkpt lat="48.86049" lon="2.37949">
        <ele>111.4</ele>
        <time>2013-08-13T19:10:35.505Z</time>
      </trkpt>
      <trkpt lat="48.86047" lon="2.37943">
        <ele>109.9</ele>
        <time>2013-08-13T19:10:36.515Z</time>
      </trkpt>
      <trkpt lat="48.86043" lon="2.37932">
        <ele>108.4</ele>
        <time>2013-08-13T19:10:38.503Z</time>
      </trkpt>
      <trkpt lat="48.86041" lon="2.37926">
        <ele>103</ele>
        <time>2013-08-13T19:10:39.494Z</time>
      </trkpt>
      <trkpt lat="48.86037" lon="2.37914">
        <ele>100.6</ele>
        <time>2013-08-13T19:10:42.504Z</time>
      </trkpt>
      <trkpt lat="48.86036" lon="2.37911">
        <ele>98.5</ele>
        <time>2013-08-13T19:10:43.493Z</time>
      </trkpt>
      <trkpt lat="48.8603" lon="2.37902">
        <ele>101.5</ele>
        <time>2013-08-13T19:10:47.483Z</time>
      </trkpt>
      <trkpt lat="48.86028" lon="2.37901">
        <ele>101.5</ele>
        <time>2013-08-13T19:10:48.512Z</time>
      </trkpt>
      <trkpt lat="48.86021" lon="2.37907">
        <ele>95.3</ele>
        <time>2013-08-13T19:11:04.503Z</time>
      </trkpt>
      <trkpt lat="48.8602" lon="2.37909">
        <ele>95.4</ele>
        <time>2013-08-13T19:11:05.490Z</time>
      </trkpt>
      <trkpt lat="48.86014" lon="2.37914">
        <ele>93.8</ele>
        <time>2013-08-13T19:11:08.513Z</time>
      </trkpt>
      <trkpt lat="48.86011" lon="2.37915">
        <ele>93.9</ele>
        <time>2013-08-13T19:11:09.513Z</time>
      </trkpt>
      <trkpt lat="48.86003" lon="2.37918">
        <ele>95.9</ele>
        <time>2013-08-13T19:11:13.516Z</time>
      </trkpt>
      <trkpt lat="48.86002" lon="2.37917">
        <ele>97.3</ele>
        <time>2013-08-13T19:11:14.498Z</time>
      </trkpt>
      <trkpt lat="48.85998" lon="2.37912">
        <ele>95</ele>
        <time>2013-08-13T19:11:27.503Z</time>
      </trkpt>
      <trkpt lat="48.85997" lon="2.37912">
        <ele>95</ele>
        <time>2013-08-13T19:11:28.489Z</time>
      </trkpt>
      <trkpt lat="48.85995" lon="2.37909">
        <ele>96.1</ele>
        <time>2013-08-13T19:12:08.512Z</time>
      </trkpt>
      <trkpt lat="48.85994" lon="2.3791">
        <ele>94.8</ele>
        <time>2013-08-13T19:12:09.497Z</time>
      </trkpt>
      <trkpt lat="48.8599" lon="2.37915">
        <ele>91.6</ele>
        <time>2013-08-13T19:12:11.504Z</time>
      </trkpt>
      <trkpt lat="48.85987" lon="2.37918">
        <ele>91.7</ele>
        <time>2013-08-13T19:12:12.532Z</time>
      </trkpt>
      <trkpt lat="48.8598" lon="2.37924">
        <ele>91</ele>
        <time>2013-08-13T19:12:14.521Z</time>
      </trkpt>
      <trkpt lat="48.85976" lon="2.37927">
        <ele>89.4</ele>
        <time>2013-08-13T19:12:15.509Z</time>
      </trkpt>
      <trkpt lat="48.85968" lon="2.37931">
        <ele>89.4</ele>
        <time>2013-08-13T19:12:17.535Z</time>
      </trkpt>
      <trkpt lat="48.85964" lon="2.37933">
        <ele>88.8</ele>
        <time>2013-08-13T19:12:18.506Z</time>
      </trkpt>
      <trkpt lat="48.85957" lon="2.37937">
        <ele>88.6</ele>
        <time>2013-08-13T19:12:20.519Z</time>
      </trkpt>
      <trkpt lat="48.85953" lon="2.37939">
        <ele>89.1</ele>
        <time>2013-08-13T19:12:21.526Z</time>
      </trkpt>
      <trkpt lat="48.85946" lon="2.37942">
        <ele>89.3</ele>
        <time>2013-08-13T19:12:23.514Z</time>
      </trkpt>
      <trkpt lat="48.85943" lon="2.37944">
        <ele>89.2</ele>
        <time>2013-08-13T19:12:24.547Z</time>
      </trkpt>
      <trkpt lat="48.85936" lon="2.37947">
        <ele>89.9</ele>
        <time>2013-08-13T19:12:26.537Z</time>
      </trkpt>
      <trkpt lat="48.85933" lon="2.37949">
        <ele>90</ele>
        <time>2013-08-13T19:12:27.505Z</time>
      </trkpt>
      <trkpt lat="48.85928" lon="2.37952">
        <ele>91.5</ele>
        <time>2013-08-13T19:12:29.505Z</time>
      </trkpt>
      <trkpt lat="48.85925" lon="2.37954">
        <ele>91.6</ele>
        <time>2013-08-13T19:12:30.496Z</time>
      </trkpt>
      <trkpt lat="48.85918" lon="2.37961">
        <ele>91.1</ele>
        <time>2013-08-13T19:12:33.682Z</time>
      </trkpt>
      <trkpt lat="48.85916" lon="2.37964">
        <ele>91.3</ele>
        <time>2013-08-13T19:12:34.513Z</time>
      </trkpt>
      <trkpt lat="48.85909" lon="2.3797">
        <ele>90.9</ele>
        <time>2013-08-13T19:12:37.542Z</time>
      </trkpt>
      <trkpt lat="48.85906" lon="2.37972">
        <ele>90.2</ele>
        <time>2013-08-13T19:12:38.691Z</time>
      </trkpt>
      <trkpt lat="48.85898" lon="2.37975">
        <ele>88.5</ele>
        <time>2013-08-13T19:12:41.513Z</time>
      </trkpt>
      <trkpt lat="48.85895" lon="2.37976">
        <ele>87.6</ele>
        <time>2013-08-13T19:12:42.523Z</time>
      </trkpt>
      <trkpt lat="48.8589" lon="2.3798">
        <ele>85.3</ele>
        <time>2013-08-13T19:12:44.499Z</time>
      </trkpt>
      <trkpt lat="48.85886" lon="2.37982">
        <ele>84.8</ele>
        <time>2013-08-13T19:12:45.525Z</time>
      </trkpt>
      <trkpt lat="48.85879" lon="2.37987">
        <ele>83.3</ele>
        <time>2013-08-13T19:12:47.512Z</time>
      </trkpt>
      <trkpt lat="48.85876" lon="2.3799">
        <ele>82.5</ele>
        <time>2013-08-13T19:12:48.504Z</time>
      </trkpt>
      <trkpt lat="48.85869" lon="2.37995">
        <ele>82.9</ele>
        <time>2013-08-13T19:12:50.496Z</time>
      </trkpt>
      <trkpt lat="48.85866" lon="2.37998">
        <ele>82.6</ele>
        <time>2013-08-13T19:12:51.541Z</time>
      </trkpt>
      <trkpt lat="48.8586" lon="2.38004">
        <ele>87.6</ele>
        <time>2013-08-13T19:12:53.533Z</time>
      </trkpt>
      <trkpt lat="48.85858" lon="2.38007">
        <ele>88.5</ele>
        <time>2013-08-13T19:12:54.497Z</time>
      </trkpt>
      <trkpt lat="48.85853" lon="2.38015">
        <ele>90.5</ele>
        <time>2013-08-13T19:12:57.504Z</time>
      </trkpt>
      <trkpt lat="48.8585" lon="2.38017">
        <ele>90.5</ele>
        <time>2013-08-13T19:12:58.565Z</time>
      </trkpt>
      <trkpt lat="48.85842" lon="2.38019">
        <ele>93.4</ele>
        <time>2013-08-13T19:13:02.525Z</time>
      </trkpt>
      <trkpt lat="48.8584" lon="2.38019">
        <ele>94</ele>
        <time>2013-08-13T19:13:03.523Z</time>
      </trkpt>
      <trkpt lat="48.85834" lon="2.38026">
        <ele>95.6</ele>
        <time>2013-08-13T19:13:08.514Z</time>
      </trkpt>
      <trkpt lat="48.85834" lon="2.38029">
        <ele>96.1</ele>
        <time>2013-08-13T19:13:09.501Z</time>
      </trkpt>
      <trkpt lat="48.85831" lon="2.38041">
        <ele>97.9</ele>
        <time>2013-08-13T19:13:13.504Z</time>
      </trkpt>
      <trkpt lat="48.8583" lon="2.38044">
        <ele>96.9</ele>
        <time>2013-08-13T19:13:14.494Z</time>
      </trkpt>
      <trkpt lat="48.85825" lon="2.38052">
        <ele>96.5</ele>
        <time>2013-08-13T19:13:17.546Z</time>
      </trkpt>
      <trkpt lat="48.85823" lon="2.38055">
        <ele>96.9</ele>
        <time>2013-08-13T19:13:18.523Z</time>
      </trkpt>
      <trkpt lat="48.85817" lon="2.38061">
        <ele>99.5</ele>
        <time>2013-08-13T19:13:20.507Z</time>
      </trkpt>
      <trkpt lat="48.85815" lon="2.38064">
        <ele>101.4</ele>
        <time>2013-08-13T19:13:21.517Z</time>
      </trkpt>
      <trkpt lat="48.85807" lon="2.3807">
        <ele>103.9</ele>
        <time>2013-08-13T19:13:24.512Z</time>
      </trkpt>
      <trkpt lat="48.85804" lon="2.38071">
        <ele>103.5</ele>
        <time>2013-08-13T19:13:25.520Z</time>
      </trkpt>
      <trkpt lat="48.85797" lon="2.38075">
        <ele>106</ele>
        <time>2013-08-13T19:13:28.513Z</time>
      </trkpt>
      <trkpt lat="48.85795" lon="2.38077">
        <ele>106.9</ele>
        <time>2013-08-13T19:13:29.504Z</time>
      </trkpt>
      <trkpt lat="48.85787" lon="2.38081">
        <ele>109.7</ele>
        <time>2013-08-13T19:13:34.675Z</time>
      </trkpt>
      <trkpt lat="48.85785" lon="2.3808">
        <ele>110.1</ele>
        <time>2013-08-13T19:13:35.725Z</time>
      </trkpt>
      <trkpt lat="48.85778" lon="2.38076">
        <ele>106.6</ele>
        <time>2013-08-13T19:13:39.565Z</time>
      </trkpt>
      <trkpt lat="48.85776" lon="2.38077">
        <ele>105.8</ele>
        <time>2013-08-13T19:13:40.521Z</time>
      </trkpt>
      <trkpt lat="48.85768" lon="2.38077">
        <ele>104.4</ele>
        <time>2013-08-13T19:13:48.513Z</time>
      </trkpt>
      <trkpt lat="48.85767" lon="2.38077">
        <ele>103.1</ele>
        <time>2013-08-13T19:13:49.506Z</time>
      </trkpt>
      <trkpt lat="48.85759" lon="2.38082">
        <ele>98</ele>
        <time>2013-08-13T19:13:53.522Z</time>
      </trkpt>
      <trkpt lat="48.85757" lon="2.38085">
        <ele>98.8</ele>
        <time>2013-08-13T19:13:54.524Z</time>
      </trkpt>
      <trkpt lat="48.85752" lon="2.38091">
        <ele>100</ele>
        <time>2013-08-13T19:13:56.529Z</time>
      </trkpt>
      <trkpt lat="48.85749" lon="2.38094">
        <ele>101.7</ele>
        <time>2013-08-13T19:13:57.531Z</time>
      </trkpt>
      <trkpt lat="48.85744" lon="2.38102">
        <ele>100.4</ele>
        <time>2013-08-13T19:13:59.512Z</time>
      </trkpt>
      <trkpt lat="48.85741" lon="2.38106">
        <ele>100.3</ele>
        <time>2013-08-13T19:14:00.524Z</time>
      </trkpt>
      <trkpt lat="48.85735" lon="2.38113">
        <ele>96.2</ele>
        <time>2013-08-13T19:14:02.508Z</time>
      </trkpt>
      <trkpt lat="48.85732" lon="2.38117">
        <ele>95.6</ele>
        <time>2013-08-13T19:14:03.576Z</time>
      </trkpt>
      <trkpt lat="48.85726" lon="2.38123">
        <ele>95.8</ele>
        <time>2013-08-13T19:14:05.513Z</time>
      </trkpt>
      <trkpt lat="48.85722" lon="2.38126">
        <ele>95.5</ele>
        <time>2013-08-13T19:14:06.539Z</time>
      </trkpt>
      <trkpt lat="48.85716" lon="2.3813">
        <ele>95.1</ele>
        <time>2013-08-13T19:14:08.524Z</time>
      </trkpt>
      <trkpt lat="48.85713" lon="2.38132">
        <ele>94.5</ele>
        <time>2013-08-13T19:14:09.516Z</time>
      </trkpt>
      <trkpt lat="48.85707" lon="2.38137">
        <ele>96.2</ele>
        <time>2013-08-13T19:14:11.540Z</time>
      </trkpt>
      <trkpt lat="48.85704" lon="2.38139">
        <ele>95.5</ele>
        <time>2013-08-13T19:14:12.500Z</time>
      </trkpt>
      <trkpt lat="48.85698" lon="2.38144">
        <ele>95.4</ele>
        <time>2013-08-13T19:14:14.537Z</time>
      </trkpt>
      <trkpt lat="48.85695" lon="2.38148">
        <ele>95.8</ele>
        <time>2013-08-13T19:14:15.537Z</time>
      </trkpt>
      <trkpt lat="48.8569" lon="2.38157">
        <ele>94.2</ele>
        <time>2013-08-13T19:14:17.526Z</time>
      </trkpt>
      <trkpt lat="48.85688" lon="2.38162">
        <ele>93.3</ele>
        <time>2013-08-13T19:14:18.520Z</time>
      </trkpt>
      <trkpt lat="48.85684" lon="2.38174">
        <ele>94.5</ele>
        <time>2013-08-13T19:14:20.546Z</time>
      </trkpt>
      <trkpt lat="48.85682" lon="2.38179">
        <ele>94.2</ele>
        <time>2013-08-13T19:14:21.515Z</time>
      </trkpt>
      <trkpt lat="48.85677" lon="2.38187">
        <ele>94.3</ele>
        <time>2013-08-13T19:14:23.517Z</time>
      </trkpt>
      <trkpt lat="48.85673" lon="2.3819">
        <ele>94.7</ele>
        <time>2013-08-13T19:14:24.522Z</time>
      </trkpt>
      <trkpt lat="48.85667" lon="2.38197">
        <ele>96.7</ele>
        <time>2013-08-13T19:14:26.540Z</time>
      </trkpt>
      <trkpt lat="48.85663" lon="2.382">
        <ele>97.1</ele>
        <time>2013-08-13T19:14:27.513Z</time>
      </trkpt>
      <trkpt lat="48.85657" lon="2.38208">
        <ele>95.7</ele>
        <time>2013-08-13T19:14:29.507Z</time>
      </trkpt>
      <trkpt lat="48.85655" lon="2.38213">
        <ele>92.1</ele>
        <time>2013-08-13T19:14:30.537Z</time>
      </trkpt>
      <trkpt lat="48.85652" lon="2.38222">
        <ele>91</ele>
        <time>2013-08-13T19:14:32.531Z</time>
      </trkpt>
      <trkpt lat="48.85651" lon="2.38226">
        <ele>89.1</ele>
        <time>2013-08-13T19:14:33.532Z</time>
      </trkpt>
      <trkpt lat="48.85648" lon="2.38237">
        <ele>92.7</ele>
        <time>2013-08-13T19:14:36.663Z</time>
      </trkpt>
      <trkpt lat="48.85646" lon="2.38242">
        <ele>93.5</ele>
        <time>2013-08-13T19:14:37.597Z</time>
      </trkpt>
      <trkpt lat="48.85641" lon="2.38251">
        <ele>92.4</ele>
        <time>2013-08-13T19:14:39.523Z</time>
      </trkpt>
      <trkpt lat="48.85639" lon="2.38257">
        <ele>91.4</ele>
        <time>2013-08-13T19:14:40.721Z</time>
      </trkpt>
      <trkpt lat="48.85636" lon="2.38262">
        <ele>88.8</ele>
        <time>2013-08-13T19:14:41.536Z</time>
      </trkpt>
      <trkpt lat="48.85633" lon="2.38268">
        <ele>88.2</ele>
        <time>2013-08-13T19:14:42.674Z</time>
      </trkpt>
      <trkpt lat="48.85627" lon="2.38278">
        <ele>88</ele>
        <time>2013-08-13T19:14:44.622Z</time>
      </trkpt>
      <trkpt lat="48.85624" lon="2.38283">
        <ele>86.8</ele>
        <time>2013-08-13T19:14:45.723Z</time>
      </trkpt>
      <trkpt lat="48.85617" lon="2.38292">
        <ele>85.5</ele>
        <time>2013-08-13T19:14:49.642Z</time>
      </trkpt>
      <trkpt lat="48.85616" lon="2.38294">
        <ele>85.5</ele>
        <time>2013-08-13T19:14:50.596Z</time>
      </trkpt>
      <trkpt lat="48.8561" lon="2.38301">
        <ele>82.3</ele>
        <time>2013-08-13T19:14:55.501Z</time>
      </trkpt>
      <trkpt lat="48.85609" lon="2.38303">
        <ele>82.5</ele>
        <time>2013-08-13T19:14:56.706Z</time>
      </trkpt>
      <trkpt lat="48.85608" lon="2.38315">
        <ele>81.3</ele>
        <time>2013-08-13T19:15:03.507Z</time>
      </trkpt>
      <trkpt lat="48.85608" lon="2.38316">
        <ele>80</ele>
        <time>2013-08-13T19:15:04.537Z</time>
      </trkpt>
      <trkpt lat="48.85606" lon="2.38329">
        <ele>80.9</ele>
        <time>2013-08-13T19:15:11.501Z</time>
      </trkpt>
      <trkpt lat="48.85605" lon="2.38332">
        <ele>79.2</ele>
        <time>2013-08-13T19:15:12.514Z</time>
      </trkpt>
      <trkpt lat="48.85602" lon="2.3834">
        <ele>77.6</ele>
        <time>2013-08-13T19:15:14.530Z</time>
      </trkpt>
      <trkpt lat="48.856" lon="2.38344">
        <ele>76.7</ele>
        <time>2013-08-13T19:15:15.538Z</time>
      </trkpt>
      <trkpt lat="48.85596" lon="2.38354">
        <ele>76.6</ele>
        <time>2013-08-13T19:15:17.511Z</time>
      </trkpt>
      <trkpt lat="48.85594" lon="2.38358">
        <ele>75.4</ele>
        <time>2013-08-13T19:15:18.502Z</time>
      </trkpt>
      <trkpt lat="48.85589" lon="2.38366">
        <ele>73.9</ele>
        <time>2013-08-13T19:15:20.505Z</time>
      </trkpt>
      <trkpt lat="48.85586" lon="2.3837">
        <ele>74.3</ele>
        <time>2013-08-13T19:15:21.515Z</time>
      </trkpt>
      <trkpt lat="48.85582" lon="2.38379">
        <ele>74.4</ele>
        <time>2013-08-13T19:15:23.514Z</time>
      </trkpt>
      <trkpt lat="48.8558" lon="2.38383">
        <ele>74.4</ele>
        <time>2013-08-13T19:15:24.522Z</time>
      </trkpt>
      <trkpt lat="48.85574" lon="2.38392">
        <ele>75.5</ele>
        <time>2013-08-13T19:15:26.558Z</time>
      </trkpt>
      <trkpt lat="48.85572" lon="2.38398">
        <ele>75.9</ele>
        <time>2013-08-13T19:15:27.522Z</time>
      </trkpt>
      <trkpt lat="48.85566" lon="2.38407">
        <ele>77.1</ele>
        <time>2013-08-13T19:15:29.542Z</time>
      </trkpt>
      <trkpt lat="48.85562" lon="2.38412">
        <ele>77.5</ele>
        <time>2013-08-13T19:15:30.522Z</time>
      </trkpt>
      <trkpt lat="48.85559" lon="2.38415">
        <ele>78.4</ele>
        <time>2013-08-13T19:15:31.537Z</time>
      </trkpt>
      <trkpt lat="48.85555" lon="2.38419">
        <ele>79</ele>
        <time>2013-08-13T19:15:32.522Z</time>
      </trkpt>
      <trkpt lat="48.85551" lon="2.38423">
        <ele>79.4</ele>
        <time>2013-08-13T19:15:33.541Z</time>
      </trkpt>
      <trkpt lat="48.85547" lon="2.38427">
        <ele>79.4</ele>
        <time>2013-08-13T19:15:34.543Z</time>
      </trkpt>
      <trkpt lat="48.85541" lon="2.38434">
        <ele>81.9</ele>
        <time>2013-08-13T19:15:36.515Z</time>
      </trkpt>
      <trkpt lat="48.85538" lon="2.38438">
        <ele>81.9</ele>
        <time>2013-08-13T19:15:37.521Z</time>
      </trkpt>
      <trkpt lat="48.85532" lon="2.38445">
        <ele>83.1</ele>
        <time>2013-08-13T19:15:39.510Z</time>
      </trkpt>
      <trkpt lat="48.85528" lon="2.38448">
        <ele>83.5</ele>
        <time>2013-08-13T19:15:40.512Z</time>
      </trkpt>
      <trkpt lat="48.85522" lon="2.38456">
        <ele>85.7</ele>
        <time>2013-08-13T19:15:42.509Z</time>
      </trkpt>
      <trkpt lat="48.85519" lon="2.38461">
        <ele>86.5</ele>
        <time>2013-08-13T19:15:43.545Z</time>
      </trkpt>
      <trkpt lat="48.85513" lon="2.3847">
        <ele>86.3</ele>
        <time>2013-08-13T19:15:45.525Z</time>
      </trkpt>
      <trkpt lat="48.85511" lon="2.38475">
        <ele>87.8</ele>
        <time>2013-08-13T19:15:46.522Z</time>
      </trkpt>
      <trkpt lat="48.85505" lon="2.38483">
        <ele>86.2</ele>
        <time>2013-08-13T19:15:48.536Z</time>
      </trkpt>
      <trkpt lat="48.85502" lon="2.38486">
        <ele>84.7</ele>
        <time>2013-08-13T19:15:49.564Z</time>
      </trkpt>
      <trkpt lat="48.85496" lon="2.38493">
        <ele>85.2</ele>
        <time>2013-08-13T19:15:51.517Z</time>
      </trkpt>
      <trkpt lat="48.85493" lon="2.38496">
        <ele>84.4</ele>
        <time>2013-08-13T19:15:52.525Z</time>
      </trkpt>
      <trkpt lat="48.85487" lon="2.38503">
        <ele>85.9</ele>
        <time>2013-08-13T19:15:54.525Z</time>
      </trkpt>
      <trkpt lat="48.85485" lon="2.38507">
        <ele>86.5</ele>
        <time>2013-08-13T19:15:55.562Z</time>
      </trkpt>
      <trkpt lat="48.85478" lon="2.38515">
        <ele>86.5</ele>
        <time>2013-08-13T19:15:58.524Z</time>
      </trkpt>
      <trkpt lat="48.85477" lon="2.38518">
        <ele>87.6</ele>
        <time>2013-08-13T19:15:59.543Z</time>
      </trkpt>
      <trkpt lat="48.85476" lon="2.38529">
        <ele>87.1</ele>
        <time>2013-08-13T19:16:02.520Z</time>
      </trkpt>
      <trkpt lat="48.85476" lon="2.38533">
        <ele>87.4</ele>
        <time>2013-08-13T19:16:03.542Z</time>
      </trkpt>
      <trkpt lat="48.85476" lon="2.38546">
        <ele>89.2</ele>
        <time>2013-08-13T19:16:07.627Z</time>
      </trkpt>
      <trkpt lat="48.85476" lon="2.38547">
        <ele>89.8</ele>
        <time>2013-08-13T19:16:08.644Z</time>
      </trkpt>
      <trkpt lat="48.85476" lon="2.38548">
        <ele>89.4</ele>
        <time>2013-08-13T19:16:12.520Z</time>
      </trkpt>
      <trkpt lat="48.85476" lon="2.38547">
        <ele>89.1</ele>
        <time>2013-08-13T19:16:13.515Z</time>
      </trkpt>
      <trkpt lat="48.85475" lon="2.38547">
        <ele>92.4</ele>
        <time>2013-08-13T19:16:31.535Z</time>
      </trkpt>
      <trkpt lat="48.85475" lon="2.38548">
        <ele>91.8</ele>
        <time>2013-08-13T19:16:32.691Z</time>
      </trkpt>
      <trkpt lat="48.8548" lon="2.38558">
        <ele>89.3</ele>
        <time>2013-08-13T19:16:36.516Z</time>
      </trkpt>
      <trkpt lat="48.85481" lon="2.38562">
        <ele>88.9</ele>
        <time>2013-08-13T19:16:37.597Z</time>
      </trkpt>
      <trkpt lat="48.85485" lon="2.38569">
        <ele>88.5</ele>
        <time>2013-08-13T19:16:39.583Z</time>
      </trkpt>
      <trkpt lat="48.85487" lon="2.38573">
        <ele>88.8</ele>
        <time>2013-08-13T19:16:40.519Z</time>
      </trkpt>
      <trkpt lat="48.85489" lon="2.38582">
        <ele>88.7</ele>
        <time>2013-08-13T19:16:42.526Z</time>
      </trkpt>
      <trkpt lat="48.85491" lon="2.38587">
        <ele>87.3</ele>
        <time>2013-08-13T19:16:43.530Z</time>
      </trkpt>
      <trkpt lat="48.85494" lon="2.38598">
        <ele>88.9</ele>
        <time>2013-08-13T19:16:45.534Z</time>
      </trkpt>
      <trkpt lat="48.85496" lon="2.38605">
        <ele>89</ele>
        <time>2013-08-13T19:16:46.545Z</time>
      </trkpt>
      <trkpt lat="48.85498" lon="2.38611">
        <ele>89.2</ele>
        <time>2013-08-13T19:16:47.545Z</time>
      </trkpt>
      <trkpt lat="48.85499" lon="2.38617">
        <ele>89.2</ele>
        <time>2013-08-13T19:16:48.535Z</time>
      </trkpt>
      <trkpt lat="48.85501" lon="2.38624">
        <ele>89.4</ele>
        <time>2013-08-13T19:16:49.561Z</time>
      </trkpt>
      <trkpt lat="48.85502" lon="2.38631">
        <ele>89</ele>
        <time>2013-08-13T19:16:50.538Z</time>
      </trkpt>
      <trkpt lat="48.85504" lon="2.38644">
        <ele>89.6</ele>
        <time>2013-08-13T19:16:52.543Z</time>
      </trkpt>
      <trkpt lat="48.85506" lon="2.3865">
        <ele>90.5</ele>
        <time>2013-08-13T19:16:53.534Z</time>
      </trkpt>
      <trkpt lat="48.85509" lon="2.38661">
        <ele>90.6</ele>
        <time>2013-08-13T19:16:55.551Z</time>
      </trkpt>
      <trkpt lat="48.85511" lon="2.38667">
        <ele>90.4</ele>
        <time>2013-08-13T19:16:56.526Z</time>
      </trkpt>
      <trkpt lat="48.85514" lon="2.38678">
        <ele>90.5</ele>
        <time>2013-08-13T19:16:58.519Z</time>
      </trkpt>
      <trkpt lat="48.85515" lon="2.38684">
        <ele>90.2</ele>
        <time>2013-08-13T19:16:59.532Z</time>
      </trkpt>
      <trkpt lat="48.85517" lon="2.38695">
        <ele>92.2</ele>
        <time>2013-08-13T19:17:01.538Z</time>
      </trkpt>
      <trkpt lat="48.85518" lon="2.38699">
        <ele>94.2</ele>
        <time>2013-08-13T19:17:02.519Z</time>
      </trkpt>
      <trkpt lat="48.85519" lon="2.38709">
        <ele>93.1</ele>
        <time>2013-08-13T19:17:04.527Z</time>
      </trkpt>
      <trkpt lat="48.8552" lon="2.38714">
        <ele>93.5</ele>
        <time>2013-08-13T19:17:05.523Z</time>
      </trkpt>
      <trkpt lat="48.85521" lon="2.38725">
        <ele>95.3</ele>
        <time>2013-08-13T19:17:07.528Z</time>
      </trkpt>
      <trkpt lat="48.85522" lon="2.38731">
        <ele>95.5</ele>
        <time>2013-08-13T19:17:08.545Z</time>
      </trkpt>
      <trkpt lat="48.85524" lon="2.38743">
        <ele>94.1</ele>
        <time>2013-08-13T19:17:10.534Z</time>
      </trkpt>
      <trkpt lat="48.85524" lon="2.38749">
        <ele>94.1</ele>
        <time>2013-08-13T19:17:11.518Z</time>
      </trkpt>
      <trkpt lat="48.85525" lon="2.38756">
        <ele>95.5</ele>
        <time>2013-08-13T19:17:12.523Z</time>
      </trkpt>
      <trkpt lat="48.85526" lon="2.38763">
        <ele>95.7</ele>
        <time>2013-08-13T19:17:13.513Z</time>
      </trkpt>
      <trkpt lat="48.85527" lon="2.3877">
        <ele>95.6</ele>
        <time>2013-08-13T19:17:14.518Z</time>
      </trkpt>
      <trkpt lat="48.85528" lon="2.38777">
        <ele>95.4</ele>
        <time>2013-08-13T19:17:15.528Z</time>
      </trkpt>
      <trkpt lat="48.8553" lon="2.38784">
        <ele>96.5</ele>
        <time>2013-08-13T19:17:16.522Z</time>
      </trkpt>
      <trkpt lat="48.85531" lon="2.3879">
        <ele>96</ele>
        <time>2013-08-13T19:17:17.521Z</time>
      </trkpt>
      <trkpt lat="48.85533" lon="2.38803">
        <ele>96.3</ele>
        <time>2013-08-13T19:17:19.504Z</time>
      </trkpt>
      <trkpt lat="48.85534" lon="2.38809">
        <ele>95.6</ele>
        <time>2013-08-13T19:17:20.508Z</time>
      </trkpt>
      <trkpt lat="48.85536" lon="2.38822">
        <ele>93.2</ele>
        <time>2013-08-13T19:17:22.513Z</time>
      </trkpt>
      <trkpt lat="48.85537" lon="2.38829">
        <ele>93.6</ele>
        <time>2013-08-13T19:17:23.526Z</time>
      </trkpt>
      <trkpt lat="48.85539" lon="2.38836">
        <ele>92.5</ele>
        <time>2013-08-13T19:17:24.539Z</time>
      </trkpt>
      <trkpt lat="48.8554" lon="2.38842">
        <ele>91.4</ele>
        <time>2013-08-13T19:17:25.508Z</time>
      </trkpt>
      <trkpt lat="48.85541" lon="2.38849">
        <ele>91.1</ele>
        <time>2013-08-13T19:17:26.518Z</time>
      </trkpt>
      <trkpt lat="48.85542" lon="2.38856">
        <ele>91.4</ele>
        <time>2013-08-13T19:17:27.526Z</time>
      </trkpt>
      <trkpt lat="48.85543" lon="2.38863">
        <ele>90.7</ele>
        <time>2013-08-13T19:17:28.529Z</time>
      </trkpt>
      <trkpt lat="48.85544" lon="2.3887">
        <ele>90.2</ele>
        <time>2013-08-13T19:17:29.534Z</time>
      </trkpt>
      <trkpt lat="48.85546" lon="2.38878">
        <ele>89.9</ele>
        <time>2013-08-13T19:17:30.517Z</time>
      </trkpt>
      <trkpt lat="48.85549" lon="2.38885">
        <ele>90.3</ele>
        <time>2013-08-13T19:17:31.509Z</time>
      </trkpt>
      <trkpt lat="48.85552" lon="2.38892">
        <ele>88.3</ele>
        <time>2013-08-13T19:17:32.525Z</time>
      </trkpt>
      <trkpt lat="48.85554" lon="2.38899">
        <ele>87.6</ele>
        <time>2013-08-13T19:17:33.513Z</time>
      </trkpt>
      <trkpt lat="48.85556" lon="2.38906">
        <ele>90.7</ele>
        <time>2013-08-13T19:17:34.592Z</time>
      </trkpt>
      <trkpt lat="48.85558" lon="2.38914">
        <ele>90.9</ele>
        <time>2013-08-13T19:17:35.518Z</time>
      </trkpt>
      <trkpt lat="48.8556" lon="2.38925">
        <ele>94</ele>
        <time>2013-08-13T19:17:37.512Z</time>
      </trkpt>
      <trkpt lat="48.85562" lon="2.38931">
        <ele>94.2</ele>
        <time>2013-08-13T19:17:38.508Z</time>
      </trkpt>
      <trkpt lat="48.85564" lon="2.38943">
        <ele>94.9</ele>
        <time>2013-08-13T19:17:40.505Z</time>
      </trkpt>
      <trkpt lat="48.85565" lon="2.3895">
        <ele>95.4</ele>
        <time>2013-08-13T19:17:41.698Z</time>
      </trkpt>
      <trkpt lat="48.85567" lon="2.38956">
        <ele>94.6</ele>
        <time>2013-08-13T19:17:42.524Z</time>
      </trkpt>
      <trkpt lat="48.85569" lon="2.38964">
        <ele>95.9</ele>
        <time>2013-08-13T19:17:43.684Z</time>
      </trkpt>
      <trkpt lat="48.8557" lon="2.3897">
        <ele>97</ele>
        <time>2013-08-13T19:17:44.624Z</time>
      </trkpt>
      <trkpt lat="48.85572" lon="2.38977">
        <ele>97.6</ele>
        <time>2013-08-13T19:17:45.618Z</time>
      </trkpt>
      <trkpt lat="48.85575" lon="2.38988">
        <ele>98.1</ele>
        <time>2013-08-13T19:17:47.575Z</time>
      </trkpt>
      <trkpt lat="48.85577" lon="2.38994">
        <ele>97.4</ele>
        <time>2013-08-13T19:17:48.694Z</time>
      </trkpt>
      <trkpt lat="48.85578" lon="2.39005">
        <ele>100.4</ele>
        <time>2013-08-13T19:17:50.545Z</time>
      </trkpt>
      <trkpt lat="48.85577" lon="2.3901">
        <ele>97.4</ele>
        <time>2013-08-13T19:17:51.510Z</time>
      </trkpt>
      <trkpt lat="48.8557" lon="2.3901">
        <ele>97.7</ele>
        <time>2013-08-13T19:17:55.525Z</time>
      </trkpt>
      <trkpt lat="48.85567" lon="2.3901">
        <ele>99.8</ele>
        <time>2013-08-13T19:17:56.543Z</time>
      </trkpt>
      <trkpt lat="48.85559" lon="2.39011">
        <ele>104.8</ele>
        <time>2013-08-13T19:17:59.564Z</time>
      </trkpt>
      <trkpt lat="48.85556" lon="2.39012">
        <ele>105.3</ele>
        <time>2013-08-13T19:18:00.521Z</time>
      </trkpt>
      <trkpt lat="48.85551" lon="2.39017">
        <ele>105.7</ele>
        <time>2013-08-13T19:18:02.541Z</time>
      </trkpt>
      <trkpt lat="48.85548" lon="2.3902">
        <ele>103.7</ele>
        <time>2013-08-13T19:18:03.521Z</time>
      </trkpt>
      <trkpt lat="48.85541" lon="2.39025">
        <ele>104</ele>
        <time>2013-08-13T19:18:05.519Z</time>
      </trkpt>
      <trkpt lat="48.85538" lon="2.39027">
        <ele>103.1</ele>
        <time>2013-08-13T19:18:06.518Z</time>
      </trkpt>
      <trkpt lat="48.85531" lon="2.39032">
        <ele>100.5</ele>
        <time>2013-08-13T19:18:08.566Z</time>
      </trkpt>
      <trkpt lat="48.85528" lon="2.39035">
        <ele>99.8</ele>
        <time>2013-08-13T19:18:09.526Z</time>
      </trkpt>
      <trkpt lat="48.85522" lon="2.39041">
        <ele>99.7</ele>
        <time>2013-08-13T19:18:11.544Z</time>
      </trkpt>
      <trkpt lat="48.85519" lon="2.39044">
        <ele>97.6</ele>
        <time>2013-08-13T19:18:12.524Z</time>
      </trkpt>
      <trkpt lat="48.85512" lon="2.3905">
        <ele>97.4</ele>
        <time>2013-08-13T19:18:14.543Z</time>
      </trkpt>
      <trkpt lat="48.85508" lon="2.39053">
        <ele>96.6</ele>
        <time>2013-08-13T19:18:15.531Z</time>
      </trkpt>
      <trkpt lat="48.85504" lon="2.39056">
        <ele>95.3</ele>
        <time>2013-08-13T19:18:16.544Z</time>
      </trkpt>
      <trkpt lat="48.85499" lon="2.3906">
        <ele>95.5</ele>
        <time>2013-08-13T19:18:17.566Z</time>
      </trkpt>
      <trkpt lat="48.85495" lon="2.39064">
        <ele>94.4</ele>
        <time>2013-08-13T19:18:18.553Z</time>
      </trkpt>
      <trkpt lat="48.85491" lon="2.39068">
        <ele>94.1</ele>
        <time>2013-08-13T19:18:19.544Z</time>
      </trkpt>
      <trkpt lat="48.85486" lon="2.39073">
        <ele>92.8</ele>
        <time>2013-08-13T19:18:20.546Z</time>
      </trkpt>
      <trkpt lat="48.85482" lon="2.39077">
        <ele>93.4</ele>
        <time>2013-08-13T19:18:21.525Z</time>
      </trkpt>
      <trkpt lat="48.85478" lon="2.39082">
        <ele>92</ele>
        <time>2013-08-13T19:18:22.574Z</time>
      </trkpt>
      <trkpt lat="48.85474" lon="2.39085">
        <ele>91</ele>
        <time>2013-08-13T19:18:23.527Z</time>
      </trkpt>
      <trkpt lat="48.85467" lon="2.39092">
        <ele>89</ele>
        <time>2013-08-13T19:18:26.566Z</time>
      </trkpt>
      <trkpt lat="48.85465" lon="2.39093">
        <ele>89</ele>
        <time>2013-08-13T19:18:27.538Z</time>
      </trkpt>
      <trkpt lat="48.85456" lon="2.39089">
        <ele>91</ele>
        <time>2013-08-13T19:18:30.555Z</time>
      </trkpt>
      <trkpt lat="48.85453" lon="2.39086">
        <ele>91.2</ele>
        <time>2013-08-13T19:18:31.535Z</time>
      </trkpt>
      <trkpt lat="48.85448" lon="2.39076">
        <ele>90.9</ele>
        <time>2013-08-13T19:18:33.528Z</time>
      </trkpt>
      <trkpt lat="48.85446" lon="2.39071">
        <ele>93</ele>
        <time>2013-08-13T19:18:34.555Z</time>
      </trkpt>
      <trkpt lat="48.85442" lon="2.39059">
        <ele>93.7</ele>
        <time>2013-08-13T19:18:36.568Z</time>
      </trkpt>
      <trkpt lat="48.85439" lon="2.39052">
        <ele>93.6</ele>
        <time>2013-08-13T19:18:37.546Z</time>
      </trkpt>
      <trkpt lat="48.85437" lon="2.39046">
        <ele>93.6</ele>
        <time>2013-08-13T19:18:38.596Z</time>
      </trkpt>
      <trkpt lat="48.85435" lon="2.3904">
        <ele>93.7</ele>
        <time>2013-08-13T19:18:39.551Z</time>
      </trkpt>
      <trkpt lat="48.85431" lon="2.39028">
        <ele>96.8</ele>
        <time>2013-08-13T19:18:41.525Z</time>
      </trkpt>
      <trkpt lat="48.85429" lon="2.39023">
        <ele>96.4</ele>
        <time>2013-08-13T19:18:42.553Z</time>
      </trkpt>
      <trkpt lat="48.85426" lon="2.39015">
        <ele>93.8</ele>
        <time>2013-08-13T19:18:44.562Z</time>
      </trkpt>
      <trkpt lat="48.85425" lon="2.39011">
        <ele>93.5</ele>
        <time>2013-08-13T19:18:45.534Z</time>
      </trkpt>
      <trkpt lat="48.85422" lon="2.39002">
        <ele>93.2</ele>
        <time>2013-08-13T19:18:47.544Z</time>
      </trkpt>
      <trkpt lat="48.85421" lon="2.38996">
        <ele>93.5</ele>
        <time>2013-08-13T19:18:48.536Z</time>
      </trkpt>
      <trkpt lat="48.85418" lon="2.38983">
        <ele>94.2</ele>
        <time>2013-08-13T19:18:50.516Z</time>
      </trkpt>
      <trkpt lat="48.85417" lon="2.38976">
        <ele>94.8</ele>
        <time>2013-08-13T19:18:51.538Z</time>
      </trkpt>
      <trkpt lat="48.85415" lon="2.38968">
        <ele>95.9</ele>
        <time>2013-08-13T19:18:52.560Z</time>
      </trkpt>
      <trkpt lat="48.85414" lon="2.38962">
        <ele>96.3</ele>
        <time>2013-08-13T19:18:53.532Z</time>
      </trkpt>
      <trkpt lat="48.85411" lon="2.38949">
        <ele>97.3</ele>
        <time>2013-08-13T19:18:55.536Z</time>
      </trkpt>
      <trkpt lat="48.85409" lon="2.38943">
        <ele>98</ele>
        <time>2013-08-13T19:18:56.533Z</time>
      </trkpt>
      <trkpt lat="48.85408" lon="2.38936">
        <ele>97.4</ele>
        <time>2013-08-13T19:18:57.539Z</time>
      </trkpt>
      <trkpt lat="48.85406" lon="2.38929">
        <ele>97.2</ele>
        <time>2013-08-13T19:18:58.531Z</time>
      </trkpt>
      <trkpt lat="48.85405" lon="2.38918">
        <ele>96.9</ele>
        <time>2013-08-13T19:18:59.553Z</time>
      </trkpt>
      <trkpt lat="48.85402" lon="2.38908">
        <ele>99</ele>
        <time>2013-08-13T19:19:00.549Z</time>
      </trkpt>
      <trkpt lat="48.85402" lon="2.38897">
        <ele>99.1</ele>
        <time>2013-08-13T19:19:01.605Z</time>
      </trkpt>
      <trkpt lat="48.85401" lon="2.38888">
        <ele>99.6</ele>
        <time>2013-08-13T19:19:02.666Z</time>
      </trkpt>
      <trkpt lat="48.854" lon="2.38881">
        <ele>100.3</ele>
        <time>2013-08-13T19:19:03.539Z</time>
      </trkpt>
      <trkpt lat="48.854" lon="2.38873">
        <ele>100.4</ele>
        <time>2013-08-13T19:19:04.686Z</time>
      </trkpt>
      <trkpt lat="48.85397" lon="2.3886">
        <ele>100.1</ele>
        <time>2013-08-13T19:19:06.687Z</time>
      </trkpt>
      <trkpt lat="48.85395" lon="2.38854">
        <ele>100</ele>
        <time>2013-08-13T19:19:07.554Z</time>
      </trkpt>
      <trkpt lat="48.85392" lon="2.38847">
        <ele>99.2</ele>
        <time>2013-08-13T19:19:08.643Z</time>
      </trkpt>
      <trkpt lat="48.8539" lon="2.38841">
        <ele>99.3</ele>
        <time>2013-08-13T19:19:09.680Z</time>
      </trkpt>
      <trkpt lat="48.8539" lon="2.38828">
        <ele>97.9</ele>
        <time>2013-08-13T19:19:11.674Z</time>
      </trkpt>
      <trkpt lat="48.85389" lon="2.38822">
        <ele>98.4</ele>
        <time>2013-08-13T19:19:12.537Z</time>
      </trkpt>
      <trkpt lat="48.85385" lon="2.38811">
        <ele>97.7</ele>
        <time>2013-08-13T19:19:14.543Z</time>
      </trkpt>
      <trkpt lat="48.85382" lon="2.38806">
        <ele>98.1</ele>
        <time>2013-08-13T19:19:15.685Z</time>
      </trkpt>
      <trkpt lat="48.85374" lon="2.38803">
        <ele>95</ele>
        <time>2013-08-13T19:19:22.528Z</time>
      </trkpt>
      <trkpt lat="48.85375" lon="2.38803">
        <ele>95</ele>
        <time>2013-08-13T19:19:23.521Z</time>
      </trkpt>
      <trkpt lat="48.85375" lon="2.38803">
        <ele>95.9</ele>
        <time>2013-08-13T19:19:36.554Z</time>
      </trkpt>
      <trkpt lat="48.85375" lon="2.38803">
        <ele>96.1</ele>
        <time>2013-08-13T19:19:37.532Z</time>
      </trkpt>
      <trkpt lat="48.85376" lon="2.38806">
        <ele>97.5</ele>
        <time>2013-08-13T19:19:45.676Z</time>
      </trkpt>
      <trkpt lat="48.85376" lon="2.38806">
        <ele>97.5</ele>
        <time>2013-08-13T19:19:46.612Z</time>
      </trkpt>
      <trkpt lat="48.85375" lon="2.38806">
        <ele>98</ele>
        <time>2013-08-13T19:20:03.535Z</time>
      </trkpt>
      <trkpt lat="48.85374" lon="2.38807">
        <ele>99</ele>
        <time>2013-08-13T19:20:04.549Z</time>
      </trkpt>
      <trkpt lat="48.85367" lon="2.38813">
        <ele>102</ele>
        <time>2013-08-13T19:20:07.551Z</time>
      </trkpt>
      <trkpt lat="48.85363" lon="2.38816">
        <ele>105.3</ele>
        <time>2013-08-13T19:20:08.544Z</time>
      </trkpt>
      <trkpt lat="48.85357" lon="2.38823">
        <ele>106.5</ele>
        <time>2013-08-13T19:20:10.555Z</time>
      </trkpt>
      <trkpt lat="48.85354" lon="2.38827">
        <ele>106.1</ele>
        <time>2013-08-13T19:20:11.565Z</time>
      </trkpt>
      <trkpt lat="48.85348" lon="2.38835">
        <ele>108</ele>
        <time>2013-08-13T19:20:13.562Z</time>
      </trkpt>
      <trkpt lat="48.85345" lon="2.38838">
        <ele>108.3</ele>
        <time>2013-08-13T19:20:14.542Z</time>
      </trkpt>
      <trkpt lat="48.85337" lon="2.38841">
        <ele>111.9</ele>
        <time>2013-08-13T19:20:16.525Z</time>
      </trkpt>
      <trkpt lat="48.85334" lon="2.38841">
        <ele>109.9</ele>
        <time>2013-08-13T19:20:17.533Z</time>
      </trkpt>
      <trkpt lat="48.85327" lon="2.38843">
        <ele>109.4</ele>
        <time>2013-08-13T19:20:19.527Z</time>
      </trkpt>
      <trkpt lat="48.85324" lon="2.38844">
        <ele>107.5</ele>
        <time>2013-08-13T19:20:20.542Z</time>
      </trkpt>
      <trkpt lat="48.85317" lon="2.38848">
        <ele>102.6</ele>
        <time>2013-08-13T19:20:23.704Z</time>
      </trkpt>
      <trkpt lat="48.85314" lon="2.38849">
        <ele>103</ele>
        <time>2013-08-13T19:20:24.522Z</time>
      </trkpt>
      <trkpt lat="48.85306" lon="2.38851">
        <ele>101.4</ele>
        <time>2013-08-13T19:20:27.555Z</time>
      </trkpt>
      <trkpt lat="48.85305" lon="2.38851">
        <ele>100.8</ele>
        <time>2013-08-13T19:20:28.509Z</time>
      </trkpt>
      <trkpt lat="48.85304" lon="2.38853">
        <ele>97.2</ele>
        <time>2013-08-13T19:20:35.554Z</time>
      </trkpt>
      <trkpt lat="48.85304" lon="2.38853">
        <ele>96.6</ele>
        <time>2013-08-13T19:20:36.567Z</time>
      </trkpt>
      <trkpt lat="48.85302" lon="2.38851">
        <ele>96.7</ele>
        <time>2013-08-13T19:21:19.571Z</time>
      </trkpt>
      <trkpt lat="48.85301" lon="2.38852">
        <ele>94.8</ele>
        <time>2013-08-13T19:21:20.536Z</time>
      </trkpt>
      <trkpt lat="48.85295" lon="2.38861">
        <ele>93.1</ele>
        <time>2013-08-13T19:21:24.734Z</time>
      </trkpt>
      <trkpt lat="48.85294" lon="2.38864">
        <ele>93.8</ele>
        <time>2013-08-13T19:21:25.648Z</time>
      </trkpt>
      <trkpt lat="48.8529" lon="2.38874">
        <ele>95.4</ele>
        <time>2013-08-13T19:21:28.599Z</time>
      </trkpt>
      <trkpt lat="48.85289" lon="2.38877">
        <ele>97.1</ele>
        <time>2013-08-13T19:21:29.544Z</time>
      </trkpt>
      <trkpt lat="48.85285" lon="2.38886">
        <ele>98.6</ele>
        <time>2013-08-13T19:21:32.543Z</time>
      </trkpt>
      <trkpt lat="48.85283" lon="2.38889">
        <ele>97.8</ele>
        <time>2013-08-13T19:21:33.535Z</time>
      </trkpt>
      <trkpt lat="48.85279" lon="2.38895">
        <ele>97.6</ele>
        <time>2013-08-13T19:21:35.542Z</time>
      </trkpt>
      <trkpt lat="48.85276" lon="2.38898">
        <ele>98.7</ele>
        <time>2013-08-13T19:21:36.558Z</time>
      </trkpt>
      <trkpt lat="48.85271" lon="2.38905">
        <ele>100.2</ele>
        <time>2013-08-13T19:21:38.548Z</time>
      </trkpt>
      <trkpt lat="48.85268" lon="2.38908">
        <ele>101.8</ele>
        <time>2013-08-13T19:21:39.733Z</time>
      </trkpt>
      <trkpt lat="48.85263" lon="2.38915">
        <ele>103.6</ele>
        <time>2013-08-13T19:21:41.631Z</time>
      </trkpt>
      <trkpt lat="48.85261" lon="2.38918">
        <ele>103.6</ele>
        <time>2013-08-13T19:21:42.756Z</time>
      </trkpt>
      <trkpt lat="48.85255" lon="2.38925">
        <ele>105.9</ele>
        <time>2013-08-13T19:21:44.792Z</time>
      </trkpt>
      <trkpt lat="48.85254" lon="2.38927">
        <ele>108.8</ele>
        <time>2013-08-13T19:21:45.584Z</time>
      </trkpt>
      <trkpt lat="48.85247" lon="2.38936">
        <ele>112.9</ele>
        <time>2013-08-13T19:21:48.685Z</time>
      </trkpt>
      <trkpt lat="48.85245" lon="2.38939">
        <ele>114.8</ele>
        <time>2013-08-13T19:21:49.778Z</time>
      </trkpt>
      <trkpt lat="48.85238" lon="2.38947">
        <ele>116.6</ele>
        <time>2013-08-13T19:21:52.534Z</time>
      </trkpt>
      <trkpt lat="48.85236" lon="2.38951">
        <ele>116</ele>
        <time>2013-08-13T19:21:53.555Z</time>
      </trkpt>
      <trkpt lat="48.85231" lon="2.3896">
        <ele>116</ele>
        <time>2013-08-13T19:21:55.548Z</time>
      </trkpt>
      <trkpt lat="48.85229" lon="2.38965">
        <ele>116.8</ele>
        <time>2013-08-13T19:21:56.557Z</time>
      </trkpt>
      <trkpt lat="48.85225" lon="2.38974">
        <ele>117</ele>
        <time>2013-08-13T19:21:58.539Z</time>
      </trkpt>
      <trkpt lat="48.85223" lon="2.38978">
        <ele>116.8</ele>
        <time>2013-08-13T19:21:59.543Z</time>
      </trkpt>
      <trkpt lat="48.85219" lon="2.38987">
        <ele>114.6</ele>
        <time>2013-08-13T19:22:01.551Z</time>
      </trkpt>
      <trkpt lat="48.85217" lon="2.38991">
        <ele>114.6</ele>
        <time>2013-08-13T19:22:02.528Z</time>
      </trkpt>
      <trkpt lat="48.85214" lon="2.38999">
        <ele>114.6</ele>
        <time>2013-08-13T19:22:04.535Z</time>
      </trkpt>
      <trkpt lat="48.85212" lon="2.39003">
        <ele>117.9</ele>
        <time>2013-08-13T19:22:05.536Z</time>
      </trkpt>
      <trkpt lat="48.85208" lon="2.39011">
        <ele>118.6</ele>
        <time>2013-08-13T19:22:07.770Z</time>
      </trkpt>
      <trkpt lat="48.85206" lon="2.39015">
        <ele>120.2</ele>
        <time>2013-08-13T19:22:08.562Z</time>
      </trkpt>
      <trkpt lat="48.85201" lon="2.39023">
        <ele>122</ele>
        <time>2013-08-13T19:22:10.535Z</time>
      </trkpt>
      <trkpt lat="48.85199" lon="2.39027">
        <ele>122.8</ele>
        <time>2013-08-13T19:22:11.725Z</time>
      </trkpt>
      <trkpt lat="48.85194" lon="2.39035">
        <ele>124.3</ele>
        <time>2013-08-13T19:22:13.650Z</time>
      </trkpt>
      <trkpt lat="48.85191" lon="2.39039">
        <ele>124.8</ele>
        <time>2013-08-13T19:22:14.764Z</time>
      </trkpt>
      <trkpt lat="48.85186" lon="2.3905">
        <ele>128.5</ele>
        <time>2013-08-13T19:22:17.534Z</time>
      </trkpt>
      <trkpt lat="48.85184" lon="2.39054">
        <ele>129.7</ele>
        <time>2013-08-13T19:22:18.714Z</time>
      </trkpt>
      <trkpt lat="48.85181" lon="2.39066">
        <ele>134.5</ele>
        <time>2013-08-13T19:22:22.585Z</time>
      </trkpt>
      <trkpt lat="48.85179" lon="2.3907">
        <ele>134</ele>
        <time>2013-08-13T19:22:23.768Z</time>
      </trkpt>
      <trkpt lat="48.85175" lon="2.3908">
        <ele>134.7</ele>
        <time>2013-08-13T19:22:26.605Z</time>
      </trkpt>
      <trkpt lat="48.85174" lon="2.39082">
        <ele>134.2</ele>
        <time>2013-08-13T19:22:27.552Z</time>
      </trkpt>
      <trkpt lat="48.85169" lon="2.39091">
        <ele>132.9</ele>
        <time>2013-08-13T19:22:30.556Z</time>
      </trkpt>
      <trkpt lat="48.85166" lon="2.39094">
        <ele>133.3</ele>
        <time>2013-08-13T19:22:31.582Z</time>
      </trkpt>
      <trkpt lat="48.85161" lon="2.39101">
        <ele>134.1</ele>
        <time>2013-08-13T19:22:33.553Z</time>
      </trkpt>
      <trkpt lat="48.85159" lon="2.39104">
        <ele>133.4</ele>
        <time>2013-08-13T19:22:34.564Z</time>
      </trkpt>
      <trkpt lat="48.85152" lon="2.39113">
        <ele>132.2</ele>
        <time>2013-08-13T19:22:37.543Z</time>
      </trkpt>
      <trkpt lat="48.8515" lon="2.39116">
        <ele>131.9</ele>
        <time>2013-08-13T19:22:38.565Z</time>
      </trkpt>
      <trkpt lat="48.85144" lon="2.39125">
        <ele>131.1</ele>
        <time>2013-08-13T19:22:41.588Z</time>
      </trkpt>
      <trkpt lat="48.85142" lon="2.39128">
        <ele>130.9</ele>
        <time>2013-08-13T19:22:42.566Z</time>
      </trkpt>
      <trkpt lat="48.85137" lon="2.39135">
        <ele>130.7</ele>
        <time>2013-08-13T19:22:44.614Z</time>
      </trkpt>
      <trkpt lat="48.85134" lon="2.39138">
        <ele>131.1</ele>
        <time>2013-08-13T19:22:45.552Z</time>
      </trkpt>
      <trkpt lat="48.85128" lon="2.39147">
        <ele>131.3</ele>
        <time>2013-08-13T19:22:47.587Z</time>
      </trkpt>
      <trkpt lat="48.85125" lon="2.39151">
        <ele>132</ele>
        <time>2013-08-13T19:22:48.574Z</time>
      </trkpt>
      <trkpt lat="48.85121" lon="2.39157">
        <ele>131.4</ele>
        <time>2013-08-13T19:22:49.547Z</time>
      </trkpt>
      <trkpt lat="48.85118" lon="2.39162">
        <ele>130.8</ele>
        <time>2013-08-13T19:22:50.595Z</time>
      </trkpt>
      <trkpt lat="48.85113" lon="2.39173">
        <ele>126.6</ele>
        <time>2013-08-13T19:22:52.560Z</time>
      </trkpt>
      <trkpt lat="48.8511" lon="2.39179">
        <ele>125.5</ele>
        <time>2013-08-13T19:22:53.563Z</time>
      </trkpt>
      <trkpt lat="48.85107" lon="2.39184">
        <ele>124.2</ele>
        <time>2013-08-13T19:22:54.548Z</time>
      </trkpt>
      <trkpt lat="48.85104" lon="2.3919">
        <ele>124.2</ele>
        <time>2013-08-13T19:22:55.549Z</time>
      </trkpt>
      <trkpt lat="48.85099" lon="2.39199">
        <ele>123.1</ele>
        <time>2013-08-13T19:22:57.600Z</time>
      </trkpt>
      <trkpt lat="48.85096" lon="2.39202">
        <ele>121.8</ele>
        <time>2013-08-13T19:22:58.556Z</time>
      </trkpt>
      <trkpt lat="48.85091" lon="2.39213">
        <ele>119.3</ele>
        <time>2013-08-13T19:23:01.568Z</time>
      </trkpt>
      <trkpt lat="48.85088" lon="2.39217">
        <ele>119.8</ele>
        <time>2013-08-13T19:23:02.564Z</time>
      </trkpt>
      <trkpt lat="48.85082" lon="2.39224">
        <ele>119.7</ele>
        <time>2013-08-13T19:23:04.771Z</time>
      </trkpt>
      <trkpt lat="48.8508" lon="2.39226">
        <ele>121.2</ele>
        <time>2013-08-13T19:23:05.564Z</time>
      </trkpt>
      <trkpt lat="48.85074" lon="2.39233">
        <ele>120.7</ele>
        <time>2013-08-13T19:23:07.635Z</time>
      </trkpt>
      <trkpt lat="48.85071" lon="2.39237">
        <ele>118.6</ele>
        <time>2013-08-13T19:23:08.695Z</time>
      </trkpt>
      <trkpt lat="48.85065" lon="2.39245">
        <ele>121.6</ele>
        <time>2013-08-13T19:23:10.628Z</time>
      </trkpt>
      <trkpt lat="48.85061" lon="2.3925">
        <ele>122.8</ele>
        <time>2013-08-13T19:23:11.804Z</time>
      </trkpt>
      <trkpt lat="48.85057" lon="2.39261">
        <ele>122.4</ele>
        <time>2013-08-13T19:23:13.801Z</time>
      </trkpt>
      <trkpt lat="48.85056" lon="2.39265">
        <ele>122.7</ele>
        <time>2013-08-13T19:23:14.614Z</time>
      </trkpt>
      <trkpt lat="48.85053" lon="2.39274">
        <ele>125.3</ele>
        <time>2013-08-13T19:23:16.584Z</time>
      </trkpt>
      <trkpt lat="48.85053" lon="2.39279">
        <ele>125.3</ele>
        <time>2013-08-13T19:23:17.571Z</time>
      </trkpt>
      <trkpt lat="48.85049" lon="2.39287">
        <ele>128.1</ele>
        <time>2013-08-13T19:23:19.553Z</time>
      </trkpt>
      <trkpt lat="48.85046" lon="2.39293">
        <ele>126.4</ele>
        <time>2013-08-13T19:23:20.588Z</time>
      </trkpt>
      <trkpt lat="48.85043" lon="2.39298">
        <ele>126.1</ele>
        <time>2013-08-13T19:23:21.556Z</time>
      </trkpt>
      <trkpt lat="48.85039" lon="2.39304">
        <ele>126.2</ele>
        <time>2013-08-13T19:23:22.565Z</time>
      </trkpt>
      <trkpt lat="48.85036" lon="2.3931">
        <ele>126.2</ele>
        <time>2013-08-13T19:23:23.563Z</time>
      </trkpt>
      <trkpt lat="48.85032" lon="2.39315">
        <ele>126.5</ele>
        <time>2013-08-13T19:23:24.536Z</time>
      </trkpt>
      <trkpt lat="48.85029" lon="2.39321">
        <ele>126.6</ele>
        <time>2013-08-13T19:23:25.576Z</time>
      </trkpt>
      <trkpt lat="48.85025" lon="2.39327">
        <ele>127.7</ele>
        <time>2013-08-13T19:23:26.634Z</time>
      </trkpt>
      <trkpt lat="48.85021" lon="2.39332">
        <ele>127.4</ele>
        <time>2013-08-13T19:23:27.600Z</time>
      </trkpt>
      <trkpt lat="48.85017" lon="2.39338">
        <ele>127.8</ele>
        <time>2013-08-13T19:23:28.559Z</time>
      </trkpt>
      <trkpt lat="48.85014" lon="2.39343">
        <ele>128.1</ele>
        <time>2013-08-13T19:23:29.557Z</time>
      </trkpt>
      <trkpt lat="48.8501" lon="2.39349">
        <ele>128.3</ele>
        <time>2013-08-13T19:23:30.532Z</time>
      </trkpt>
      <trkpt lat="48.85007" lon="2.39355">
        <ele>128.3</ele>
        <time>2013-08-13T19:23:31.554Z</time>
      </trkpt>
      <trkpt lat="48.85004" lon="2.3936">
        <ele>129.6</ele>
        <time>2013-08-13T19:23:32.582Z</time>
      </trkpt>
      <trkpt lat="48.84999" lon="2.39371">
        <ele>128.4</ele>
        <time>2013-08-13T19:23:34.567Z</time>
      </trkpt>
      <trkpt lat="48.84997" lon="2.39376">
        <ele>128.4</ele>
        <time>2013-08-13T19:23:35.597Z</time>
      </trkpt>
      <trkpt lat="48.84991" lon="2.39386">
        <ele>128.3</ele>
        <time>2013-08-13T19:23:37.577Z</time>
      </trkpt>
      <trkpt lat="48.84988" lon="2.3939">
        <ele>127.5</ele>
        <time>2013-08-13T19:23:38.598Z</time>
      </trkpt>
      <trkpt lat="48.84984" lon="2.39395">
        <ele>126.2</ele>
        <time>2013-08-13T19:23:39.551Z</time>
      </trkpt>
      <trkpt lat="48.8498" lon="2.39401">
        <ele>126</ele>
        <time>2013-08-13T19:23:40.577Z</time>
      </trkpt>
      <trkpt lat="48.84975" lon="2.39406">
        <ele>124.8</ele>
        <time>2013-08-13T19:23:41.542Z</time>
      </trkpt>
      <trkpt lat="48.84971" lon="2.39412">
        <ele>125</ele>
        <time>2013-08-13T19:23:42.548Z</time>
      </trkpt>
      <trkpt lat="48.84968" lon="2.39417">
        <ele>125.4</ele>
        <time>2013-08-13T19:23:43.556Z</time>
      </trkpt>
      <trkpt lat="48.84964" lon="2.39421">
        <ele>125.9</ele>
        <time>2013-08-13T19:23:44.584Z</time>
      </trkpt>
      <trkpt lat="48.84958" lon="2.3943">
        <ele>127</ele>
        <time>2013-08-13T19:23:46.567Z</time>
      </trkpt>
      <trkpt lat="48.84955" lon="2.39435">
        <ele>127.9</ele>
        <time>2013-08-13T19:23:47.767Z</time>
      </trkpt>
      <trkpt lat="48.8495" lon="2.39442">
        <ele>127.5</ele>
        <time>2013-08-13T19:23:49.675Z</time>
      </trkpt>
      <trkpt lat="48.84946" lon="2.39448">
        <ele>126</ele>
        <time>2013-08-13T19:23:51.333Z</time>
      </trkpt>
      <trkpt lat="48.84942" lon="2.39455">
        <ele>121.7</ele>
        <time>2013-08-13T19:23:52.821Z</time>
      </trkpt>
      <trkpt lat="48.8494" lon="2.39458">
        <ele>120.3</ele>
        <time>2013-08-13T19:23:53.563Z</time>
      </trkpt>
      <trkpt lat="48.84934" lon="2.39466">
        <ele>117.8</ele>
        <time>2013-08-13T19:23:56.635Z</time>
      </trkpt>
      <trkpt lat="48.84933" lon="2.39467">
        <ele>118.6</ele>
        <time>2013-08-13T19:23:57.538Z</time>
      </trkpt>
      <trkpt lat="48.84926" lon="2.39473">
        <ele>117.4</ele>
        <time>2013-08-13T19:24:05.559Z</time>
      </trkpt>
      <trkpt lat="48.84925" lon="2.39474">
        <ele>118.2</ele>
        <time>2013-08-13T19:24:06.564Z</time>
      </trkpt>
      <trkpt lat="48.84916" lon="2.39474">
        <ele>113.8</ele>
        <time>2013-08-13T19:24:09.562Z</time>
      </trkpt>
      <trkpt lat="48.84912" lon="2.39473">
        <ele>112.7</ele>
        <time>2013-08-13T19:24:10.563Z</time>
      </trkpt>
      <trkpt lat="48.84906" lon="2.3947">
        <ele>110.4</ele>
        <time>2013-08-13T19:24:12.561Z</time>
      </trkpt>
      <trkpt lat="48.84903" lon="2.39468">
        <ele>109.5</ele>
        <time>2013-08-13T19:24:13.563Z</time>
      </trkpt>
      <trkpt lat="48.84896" lon="2.39464">
        <ele>110.8</ele>
        <time>2013-08-13T19:24:15.565Z</time>
      </trkpt>
      <trkpt lat="48.84893" lon="2.39462">
        <ele>111</ele>
        <time>2013-08-13T19:24:16.587Z</time>
      </trkpt>
      <trkpt lat="48.84886" lon="2.3946">
        <ele>110.9</ele>
        <time>2013-08-13T19:24:18.553Z</time>
      </trkpt>
      <trkpt lat="48.84882" lon="2.39458">
        <ele>111.4</ele>
        <time>2013-08-13T19:24:19.553Z</time>
      </trkpt>
      <trkpt lat="48.84874" lon="2.39454">
        <ele>112.3</ele>
        <time>2013-08-13T19:24:21.536Z</time>
      </trkpt>
      <trkpt lat="48.8487" lon="2.39452">
        <ele>111.9</ele>
        <time>2013-08-13T19:24:22.559Z</time>
      </trkpt>
      <trkpt lat="48.84862" lon="2.39448">
        <ele>111.2</ele>
        <time>2013-08-13T19:24:24.547Z</time>
      </trkpt>
      <trkpt lat="48.84858" lon="2.39446">
        <ele>111.1</ele>
        <time>2013-08-13T19:24:25.586Z</time>
      </trkpt>
      <trkpt lat="48.84851" lon="2.39444">
        <ele>111</ele>
        <time>2013-08-13T19:24:27.557Z</time>
      </trkpt>
      <trkpt lat="48.84848" lon="2.39443">
        <ele>110.8</ele>
        <time>2013-08-13T19:24:28.583Z</time>
      </trkpt>
      <trkpt lat="48.84839" lon="2.39441">
        <ele>108</ele>
        <time>2013-08-13T19:24:33.557Z</time>
      </trkpt>
      <trkpt lat="48.84838" lon="2.39441">
        <ele>107.9</ele>
        <time>2013-08-13T19:24:34.554Z</time>
      </trkpt>
      <trkpt lat="48.84835" lon="2.39435">
        <ele>104.5</ele>
        <time>2013-08-13T19:24:47.549Z</time>
      </trkpt>
      <trkpt lat="48.84835" lon="2.39435">
        <ele>104</ele>
        <time>2013-08-13T19:24:48.576Z</time>
      </trkpt>
      <trkpt lat="48.84835" lon="2.39435">
        <ele>104.2</ele>
        <time>2013-08-13T19:24:49.581Z</time>
      </trkpt>
      <trkpt lat="48.84835" lon="2.39435">
        <ele>104.1</ele>
        <time>2013-08-13T19:24:50.617Z</time>
      </trkpt>
      <trkpt lat="48.84834" lon="2.39435">
        <ele>104.3</ele>
        <time>2013-08-13T19:24:51.564Z</time>
      </trkpt>
      <trkpt lat="48.84834" lon="2.39435">
        <ele>104.3</ele>
        <time>2013-08-13T19:24:52.577Z</time>
      </trkpt>
      <trkpt lat="48.84836" lon="2.39434">
        <ele>104.3</ele>
        <time>2013-08-13T19:24:53.685Z</time>
      </trkpt>
      <trkpt lat="48.84843" lon="2.3943">
        <ele>105.6</ele>
        <time>2013-08-13T19:24:57.576Z</time>
      </trkpt>
      <trkpt lat="48.84844" lon="2.39429">
        <ele>105.4</ele>
        <time>2013-08-13T19:24:58.796Z</time>
      </trkpt>
      <trkpt lat="48.84853" lon="2.39426">
        <ele>105.8</ele>
        <time>2013-08-13T19:25:08.771Z</time>
      </trkpt>
      <trkpt lat="48.84854" lon="2.39424">
        <ele>104.7</ele>
        <time>2013-08-13T19:25:09.683Z</time>
      </trkpt>
      <trkpt lat="48.84861" lon="2.39416">
        <ele>105.6</ele>
        <time>2013-08-13T19:25:13.585Z</time>
      </trkpt>
      <trkpt lat="48.84863" lon="2.39412">
        <ele>105.1</ele>
        <time>2013-08-13T19:25:14.785Z</time>
      </trkpt>
      <trkpt lat="48.84865" lon="2.39399">
        <ele>106</ele>
        <time>2013-08-13T19:25:17.587Z</time>
      </trkpt>
      <trkpt lat="48.84866" lon="2.39394">
        <ele>106.8</ele>
        <time>2013-08-13T19:25:18.623Z</time>
      </trkpt>
      <trkpt lat="48.84867" lon="2.39385">
        <ele>108.6</ele>
        <time>2013-08-13T19:25:20.556Z</time>
      </trkpt>
      <trkpt lat="48.84868" lon="2.3938">
        <ele>109.3</ele>
        <time>2013-08-13T19:25:21.554Z</time>
      </trkpt>
      <trkpt lat="48.8487" lon="2.39367">
        <ele>109.6</ele>
        <time>2013-08-13T19:25:24.586Z</time>
      </trkpt>
      <trkpt lat="48.8487" lon="2.39362">
        <ele>109.7</ele>
        <time>2013-08-13T19:25:25.638Z</time>
      </trkpt>
      <trkpt lat="48.84872" lon="2.39349">
        <ele>109</ele>
        <time>2013-08-13T19:25:27.540Z</time>
      </trkpt>
      <trkpt lat="48.84873" lon="2.39343">
        <ele>108.4</ele>
        <time>2013-08-13T19:25:28.575Z</time>
      </trkpt>
      <trkpt lat="48.84875" lon="2.3933">
        <ele>107.9</ele>
        <time>2013-08-13T19:25:30.556Z</time>
      </trkpt>
      <trkpt lat="48.84876" lon="2.39324">
        <ele>107.7</ele>
        <time>2013-08-13T19:25:31.667Z</time>
      </trkpt>
      <trkpt lat="48.84877" lon="2.39312">
        <ele>108</ele>
        <time>2013-08-13T19:25:33.588Z</time>
      </trkpt>
      <trkpt lat="48.84878" lon="2.39306">
        <ele>107.2</ele>
        <time>2013-08-13T19:25:34.615Z</time>
      </trkpt>
      <trkpt lat="48.84879" lon="2.39294">
        <ele>103.9</ele>
        <time>2013-08-13T19:25:36.557Z</time>
      </trkpt>
      <trkpt lat="48.8488" lon="2.39288">
        <ele>102.6</ele>
        <time>2013-08-13T19:25:37.570Z</time>
      </trkpt>
      <trkpt lat="48.84881" lon="2.39276">
        <ele>102.7</ele>
        <time>2013-08-13T19:25:39.597Z</time>
      </trkpt>
      <trkpt lat="48.84882" lon="2.3927">
        <ele>103.5</ele>
        <time>2013-08-13T19:25:40.592Z</time>
      </trkpt>
      <trkpt lat="48.84883" lon="2.3926">
        <ele>105.9</ele>
        <time>2013-08-13T19:25:42.664Z</time>
      </trkpt>
      <trkpt lat="48.84884" lon="2.39255">
        <ele>106.4</ele>
        <time>2013-08-13T19:25:43.585Z</time>
      </trkpt>
      <trkpt lat="48.84887" lon="2.39246">
        <ele>107.1</ele>
        <time>2013-08-13T19:25:45.576Z</time>
      </trkpt>
      <trkpt lat="48.84888" lon="2.3924">
        <ele>107.6</ele>
        <time>2013-08-13T19:25:46.745Z</time>
      </trkpt>
      <trkpt lat="48.84889" lon="2.39234">
        <ele>106.7</ele>
        <time>2013-08-13T19:25:47.633Z</time>
      </trkpt>
      <trkpt lat="48.8489" lon="2.39225">
        <ele>106</ele>
        <time>2013-08-13T19:25:48.718Z</time>
      </trkpt>
      <trkpt lat="48.84891" lon="2.39218">
        <ele>106.2</ele>
        <time>2013-08-13T19:25:49.654Z</time>
      </trkpt>
      <trkpt lat="48.84892" lon="2.39209">
        <ele>103.2</ele>
        <time>2013-08-13T19:25:50.612Z</time>
      </trkpt>
      <trkpt lat="48.84893" lon="2.39201">
        <ele>103.4</ele>
        <time>2013-08-13T19:25:51.696Z</time>
      </trkpt>
      <trkpt lat="48.84894" lon="2.39193">
        <ele>101.9</ele>
        <time>2013-08-13T19:25:52.564Z</time>
      </trkpt>
      <trkpt lat="48.84894" lon="2.39185">
        <ele>101.2</ele>
        <time>2013-08-13T19:25:53.648Z</time>
      </trkpt>
      <trkpt lat="48.84894" lon="2.39177">
        <ele>101.4</ele>
        <time>2013-08-13T19:25:54.583Z</time>
      </trkpt>
      <trkpt lat="48.84895" lon="2.3917">
        <ele>101.7</ele>
        <time>2013-08-13T19:25:55.639Z</time>
      </trkpt>
      <trkpt lat="48.84896" lon="2.39163">
        <ele>101.6</ele>
        <time>2013-08-13T19:25:56.809Z</time>
      </trkpt>
      <trkpt lat="48.849" lon="2.3915">
        <ele>100.1</ele>
        <time>2013-08-13T19:25:58.593Z</time>
      </trkpt>
      <trkpt lat="48.84902" lon="2.39143">
        <ele>99.8</ele>
        <time>2013-08-13T19:25:59.599Z</time>
      </trkpt>
      <trkpt lat="48.84903" lon="2.39135">
        <ele>98.9</ele>
        <time>2013-08-13T19:26:00.542Z</time>
      </trkpt>
      <trkpt lat="48.84904" lon="2.39127">
        <ele>98.3</ele>
        <time>2013-08-13T19:26:01.531Z</time>
      </trkpt>
      <trkpt lat="48.84905" lon="2.39119">
        <ele>98.5</ele>
        <time>2013-08-13T19:26:02.533Z</time>
      </trkpt>
      <trkpt lat="48.84906" lon="2.39111">
        <ele>98.4</ele>
        <time>2013-08-13T19:26:03.532Z</time>
      </trkpt>
      <trkpt lat="48.84908" lon="2.39102">
        <ele>97.8</ele>
        <time>2013-08-13T19:26:04.532Z</time>
      </trkpt>
      <trkpt lat="48.8491" lon="2.39093">
        <ele>97.6</ele>
        <time>2013-08-13T19:26:05.590Z</time>
      </trkpt>
      <trkpt lat="48.84912" lon="2.39084">
        <ele>96.6</ele>
        <time>2013-08-13T19:26:06.550Z</time>
      </trkpt>
      <trkpt lat="48.84914" lon="2.39075">
        <ele>95.8</ele>
        <time>2013-08-13T19:26:07.533Z</time>
      </trkpt>
      <trkpt lat="48.84916" lon="2.39067">
        <ele>95.5</ele>
        <time>2013-08-13T19:26:08.541Z</time>
      </trkpt>
      <trkpt lat="48.84918" lon="2.39059">
        <ele>95.5</ele>
        <time>2013-08-13T19:26:09.535Z</time>
      </trkpt>
      <trkpt lat="48.84919" lon="2.39051">
        <ele>94.6</ele>
        <time>2013-08-13T19:26:10.538Z</time>
      </trkpt>
      <trkpt lat="48.84921" lon="2.39043">
        <ele>94.3</ele>
        <time>2013-08-13T19:26:11.535Z</time>
      </trkpt>
      <trkpt lat="48.84923" lon="2.39033">
        <ele>94.1</ele>
        <time>2013-08-13T19:26:13.554Z</time>
      </trkpt>
      <trkpt lat="48.84924" lon="2.39027">
        <ele>94</ele>
        <time>2013-08-13T19:26:14.547Z</time>
      </trkpt>
      <trkpt lat="48.84925" lon="2.3902">
        <ele>93.8</ele>
        <time>2013-08-13T19:26:15.595Z</time>
      </trkpt>
      <trkpt lat="48.84927" lon="2.39012">
        <ele>94.1</ele>
        <time>2013-08-13T19:26:16.564Z</time>
      </trkpt>
      <trkpt lat="48.84928" lon="2.39004">
        <ele>94.2</ele>
        <time>2013-08-13T19:26:17.549Z</time>
      </trkpt>
      <trkpt lat="48.84929" lon="2.38996">
        <ele>93.4</ele>
        <time>2013-08-13T19:26:18.583Z</time>
      </trkpt>
      <trkpt lat="48.8493" lon="2.38989">
        <ele>93.6</ele>
        <time>2013-08-13T19:26:19.610Z</time>
      </trkpt>
      <trkpt lat="48.84932" lon="2.38982">
        <ele>93.2</ele>
        <time>2013-08-13T19:26:20.554Z</time>
      </trkpt>
      <trkpt lat="48.84935" lon="2.38971">
        <ele>92.8</ele>
        <time>2013-08-13T19:26:22.595Z</time>
      </trkpt>
      <trkpt lat="48.84937" lon="2.38964">
        <ele>92.8</ele>
        <time>2013-08-13T19:26:23.572Z</time>
      </trkpt>
      <trkpt lat="48.84941" lon="2.38952">
        <ele>92.4</ele>
        <time>2013-08-13T19:26:25.597Z</time>
      </trkpt>
      <trkpt lat="48.84942" lon="2.38943">
        <ele>91.7</ele>
        <time>2013-08-13T19:26:26.534Z</time>
      </trkpt>
      <trkpt lat="48.84944" lon="2.38934">
        <ele>92.3</ele>
        <time>2013-08-13T19:26:27.563Z</time>
      </trkpt>
      <trkpt lat="48.84945" lon="2.38924">
        <ele>93.4</ele>
        <time>2013-08-13T19:26:28.601Z</time>
      </trkpt>
      <trkpt lat="48.84946" lon="2.38914">
        <ele>93.6</ele>
        <time>2013-08-13T19:26:29.577Z</time>
      </trkpt>
      <trkpt lat="48.84947" lon="2.38903">
        <ele>93.5</ele>
        <time>2013-08-13T19:26:30.574Z</time>
      </trkpt>
      <trkpt lat="48.84948" lon="2.38892">
        <ele>94.2</ele>
        <time>2013-08-13T19:26:31.563Z</time>
      </trkpt>
      <trkpt lat="48.84949" lon="2.38882">
        <ele>94.6</ele>
        <time>2013-08-13T19:26:32.574Z</time>
      </trkpt>
      <trkpt lat="48.84951" lon="2.38874">
        <ele>95.2</ele>
        <time>2013-08-13T19:26:33.564Z</time>
      </trkpt>
      <trkpt lat="48.84952" lon="2.38865">
        <ele>94.7</ele>
        <time>2013-08-13T19:26:34.575Z</time>
      </trkpt>
      <trkpt lat="48.84953" lon="2.38856">
        <ele>95.6</ele>
        <time>2013-08-13T19:26:35.587Z</time>
      </trkpt>
      <trkpt lat="48.84954" lon="2.38846">
        <ele>96.3</ele>
        <time>2013-08-13T19:26:36.564Z</time>
      </trkpt>
      <trkpt lat="48.84955" lon="2.38836">
        <ele>96.5</ele>
        <time>2013-08-13T19:26:37.575Z</time>
      </trkpt>
      <trkpt lat="48.84955" lon="2.38827">
        <ele>96.5</ele>
        <time>2013-08-13T19:26:38.556Z</time>
      </trkpt>
      <trkpt lat="48.84956" lon="2.38818">
        <ele>97</ele>
        <time>2013-08-13T19:26:39.571Z</time>
      </trkpt>
      <trkpt lat="48.84958" lon="2.38809">
        <ele>95.3</ele>
        <time>2013-08-13T19:26:40.573Z</time>
      </trkpt>
      <trkpt lat="48.8496" lon="2.388">
        <ele>94.9</ele>
        <time>2013-08-13T19:26:41.572Z</time>
      </trkpt>
      <trkpt lat="48.84962" lon="2.38791">
        <ele>95.1</ele>
        <time>2013-08-13T19:26:42.546Z</time>
      </trkpt>
      <trkpt lat="48.84963" lon="2.38781">
        <ele>94.4</ele>
        <time>2013-08-13T19:26:43.563Z</time>
      </trkpt>
      <trkpt lat="48.84963" lon="2.38774">
        <ele>94.1</ele>
        <time>2013-08-13T19:26:44.570Z</time>
      </trkpt>
      <trkpt lat="48.84966" lon="2.38761">
        <ele>94.2</ele>
        <time>2013-08-13T19:26:46.557Z</time>
      </trkpt>
      <trkpt lat="48.84967" lon="2.38754">
        <ele>93.5</ele>
        <time>2013-08-13T19:26:47.598Z</time>
      </trkpt>
      <trkpt lat="48.84971" lon="2.38741">
        <ele>92.2</ele>
        <time>2013-08-13T19:26:49.602Z</time>
      </trkpt>
      <trkpt lat="48.84972" lon="2.38735">
        <ele>91.4</ele>
        <time>2013-08-13T19:26:50.762Z</time>
      </trkpt>
      <trkpt lat="48.84972" lon="2.38727">
        <ele>90.5</ele>
        <time>2013-08-13T19:26:51.612Z</time>
      </trkpt>
      <trkpt lat="48.84973" lon="2.38716">
        <ele>89.7</ele>
        <time>2013-08-13T19:26:52.575Z</time>
      </trkpt>
      <trkpt lat="48.84973" lon="2.38706">
        <ele>89.4</ele>
        <time>2013-08-13T19:26:53.583Z</time>
      </trkpt>
      <trkpt lat="48.84974" lon="2.38697">
        <ele>89.1</ele>
        <time>2013-08-13T19:26:54.567Z</time>
      </trkpt>
      <trkpt lat="48.84975" lon="2.38688">
        <ele>89.6</ele>
        <time>2013-08-13T19:26:55.582Z</time>
      </trkpt>
      <trkpt lat="48.84977" lon="2.3868">
        <ele>89.2</ele>
        <time>2013-08-13T19:26:56.574Z</time>
      </trkpt>
      <trkpt lat="48.84979" lon="2.38671">
        <ele>88.5</ele>
        <time>2013-08-13T19:26:57.606Z</time>
      </trkpt>
      <trkpt lat="48.8498" lon="2.38661">
        <ele>88.7</ele>
        <time>2013-08-13T19:26:58.565Z</time>
      </trkpt>
      <trkpt lat="48.84983" lon="2.38651">
        <ele>86.7</ele>
        <time>2013-08-13T19:26:59.564Z</time>
      </trkpt>
      <trkpt lat="48.84984" lon="2.38642">
        <ele>85.8</ele>
        <time>2013-08-13T19:27:00.587Z</time>
      </trkpt>
      <trkpt lat="48.84986" lon="2.38632">
        <ele>85.6</ele>
        <time>2013-08-13T19:27:01.674Z</time>
      </trkpt>
      <trkpt lat="48.84988" lon="2.38624">
        <ele>86.7</ele>
        <time>2013-08-13T19:27:02.749Z</time>
      </trkpt>
      <trkpt lat="48.84989" lon="2.38616">
        <ele>85.7</ele>
        <time>2013-08-13T19:27:03.612Z</time>
      </trkpt>
      <trkpt lat="48.8499" lon="2.38606">
        <ele>85</ele>
        <time>2013-08-13T19:27:04.725Z</time>
      </trkpt>
      <trkpt lat="48.84991" lon="2.38598">
        <ele>87.3</ele>
        <time>2013-08-13T19:27:05.572Z</time>
      </trkpt>
      <trkpt lat="48.84992" lon="2.38588">
        <ele>88</ele>
        <time>2013-08-13T19:27:06.785Z</time>
      </trkpt>
      <trkpt lat="48.84993" lon="2.38579">
        <ele>87.7</ele>
        <time>2013-08-13T19:27:07.727Z</time>
      </trkpt>
      <trkpt lat="48.84994" lon="2.38571">
        <ele>89.5</ele>
        <time>2013-08-13T19:27:08.591Z</time>
      </trkpt>
      <trkpt lat="48.84996" lon="2.38562">
        <ele>88.9</ele>
        <time>2013-08-13T19:27:09.578Z</time>
      </trkpt>
      <trkpt lat="48.84997" lon="2.38553">
        <ele>88.1</ele>
        <time>2013-08-13T19:27:10.596Z</time>
      </trkpt>
      <trkpt lat="48.84998" lon="2.38545">
        <ele>87.9</ele>
        <time>2013-08-13T19:27:11.593Z</time>
      </trkpt>
      <trkpt lat="48.85" lon="2.38537">
        <ele>88.3</ele>
        <time>2013-08-13T19:27:12.576Z</time>
      </trkpt>
      <trkpt lat="48.85001" lon="2.38528">
        <ele>86.6</ele>
        <time>2013-08-13T19:27:13.572Z</time>
      </trkpt>
      <trkpt lat="48.85003" lon="2.3852">
        <ele>86.4</ele>
        <time>2013-08-13T19:27:14.538Z</time>
      </trkpt>
      <trkpt lat="48.85005" lon="2.38511">
        <ele>86.7</ele>
        <time>2013-08-13T19:27:15.621Z</time>
      </trkpt>
      <trkpt lat="48.85006" lon="2.38504">
        <ele>87.5</ele>
        <time>2013-08-13T19:27:16.579Z</time>
      </trkpt>
      <trkpt lat="48.85007" lon="2.38496">
        <ele>87.7</ele>
        <time>2013-08-13T19:27:17.624Z</time>
      </trkpt>
      <trkpt lat="48.85008" lon="2.38488">
        <ele>89.3</ele>
        <time>2013-08-13T19:27:18.601Z</time>
      </trkpt>
      <trkpt lat="48.85009" lon="2.3848">
        <ele>89.3</ele>
        <time>2013-08-13T19:27:19.608Z</time>
      </trkpt>
      <trkpt lat="48.85009" lon="2.38473">
        <ele>89.7</ele>
        <time>2013-08-13T19:27:20.571Z</time>
      </trkpt>
      <trkpt lat="48.8501" lon="2.38465">
        <ele>89.6</ele>
        <time>2013-08-13T19:27:21.591Z</time>
      </trkpt>
      <trkpt lat="48.85011" lon="2.38457">
        <ele>89.8</ele>
        <time>2013-08-13T19:27:22.564Z</time>
      </trkpt>
      <trkpt lat="48.85012" lon="2.38449">
        <ele>89.9</ele>
        <time>2013-08-13T19:27:23.566Z</time>
      </trkpt>
      <trkpt lat="48.85014" lon="2.38442">
        <ele>87.3</ele>
        <time>2013-08-13T19:27:24.587Z</time>
      </trkpt>
      <trkpt lat="48.85016" lon="2.38434">
        <ele>85.8</ele>
        <time>2013-08-13T19:27:25.577Z</time>
      </trkpt>
      <trkpt lat="48.85018" lon="2.38427">
        <ele>85.7</ele>
        <time>2013-08-13T19:27:26.573Z</time>
      </trkpt>
      <trkpt lat="48.8502" lon="2.3842">
        <ele>85.6</ele>
        <time>2013-08-13T19:27:27.755Z</time>
      </trkpt>
      <trkpt lat="48.85021" lon="2.38413">
        <ele>85.4</ele>
        <time>2013-08-13T19:27:28.616Z</time>
      </trkpt>
      <trkpt lat="48.85021" lon="2.38404">
        <ele>85.5</ele>
        <time>2013-08-13T19:27:29.787Z</time>
      </trkpt>
      <trkpt lat="48.85022" lon="2.38397">
        <ele>85.1</ele>
        <time>2013-08-13T19:27:30.577Z</time>
      </trkpt>
      <trkpt lat="48.85022" lon="2.38386">
        <ele>85.7</ele>
        <time>2013-08-13T19:27:31.714Z</time>
      </trkpt>
      <trkpt lat="48.85022" lon="2.38377">
        <ele>86.8</ele>
        <time>2013-08-13T19:27:32.785Z</time>
      </trkpt>
      <trkpt lat="48.85021" lon="2.38368">
        <ele>86.5</ele>
        <time>2013-08-13T19:27:33.703Z</time>
      </trkpt>
      <trkpt lat="48.85021" lon="2.38359">
        <ele>87.1</ele>
        <time>2013-08-13T19:27:34.611Z</time>
      </trkpt>
      <trkpt lat="48.85021" lon="2.3835">
        <ele>87.4</ele>
        <time>2013-08-13T19:27:35.588Z</time>
      </trkpt>
      <trkpt lat="48.85021" lon="2.38341">
        <ele>87.8</ele>
        <time>2013-08-13T19:27:36.567Z</time>
      </trkpt>
      <trkpt lat="48.85021" lon="2.38332">
        <ele>88</ele>
        <time>2013-08-13T19:27:37.589Z</time>
      </trkpt>
      <trkpt lat="48.85022" lon="2.38324">
        <ele>88.3</ele>
        <time>2013-08-13T19:27:38.569Z</time>
      </trkpt>
      <trkpt lat="48.85022" lon="2.38316">
        <ele>88.8</ele>
        <time>2013-08-13T19:27:39.575Z</time>
      </trkpt>
      <trkpt lat="48.85023" lon="2.38307">
        <ele>87.8</ele>
        <time>2013-08-13T19:27:40.592Z</time>
      </trkpt>
      <trkpt lat="48.85024" lon="2.38299">
        <ele>88.5</ele>
        <time>2013-08-13T19:27:41.574Z</time>
      </trkpt>
      <trkpt lat="48.85025" lon="2.38291">
        <ele>88.4</ele>
        <time>2013-08-13T19:27:42.564Z</time>
      </trkpt>
      <trkpt lat="48.85026" lon="2.38284">
        <ele>87.8</ele>
        <time>2013-08-13T19:27:43.566Z</time>
      </trkpt>
      <trkpt lat="48.85027" lon="2.38276">
        <ele>87.9</ele>
        <time>2013-08-13T19:27:44.584Z</time>
      </trkpt>
      <trkpt lat="48.85028" lon="2.38268">
        <ele>88.6</ele>
        <time>2013-08-13T19:27:45.595Z</time>
      </trkpt>
      <trkpt lat="48.85028" lon="2.3826">
        <ele>88.9</ele>
        <time>2013-08-13T19:27:46.567Z</time>
      </trkpt>
      <trkpt lat="48.85029" lon="2.38251">
        <ele>87.8</ele>
        <time>2013-08-13T19:27:47.565Z</time>
      </trkpt>
      <trkpt lat="48.8503" lon="2.38243">
        <ele>87.4</ele>
        <time>2013-08-13T19:27:48.730Z</time>
      </trkpt>
      <trkpt lat="48.8503" lon="2.38236">
        <ele>88.3</ele>
        <time>2013-08-13T19:27:49.674Z</time>
      </trkpt>
      <trkpt lat="48.85031" lon="2.38229">
        <ele>89.1</ele>
        <time>2013-08-13T19:27:50.765Z</time>
      </trkpt>
      <trkpt lat="48.85031" lon="2.38223">
        <ele>90.2</ele>
        <time>2013-08-13T19:27:51.605Z</time>
      </trkpt>
      <trkpt lat="48.85032" lon="2.38215">
        <ele>89.8</ele>
        <time>2013-08-13T19:27:52.806Z</time>
      </trkpt>
      <trkpt lat="48.85034" lon="2.38202">
        <ele>91.2</ele>
        <time>2013-08-13T19:27:54.759Z</time>
      </trkpt>
      <trkpt lat="48.85035" lon="2.38198">
        <ele>91.3</ele>
        <time>2013-08-13T19:27:55.575Z</time>
      </trkpt>
      <trkpt lat="48.85036" lon="2.38187">
        <ele>90.9</ele>
        <time>2013-08-13T19:27:57.597Z</time>
      </trkpt>
      <trkpt lat="48.85037" lon="2.38183">
        <ele>91.5</ele>
        <time>2013-08-13T19:27:58.619Z</time>
      </trkpt>
      <trkpt lat="48.85038" lon="2.38172">
        <ele>91.8</ele>
        <time>2013-08-13T19:28:01.586Z</time>
      </trkpt>
      <trkpt lat="48.85038" lon="2.38169">
        <ele>91.1</ele>
        <time>2013-08-13T19:28:02.588Z</time>
      </trkpt>
      <trkpt lat="48.85038" lon="2.38155">
        <ele>88.5</ele>
        <time>2013-08-13T19:28:06.608Z</time>
      </trkpt>
      <trkpt lat="48.85038" lon="2.38152">
        <ele>87.9</ele>
        <time>2013-08-13T19:28:07.588Z</time>
      </trkpt>
      <trkpt lat="48.85042" lon="2.3814">
        <ele>82.3</ele>
        <time>2013-08-13T19:28:18.594Z</time>
      </trkpt>
      <trkpt lat="48.85043" lon="2.38137">
        <ele>82.5</ele>
        <time>2013-08-13T19:28:19.591Z</time>
      </trkpt>
      <trkpt lat="48.85046" lon="2.38127">
        <ele>84.8</ele>
        <time>2013-08-13T19:28:21.605Z</time>
      </trkpt>
      <trkpt lat="48.85047" lon="2.38121">
        <ele>85.2</ele>
        <time>2013-08-13T19:28:22.585Z</time>
      </trkpt>
      <trkpt lat="48.85048" lon="2.38114">
        <ele>85.8</ele>
        <time>2013-08-13T19:28:23.627Z</time>
      </trkpt>
      <trkpt lat="48.85049" lon="2.38107">
        <ele>86.2</ele>
        <time>2013-08-13T19:28:24.616Z</time>
      </trkpt>
      <trkpt lat="48.85049" lon="2.381">
        <ele>87.3</ele>
        <time>2013-08-13T19:28:25.590Z</time>
      </trkpt>
      <trkpt lat="48.85048" lon="2.38092">
        <ele>87.1</ele>
        <time>2013-08-13T19:28:26.613Z</time>
      </trkpt>
      <trkpt lat="48.85048" lon="2.38085">
        <ele>86.7</ele>
        <time>2013-08-13T19:28:27.604Z</time>
      </trkpt>
      <trkpt lat="48.85048" lon="2.38077">
        <ele>89.1</ele>
        <time>2013-08-13T19:28:28.606Z</time>
      </trkpt>
      <trkpt lat="48.85048" lon="2.3807">
        <ele>88.6</ele>
        <time>2013-08-13T19:28:29.605Z</time>
      </trkpt>
      <trkpt lat="48.85048" lon="2.38063">
        <ele>89.2</ele>
        <time>2013-08-13T19:28:30.586Z</time>
      </trkpt>
      <trkpt lat="48.85048" lon="2.38055">
        <ele>89.8</ele>
        <time>2013-08-13T19:28:31.594Z</time>
      </trkpt>
      <trkpt lat="48.85047" lon="2.38045">
        <ele>89.8</ele>
        <time>2013-08-13T19:28:32.567Z</time>
      </trkpt>
      <trkpt lat="48.85047" lon="2.38036">
        <ele>91</ele>
        <time>2013-08-13T19:28:33.584Z</time>
      </trkpt>
      <trkpt lat="48.85046" lon="2.38027">
        <ele>92.1</ele>
        <time>2013-08-13T19:28:34.605Z</time>
      </trkpt>
      <trkpt lat="48.85046" lon="2.38018">
        <ele>92.6</ele>
        <time>2013-08-13T19:28:35.586Z</time>
      </trkpt>
      <trkpt lat="48.85046" lon="2.3801">
        <ele>90.7</ele>
        <time>2013-08-13T19:28:36.601Z</time>
      </trkpt>
      <trkpt lat="48.85049" lon="2.37998">
        <ele>94.9</ele>
        <time>2013-08-13T19:28:38.685Z</time>
      </trkpt>
      <trkpt lat="48.8505" lon="2.37991">
        <ele>95.1</ele>
        <time>2013-08-13T19:28:39.630Z</time>
      </trkpt>
      <trkpt lat="48.85051" lon="2.37984">
        <ele>91.3</ele>
        <time>2013-08-13T19:28:40.560Z</time>
      </trkpt>
      <trkpt lat="48.85053" lon="2.37976">
        <ele>90</ele>
        <time>2013-08-13T19:28:41.614Z</time>
      </trkpt>
      <trkpt lat="48.85054" lon="2.37968">
        <ele>90.5</ele>
        <time>2013-08-13T19:28:42.595Z</time>
      </trkpt>
      <trkpt lat="48.85055" lon="2.3796">
        <ele>89.2</ele>
        <time>2013-08-13T19:28:43.563Z</time>
      </trkpt>
      <trkpt lat="48.85055" lon="2.37951">
        <ele>87.5</ele>
        <time>2013-08-13T19:28:44.626Z</time>
      </trkpt>
      <trkpt lat="48.85056" lon="2.37943">
        <ele>87.5</ele>
        <time>2013-08-13T19:28:45.569Z</time>
      </trkpt>
      <trkpt lat="48.85056" lon="2.37936">
        <ele>86.7</ele>
        <time>2013-08-13T19:28:46.563Z</time>
      </trkpt>
      <trkpt lat="48.85057" lon="2.37929">
        <ele>86.6</ele>
        <time>2013-08-13T19:28:47.594Z</time>
      </trkpt>
      <trkpt lat="48.85058" lon="2.37916">
        <ele>87.2</ele>
        <time>2013-08-13T19:28:49.682Z</time>
      </trkpt>
      <trkpt lat="48.85059" lon="2.37911">
        <ele>86.3</ele>
        <time>2013-08-13T19:28:50.601Z</time>
      </trkpt>
      <trkpt lat="48.8506" lon="2.37898">
        <ele>84.5</ele>
        <time>2013-08-13T19:28:53.580Z</time>
      </trkpt>
      <trkpt lat="48.85062" lon="2.37892">
        <ele>85</ele>
        <time>2013-08-13T19:28:54.594Z</time>
      </trkpt>
      <trkpt lat="48.85065" lon="2.3788">
        <ele>87.2</ele>
        <time>2013-08-13T19:28:56.576Z</time>
      </trkpt>
      <trkpt lat="48.85067" lon="2.37873">
        <ele>87.3</ele>
        <time>2013-08-13T19:28:57.607Z</time>
      </trkpt>
      <trkpt lat="48.8507" lon="2.37861">
        <ele>88.3</ele>
        <time>2013-08-13T19:28:59.823Z</time>
      </trkpt>
      <trkpt lat="48.85071" lon="2.37856">
        <ele>88.2</ele>
        <time>2013-08-13T19:29:00.632Z</time>
      </trkpt>
      <trkpt lat="48.85075" lon="2.37845">
        <ele>86.2</ele>
        <time>2013-08-13T19:29:03.592Z</time>
      </trkpt>
      <trkpt lat="48.85076" lon="2.37843">
        <ele>85.9</ele>
        <time>2013-08-13T19:29:04.576Z</time>
      </trkpt>
      <trkpt lat="48.85079" lon="2.37832">
        <ele>84.3</ele>
        <time>2013-08-13T19:29:17.581Z</time>
      </trkpt>
      <trkpt lat="48.85079" lon="2.37832">
        <ele>84.1</ele>
        <time>2013-08-13T19:29:18.567Z</time>
      </trkpt>
      <trkpt lat="48.85079" lon="2.37831">
        <ele>83</ele>
        <time>2013-08-13T19:29:34.585Z</time>
      </trkpt>
      <trkpt lat="48.85079" lon="2.37831">
        <ele>82.9</ele>
        <time>2013-08-13T19:29:35.626Z</time>
      </trkpt>
      <trkpt lat="48.85079" lon="2.3783">
        <ele>82.9</ele>
        <time>2013-08-13T19:29:37.596Z</time>
      </trkpt>
      <trkpt lat="48.8508" lon="2.3783">
        <ele>83</ele>
        <time>2013-08-13T19:29:38.598Z</time>
      </trkpt>
      <trkpt lat="48.85081" lon="2.3783">
        <ele>82.6</ele>
        <time>2013-08-13T19:30:12.602Z</time>
      </trkpt>
      <trkpt lat="48.85081" lon="2.37829">
        <ele>82.8</ele>
        <time>2013-08-13T19:30:13.588Z</time>
      </trkpt>
      <trkpt lat="48.85083" lon="2.3782">
        <ele>86.3</ele>
        <time>2013-08-13T19:30:18.611Z</time>
      </trkpt>
      <trkpt lat="48.85084" lon="2.37816">
        <ele>86.4</ele>
        <time>2013-08-13T19:30:19.592Z</time>
      </trkpt>
      <trkpt lat="48.85085" lon="2.37806">
        <ele>86.7</ele>
        <time>2013-08-13T19:30:21.607Z</time>
      </trkpt>
      <trkpt lat="48.85086" lon="2.37801">
        <ele>86.6</ele>
        <time>2013-08-13T19:30:22.595Z</time>
      </trkpt>
      <trkpt lat="48.85087" lon="2.37791">
        <ele>87.9</ele>
        <time>2013-08-13T19:30:24.611Z</time>
      </trkpt>
      <trkpt lat="48.85088" lon="2.37786">
        <ele>87.6</ele>
        <time>2013-08-13T19:30:25.569Z</time>
      </trkpt>
      <trkpt lat="48.8509" lon="2.37777">
        <ele>86.6</ele>
        <time>2013-08-13T19:30:27.638Z</time>
      </trkpt>
      <trkpt lat="48.85091" lon="2.37772">
        <ele>86.9</ele>
        <time>2013-08-13T19:30:28.569Z</time>
      </trkpt>
      <trkpt lat="48.85095" lon="2.37762">
        <ele>88.1</ele>
        <time>2013-08-13T19:30:30.600Z</time>
      </trkpt>
      <trkpt lat="48.85097" lon="2.37758">
        <ele>88.5</ele>
        <time>2013-08-13T19:30:31.600Z</time>
      </trkpt>
      <trkpt lat="48.85101" lon="2.37748">
        <ele>88.9</ele>
        <time>2013-08-13T19:30:33.581Z</time>
      </trkpt>
      <trkpt lat="48.85103" lon="2.37742">
        <ele>88.4</ele>
        <time>2013-08-13T19:30:34.595Z</time>
      </trkpt>
      <trkpt lat="48.85104" lon="2.3773">
        <ele>89</ele>
        <time>2013-08-13T19:30:36.607Z</time>
      </trkpt>
      <trkpt lat="48.85106" lon="2.37724">
        <ele>88.7</ele>
        <time>2013-08-13T19:30:37.611Z</time>
      </trkpt>
      <trkpt lat="48.85107" lon="2.37717">
        <ele>87.9</ele>
        <time>2013-08-13T19:30:38.633Z</time>
      </trkpt>
      <trkpt lat="48.85108" lon="2.3771">
        <ele>87.6</ele>
        <time>2013-08-13T19:30:39.616Z</time>
      </trkpt>
      <trkpt lat="48.8511" lon="2.37698">
        <ele>84.8</ele>
        <time>2013-08-13T19:30:40.634Z</time>
      </trkpt>
      <trkpt lat="48.85111" lon="2.37685">
        <ele>84.8</ele>
        <time>2013-08-13T19:30:41.595Z</time>
      </trkpt>
      <trkpt lat="48.85112" lon="2.37675">
        <ele>84.9</ele>
        <time>2013-08-13T19:30:42.564Z</time>
      </trkpt>
      <trkpt lat="48.85114" lon="2.37664">
        <ele>84.9</ele>
        <time>2013-08-13T19:30:43.624Z</time>
      </trkpt>
      <trkpt lat="48.85115" lon="2.37656">
        <ele>84.9</ele>
        <time>2013-08-13T19:30:44.640Z</time>
      </trkpt>
      <trkpt lat="48.85116" lon="2.3765">
        <ele>84.2</ele>
        <time>2013-08-13T19:30:45.622Z</time>
      </trkpt>
      <trkpt lat="48.85121" lon="2.37638">
        <ele>85.1</ele>
        <time>2013-08-13T19:30:48.601Z</time>
      </trkpt>
      <trkpt lat="48.85123" lon="2.37636">
        <ele>85.3</ele>
        <time>2013-08-13T19:30:49.646Z</time>
      </trkpt>
      <trkpt lat="48.85126" lon="2.37625">
        <ele>85.9</ele>
        <time>2013-08-13T19:30:52.582Z</time>
      </trkpt>
      <trkpt lat="48.85126" lon="2.37621">
        <ele>85.4</ele>
        <time>2013-08-13T19:30:53.571Z</time>
      </trkpt>
      <trkpt lat="48.85127" lon="2.37609">
        <ele>87.7</ele>
        <time>2013-08-13T19:30:57.570Z</time>
      </trkpt>
      <trkpt lat="48.85127" lon="2.37607">
        <ele>87.7</ele>
        <time>2013-08-13T19:30:58.579Z</time>
      </trkpt>
      <trkpt lat="48.85131" lon="2.37596">
        <ele>88.6</ele>
        <time>2013-08-13T19:31:05.593Z</time>
      </trkpt>
      <trkpt lat="48.85132" lon="2.37591">
        <ele>87.2</ele>
        <time>2013-08-13T19:31:06.587Z</time>
      </trkpt>
      <trkpt lat="48.85135" lon="2.37579">
        <ele>86</ele>
        <time>2013-08-13T19:31:08.607Z</time>
      </trkpt>
      <trkpt lat="48.85137" lon="2.37573">
        <ele>85.2</ele>
        <time>2013-08-13T19:31:09.632Z</time>
      </trkpt>
      <trkpt lat="48.8514" lon="2.37567">
        <ele>84.8</ele>
        <time>2013-08-13T19:31:10.639Z</time>
      </trkpt>
      <trkpt lat="48.85142" lon="2.3756">
        <ele>85.6</ele>
        <time>2013-08-13T19:31:11.595Z</time>
      </trkpt>
      <trkpt lat="48.85145" lon="2.37553">
        <ele>85.8</ele>
        <time>2013-08-13T19:31:12.594Z</time>
      </trkpt>
      <trkpt lat="48.85147" lon="2.37547">
        <ele>86.2</ele>
        <time>2013-08-13T19:31:13.586Z</time>
      </trkpt>
      <trkpt lat="48.8515" lon="2.37535">
        <ele>84.1</ele>
        <time>2013-08-13T19:31:15.625Z</time>
      </trkpt>
      <trkpt lat="48.85152" lon="2.37528">
        <ele>86.2</ele>
        <time>2013-08-13T19:31:16.593Z</time>
      </trkpt>
      <trkpt lat="48.85153" lon="2.37521">
        <ele>86.4</ele>
        <time>2013-08-13T19:31:17.595Z</time>
      </trkpt>
      <trkpt lat="48.85154" lon="2.37514">
        <ele>86.8</ele>
        <time>2013-08-13T19:31:18.575Z</time>
      </trkpt>
      <trkpt lat="48.85156" lon="2.37506">
        <ele>86.9</ele>
        <time>2013-08-13T19:31:19.599Z</time>
      </trkpt>
      <trkpt lat="48.85158" lon="2.375">
        <ele>86.7</ele>
        <time>2013-08-13T19:31:20.594Z</time>
      </trkpt>
      <trkpt lat="48.85159" lon="2.37493">
        <ele>88.7</ele>
        <time>2013-08-13T19:31:21.642Z</time>
      </trkpt>
      <trkpt lat="48.85161" lon="2.37486">
        <ele>89.1</ele>
        <time>2013-08-13T19:31:22.602Z</time>
      </trkpt>
      <trkpt lat="48.85163" lon="2.37479">
        <ele>89.1</ele>
        <time>2013-08-13T19:31:23.581Z</time>
      </trkpt>
      <trkpt lat="48.85165" lon="2.37473">
        <ele>89</ele>
        <time>2013-08-13T19:31:24.594Z</time>
      </trkpt>
      <trkpt lat="48.85167" lon="2.37467">
        <ele>89.5</ele>
        <time>2013-08-13T19:31:25.609Z</time>
      </trkpt>
      <trkpt lat="48.8517" lon="2.3746">
        <ele>89.5</ele>
        <time>2013-08-13T19:31:26.590Z</time>
      </trkpt>
      <trkpt lat="48.85172" lon="2.37453">
        <ele>88.2</ele>
        <time>2013-08-13T19:31:27.585Z</time>
      </trkpt>
      <trkpt lat="48.85174" lon="2.37445">
        <ele>90</ele>
        <time>2013-08-13T19:31:28.586Z</time>
      </trkpt>
      <trkpt lat="48.85176" lon="2.37438">
        <ele>88.8</ele>
        <time>2013-08-13T19:31:29.604Z</time>
      </trkpt>
      <trkpt lat="48.85177" lon="2.3743">
        <ele>89.3</ele>
        <time>2013-08-13T19:31:30.611Z</time>
      </trkpt>
      <trkpt lat="48.85178" lon="2.37424">
        <ele>89.2</ele>
        <time>2013-08-13T19:31:31.608Z</time>
      </trkpt>
      <trkpt lat="48.85178" lon="2.37417">
        <ele>88.5</ele>
        <time>2013-08-13T19:31:32.615Z</time>
      </trkpt>
      <trkpt lat="48.8518" lon="2.37404">
        <ele>89.2</ele>
        <time>2013-08-13T19:31:34.612Z</time>
      </trkpt>
      <trkpt lat="48.85181" lon="2.37398">
        <ele>88.7</ele>
        <time>2013-08-13T19:31:35.636Z</time>
      </trkpt>
      <trkpt lat="48.85183" lon="2.37385">
        <ele>89</ele>
        <time>2013-08-13T19:31:38.647Z</time>
      </trkpt>
      <trkpt lat="48.85183" lon="2.37383">
        <ele>89.2</ele>
        <time>2013-08-13T19:31:39.642Z</time>
      </trkpt>
      <trkpt lat="48.85188" lon="2.37373">
        <ele>88.3</ele>
        <time>2013-08-13T19:31:43.605Z</time>
      </trkpt>
      <trkpt lat="48.85189" lon="2.37369">
        <ele>88.9</ele>
        <time>2013-08-13T19:31:44.639Z</time>
      </trkpt>
      <trkpt lat="48.85192" lon="2.37361">
        <ele>89.3</ele>
        <time>2013-08-13T19:31:46.587Z</time>
      </trkpt>
      <trkpt lat="48.85194" lon="2.37357">
        <ele>89.2</ele>
        <time>2013-08-13T19:31:47.594Z</time>
      </trkpt>
      <trkpt lat="48.85196" lon="2.37346">
        <ele>88.2</ele>
        <time>2013-08-13T19:31:49.616Z</time>
      </trkpt>
      <trkpt lat="48.85198" lon="2.37341">
        <ele>88.7</ele>
        <time>2013-08-13T19:31:50.609Z</time>
      </trkpt>
      <trkpt lat="48.852" lon="2.37334">
        <ele>90.1</ele>
        <time>2013-08-13T19:31:51.645Z</time>
      </trkpt>
      <trkpt lat="48.85202" lon="2.37328">
        <ele>90.6</ele>
        <time>2013-08-13T19:31:52.585Z</time>
      </trkpt>
      <trkpt lat="48.85203" lon="2.37322">
        <ele>90.9</ele>
        <time>2013-08-13T19:31:53.586Z</time>
      </trkpt>
      <trkpt lat="48.85206" lon="2.37313">
        <ele>91</ele>
        <time>2013-08-13T19:31:54.681Z</time>
      </trkpt>
      <trkpt lat="48.85209" lon="2.37305">
        <ele>91.1</ele>
        <time>2013-08-13T19:31:55.724Z</time>
      </trkpt>
      <trkpt lat="48.85211" lon="2.37298">
        <ele>88.6</ele>
        <time>2013-08-13T19:31:56.629Z</time>
      </trkpt>
      <trkpt lat="48.85213" lon="2.3729">
        <ele>89.7</ele>
        <time>2013-08-13T19:31:57.803Z</time>
      </trkpt>
      <trkpt lat="48.85214" lon="2.37284">
        <ele>89.4</ele>
        <time>2013-08-13T19:31:58.593Z</time>
      </trkpt>
      <trkpt lat="48.85216" lon="2.37276">
        <ele>89.4</ele>
        <time>2013-08-13T19:31:59.722Z</time>
      </trkpt>
      <trkpt lat="48.85218" lon="2.37269">
        <ele>89.9</ele>
        <time>2013-08-13T19:32:00.734Z</time>
      </trkpt>
      <trkpt lat="48.85219" lon="2.37262">
        <ele>90.8</ele>
        <time>2013-08-13T19:32:01.684Z</time>
      </trkpt>
      <trkpt lat="48.8522" lon="2.37255">
        <ele>89.5</ele>
        <time>2013-08-13T19:32:02.805Z</time>
      </trkpt>
      <trkpt lat="48.85223" lon="2.37242">
        <ele>91.2</ele>
        <time>2013-08-13T19:32:04.578Z</time>
      </trkpt>
      <trkpt lat="48.85225" lon="2.37236">
        <ele>91.4</ele>
        <time>2013-08-13T19:32:05.577Z</time>
      </trkpt>
      <trkpt lat="48.85227" lon="2.37229">
        <ele>92.5</ele>
        <time>2013-08-13T19:32:06.612Z</time>
      </trkpt>
      <trkpt lat="48.85229" lon="2.37221">
        <ele>92.5</ele>
        <time>2013-08-13T19:32:07.578Z</time>
      </trkpt>
      <trkpt lat="48.8523" lon="2.37214">
        <ele>92.8</ele>
        <time>2013-08-13T19:32:08.605Z</time>
      </trkpt>
      <trkpt lat="48.85232" lon="2.37208">
        <ele>93.5</ele>
        <time>2013-08-13T19:32:09.593Z</time>
      </trkpt>
      <trkpt lat="48.85234" lon="2.37202">
        <ele>93.7</ele>
        <time>2013-08-13T19:32:10.602Z</time>
      </trkpt>
      <trkpt lat="48.85236" lon="2.37195">
        <ele>93.7</ele>
        <time>2013-08-13T19:32:11.615Z</time>
      </trkpt>
      <trkpt lat="48.85239" lon="2.37188">
        <ele>93</ele>
        <time>2013-08-13T19:32:12.613Z</time>
      </trkpt>
      <trkpt lat="48.85241" lon="2.37181">
        <ele>92.8</ele>
        <time>2013-08-13T19:32:13.807Z</time>
      </trkpt>
      <trkpt lat="48.85243" lon="2.37175">
        <ele>93.9</ele>
        <time>2013-08-13T19:32:14.618Z</time>
      </trkpt>
      <trkpt lat="48.85245" lon="2.37168">
        <ele>94.7</ele>
        <time>2013-08-13T19:32:15.674Z</time>
      </trkpt>
      <trkpt lat="48.85247" lon="2.37161">
        <ele>94.7</ele>
        <time>2013-08-13T19:32:16.614Z</time>
      </trkpt>
      <trkpt lat="48.85249" lon="2.37155">
        <ele>95.5</ele>
        <time>2013-08-13T19:32:17.588Z</time>
      </trkpt>
      <trkpt lat="48.85252" lon="2.37149">
        <ele>95.8</ele>
        <time>2013-08-13T19:32:18.603Z</time>
      </trkpt>
      <trkpt lat="48.85254" lon="2.37143">
        <ele>97</ele>
        <time>2013-08-13T19:32:19.627Z</time>
      </trkpt>
      <trkpt lat="48.85257" lon="2.37138">
        <ele>98.4</ele>
        <time>2013-08-13T19:32:20.601Z</time>
      </trkpt>
      <trkpt lat="48.8526" lon="2.37132">
        <ele>98.9</ele>
        <time>2013-08-13T19:32:21.621Z</time>
      </trkpt>
      <trkpt lat="48.85264" lon="2.37127">
        <ele>99</ele>
        <time>2013-08-13T19:32:22.595Z</time>
      </trkpt>
      <trkpt lat="48.85267" lon="2.37122">
        <ele>98.4</ele>
        <time>2013-08-13T19:32:23.607Z</time>
      </trkpt>
      <trkpt lat="48.85271" lon="2.37116">
        <ele>98.5</ele>
        <time>2013-08-13T19:32:24.613Z</time>
      </trkpt>
      <trkpt lat="48.85274" lon="2.37112">
        <ele>102.2</ele>
        <time>2013-08-13T19:32:25.597Z</time>
      </trkpt>
      <trkpt lat="48.85279" lon="2.37102">
        <ele>103.1</ele>
        <time>2013-08-13T19:32:27.595Z</time>
      </trkpt>
      <trkpt lat="48.85282" lon="2.37098">
        <ele>103.1</ele>
        <time>2013-08-13T19:32:28.617Z</time>
      </trkpt>
      <trkpt lat="48.85287" lon="2.37088">
        <ele>100.4</ele>
        <time>2013-08-13T19:32:30.604Z</time>
      </trkpt>
      <trkpt lat="48.85289" lon="2.37082">
        <ele>100.5</ele>
        <time>2013-08-13T19:32:31.593Z</time>
      </trkpt>
      <trkpt lat="48.85295" lon="2.37074">
        <ele>100.2</ele>
        <time>2013-08-13T19:32:33.586Z</time>
      </trkpt>
      <trkpt lat="48.85298" lon="2.37069">
        <ele>100.1</ele>
        <time>2013-08-13T19:32:34.614Z</time>
      </trkpt>
      <trkpt lat="48.85303" lon="2.37061">
        <ele>98.5</ele>
        <time>2013-08-13T19:32:36.625Z</time>
      </trkpt>
      <trkpt lat="48.85306" lon="2.37056">
        <ele>98.1</ele>
        <time>2013-08-13T19:32:37.590Z</time>
      </trkpt>
      <trkpt lat="48.85312" lon="2.37047">
        <ele>98.1</ele>
        <time>2013-08-13T19:32:39.606Z</time>
      </trkpt>
      <trkpt lat="48.85314" lon="2.37042">
        <ele>97.9</ele>
        <time>2013-08-13T19:32:40.601Z</time>
      </trkpt>
      <trkpt lat="48.8532" lon="2.37033">
        <ele>95.6</ele>
        <time>2013-08-13T19:32:42.618Z</time>
      </trkpt>
      <trkpt lat="48.85323" lon="2.37029">
        <ele>95.9</ele>
        <time>2013-08-13T19:32:43.627Z</time>
      </trkpt>
      <trkpt lat="48.85328" lon="2.3702">
        <ele>95.4</ele>
        <time>2013-08-13T19:32:45.590Z</time>
      </trkpt>
      <trkpt lat="48.85331" lon="2.37016">
        <ele>95.3</ele>
        <time>2013-08-13T19:32:46.622Z</time>
      </trkpt>
      <trkpt lat="48.85329" lon="2.37003">
        <ele>97.3</ele>
        <time>2013-08-13T19:32:56.603Z</time>
      </trkpt>
      <trkpt lat="48.85329" lon="2.37002">
        <ele>97.1</ele>
        <time>2013-08-13T19:32:57.634Z</time>
      </trkpt>
      <trkpt lat="48.8533" lon="2.3699">
        <ele>98</ele>
        <time>2013-08-13T19:33:04.621Z</time>
      </trkpt>
      <trkpt lat="48.85331" lon="2.36988">
        <ele>95.8</ele>
        <time>2013-08-13T19:33:05.585Z</time>
      </trkpt>
      <trkpt lat="48.85336" lon="2.36988">
        <ele>94.6</ele>
        <time>2013-08-13T19:33:15.615Z</time>
      </trkpt>
      <trkpt lat="48.85336" lon="2.36988">
        <ele>94.5</ele>
        <time>2013-08-13T19:33:16.614Z</time>
      </trkpt>
      <trkpt lat="48.85337" lon="2.36988">
        <ele>94.8</ele>
        <time>2013-08-13T19:33:40.597Z</time>
      </trkpt>
      <trkpt lat="48.85337" lon="2.36987">
        <ele>94.3</ele>
        <time>2013-08-13T19:33:41.625Z</time>
      </trkpt>
      <trkpt lat="48.85344" lon="2.36982">
        <ele>95.2</ele>
        <time>2013-08-13T19:33:45.603Z</time>
      </trkpt>
      <trkpt lat="48.85345" lon="2.36981">
        <ele>93.8</ele>
        <time>2013-08-13T19:33:46.611Z</time>
      </trkpt>
      <trkpt lat="48.85353" lon="2.36977">
        <ele>92.1</ele>
        <time>2013-08-13T19:33:50.620Z</time>
      </trkpt>
      <trkpt lat="48.85354" lon="2.36975">
        <ele>93.4</ele>
        <time>2013-08-13T19:33:51.597Z</time>
      </trkpt>
      <trkpt lat="48.85359" lon="2.36965">
        <ele>94.9</ele>
        <time>2013-08-13T19:33:54.577Z</time>
      </trkpt>
      <trkpt lat="48.85361" lon="2.3696">
        <ele>95.5</ele>
        <time>2013-08-13T19:33:55.646Z</time>
      </trkpt>
      <trkpt lat="48.85363" lon="2.36948">
        <ele>95.4</ele>
        <time>2013-08-13T19:33:58.638Z</time>
      </trkpt>
      <trkpt lat="48.85363" lon="2.36944">
        <ele>95.8</ele>
        <time>2013-08-13T19:33:59.624Z</time>
      </trkpt>
      <trkpt lat="48.85362" lon="2.36931">
        <ele>96.8</ele>
        <time>2013-08-13T19:34:04.604Z</time>
      </trkpt>
      <trkpt lat="48.85361" lon="2.36929">
        <ele>95.5</ele>
        <time>2013-08-13T19:34:05.805Z</time>
      </trkpt>
      <trkpt lat="48.85363" lon="2.36916">
        <ele>95.3</ele>
        <time>2013-08-13T19:34:12.858Z</time>
      </trkpt>
      <trkpt lat="48.85363" lon="2.36915">
        <ele>95.4</ele>
        <time>2013-08-13T19:34:13.685Z</time>
      </trkpt>
      <trkpt lat="48.85365" lon="2.36903">
        <ele>97.3</ele>
        <time>2013-08-13T19:34:22.634Z</time>
      </trkpt>
      <trkpt lat="48.85366" lon="2.369">
        <ele>97.2</ele>
        <time>2013-08-13T19:34:23.622Z</time>
      </trkpt>
      <trkpt lat="48.85373" lon="2.36895">
        <ele>94.2</ele>
        <time>2013-08-13T19:34:41.826Z</time>
      </trkpt>
      <trkpt lat="48.85373" lon="2.36895">
        <ele>94.1</ele>
        <time>2013-08-13T19:34:42.611Z</time>
      </trkpt>
      <trkpt lat="48.85372" lon="2.36895">
        <ele>94.9</ele>
        <time>2013-08-13T19:35:01.647Z</time>
      </trkpt>
      <trkpt lat="48.85372" lon="2.36895">
        <ele>95.5</ele>
        <time>2013-08-13T19:35:02.647Z</time>
      </trkpt>
      <trkpt lat="48.85368" lon="2.36884">
        <ele>96.7</ele>
        <time>2013-08-13T19:35:07.644Z</time>
      </trkpt>
      <trkpt lat="48.85368" lon="2.3688">
        <ele>97.7</ele>
        <time>2013-08-13T19:35:08.624Z</time>
      </trkpt>
      <trkpt lat="48.85364" lon="2.36871">
        <ele>97.6</ele>
        <time>2013-08-13T19:35:11.614Z</time>
      </trkpt>
      <trkpt lat="48.85361" lon="2.36868">
        <ele>95.3</ele>
        <time>2013-08-13T19:35:12.643Z</time>
      </trkpt>
      <trkpt lat="48.85354" lon="2.3686">
        <ele>94.3</ele>
        <time>2013-08-13T19:35:15.627Z</time>
      </trkpt>
      <trkpt lat="48.85353" lon="2.36857">
        <ele>93.7</ele>
        <time>2013-08-13T19:35:16.591Z</time>
      </trkpt>
      <trkpt lat="48.85347" lon="2.36849">
        <ele>92.2</ele>
        <time>2013-08-13T19:35:19.681Z</time>
      </trkpt>
      <trkpt lat="48.85345" lon="2.36847">
        <ele>92.7</ele>
        <time>2013-08-13T19:35:20.622Z</time>
      </trkpt>
      <trkpt lat="48.85341" lon="2.36839">
        <ele>91.8</ele>
        <time>2013-08-13T19:35:23.632Z</time>
      </trkpt>
      <trkpt lat="48.8534" lon="2.36836">
        <ele>91.7</ele>
        <time>2013-08-13T19:35:24.625Z</time>
      </trkpt>
      <trkpt lat="48.85336" lon="2.36824">
        <ele>96.2</ele>
        <time>2013-08-13T19:35:28.605Z</time>
      </trkpt>
      <trkpt lat="48.85335" lon="2.36822">
        <ele>97.1</ele>
        <time>2013-08-13T19:35:29.633Z</time>
      </trkpt>
      <trkpt lat="48.85333" lon="2.36812">
        <ele>98</ele>
        <time>2013-08-13T19:35:33.639Z</time>
      </trkpt>
      <trkpt lat="48.85334" lon="2.36807">
        <ele>99.2</ele>
        <time>2013-08-13T19:35:34.665Z</time>
      </trkpt>
      <trkpt lat="48.85335" lon="2.36796">
        <ele>97.4</ele>
        <time>2013-08-13T19:35:36.615Z</time>
      </trkpt>
      <trkpt lat="48.85336" lon="2.3679">
        <ele>96</ele>
        <time>2013-08-13T19:35:37.655Z</time>
      </trkpt>
      <trkpt lat="48.85339" lon="2.36778">
        <ele>94.3</ele>
        <time>2013-08-13T19:35:39.602Z</time>
      </trkpt>
      <trkpt lat="48.85341" lon="2.36772">
        <ele>93.7</ele>
        <time>2013-08-13T19:35:40.626Z</time>
      </trkpt>
      <trkpt lat="48.85344" lon="2.3676">
        <ele>91.6</ele>
        <time>2013-08-13T19:35:42.605Z</time>
      </trkpt>
      <trkpt lat="48.85346" lon="2.36754">
        <ele>90.1</ele>
        <time>2013-08-13T19:35:43.623Z</time>
      </trkpt>
      <trkpt lat="48.85348" lon="2.36741">
        <ele>87.9</ele>
        <time>2013-08-13T19:35:45.603Z</time>
      </trkpt>
      <trkpt lat="48.85349" lon="2.36735">
        <ele>88.8</ele>
        <time>2013-08-13T19:35:46.635Z</time>
      </trkpt>
      <trkpt lat="48.8535" lon="2.36725">
        <ele>87.8</ele>
        <time>2013-08-13T19:35:48.638Z</time>
      </trkpt>
      <trkpt lat="48.8535" lon="2.3672">
        <ele>88.5</ele>
        <time>2013-08-13T19:35:49.623Z</time>
      </trkpt>
      <trkpt lat="48.85351" lon="2.36708">
        <ele>89.8</ele>
        <time>2013-08-13T19:35:53.633Z</time>
      </trkpt>
      <trkpt lat="48.85352" lon="2.36703">
        <ele>89.6</ele>
        <time>2013-08-13T19:35:54.654Z</time>
      </trkpt>
      <trkpt lat="48.85352" lon="2.36696">
        <ele>87.4</ele>
        <time>2013-08-13T19:35:55.603Z</time>
      </trkpt>
      <trkpt lat="48.85353" lon="2.36687">
        <ele>87.8</ele>
        <time>2013-08-13T19:35:56.655Z</time>
      </trkpt>
      <trkpt lat="48.85354" lon="2.36678">
        <ele>89.9</ele>
        <time>2013-08-13T19:35:57.641Z</time>
      </trkpt>
      <trkpt lat="48.85355" lon="2.36669">
        <ele>90.2</ele>
        <time>2013-08-13T19:35:58.618Z</time>
      </trkpt>
      <trkpt lat="48.85356" lon="2.3666">
        <ele>91.2</ele>
        <time>2013-08-13T19:35:59.694Z</time>
      </trkpt>
      <trkpt lat="48.85358" lon="2.3665">
        <ele>91</ele>
        <time>2013-08-13T19:36:00.616Z</time>
      </trkpt>
      <trkpt lat="48.8536" lon="2.36641">
        <ele>91.2</ele>
        <time>2013-08-13T19:36:01.627Z</time>
      </trkpt>
      <trkpt lat="48.85363" lon="2.36632">
        <ele>90.9</ele>
        <time>2013-08-13T19:36:02.634Z</time>
      </trkpt>
      <trkpt lat="48.85365" lon="2.36625">
        <ele>90.8</ele>
        <time>2013-08-13T19:36:03.624Z</time>
      </trkpt>
      <trkpt lat="48.85366" lon="2.36618">
        <ele>90.3</ele>
        <time>2013-08-13T19:36:04.621Z</time>
      </trkpt>
      <trkpt lat="48.85367" lon="2.3661">
        <ele>88.8</ele>
        <time>2013-08-13T19:36:05.613Z</time>
      </trkpt>
      <trkpt lat="48.85368" lon="2.36601">
        <ele>87.9</ele>
        <time>2013-08-13T19:36:06.635Z</time>
      </trkpt>
      <trkpt lat="48.85368" lon="2.36593">
        <ele>87.1</ele>
        <time>2013-08-13T19:36:07.636Z</time>
      </trkpt>
      <trkpt lat="48.85368" lon="2.36586">
        <ele>87.7</ele>
        <time>2013-08-13T19:36:08.643Z</time>
      </trkpt>
      <trkpt lat="48.85371" lon="2.36574">
        <ele>87.3</ele>
        <time>2013-08-13T19:36:10.624Z</time>
      </trkpt>
      <trkpt lat="48.85372" lon="2.36568">
        <ele>88</ele>
        <time>2013-08-13T19:36:11.667Z</time>
      </trkpt>
      <trkpt lat="48.85376" lon="2.36558">
        <ele>88.4</ele>
        <time>2013-08-13T19:36:13.621Z</time>
      </trkpt>
      <trkpt lat="48.85378" lon="2.36553">
        <ele>88.3</ele>
        <time>2013-08-13T19:36:14.633Z</time>
      </trkpt>
      <trkpt lat="48.85381" lon="2.36541">
        <ele>88.4</ele>
        <time>2013-08-13T19:36:16.616Z</time>
      </trkpt>
      <trkpt lat="48.85382" lon="2.36535">
        <ele>88.9</ele>
        <time>2013-08-13T19:36:17.624Z</time>
      </trkpt>
      <trkpt lat="48.85384" lon="2.36527">
        <ele>88.4</ele>
        <time>2013-08-13T19:36:18.614Z</time>
      </trkpt>
      <trkpt lat="48.85385" lon="2.3652">
        <ele>88.2</ele>
        <time>2013-08-13T19:36:19.625Z</time>
      </trkpt>
      <trkpt lat="48.85386" lon="2.36512">
        <ele>87.3</ele>
        <time>2013-08-13T19:36:20.621Z</time>
      </trkpt>
      <trkpt lat="48.85387" lon="2.36504">
        <ele>87.2</ele>
        <time>2013-08-13T19:36:21.620Z</time>
      </trkpt>
      <trkpt lat="48.85388" lon="2.36497">
        <ele>86.8</ele>
        <time>2013-08-13T19:36:22.616Z</time>
      </trkpt>
      <trkpt lat="48.8539" lon="2.36489">
        <ele>87</ele>
        <time>2013-08-13T19:36:23.634Z</time>
      </trkpt>
      <trkpt lat="48.85392" lon="2.36481">
        <ele>86.4</ele>
        <time>2013-08-13T19:36:24.744Z</time>
      </trkpt>
      <trkpt lat="48.85394" lon="2.36475">
        <ele>88</ele>
        <time>2013-08-13T19:36:25.598Z</time>
      </trkpt>
      <trkpt lat="48.85395" lon="2.36466">
        <ele>86</ele>
        <time>2013-08-13T19:36:26.596Z</time>
      </trkpt>
      <trkpt lat="48.85398" lon="2.36458">
        <ele>85.5</ele>
        <time>2013-08-13T19:36:27.626Z</time>
      </trkpt>
      <trkpt lat="48.854" lon="2.3645">
        <ele>86</ele>
        <time>2013-08-13T19:36:28.664Z</time>
      </trkpt>
      <trkpt lat="48.85402" lon="2.36443">
        <ele>86.6</ele>
        <time>2013-08-13T19:36:29.620Z</time>
      </trkpt>
      <trkpt lat="48.85405" lon="2.36437">
        <ele>87.3</ele>
        <time>2013-08-13T19:36:30.613Z</time>
      </trkpt>
      <trkpt lat="48.85408" lon="2.3643">
        <ele>86.9</ele>
        <time>2013-08-13T19:36:31.676Z</time>
      </trkpt>
      <trkpt lat="48.85411" lon="2.36423">
        <ele>86.7</ele>
        <time>2013-08-13T19:36:32.633Z</time>
      </trkpt>
      <trkpt lat="48.85414" lon="2.36415">
        <ele>85</ele>
        <time>2013-08-13T19:36:33.615Z</time>
      </trkpt>
      <trkpt lat="48.85417" lon="2.36407">
        <ele>84.2</ele>
        <time>2013-08-13T19:36:34.633Z</time>
      </trkpt>
      <trkpt lat="48.8542" lon="2.36399">
        <ele>82.7</ele>
        <time>2013-08-13T19:36:35.619Z</time>
      </trkpt>
      <trkpt lat="48.85422" lon="2.36391">
        <ele>82.9</ele>
        <time>2013-08-13T19:36:36.636Z</time>
      </trkpt>
      <trkpt lat="48.85425" lon="2.36382">
        <ele>81.9</ele>
        <time>2013-08-13T19:36:37.635Z</time>
      </trkpt>
      <trkpt lat="48.85427" lon="2.36374">
        <ele>80.8</ele>
        <time>2013-08-13T19:36:38.648Z</time>
      </trkpt>
      <trkpt lat="48.85428" lon="2.36364">
        <ele>80.1</ele>
        <time>2013-08-13T19:36:39.618Z</time>
      </trkpt>
      <trkpt lat="48.8543" lon="2.36356">
        <ele>79.5</ele>
        <time>2013-08-13T19:36:40.617Z</time>
      </trkpt>
      <trkpt lat="48.85432" lon="2.36347">
        <ele>79.5</ele>
        <time>2013-08-13T19:36:41.603Z</time>
      </trkpt>
      <trkpt lat="48.85434" lon="2.36339">
        <ele>79.4</ele>
        <time>2013-08-13T19:36:42.667Z</time>
      </trkpt>
      <trkpt lat="48.85436" lon="2.36331">
        <ele>80.3</ele>
        <time>2013-08-13T19:36:43.650Z</time>
      </trkpt>
      <trkpt lat="48.85438" lon="2.36323">
        <ele>80.2</ele>
        <time>2013-08-13T19:36:44.636Z</time>
      </trkpt>
      <trkpt lat="48.8544" lon="2.36316">
        <ele>80.3</ele>
        <time>2013-08-13T19:36:45.617Z</time>
      </trkpt>
      <trkpt lat="48.85443" lon="2.36309">
        <ele>79.5</ele>
        <time>2013-08-13T19:36:46.639Z</time>
      </trkpt>
      <trkpt lat="48.85446" lon="2.36303">
        <ele>79.7</ele>
        <time>2013-08-13T19:36:47.644Z</time>
      </trkpt>
      <trkpt lat="48.85449" lon="2.36297">
        <ele>79.7</ele>
        <time>2013-08-13T19:36:48.616Z</time>
      </trkpt>
      <trkpt lat="48.85452" lon="2.36291">
        <ele>80.5</ele>
        <time>2013-08-13T19:36:49.644Z</time>
      </trkpt>
      <trkpt lat="48.85455" lon="2.36284">
        <ele>81</ele>
        <time>2013-08-13T19:36:50.618Z</time>
      </trkpt>
      <trkpt lat="48.85457" lon="2.36278">
        <ele>81.3</ele>
        <time>2013-08-13T19:36:51.656Z</time>
      </trkpt>
      <trkpt lat="48.8546" lon="2.36272">
        <ele>81.6</ele>
        <time>2013-08-13T19:36:52.599Z</time>
      </trkpt>
      <trkpt lat="48.85462" lon="2.36265">
        <ele>82.7</ele>
        <time>2013-08-13T19:36:53.617Z</time>
      </trkpt>
      <trkpt lat="48.85465" lon="2.36258">
        <ele>82.3</ele>
        <time>2013-08-13T19:36:54.634Z</time>
      </trkpt>
      <trkpt lat="48.85468" lon="2.36252">
        <ele>82.4</ele>
        <time>2013-08-13T19:36:55.617Z</time>
      </trkpt>
      <trkpt lat="48.85471" lon="2.36246">
        <ele>82.7</ele>
        <time>2013-08-13T19:36:56.627Z</time>
      </trkpt>
      <trkpt lat="48.85473" lon="2.3624">
        <ele>82.7</ele>
        <time>2013-08-13T19:36:57.648Z</time>
      </trkpt>
      <trkpt lat="48.85476" lon="2.36233">
        <ele>81.7</ele>
        <time>2013-08-13T19:36:58.685Z</time>
      </trkpt>
      <trkpt lat="48.85478" lon="2.36227">
        <ele>81.5</ele>
        <time>2013-08-13T19:36:59.656Z</time>
      </trkpt>
      <trkpt lat="48.85482" lon="2.36215">
        <ele>81.7</ele>
        <time>2013-08-13T19:37:01.626Z</time>
      </trkpt>
      <trkpt lat="48.85484" lon="2.36209">
        <ele>82.2</ele>
        <time>2013-08-13T19:37:02.642Z</time>
      </trkpt>
      <trkpt lat="48.85488" lon="2.36199">
        <ele>82.5</ele>
        <time>2013-08-13T19:37:04.653Z</time>
      </trkpt>
      <trkpt lat="48.85491" lon="2.36193">
        <ele>82.6</ele>
        <time>2013-08-13T19:37:05.616Z</time>
      </trkpt>
      <trkpt lat="48.85494" lon="2.36188">
        <ele>82.3</ele>
        <time>2013-08-13T19:37:06.623Z</time>
      </trkpt>
      <trkpt lat="48.85497" lon="2.36183">
        <ele>83.8</ele>
        <time>2013-08-13T19:37:07.637Z</time>
      </trkpt>
      <trkpt lat="48.85502" lon="2.36174">
        <ele>84.7</ele>
        <time>2013-08-13T19:37:09.631Z</time>
      </trkpt>
      <trkpt lat="48.85505" lon="2.36169">
        <ele>85.8</ele>
        <time>2013-08-13T19:37:10.654Z</time>
      </trkpt>
      <trkpt lat="48.85509" lon="2.36157">
        <ele>85.7</ele>
        <time>2013-08-13T19:37:12.625Z</time>
      </trkpt>
      <trkpt lat="48.85511" lon="2.36152">
        <ele>86</ele>
        <time>2013-08-13T19:37:13.617Z</time>
      </trkpt>
      <trkpt lat="48.85513" lon="2.36139">
        <ele>86.9</ele>
        <time>2013-08-13T19:37:15.664Z</time>
      </trkpt>
      <trkpt lat="48.85513" lon="2.36131">
        <ele>88</ele>
        <time>2013-08-13T19:37:16.620Z</time>
      </trkpt>
      <trkpt lat="48.85514" lon="2.36124">
        <ele>87.1</ele>
        <time>2013-08-13T19:37:17.643Z</time>
      </trkpt>
      <trkpt lat="48.85516" lon="2.36117">
        <ele>86.5</ele>
        <time>2013-08-13T19:37:18.632Z</time>
      </trkpt>
      <trkpt lat="48.85518" lon="2.36104">
        <ele>86.4</ele>
        <time>2013-08-13T19:37:20.634Z</time>
      </trkpt>
      <trkpt lat="48.8552" lon="2.36098">
        <ele>85.1</ele>
        <time>2013-08-13T19:37:21.627Z</time>
      </trkpt>
      <trkpt lat="48.85523" lon="2.36088">
        <ele>84.4</ele>
        <time>2013-08-13T19:37:23.623Z</time>
      </trkpt>
      <trkpt lat="48.85525" lon="2.36082">
        <ele>83.8</ele>
        <time>2013-08-13T19:37:24.616Z</time>
      </trkpt>
      <trkpt lat="48.85528" lon="2.36071">
        <ele>84.1</ele>
        <time>2013-08-13T19:37:26.621Z</time>
      </trkpt>
      <trkpt lat="48.8553" lon="2.36065">
        <ele>83.6</ele>
        <time>2013-08-13T19:37:27.655Z</time>
      </trkpt>
      <trkpt lat="48.85533" lon="2.36053">
        <ele>84.4</ele>
        <time>2013-08-13T19:37:29.624Z</time>
      </trkpt>
      <trkpt lat="48.85535" lon="2.36047">
        <ele>84.9</ele>
        <time>2013-08-13T19:37:30.617Z</time>
      </trkpt>
      <trkpt lat="48.85539" lon="2.36035">
        <ele>84.6</ele>
        <time>2013-08-13T19:37:32.673Z</time>
      </trkpt>
      <trkpt lat="48.85541" lon="2.3603">
        <ele>84.8</ele>
        <time>2013-08-13T19:37:33.633Z</time>
      </trkpt>
      <trkpt lat="48.8554" lon="2.36025">
        <ele>89.8</ele>
        <time>2013-08-13T19:37:50.615Z</time>
      </trkpt>
      <trkpt lat="48.8554" lon="2.36025">
        <ele>89.5</ele>
        <time>2013-08-13T19:37:51.674Z</time>
      </trkpt>
      <trkpt lat="48.8554" lon="2.36023">
        <ele>91.3</ele>
        <time>2013-08-13T19:38:13.634Z</time>
      </trkpt>
      <trkpt lat="48.8554" lon="2.36023">
        <ele>90.9</ele>
        <time>2013-08-13T19:38:14.625Z</time>
      </trkpt>
      <trkpt lat="48.85534" lon="2.36013">
        <ele>95.6</ele>
        <time>2013-08-13T19:38:19.620Z</time>
      </trkpt>
      <trkpt lat="48.85534" lon="2.3601">
        <ele>95</ele>
        <time>2013-08-13T19:38:20.628Z</time>
      </trkpt>
      <trkpt lat="48.85535" lon="2.35999">
        <ele>95.7</ele>
        <time>2013-08-13T19:38:23.631Z</time>
      </trkpt>
      <trkpt lat="48.85535" lon="2.35995">
        <ele>95.7</ele>
        <time>2013-08-13T19:38:24.626Z</time>
      </trkpt>
      <trkpt lat="48.85537" lon="2.35983">
        <ele>89.3</ele>
        <time>2013-08-13T19:38:27.646Z</time>
      </trkpt>
      <trkpt lat="48.85537" lon="2.35979">
        <ele>90</ele>
        <time>2013-08-13T19:38:28.621Z</time>
      </trkpt>
      <trkpt lat="48.85537" lon="2.35968">
        <ele>87.3</ele>
        <time>2013-08-13T19:38:43.649Z</time>
      </trkpt>
      <trkpt lat="48.85537" lon="2.35968">
        <ele>87.3</ele>
        <time>2013-08-13T19:38:44.687Z</time>
      </trkpt>
      <trkpt lat="48.85537" lon="2.35968">
        <ele>88.2</ele>
        <time>2013-08-13T19:39:29.633Z</time>
      </trkpt>
      <trkpt lat="48.85536" lon="2.35968">
        <ele>90</ele>
        <time>2013-08-13T19:39:30.631Z</time>
      </trkpt>
      <trkpt lat="48.85529" lon="2.35962">
        <ele>88.9</ele>
        <time>2013-08-13T19:39:37.689Z</time>
      </trkpt>
      <trkpt lat="48.85526" lon="2.35959">
        <ele>90.8</ele>
        <time>2013-08-13T19:39:38.663Z</time>
      </trkpt>
      <trkpt lat="48.8552" lon="2.35954">
        <ele>90.9</ele>
        <time>2013-08-13T19:39:40.625Z</time>
      </trkpt>
      <trkpt lat="48.85517" lon="2.35951">
        <ele>90.3</ele>
        <time>2013-08-13T19:39:41.634Z</time>
      </trkpt>
      <trkpt lat="48.85511" lon="2.35946">
        <ele>89.9</ele>
        <time>2013-08-13T19:39:43.624Z</time>
      </trkpt>
      <trkpt lat="48.85507" lon="2.35943">
        <ele>88.6</ele>
        <time>2013-08-13T19:39:44.646Z</time>
      </trkpt>
      <trkpt lat="48.85503" lon="2.3594">
        <ele>87.5</ele>
        <time>2013-08-13T19:39:45.618Z</time>
      </trkpt>
      <trkpt lat="48.85499" lon="2.35936">
        <ele>89.6</ele>
        <time>2013-08-13T19:39:46.643Z</time>
      </trkpt>
      <trkpt lat="48.85495" lon="2.35933">
        <ele>90.2</ele>
        <time>2013-08-13T19:39:47.642Z</time>
      </trkpt>
      <trkpt lat="48.85491" lon="2.3593">
        <ele>89.2</ele>
        <time>2013-08-13T19:39:48.615Z</time>
      </trkpt>
      <trkpt lat="48.85484" lon="2.35925">
        <ele>92.5</ele>
        <time>2013-08-13T19:39:50.614Z</time>
      </trkpt>
      <trkpt lat="48.8548" lon="2.35923">
        <ele>93.1</ele>
        <time>2013-08-13T19:39:51.648Z</time>
      </trkpt>
      <trkpt lat="48.85474" lon="2.35919">
        <ele>95.3</ele>
        <time>2013-08-13T19:39:53.642Z</time>
      </trkpt>
      <trkpt lat="48.85471" lon="2.35917">
        <ele>96.3</ele>
        <time>2013-08-13T19:39:54.643Z</time>
      </trkpt>
      <trkpt lat="48.85462" lon="2.35914">
        <ele>97.6</ele>
        <time>2013-08-13T19:39:57.686Z</time>
      </trkpt>
      <trkpt lat="48.8546" lon="2.35913">
        <ele>97.9</ele>
        <time>2013-08-13T19:39:58.626Z</time>
      </trkpt>
      <trkpt lat="48.85453" lon="2.35906">
        <ele>101.5</ele>
        <time>2013-08-13T19:40:01.673Z</time>
      </trkpt>
      <trkpt lat="48.85451" lon="2.35903">
        <ele>102.8</ele>
        <time>2013-08-13T19:40:02.605Z</time>
      </trkpt>
      <trkpt lat="48.85445" lon="2.35895">
        <ele>104.2</ele>
        <time>2013-08-13T19:40:04.632Z</time>
      </trkpt>
      <trkpt lat="48.85442" lon="2.35891">
        <ele>106.1</ele>
        <time>2013-08-13T19:40:05.636Z</time>
      </trkpt>
      <trkpt lat="48.85436" lon="2.35883">
        <ele>104.2</ele>
        <time>2013-08-13T19:40:07.642Z</time>
      </trkpt>
      <trkpt lat="48.85432" lon="2.35879">
        <ele>103</ele>
        <time>2013-08-13T19:40:08.632Z</time>
      </trkpt>
      <trkpt lat="48.85428" lon="2.35876">
        <ele>102.9</ele>
        <time>2013-08-13T19:40:09.638Z</time>
      </trkpt>
      <trkpt lat="48.85423" lon="2.35871">
        <ele>97.8</ele>
        <time>2013-08-13T19:40:10.674Z</time>
      </trkpt>
      <trkpt lat="48.85418" lon="2.35867">
        <ele>97.3</ele>
        <time>2013-08-13T19:40:11.774Z</time>
      </trkpt>
      <trkpt lat="48.85414" lon="2.35863">
        <ele>97.9</ele>
        <time>2013-08-13T19:40:12.637Z</time>
      </trkpt>
      <trkpt lat="48.85405" lon="2.35856">
        <ele>98.3</ele>
        <time>2013-08-13T19:40:13.784Z</time>
      </trkpt>
      <trkpt lat="48.854" lon="2.3585">
        <ele>99.6</ele>
        <time>2013-08-13T19:40:14.626Z</time>
      </trkpt>
      <trkpt lat="48.85393" lon="2.35841">
        <ele>100.8</ele>
        <time>2013-08-13T19:40:15.635Z</time>
      </trkpt>
      <trkpt lat="48.85387" lon="2.35833">
        <ele>102</ele>
        <time>2013-08-13T19:40:16.643Z</time>
      </trkpt>
      <trkpt lat="48.85379" lon="2.35824">
        <ele>101.6</ele>
        <time>2013-08-13T19:40:17.636Z</time>
      </trkpt>
      <trkpt lat="48.85372" lon="2.35818">
        <ele>98.5</ele>
        <time>2013-08-13T19:40:19.610Z</time>
      </trkpt>
      <trkpt lat="48.85369" lon="2.35816">
        <ele>96.2</ele>
        <time>2013-08-13T19:40:20.663Z</time>
      </trkpt>
      <trkpt lat="48.85362" lon="2.35815">
        <ele>95.5</ele>
        <time>2013-08-13T19:40:23.631Z</time>
      </trkpt>
      <trkpt lat="48.8536" lon="2.35815">
        <ele>95.3</ele>
        <time>2013-08-13T19:40:24.646Z</time>
      </trkpt>
      <trkpt lat="48.85352" lon="2.35812">
        <ele>92.4</ele>
        <time>2013-08-13T19:40:29.793Z</time>
      </trkpt>
      <trkpt lat="48.85351" lon="2.35811">
        <ele>91.3</ele>
        <time>2013-08-13T19:40:30.755Z</time>
      </trkpt>
      <trkpt lat="48.85344" lon="2.35803">
        <ele>93.5</ele>
        <time>2013-08-13T19:40:37.738Z</time>
      </trkpt>
      <trkpt lat="48.85344" lon="2.35801">
        <ele>94.2</ele>
        <time>2013-08-13T19:40:38.786Z</time>
      </trkpt>
      <trkpt lat="48.85341" lon="2.35793">
        <ele>95.7</ele>
        <time>2013-08-13T19:40:46.729Z</time>
      </trkpt>
      <trkpt lat="48.85341" lon="2.35793">
        <ele>95.8</ele>
        <time>2013-08-13T19:40:47.733Z</time>
      </trkpt>
      <trkpt lat="48.85342" lon="2.35793">
        <ele>95</ele>
        <time>2013-08-13T19:40:53.548Z</time>
      </trkpt>
      <trkpt lat="48.85342" lon="2.35792">
        <ele>94.9</ele>
        <time>2013-08-13T19:40:54.574Z</time>
      </trkpt>
      <trkpt lat="48.85342" lon="2.35791">
        <ele>94.8</ele>
        <time>2013-08-13T19:40:57.551Z</time>
      </trkpt>
      <trkpt lat="48.85342" lon="2.35791">
        <ele>94.8</ele>
        <time>2013-08-13T19:40:58.549Z</time>
      </trkpt>
      <trkpt lat="48.85342" lon="2.35791">
        <ele>94.2</ele>
        <time>2013-08-13T19:41:11.786Z</time>
      </trkpt>
      <trkpt lat="48.85341" lon="2.3579">
        <ele>95.1</ele>
        <time>2013-08-13T19:41:12.563Z</time>
      </trkpt>
      <trkpt lat="48.85337" lon="2.35782">
        <ele>96.5</ele>
        <time>2013-08-13T19:41:18.548Z</time>
      </trkpt>
      <trkpt lat="48.85335" lon="2.3578">
        <ele>95.1</ele>
        <time>2013-08-13T19:41:19.557Z</time>
      </trkpt>
      <trkpt lat="48.85329" lon="2.35773">
        <ele>97.4</ele>
        <time>2013-08-13T19:41:22.563Z</time>
      </trkpt>
      <trkpt lat="48.85328" lon="2.35771">
        <ele>99.2</ele>
        <time>2013-08-13T19:41:23.582Z</time>
      </trkpt>
      <trkpt lat="48.85322" lon="2.35761">
        <ele>103</ele>
        <time>2013-08-13T19:41:29.603Z</time>
      </trkpt>
      <trkpt lat="48.85321" lon="2.3576">
        <ele>102.4</ele>
        <time>2013-08-13T19:41:30.575Z</time>
      </trkpt>
      <trkpt lat="48.85314" lon="2.35753">
        <ele>99.4</ele>
        <time>2013-08-13T19:41:34.744Z</time>
      </trkpt>
      <trkpt lat="48.85312" lon="2.35751">
        <ele>98.1</ele>
        <time>2013-08-13T19:41:35.678Z</time>
      </trkpt>
      <trkpt lat="48.85304" lon="2.35746">
        <ele>96.7</ele>
        <time>2013-08-13T19:41:38.547Z</time>
      </trkpt>
      <trkpt lat="48.85302" lon="2.35744">
        <ele>97.4</ele>
        <time>2013-08-13T19:41:39.575Z</time>
      </trkpt>
      <trkpt lat="48.85295" lon="2.35738">
        <ele>97.6</ele>
        <time>2013-08-13T19:41:42.556Z</time>
      </trkpt>
      <trkpt lat="48.85293" lon="2.35736">
        <ele>97</ele>
        <time>2013-08-13T19:41:43.564Z</time>
      </trkpt>
      <trkpt lat="48.85287" lon="2.3573">
        <ele>95.6</ele>
        <time>2013-08-13T19:41:46.576Z</time>
      </trkpt>
      <trkpt lat="48.85284" lon="2.35727">
        <ele>96.1</ele>
        <time>2013-08-13T19:41:47.820Z</time>
      </trkpt>
      <trkpt lat="48.85278" lon="2.35721">
        <ele>95.1</ele>
        <time>2013-08-13T19:41:50.734Z</time>
      </trkpt>
      <trkpt lat="48.85276" lon="2.35719">
        <ele>93.3</ele>
        <time>2013-08-13T19:41:51.662Z</time>
      </trkpt>
      <trkpt lat="48.8527" lon="2.35713">
        <ele>93.8</ele>
        <time>2013-08-13T19:41:54.560Z</time>
      </trkpt>
      <trkpt lat="48.85267" lon="2.35711">
        <ele>93.4</ele>
        <time>2013-08-13T19:41:55.576Z</time>
      </trkpt>
      <trkpt lat="48.85261" lon="2.35704">
        <ele>94.6</ele>
        <time>2013-08-13T19:41:58.582Z</time>
      </trkpt>
      <trkpt lat="48.85259" lon="2.35703">
        <ele>94.4</ele>
        <time>2013-08-13T19:41:59.563Z</time>
      </trkpt>
      <trkpt lat="48.85252" lon="2.35696">
        <ele>94.8</ele>
        <time>2013-08-13T19:42:05.738Z</time>
      </trkpt>
      <trkpt lat="48.85251" lon="2.35695">
        <ele>95.8</ele>
        <time>2013-08-13T19:42:06.745Z</time>
      </trkpt>
      <trkpt lat="48.85243" lon="2.357">
        <ele>97.8</ele>
        <time>2013-08-13T19:42:11.611Z</time>
      </trkpt>
      <trkpt lat="48.8524" lon="2.35699">
        <ele>97</ele>
        <time>2013-08-13T19:42:12.763Z</time>
      </trkpt>
      <trkpt lat="48.85234" lon="2.35696">
        <ele>96.2</ele>
        <time>2013-08-13T19:42:14.703Z</time>
      </trkpt>
      <trkpt lat="48.8523" lon="2.35693">
        <ele>97.4</ele>
        <time>2013-08-13T19:42:15.733Z</time>
      </trkpt>
      <trkpt lat="48.85223" lon="2.35687">
        <ele>97</ele>
        <time>2013-08-13T19:42:17.723Z</time>
      </trkpt>
      <trkpt lat="48.85219" lon="2.35683">
        <ele>97.8</ele>
        <time>2013-08-13T19:42:18.579Z</time>
      </trkpt>
      <trkpt lat="48.85215" lon="2.3568">
        <ele>97.3</ele>
        <time>2013-08-13T19:42:19.587Z</time>
      </trkpt>
      <trkpt lat="48.85212" lon="2.35676">
        <ele>97.5</ele>
        <time>2013-08-13T19:42:20.563Z</time>
      </trkpt>
      <trkpt lat="48.85207" lon="2.35672">
        <ele>97.5</ele>
        <time>2013-08-13T19:42:21.595Z</time>
      </trkpt>
      <trkpt lat="48.85203" lon="2.35669">
        <ele>97.5</ele>
        <time>2013-08-13T19:42:22.565Z</time>
      </trkpt>
      <trkpt lat="48.85199" lon="2.35666">
        <ele>96.8</ele>
        <time>2013-08-13T19:42:23.570Z</time>
      </trkpt>
      <trkpt lat="48.85195" lon="2.35663">
        <ele>95.1</ele>
        <time>2013-08-13T19:42:24.592Z</time>
      </trkpt>
      <trkpt lat="48.85186" lon="2.35661">
        <ele>93.7</ele>
        <time>2013-08-13T19:42:26.595Z</time>
      </trkpt>
      <trkpt lat="48.85181" lon="2.35661">
        <ele>94.1</ele>
        <time>2013-08-13T19:42:27.577Z</time>
      </trkpt>
      <trkpt lat="48.85177" lon="2.35661">
        <ele>94.3</ele>
        <time>2013-08-13T19:42:28.755Z</time>
      </trkpt>
      <trkpt lat="48.85172" lon="2.3566">
        <ele>94.4</ele>
        <time>2013-08-13T19:42:29.619Z</time>
      </trkpt>
      <trkpt lat="48.85166" lon="2.35659">
        <ele>94.7</ele>
        <time>2013-08-13T19:42:30.725Z</time>
      </trkpt>
      <trkpt lat="48.85161" lon="2.35657">
        <ele>97</ele>
        <time>2013-08-13T19:42:31.716Z</time>
      </trkpt>
      <trkpt lat="48.85156" lon="2.35653">
        <ele>98.2</ele>
        <time>2013-08-13T19:42:32.645Z</time>
      </trkpt>
      <trkpt lat="48.85151" lon="2.35648">
        <ele>99.9</ele>
        <time>2013-08-13T19:42:33.727Z</time>
      </trkpt>
      <trkpt lat="48.85147" lon="2.35645">
        <ele>101.3</ele>
        <time>2013-08-13T19:42:34.544Z</time>
      </trkpt>
      <trkpt lat="48.85142" lon="2.3564">
        <ele>100.9</ele>
        <time>2013-08-13T19:42:35.723Z</time>
      </trkpt>
      <trkpt lat="48.85139" lon="2.35637">
        <ele>100.9</ele>
        <time>2013-08-13T19:42:36.572Z</time>
      </trkpt>
      <trkpt lat="48.85134" lon="2.35633">
        <ele>100.2</ele>
        <time>2013-08-13T19:42:37.727Z</time>
      </trkpt>
      <trkpt lat="48.8513" lon="2.35629">
        <ele>98.9</ele>
        <time>2013-08-13T19:42:38.709Z</time>
      </trkpt>
      <trkpt lat="48.85126" lon="2.35626">
        <ele>99.5</ele>
        <time>2013-08-13T19:42:39.665Z</time>
      </trkpt>
      <trkpt lat="48.85122" lon="2.3562">
        <ele>97</ele>
        <time>2013-08-13T19:42:40.756Z</time>
      </trkpt>
      <trkpt lat="48.85118" lon="2.35613">
        <ele>95.4</ele>
        <time>2013-08-13T19:42:41.592Z</time>
      </trkpt>
      <trkpt lat="48.85115" lon="2.35607">
        <ele>95.1</ele>
        <time>2013-08-13T19:42:42.750Z</time>
      </trkpt>
      <trkpt lat="48.85112" lon="2.35602">
        <ele>95.5</ele>
        <time>2013-08-13T19:42:43.592Z</time>
      </trkpt>
      <trkpt lat="48.85109" lon="2.35594">
        <ele>92.8</ele>
        <time>2013-08-13T19:42:44.786Z</time>
      </trkpt>
      <trkpt lat="48.85107" lon="2.35589">
        <ele>92.4</ele>
        <time>2013-08-13T19:42:45.638Z</time>
      </trkpt>
      <trkpt lat="48.85104" lon="2.35578">
        <ele>90.5</ele>
        <time>2013-08-13T19:42:47.821Z</time>
      </trkpt>
      <trkpt lat="48.85102" lon="2.35576">
        <ele>91.1</ele>
        <time>2013-08-13T19:42:48.676Z</time>
      </trkpt>
      <trkpt lat="48.85094" lon="2.35571">
        <ele>91.1</ele>
        <time>2013-08-13T19:42:50.590Z</time>
      </trkpt>
      <trkpt lat="48.8509" lon="2.35566">
        <ele>91.1</ele>
        <time>2013-08-13T19:42:51.807Z</time>
      </trkpt>
      <trkpt lat="48.85086" lon="2.35562">
        <ele>91.4</ele>
        <time>2013-08-13T19:42:52.584Z</time>
      </trkpt>
      <trkpt lat="48.85082" lon="2.35558">
        <ele>91.9</ele>
        <time>2013-08-13T19:42:53.734Z</time>
      </trkpt>
      <trkpt lat="48.85075" lon="2.35552">
        <ele>93</ele>
        <time>2013-08-13T19:42:55.588Z</time>
      </trkpt>
      <trkpt lat="48.85071" lon="2.35548">
        <ele>92.3</ele>
        <time>2013-08-13T19:42:56.565Z</time>
      </trkpt>
      <trkpt lat="48.85064" lon="2.35541">
        <ele>91.4</ele>
        <time>2013-08-13T19:42:58.581Z</time>
      </trkpt>
      <trkpt lat="48.85061" lon="2.35537">
        <ele>91.7</ele>
        <time>2013-08-13T19:42:59.566Z</time>
      </trkpt>
      <trkpt lat="48.85055" lon="2.3553">
        <ele>91.5</ele>
        <time>2013-08-13T19:43:01.576Z</time>
      </trkpt>
      <trkpt lat="48.85052" lon="2.35527">
        <ele>91.8</ele>
        <time>2013-08-13T19:43:02.601Z</time>
      </trkpt>
      <trkpt lat="48.85045" lon="2.35521">
        <ele>91.6</ele>
        <time>2013-08-13T19:43:04.585Z</time>
      </trkpt>
      <trkpt lat="48.85042" lon="2.35518">
        <ele>91.6</ele>
        <time>2013-08-13T19:43:05.565Z</time>
      </trkpt>
      <trkpt lat="48.85035" lon="2.35512">
        <ele>91.6</ele>
        <time>2013-08-13T19:43:07.600Z</time>
      </trkpt>
      <trkpt lat="48.85032" lon="2.35509">
        <ele>91.5</ele>
        <time>2013-08-13T19:43:08.582Z</time>
      </trkpt>
      <trkpt lat="48.85026" lon="2.35503">
        <ele>90.3</ele>
        <time>2013-08-13T19:43:10.558Z</time>
      </trkpt>
      <trkpt lat="48.85023" lon="2.355">
        <ele>89.7</ele>
        <time>2013-08-13T19:43:11.563Z</time>
      </trkpt>
      <trkpt lat="48.85016" lon="2.35493">
        <ele>88.9</ele>
        <time>2013-08-13T19:43:14.573Z</time>
      </trkpt>
      <trkpt lat="48.85014" lon="2.35492">
        <ele>89</ele>
        <time>2013-08-13T19:43:15.615Z</time>
      </trkpt>
      <trkpt lat="48.85011" lon="2.35489">
        <ele>89.3</ele>
        <time>2013-08-13T19:43:29.652Z</time>
      </trkpt>
      <trkpt lat="48.8501" lon="2.35489">
        <ele>88.9</ele>
        <time>2013-08-13T19:43:30.774Z</time>
      </trkpt>
      <trkpt lat="48.8501" lon="2.3549">
        <ele>89.1</ele>
        <time>2013-08-13T19:43:31.591Z</time>
      </trkpt>
      <trkpt lat="48.85009" lon="2.35489">
        <ele>89.5</ele>
        <time>2013-08-13T19:43:32.785Z</time>
      </trkpt>
      <trkpt lat="48.85005" lon="2.35482">
        <ele>88.7</ele>
        <time>2013-08-13T19:43:36.698Z</time>
      </trkpt>
      <trkpt lat="48.85003" lon="2.35479">
        <ele>88.3</ele>
        <time>2013-08-13T19:43:37.796Z</time>
      </trkpt>
      <trkpt lat="48.84997" lon="2.35472">
        <ele>88.3</ele>
        <time>2013-08-13T19:43:40.613Z</time>
      </trkpt>
      <trkpt lat="48.84995" lon="2.3547">
        <ele>89.3</ele>
        <time>2013-08-13T19:43:41.745Z</time>
      </trkpt>
      <trkpt lat="48.8499" lon="2.35467">
        <ele>88.1</ele>
        <time>2013-08-13T19:43:43.728Z</time>
      </trkpt>
      <trkpt lat="48.84986" lon="2.35465">
        <ele>87.9</ele>
        <time>2013-08-13T19:43:44.589Z</time>
      </trkpt>
      <trkpt lat="48.84979" lon="2.3546">
        <ele>88</ele>
        <time>2013-08-13T19:43:46.589Z</time>
      </trkpt>
      <trkpt lat="48.84975" lon="2.35457">
        <ele>88</ele>
        <time>2013-08-13T19:43:47.596Z</time>
      </trkpt>
      <trkpt lat="48.84968" lon="2.35453">
        <ele>87.9</ele>
        <time>2013-08-13T19:43:49.597Z</time>
      </trkpt>
      <trkpt lat="48.84965" lon="2.35452">
        <ele>88.8</ele>
        <time>2013-08-13T19:43:50.571Z</time>
      </trkpt>
      <trkpt lat="48.84957" lon="2.35449">
        <ele>87.5</ele>
        <time>2013-08-13T19:43:53.586Z</time>
      </trkpt>
      <trkpt lat="48.84954" lon="2.35448">
        <ele>87.1</ele>
        <time>2013-08-13T19:43:54.573Z</time>
      </trkpt>
      <trkpt lat="48.84951" lon="2.35448">
        <ele>86.9</ele>
        <time>2013-08-13T19:43:57.633Z</time>
      </trkpt>
      <trkpt lat="48.84952" lon="2.35448">
        <ele>86.8</ele>
        <time>2013-08-13T19:43:58.575Z</time>
      </trkpt>
      <trkpt lat="48.84952" lon="2.35448">
        <ele>86.2</ele>
        <time>2013-08-13T19:43:59.587Z</time>
      </trkpt>
      <trkpt lat="48.84953" lon="2.35447">
        <ele>85.8</ele>
        <time>2013-08-13T19:44:00.566Z</time>
      </trkpt>
      <trkpt lat="48.84953" lon="2.35446">
        <ele>84.1</ele>
        <time>2013-08-13T19:44:04.592Z</time>
      </trkpt>
      <trkpt lat="48.84953" lon="2.35446">
        <ele>84.3</ele>
        <time>2013-08-13T19:44:05.603Z</time>
      </trkpt>
      <trkpt lat="48.84952" lon="2.35445">
        <ele>84.3</ele>
        <time>2013-08-13T19:44:17.575Z</time>
      </trkpt>
      <trkpt lat="48.84952" lon="2.35445">
        <ele>84.8</ele>
        <time>2013-08-13T19:44:18.581Z</time>
      </trkpt>
      <trkpt lat="48.84945" lon="2.3544">
        <ele>86.4</ele>
        <time>2013-08-13T19:44:21.604Z</time>
      </trkpt>
      <trkpt lat="48.84941" lon="2.35437">
        <ele>86.9</ele>
        <time>2013-08-13T19:44:22.601Z</time>
      </trkpt>
      <trkpt lat="48.84936" lon="2.35435">
        <ele>88.8</ele>
        <time>2013-08-13T19:44:23.580Z</time>
      </trkpt>
      <trkpt lat="48.84932" lon="2.35432">
        <ele>89.8</ele>
        <time>2013-08-13T19:44:24.627Z</time>
      </trkpt>
      <trkpt lat="48.84928" lon="2.3543">
        <ele>89.2</ele>
        <time>2013-08-13T19:44:25.587Z</time>
      </trkpt>
      <trkpt lat="48.84923" lon="2.35428">
        <ele>89.7</ele>
        <time>2013-08-13T19:44:26.566Z</time>
      </trkpt>
      <trkpt lat="48.84918" lon="2.35425">
        <ele>89.3</ele>
        <time>2013-08-13T19:44:27.604Z</time>
      </trkpt>
      <trkpt lat="48.84913" lon="2.35422">
        <ele>89.5</ele>
        <time>2013-08-13T19:44:28.603Z</time>
      </trkpt>
      <trkpt lat="48.84908" lon="2.35417">
        <ele>88.6</ele>
        <time>2013-08-13T19:44:29.584Z</time>
      </trkpt>
      <trkpt lat="48.84903" lon="2.35412">
        <ele>89</ele>
        <time>2013-08-13T19:44:30.565Z</time>
      </trkpt>
      <trkpt lat="48.84898" lon="2.35409">
        <ele>89.5</ele>
        <time>2013-08-13T19:44:31.595Z</time>
      </trkpt>
      <trkpt lat="48.84892" lon="2.35406">
        <ele>89.3</ele>
        <time>2013-08-13T19:44:32.587Z</time>
      </trkpt>
      <trkpt lat="48.84887" lon="2.35403">
        <ele>89</ele>
        <time>2013-08-13T19:44:33.574Z</time>
      </trkpt>
      <trkpt lat="48.84882" lon="2.354">
        <ele>88.5</ele>
        <time>2013-08-13T19:44:34.566Z</time>
      </trkpt>
      <trkpt lat="48.84876" lon="2.35398">
        <ele>88.1</ele>
        <time>2013-08-13T19:44:35.607Z</time>
      </trkpt>
      <trkpt lat="48.84872" lon="2.35392">
        <ele>88.6</ele>
        <time>2013-08-13T19:44:36.654Z</time>
      </trkpt>
      <trkpt lat="48.84868" lon="2.35387">
        <ele>89.3</ele>
        <time>2013-08-13T19:44:37.686Z</time>
      </trkpt>
      <trkpt lat="48.84863" lon="2.35383">
        <ele>88.8</ele>
        <time>2013-08-13T19:44:38.732Z</time>
      </trkpt>
      <trkpt lat="48.84859" lon="2.35378">
        <ele>89.3</ele>
        <time>2013-08-13T19:44:39.630Z</time>
      </trkpt>
      <trkpt lat="48.84855" lon="2.35374">
        <ele>90.2</ele>
        <time>2013-08-13T19:44:40.688Z</time>
      </trkpt>
      <trkpt lat="48.8485" lon="2.35371">
        <ele>90.6</ele>
        <time>2013-08-13T19:44:41.575Z</time>
      </trkpt>
      <trkpt lat="48.84844" lon="2.35367">
        <ele>91.9</ele>
        <time>2013-08-13T19:44:42.720Z</time>
      </trkpt>
      <trkpt lat="48.84839" lon="2.35364">
        <ele>91.2</ele>
        <time>2013-08-13T19:44:43.594Z</time>
      </trkpt>
      <trkpt lat="48.84831" lon="2.35358">
        <ele>87.6</ele>
        <time>2013-08-13T19:44:44.734Z</time>
      </trkpt>
      <trkpt lat="48.84824" lon="2.35353">
        <ele>87.9</ele>
        <time>2013-08-13T19:44:45.713Z</time>
      </trkpt>
      <trkpt lat="48.84819" lon="2.35349">
        <ele>88.3</ele>
        <time>2013-08-13T19:44:46.658Z</time>
      </trkpt>
      <trkpt lat="48.84813" lon="2.35345">
        <ele>88.4</ele>
        <time>2013-08-13T19:44:47.706Z</time>
      </trkpt>
      <trkpt lat="48.84809" lon="2.35342">
        <ele>89.4</ele>
        <time>2013-08-13T19:44:48.595Z</time>
      </trkpt>
      <trkpt lat="48.84803" lon="2.35339">
        <ele>89</ele>
        <time>2013-08-13T19:44:49.611Z</time>
      </trkpt>
      <trkpt lat="48.84799" lon="2.35337">
        <ele>90.6</ele>
        <time>2013-08-13T19:44:50.574Z</time>
      </trkpt>
      <trkpt lat="48.84793" lon="2.35335">
        <ele>91.3</ele>
        <time>2013-08-13T19:44:51.742Z</time>
      </trkpt>
      <trkpt lat="48.8479" lon="2.3533">
        <ele>92.6</ele>
        <time>2013-08-13T19:44:52.678Z</time>
      </trkpt>
      <trkpt lat="48.84786" lon="2.35325">
        <ele>94.9</ele>
        <time>2013-08-13T19:44:53.705Z</time>
      </trkpt>
      <trkpt lat="48.84783" lon="2.3532">
        <ele>95.5</ele>
        <time>2013-08-13T19:44:54.680Z</time>
      </trkpt>
      <trkpt lat="48.84779" lon="2.35314">
        <ele>96</ele>
        <time>2013-08-13T19:44:55.648Z</time>
      </trkpt>
      <trkpt lat="48.84776" lon="2.35308">
        <ele>96.3</ele>
        <time>2013-08-13T19:44:56.696Z</time>
      </trkpt>
      <trkpt lat="48.84772" lon="2.35303">
        <ele>97.1</ele>
        <time>2013-08-13T19:44:57.596Z</time>
      </trkpt>
      <trkpt lat="48.84769" lon="2.35297">
        <ele>96.9</ele>
        <time>2013-08-13T19:44:58.733Z</time>
      </trkpt>
      <trkpt lat="48.84764" lon="2.35289">
        <ele>95.6</ele>
        <time>2013-08-13T19:45:00.592Z</time>
      </trkpt>
      <trkpt lat="48.84761" lon="2.35285">
        <ele>95.4</ele>
        <time>2013-08-13T19:45:01.603Z</time>
      </trkpt>
      <trkpt lat="48.84753" lon="2.35279">
        <ele>98.7</ele>
        <time>2013-08-13T19:45:04.573Z</time>
      </trkpt>
      <trkpt lat="48.84753" lon="2.35277">
        <ele>100.9</ele>
        <time>2013-08-13T19:45:05.594Z</time>
      </trkpt>
      <trkpt lat="48.84754" lon="2.35266">
        <ele>105</ele>
        <time>2013-08-13T19:45:09.578Z</time>
      </trkpt>
      <trkpt lat="48.84755" lon="2.35261">
        <ele>104.9</ele>
        <time>2013-08-13T19:45:10.594Z</time>
      </trkpt>
      <trkpt lat="48.84758" lon="2.35253">
        <ele>105.2</ele>
        <time>2013-08-13T19:45:12.592Z</time>
      </trkpt>
      <trkpt lat="48.8476" lon="2.35248">
        <ele>105.7</ele>
        <time>2013-08-13T19:45:13.574Z</time>
      </trkpt>
      <trkpt lat="48.84763" lon="2.35237">
        <ele>106.6</ele>
        <time>2013-08-13T19:45:15.600Z</time>
      </trkpt>
      <trkpt lat="48.84765" lon="2.35232">
        <ele>107.7</ele>
        <time>2013-08-13T19:45:16.555Z</time>
      </trkpt>
      <trkpt lat="48.84767" lon="2.35219">
        <ele>101.6</ele>
        <time>2013-08-13T19:45:18.579Z</time>
      </trkpt>
      <trkpt lat="48.84768" lon="2.35212">
        <ele>98.8</ele>
        <time>2013-08-13T19:45:19.582Z</time>
      </trkpt>
      <trkpt lat="48.84769" lon="2.35205">
        <ele>97.3</ele>
        <time>2013-08-13T19:45:20.595Z</time>
      </trkpt>
      <trkpt lat="48.84771" lon="2.35198">
        <ele>98.1</ele>
        <time>2013-08-13T19:45:21.621Z</time>
      </trkpt>
      <trkpt lat="48.84774" lon="2.35187">
        <ele>98.5</ele>
        <time>2013-08-13T19:45:23.582Z</time>
      </trkpt>
      <trkpt lat="48.84776" lon="2.35182">
        <ele>98.8</ele>
        <time>2013-08-13T19:45:24.621Z</time>
      </trkpt>
      <trkpt lat="48.84778" lon="2.35176">
        <ele>96.7</ele>
        <time>2013-08-13T19:45:25.714Z</time>
      </trkpt>
      <trkpt lat="48.8478" lon="2.3517">
        <ele>96.5</ele>
        <time>2013-08-13T19:45:26.724Z</time>
      </trkpt>
      <trkpt lat="48.84782" lon="2.35163">
        <ele>95.9</ele>
        <time>2013-08-13T19:45:27.584Z</time>
      </trkpt>
      <trkpt lat="48.84783" lon="2.35152">
        <ele>94.3</ele>
        <time>2013-08-13T19:45:28.624Z</time>
      </trkpt>
      <trkpt lat="48.84785" lon="2.35143">
        <ele>95.5</ele>
        <time>2013-08-13T19:45:29.592Z</time>
      </trkpt>
      <trkpt lat="48.84787" lon="2.35134">
        <ele>95.4</ele>
        <time>2013-08-13T19:45:30.748Z</time>
      </trkpt>
      <trkpt lat="48.84788" lon="2.35128">
        <ele>93.7</ele>
        <time>2013-08-13T19:45:31.572Z</time>
      </trkpt>
      <trkpt lat="48.8479" lon="2.3512">
        <ele>95.1</ele>
        <time>2013-08-13T19:45:32.759Z</time>
      </trkpt>
      <trkpt lat="48.84791" lon="2.35114">
        <ele>94.8</ele>
        <time>2013-08-13T19:45:33.692Z</time>
      </trkpt>
      <trkpt lat="48.84793" lon="2.35107">
        <ele>94.8</ele>
        <time>2013-08-13T19:45:34.655Z</time>
      </trkpt>
      <trkpt lat="48.84794" lon="2.35099">
        <ele>92.9</ele>
        <time>2013-08-13T19:45:35.773Z</time>
      </trkpt>
      <trkpt lat="48.84795" lon="2.35092">
        <ele>91</ele>
        <time>2013-08-13T19:45:36.604Z</time>
      </trkpt>
      <trkpt lat="48.84796" lon="2.35084">
        <ele>93</ele>
        <time>2013-08-13T19:45:37.708Z</time>
      </trkpt>
      <trkpt lat="48.84798" lon="2.35077">
        <ele>93.2</ele>
        <time>2013-08-13T19:45:38.596Z</time>
      </trkpt>
      <trkpt lat="48.848" lon="2.3507">
        <ele>90.8</ele>
        <time>2013-08-13T19:45:39.584Z</time>
      </trkpt>
      <trkpt lat="48.84802" lon="2.35063">
        <ele>89.7</ele>
        <time>2013-08-13T19:45:40.604Z</time>
      </trkpt>
      <trkpt lat="48.84805" lon="2.35055">
        <ele>90.6</ele>
        <time>2013-08-13T19:45:41.737Z</time>
      </trkpt>
      <trkpt lat="48.84807" lon="2.35048">
        <ele>91.4</ele>
        <time>2013-08-13T19:45:42.764Z</time>
      </trkpt>
      <trkpt lat="48.84809" lon="2.3504">
        <ele>91.3</ele>
        <time>2013-08-13T19:45:43.693Z</time>
      </trkpt>
      <trkpt lat="48.84811" lon="2.35033">
        <ele>91.3</ele>
        <time>2013-08-13T19:45:44.737Z</time>
      </trkpt>
      <trkpt lat="48.84814" lon="2.35021">
        <ele>91.6</ele>
        <time>2013-08-13T19:45:46.802Z</time>
      </trkpt>
      <trkpt lat="48.84815" lon="2.35015">
        <ele>91.3</ele>
        <time>2013-08-13T19:45:47.606Z</time>
      </trkpt>
      <trkpt lat="48.84816" lon="2.35008">
        <ele>91.2</ele>
        <time>2013-08-13T19:45:48.758Z</time>
      </trkpt>
      <trkpt lat="48.84818" lon="2.35001">
        <ele>91</ele>
        <time>2013-08-13T19:45:49.695Z</time>
      </trkpt>
      <trkpt lat="48.8482" lon="2.34994">
        <ele>91.1</ele>
        <time>2013-08-13T19:45:50.732Z</time>
      </trkpt>
      <trkpt lat="48.84822" lon="2.34987">
        <ele>90.2</ele>
        <time>2013-08-13T19:45:51.767Z</time>
      </trkpt>
      <trkpt lat="48.84824" lon="2.34981">
        <ele>89.5</ele>
        <time>2013-08-13T19:45:52.576Z</time>
      </trkpt>
      <trkpt lat="48.84826" lon="2.34974">
        <ele>89.9</ele>
        <time>2013-08-13T19:45:53.614Z</time>
      </trkpt>
      <trkpt lat="48.84827" lon="2.34967">
        <ele>90.4</ele>
        <time>2013-08-13T19:45:54.586Z</time>
      </trkpt>
      <trkpt lat="48.84827" lon="2.3496">
        <ele>89.6</ele>
        <time>2013-08-13T19:45:55.611Z</time>
      </trkpt>
      <trkpt lat="48.84831" lon="2.34947">
        <ele>89.9</ele>
        <time>2013-08-13T19:45:57.589Z</time>
      </trkpt>
      <trkpt lat="48.84833" lon="2.34941">
        <ele>89.7</ele>
        <time>2013-08-13T19:45:58.586Z</time>
      </trkpt>
      <trkpt lat="48.84835" lon="2.34935">
        <ele>88.6</ele>
        <time>2013-08-13T19:45:59.603Z</time>
      </trkpt>
      <trkpt lat="48.84838" lon="2.34928">
        <ele>88.5</ele>
        <time>2013-08-13T19:46:00.615Z</time>
      </trkpt>
      <trkpt lat="48.84842" lon="2.34918">
        <ele>88</ele>
        <time>2013-08-13T19:46:02.623Z</time>
      </trkpt>
      <trkpt lat="48.84844" lon="2.34913">
        <ele>88</ele>
        <time>2013-08-13T19:46:03.610Z</time>
      </trkpt>
      <trkpt lat="48.84848" lon="2.34902">
        <ele>88.8</ele>
        <time>2013-08-13T19:46:05.604Z</time>
      </trkpt>
      <trkpt lat="48.8485" lon="2.34896">
        <ele>89.1</ele>
        <time>2013-08-13T19:46:06.602Z</time>
      </trkpt>
      <trkpt lat="48.84853" lon="2.34884">
        <ele>89.1</ele>
        <time>2013-08-13T19:46:08.637Z</time>
      </trkpt>
      <trkpt lat="48.84854" lon="2.34878">
        <ele>88.7</ele>
        <time>2013-08-13T19:46:09.607Z</time>
      </trkpt>
      <trkpt lat="48.84858" lon="2.34866">
        <ele>87.8</ele>
        <time>2013-08-13T19:46:11.593Z</time>
      </trkpt>
      <trkpt lat="48.8486" lon="2.34859">
        <ele>89.6</ele>
        <time>2013-08-13T19:46:12.591Z</time>
      </trkpt>
      <trkpt lat="48.84861" lon="2.3485">
        <ele>89.5</ele>
        <time>2013-08-13T19:46:13.734Z</time>
      </trkpt>
      <trkpt lat="48.84862" lon="2.34843">
        <ele>90.1</ele>
        <time>2013-08-13T19:46:14.721Z</time>
      </trkpt>
      <trkpt lat="48.84865" lon="2.3483">
        <ele>90</ele>
        <time>2013-08-13T19:46:16.773Z</time>
      </trkpt>
      <trkpt lat="48.84866" lon="2.34825">
        <ele>89.8</ele>
        <time>2013-08-13T19:46:17.623Z</time>
      </trkpt>
      <trkpt lat="48.84869" lon="2.34814">
        <ele>88.3</ele>
        <time>2013-08-13T19:46:19.588Z</time>
      </trkpt>
      <trkpt lat="48.8487" lon="2.34808">
        <ele>89.4</ele>
        <time>2013-08-13T19:46:20.724Z</time>
      </trkpt>
      <trkpt lat="48.84871" lon="2.34796">
        <ele>90.2</ele>
        <time>2013-08-13T19:46:22.697Z</time>
      </trkpt>
      <trkpt lat="48.84872" lon="2.34789">
        <ele>89.6</ele>
        <time>2013-08-13T19:46:23.724Z</time>
      </trkpt>
      <trkpt lat="48.84876" lon="2.34778">
        <ele>87.9</ele>
        <time>2013-08-13T19:46:25.707Z</time>
      </trkpt>
      <trkpt lat="48.84877" lon="2.34773">
        <ele>87.4</ele>
        <time>2013-08-13T19:46:26.584Z</time>
      </trkpt>
      <trkpt lat="48.8488" lon="2.34763">
        <ele>87.4</ele>
        <time>2013-08-13T19:46:28.600Z</time>
      </trkpt>
      <trkpt lat="48.84881" lon="2.34758">
        <ele>86.8</ele>
        <time>2013-08-13T19:46:29.718Z</time>
      </trkpt>
      <trkpt lat="48.84884" lon="2.3475">
        <ele>86.2</ele>
        <time>2013-08-13T19:46:31.575Z</time>
      </trkpt>
      <trkpt lat="48.84885" lon="2.34745">
        <ele>85.7</ele>
        <time>2013-08-13T19:46:32.644Z</time>
      </trkpt>
      <trkpt lat="48.84889" lon="2.34736">
        <ele>84.6</ele>
        <time>2013-08-13T19:46:34.600Z</time>
      </trkpt>
      <trkpt lat="48.8489" lon="2.3473">
        <ele>85.1</ele>
        <time>2013-08-13T19:46:35.584Z</time>
      </trkpt>
      <trkpt lat="48.84893" lon="2.34719">
        <ele>85.4</ele>
        <time>2013-08-13T19:46:37.611Z</time>
      </trkpt>
      <trkpt lat="48.84895" lon="2.34713">
        <ele>84</ele>
        <time>2013-08-13T19:46:38.612Z</time>
      </trkpt>
      <trkpt lat="48.84899" lon="2.34701">
        <ele>83.7</ele>
        <time>2013-08-13T19:46:40.609Z</time>
      </trkpt>
      <trkpt lat="48.849" lon="2.34694">
        <ele>84.5</ele>
        <time>2013-08-13T19:46:41.727Z</time>
      </trkpt>
      <trkpt lat="48.84903" lon="2.34682">
        <ele>85.4</ele>
        <time>2013-08-13T19:46:43.740Z</time>
      </trkpt>
      <trkpt lat="48.84904" lon="2.34677">
        <ele>87.2</ele>
        <time>2013-08-13T19:46:44.613Z</time>
      </trkpt>
      <trkpt lat="48.84907" lon="2.34666">
        <ele>87.6</ele>
        <time>2013-08-13T19:46:46.703Z</time>
      </trkpt>
      <trkpt lat="48.84909" lon="2.3466">
        <ele>88.6</ele>
        <time>2013-08-13T19:46:47.692Z</time>
      </trkpt>
      <trkpt lat="48.84912" lon="2.34649">
        <ele>89</ele>
        <time>2013-08-13T19:46:49.615Z</time>
      </trkpt>
      <trkpt lat="48.84913" lon="2.34642">
        <ele>89.3</ele>
        <time>2013-08-13T19:46:50.759Z</time>
      </trkpt>
      <trkpt lat="48.84915" lon="2.3463">
        <ele>92.5</ele>
        <time>2013-08-13T19:46:52.759Z</time>
      </trkpt>
      <trkpt lat="48.84916" lon="2.34624">
        <ele>93.3</ele>
        <time>2013-08-13T19:46:53.650Z</time>
      </trkpt>
      <trkpt lat="48.84919" lon="2.34612">
        <ele>96.2</ele>
        <time>2013-08-13T19:46:55.694Z</time>
      </trkpt>
      <trkpt lat="48.84921" lon="2.34606">
        <ele>96.8</ele>
        <time>2013-08-13T19:46:56.647Z</time>
      </trkpt>
      <trkpt lat="48.84924" lon="2.34594">
        <ele>96.7</ele>
        <time>2013-08-13T19:46:58.607Z</time>
      </trkpt>
      <trkpt lat="48.84926" lon="2.34588">
        <ele>96.7</ele>
        <time>2013-08-13T19:46:59.738Z</time>
      </trkpt>
      <trkpt lat="48.84928" lon="2.34575">
        <ele>96.4</ele>
        <time>2013-08-13T19:47:01.601Z</time>
      </trkpt>
      <trkpt lat="48.84929" lon="2.34569">
        <ele>97.5</ele>
        <time>2013-08-13T19:47:02.594Z</time>
      </trkpt>
      <trkpt lat="48.84932" lon="2.34556">
        <ele>96.5</ele>
        <time>2013-08-13T19:47:04.575Z</time>
      </trkpt>
      <trkpt lat="48.84933" lon="2.34549">
        <ele>96.4</ele>
        <time>2013-08-13T19:47:05.594Z</time>
      </trkpt>
      <trkpt lat="48.84935" lon="2.34541">
        <ele>96.8</ele>
        <time>2013-08-13T19:47:06.581Z</time>
      </trkpt>
      <trkpt lat="48.84937" lon="2.34535">
        <ele>95.7</ele>
        <time>2013-08-13T19:47:07.603Z</time>
      </trkpt>
      <trkpt lat="48.8494" lon="2.34529">
        <ele>96.8</ele>
        <time>2013-08-13T19:47:08.590Z</time>
      </trkpt>
      <trkpt lat="48.84943" lon="2.34523">
        <ele>96.4</ele>
        <time>2013-08-13T19:47:09.594Z</time>
      </trkpt>
      <trkpt lat="48.84945" lon="2.34516">
        <ele>96</ele>
        <time>2013-08-13T19:47:10.570Z</time>
      </trkpt>
      <trkpt lat="48.84948" lon="2.34509">
        <ele>95.2</ele>
        <time>2013-08-13T19:47:11.621Z</time>
      </trkpt>
      <trkpt lat="48.84951" lon="2.34503">
        <ele>94.8</ele>
        <time>2013-08-13T19:47:12.748Z</time>
      </trkpt>
      <trkpt lat="48.84952" lon="2.34497">
        <ele>93.7</ele>
        <time>2013-08-13T19:47:13.617Z</time>
      </trkpt>
      <trkpt lat="48.84955" lon="2.3449">
        <ele>92.9</ele>
        <time>2013-08-13T19:47:14.745Z</time>
      </trkpt>
      <trkpt lat="48.84956" lon="2.34484">
        <ele>94.3</ele>
        <time>2013-08-13T19:47:15.609Z</time>
      </trkpt>
      <trkpt lat="48.84959" lon="2.34471">
        <ele>93.6</ele>
        <time>2013-08-13T19:47:17.591Z</time>
      </trkpt>
      <trkpt lat="48.8496" lon="2.34466">
        <ele>93.5</ele>
        <time>2013-08-13T19:47:18.576Z</time>
      </trkpt>
      <trkpt lat="48.84963" lon="2.34453">
        <ele>92.5</ele>
        <time>2013-08-13T19:47:20.568Z</time>
      </trkpt>
      <trkpt lat="48.84965" lon="2.34447">
        <ele>92.2</ele>
        <time>2013-08-13T19:47:21.605Z</time>
      </trkpt>
      <trkpt lat="48.84968" lon="2.34435">
        <ele>92.6</ele>
        <time>2013-08-13T19:47:23.591Z</time>
      </trkpt>
      <trkpt lat="48.84969" lon="2.34428">
        <ele>92.5</ele>
        <time>2013-08-13T19:47:24.584Z</time>
      </trkpt>
      <trkpt lat="48.84971" lon="2.34421">
        <ele>92.6</ele>
        <time>2013-08-13T19:47:25.576Z</time>
      </trkpt>
      <trkpt lat="48.84973" lon="2.34415">
        <ele>92.5</ele>
        <time>2013-08-13T19:47:26.592Z</time>
      </trkpt>
      <trkpt lat="48.84976" lon="2.34403">
        <ele>92.3</ele>
        <time>2013-08-13T19:47:28.587Z</time>
      </trkpt>
      <trkpt lat="48.84978" lon="2.34397">
        <ele>91.6</ele>
        <time>2013-08-13T19:47:29.583Z</time>
      </trkpt>
      <trkpt lat="48.84981" lon="2.34384">
        <ele>91.3</ele>
        <time>2013-08-13T19:47:31.624Z</time>
      </trkpt>
      <trkpt lat="48.84982" lon="2.34378">
        <ele>91</ele>
        <time>2013-08-13T19:47:32.665Z</time>
      </trkpt>
      <trkpt lat="48.84985" lon="2.34371">
        <ele>91.3</ele>
        <time>2013-08-13T19:47:33.726Z</time>
      </trkpt>
      <trkpt lat="48.84987" lon="2.34366">
        <ele>88.6</ele>
        <time>2013-08-13T19:47:34.604Z</time>
      </trkpt>
      <trkpt lat="48.8499" lon="2.34359">
        <ele>89.4</ele>
        <time>2013-08-13T19:47:35.697Z</time>
      </trkpt>
      <trkpt lat="48.84992" lon="2.34352">
        <ele>90.8</ele>
        <time>2013-08-13T19:47:36.617Z</time>
      </trkpt>
      <trkpt lat="48.84997" lon="2.34341">
        <ele>93.1</ele>
        <time>2013-08-13T19:47:38.705Z</time>
      </trkpt>
      <trkpt lat="48.84999" lon="2.34335">
        <ele>92</ele>
        <time>2013-08-13T19:47:39.723Z</time>
      </trkpt>
      <trkpt lat="48.85004" lon="2.34324">
        <ele>90.8</ele>
        <time>2013-08-13T19:47:41.643Z</time>
      </trkpt>
      <trkpt lat="48.85007" lon="2.34317">
        <ele>91.6</ele>
        <time>2013-08-13T19:47:42.779Z</time>
      </trkpt>
      <trkpt lat="48.8501" lon="2.3431">
        <ele>91.9</ele>
        <time>2013-08-13T19:47:43.615Z</time>
      </trkpt>
      <trkpt lat="48.85012" lon="2.34303">
        <ele>93.4</ele>
        <time>2013-08-13T19:47:44.776Z</time>
      </trkpt>
      <trkpt lat="48.85017" lon="2.34293">
        <ele>94.1</ele>
        <time>2013-08-13T19:47:46.756Z</time>
      </trkpt>
      <trkpt lat="48.85019" lon="2.34288">
        <ele>95.9</ele>
        <time>2013-08-13T19:47:47.756Z</time>
      </trkpt>
      <trkpt lat="48.85021" lon="2.34278">
        <ele>94.6</ele>
        <time>2013-08-13T19:47:50.613Z</time>
      </trkpt>
      <trkpt lat="48.85022" lon="2.34275">
        <ele>95.3</ele>
        <time>2013-08-13T19:47:51.810Z</time>
      </trkpt>
      <trkpt lat="48.8502" lon="2.34271">
        <ele>97</ele>
        <time>2013-08-13T19:47:58.762Z</time>
      </trkpt>
      <trkpt lat="48.8502" lon="2.34271">
        <ele>96.9</ele>
        <time>2013-08-13T19:47:59.596Z</time>
      </trkpt>
      <trkpt lat="48.8502" lon="2.34271">
        <ele>98.3</ele>
        <time>2013-08-13T19:50:17.615Z</time>
      </trkpt>
      <trkpt lat="48.85021" lon="2.3427">
        <ele>99</ele>
        <time>2013-08-13T19:50:18.597Z</time>
      </trkpt>
      <trkpt lat="48.85025" lon="2.3426">
        <ele>98.1</ele>
        <time>2013-08-13T19:50:22.599Z</time>
      </trkpt>
      <trkpt lat="48.85027" lon="2.34258">
        <ele>98.8</ele>
        <time>2013-08-13T19:50:23.626Z</time>
      </trkpt>
      <trkpt lat="48.85033" lon="2.34249">
        <ele>99</ele>
        <time>2013-08-13T19:50:26.612Z</time>
      </trkpt>
      <trkpt lat="48.85036" lon="2.34246">
        <ele>98.8</ele>
        <time>2013-08-13T19:50:27.596Z</time>
      </trkpt>
      <trkpt lat="48.85041" lon="2.34237">
        <ele>98.4</ele>
        <time>2013-08-13T19:50:29.629Z</time>
      </trkpt>
      <trkpt lat="48.85043" lon="2.34232">
        <ele>98.9</ele>
        <time>2013-08-13T19:50:30.617Z</time>
      </trkpt>
      <trkpt lat="48.85047" lon="2.34223">
        <ele>99.9</ele>
        <time>2013-08-13T19:50:32.614Z</time>
      </trkpt>
      <trkpt lat="48.85049" lon="2.34218">
        <ele>99.6</ele>
        <time>2013-08-13T19:50:33.664Z</time>
      </trkpt>
      <trkpt lat="48.85053" lon="2.34211">
        <ele>99.6</ele>
        <time>2013-08-13T19:50:34.607Z</time>
      </trkpt>
      <trkpt lat="48.85056" lon="2.34205">
        <ele>99.4</ele>
        <time>2013-08-13T19:50:35.618Z</time>
      </trkpt>
      <trkpt lat="48.85059" lon="2.34197">
        <ele>98.9</ele>
        <time>2013-08-13T19:50:36.605Z</time>
      </trkpt>
      <trkpt lat="48.85062" lon="2.34194">
        <ele>98.8</ele>
        <time>2013-08-13T19:50:37.616Z</time>
      </trkpt>
      <trkpt lat="48.85068" lon="2.34189">
        <ele>98.8</ele>
        <time>2013-08-13T19:50:39.646Z</time>
      </trkpt>
      <trkpt lat="48.8507" lon="2.34186">
        <ele>99.6</ele>
        <time>2013-08-13T19:50:40.596Z</time>
      </trkpt>
      <trkpt lat="48.85074" lon="2.34175">
        <ele>99.1</ele>
        <time>2013-08-13T19:50:42.616Z</time>
      </trkpt>
      <trkpt lat="48.85076" lon="2.3417">
        <ele>100</ele>
        <time>2013-08-13T19:50:43.604Z</time>
      </trkpt>
      <trkpt lat="48.85081" lon="2.34159">
        <ele>99.9</ele>
        <time>2013-08-13T19:50:46.603Z</time>
      </trkpt>
      <trkpt lat="48.85083" lon="2.34156">
        <ele>99.6</ele>
        <time>2013-08-13T19:50:47.617Z</time>
      </trkpt>
      <trkpt lat="48.85087" lon="2.34144">
        <ele>98.9</ele>
        <time>2013-08-13T19:50:50.595Z</time>
      </trkpt>
      <trkpt lat="48.85088" lon="2.34139">
        <ele>97.3</ele>
        <time>2013-08-13T19:50:51.614Z</time>
      </trkpt>
      <trkpt lat="48.85089" lon="2.34129">
        <ele>94.2</ele>
        <time>2013-08-13T19:50:53.605Z</time>
      </trkpt>
      <trkpt lat="48.8509" lon="2.34124">
        <ele>95.1</ele>
        <time>2013-08-13T19:50:54.617Z</time>
      </trkpt>
      <trkpt lat="48.85093" lon="2.34115">
        <ele>96.1</ele>
        <time>2013-08-13T19:50:56.619Z</time>
      </trkpt>
      <trkpt lat="48.85096" lon="2.3411">
        <ele>96.5</ele>
        <time>2013-08-13T19:50:57.608Z</time>
      </trkpt>
      <trkpt lat="48.85101" lon="2.341">
        <ele>95.5</ele>
        <time>2013-08-13T19:50:59.611Z</time>
      </trkpt>
      <trkpt lat="48.85104" lon="2.34094">
        <ele>95.5</ele>
        <time>2013-08-13T19:51:00.621Z</time>
      </trkpt>
      <trkpt lat="48.85107" lon="2.34087">
        <ele>95.5</ele>
        <time>2013-08-13T19:51:01.618Z</time>
      </trkpt>
      <trkpt lat="48.85109" lon="2.34081">
        <ele>96.6</ele>
        <time>2013-08-13T19:51:02.618Z</time>
      </trkpt>
      <trkpt lat="48.85112" lon="2.34075">
        <ele>96.9</ele>
        <time>2013-08-13T19:51:03.655Z</time>
      </trkpt>
      <trkpt lat="48.85116" lon="2.34066">
        <ele>96.4</ele>
        <time>2013-08-13T19:51:04.604Z</time>
      </trkpt>
      <trkpt lat="48.8512" lon="2.34058">
        <ele>97.1</ele>
        <time>2013-08-13T19:51:05.623Z</time>
      </trkpt>
      <trkpt lat="48.85124" lon="2.34052">
        <ele>96.8</ele>
        <time>2013-08-13T19:51:06.637Z</time>
      </trkpt>
      <trkpt lat="48.85127" lon="2.34047">
        <ele>96.5</ele>
        <time>2013-08-13T19:51:07.616Z</time>
      </trkpt>
      <trkpt lat="48.85131" lon="2.34042">
        <ele>95.1</ele>
        <time>2013-08-13T19:51:08.593Z</time>
      </trkpt>
      <trkpt lat="48.85137" lon="2.34033">
        <ele>96.3</ele>
        <time>2013-08-13T19:51:10.588Z</time>
      </trkpt>
      <trkpt lat="48.8514" lon="2.34028">
        <ele>96</ele>
        <time>2013-08-13T19:51:11.645Z</time>
      </trkpt>
      <trkpt lat="48.85146" lon="2.34022">
        <ele>97.4</ele>
        <time>2013-08-13T19:51:13.604Z</time>
      </trkpt>
      <trkpt lat="48.85148" lon="2.34018">
        <ele>94.9</ele>
        <time>2013-08-13T19:51:14.599Z</time>
      </trkpt>
      <trkpt lat="48.85152" lon="2.34009">
        <ele>92.9</ele>
        <time>2013-08-13T19:51:16.614Z</time>
      </trkpt>
      <trkpt lat="48.85155" lon="2.34004">
        <ele>92.3</ele>
        <time>2013-08-13T19:51:17.643Z</time>
      </trkpt>
      <trkpt lat="48.85159" lon="2.33997">
        <ele>91.9</ele>
        <time>2013-08-13T19:51:19.612Z</time>
      </trkpt>
      <trkpt lat="48.85162" lon="2.33993">
        <ele>91.9</ele>
        <time>2013-08-13T19:51:20.598Z</time>
      </trkpt>
      <trkpt lat="48.85167" lon="2.33986">
        <ele>91.1</ele>
        <time>2013-08-13T19:51:22.618Z</time>
      </trkpt>
      <trkpt lat="48.85169" lon="2.33983">
        <ele>89.4</ele>
        <time>2013-08-13T19:51:23.604Z</time>
      </trkpt>
      <trkpt lat="48.85176" lon="2.33974">
        <ele>87.1</ele>
        <time>2013-08-13T19:51:26.605Z</time>
      </trkpt>
      <trkpt lat="48.85178" lon="2.33971">
        <ele>87.2</ele>
        <time>2013-08-13T19:51:27.633Z</time>
      </trkpt>
      <trkpt lat="48.85182" lon="2.33961">
        <ele>86.6</ele>
        <time>2013-08-13T19:51:30.592Z</time>
      </trkpt>
      <trkpt lat="48.85182" lon="2.33957">
        <ele>86.3</ele>
        <time>2013-08-13T19:51:31.621Z</time>
      </trkpt>
      <trkpt lat="48.8518" lon="2.33947">
        <ele>85.3</ele>
        <time>2013-08-13T19:51:33.621Z</time>
      </trkpt>
      <trkpt lat="48.85177" lon="2.33943">
        <ele>83.9</ele>
        <time>2013-08-13T19:51:34.615Z</time>
      </trkpt>
      <trkpt lat="48.8517" lon="2.33935">
        <ele>83.4</ele>
        <time>2013-08-13T19:51:36.594Z</time>
      </trkpt>
      <trkpt lat="48.85166" lon="2.33931">
        <ele>83.4</ele>
        <time>2013-08-13T19:51:37.624Z</time>
      </trkpt>
      <trkpt lat="48.85159" lon="2.33924">
        <ele>83.6</ele>
        <time>2013-08-13T19:51:39.625Z</time>
      </trkpt>
      <trkpt lat="48.85157" lon="2.3392">
        <ele>83.6</ele>
        <time>2013-08-13T19:51:40.615Z</time>
      </trkpt>
      <trkpt lat="48.85152" lon="2.33913">
        <ele>83</ele>
        <time>2013-08-13T19:51:42.623Z</time>
      </trkpt>
      <trkpt lat="48.8515" lon="2.33908">
        <ele>84.7</ele>
        <time>2013-08-13T19:51:43.600Z</time>
      </trkpt>
      <trkpt lat="48.85151" lon="2.33898">
        <ele>85.9</ele>
        <time>2013-08-13T19:51:45.594Z</time>
      </trkpt>
      <trkpt lat="48.85153" lon="2.33894">
        <ele>85.9</ele>
        <time>2013-08-13T19:51:46.597Z</time>
      </trkpt>
      <trkpt lat="48.85159" lon="2.33887">
        <ele>86.7</ele>
        <time>2013-08-13T19:51:48.585Z</time>
      </trkpt>
      <trkpt lat="48.85163" lon="2.33885">
        <ele>86.7</ele>
        <time>2013-08-13T19:51:49.612Z</time>
      </trkpt>
      <trkpt lat="48.85169" lon="2.33883">
        <ele>87.2</ele>
        <time>2013-08-13T19:51:51.625Z</time>
      </trkpt>
      <trkpt lat="48.85173" lon="2.33882">
        <ele>88.5</ele>
        <time>2013-08-13T19:51:52.666Z</time>
      </trkpt>
      <trkpt lat="48.85181" lon="2.33883">
        <ele>89.5</ele>
        <time>2013-08-13T19:51:55.595Z</time>
      </trkpt>
      <trkpt lat="48.85183" lon="2.33883">
        <ele>91.7</ele>
        <time>2013-08-13T19:51:56.595Z</time>
      </trkpt>
      <trkpt lat="48.85182" lon="2.33885">
        <ele>92.8</ele>
        <time>2013-08-13T19:51:59.601Z</time>
      </trkpt>
      <trkpt lat="48.85181" lon="2.33885">
        <ele>93</ele>
        <time>2013-08-13T19:52:00.624Z</time>
      </trkpt>
      <trkpt lat="48.8518" lon="2.33884">
        <ele>92.1</ele>
        <time>2013-08-13T19:52:01.672Z</time>
      </trkpt>
      <trkpt lat="48.85181" lon="2.3387">
        <ele>97.1</ele>
        <time>2013-08-13T19:52:17.644Z</time>
      </trkpt>
      <trkpt lat="48.85181" lon="2.3387">
        <ele>97.1</ele>
        <time>2013-08-13T19:52:18.774Z</time>
      </trkpt>
      <trkpt lat="48.85181" lon="2.3387">
        <ele>97.2</ele>
        <time>2013-08-13T19:52:19.613Z</time>
      </trkpt>
      <trkpt lat="48.85181" lon="2.3387">
        <ele>97.2</ele>
        <time>2013-08-13T19:52:20.760Z</time>
      </trkpt>
      <trkpt lat="48.8518" lon="2.3387">
        <ele>98.2</ele>
        <time>2013-08-13T19:52:36.603Z</time>
      </trkpt>
      <trkpt lat="48.8518" lon="2.33869">
        <ele>97.4</ele>
        <time>2013-08-13T19:52:37.640Z</time>
      </trkpt>
      <trkpt lat="48.85178" lon="2.33857">
        <ele>98.6</ele>
        <time>2013-08-13T19:52:42.634Z</time>
      </trkpt>
      <trkpt lat="48.85176" lon="2.33855">
        <ele>100</ele>
        <time>2013-08-13T19:52:43.616Z</time>
      </trkpt>
      <trkpt lat="48.85169" lon="2.33849">
        <ele>101.1</ele>
        <time>2013-08-13T19:52:45.647Z</time>
      </trkpt>
      <trkpt lat="48.85166" lon="2.33847">
        <ele>102.8</ele>
        <time>2013-08-13T19:52:46.599Z</time>
      </trkpt>
      <trkpt lat="48.85158" lon="2.33842">
        <ele>102.3</ele>
        <time>2013-08-13T19:52:48.644Z</time>
      </trkpt>
      <trkpt lat="48.85154" lon="2.3384">
        <ele>103.3</ele>
        <time>2013-08-13T19:52:49.614Z</time>
      </trkpt>
      <trkpt lat="48.85147" lon="2.33834">
        <ele>105</ele>
        <time>2013-08-13T19:52:51.608Z</time>
      </trkpt>
      <trkpt lat="48.85144" lon="2.33831">
        <ele>106.2</ele>
        <time>2013-08-13T19:52:52.625Z</time>
      </trkpt>
      <trkpt lat="48.85143" lon="2.33822">
        <ele>107.8</ele>
        <time>2013-08-13T19:52:54.622Z</time>
      </trkpt>
      <trkpt lat="48.85143" lon="2.33817">
        <ele>107.9</ele>
        <time>2013-08-13T19:52:55.636Z</time>
      </trkpt>
      <trkpt lat="48.85143" lon="2.33808">
        <ele>106.9</ele>
        <time>2013-08-13T19:52:57.593Z</time>
      </trkpt>
      <trkpt lat="48.85143" lon="2.33802">
        <ele>105</ele>
        <time>2013-08-13T19:52:58.636Z</time>
      </trkpt>
      <trkpt lat="48.85143" lon="2.33792">
        <ele>102.5</ele>
        <time>2013-08-13T19:53:00.623Z</time>
      </trkpt>
      <trkpt lat="48.85143" lon="2.33787">
        <ele>101.9</ele>
        <time>2013-08-13T19:53:01.616Z</time>
      </trkpt>
      <trkpt lat="48.85143" lon="2.33777">
        <ele>102.9</ele>
        <time>2013-08-13T19:53:03.622Z</time>
      </trkpt>
      <trkpt lat="48.85142" lon="2.33772">
        <ele>103.9</ele>
        <time>2013-08-13T19:53:04.613Z</time>
      </trkpt>
      <trkpt lat="48.85141" lon="2.33762">
        <ele>103.5</ele>
        <time>2013-08-13T19:53:06.599Z</time>
      </trkpt>
      <trkpt lat="48.85139" lon="2.33758">
        <ele>103.1</ele>
        <time>2013-08-13T19:53:07.654Z</time>
      </trkpt>
      <trkpt lat="48.85134" lon="2.33746">
        <ele>102.4</ele>
        <time>2013-08-13T19:53:10.617Z</time>
      </trkpt>
      <trkpt lat="48.85132" lon="2.33744">
        <ele>102.6</ele>
        <time>2013-08-13T19:53:11.610Z</time>
      </trkpt>
      <trkpt lat="48.85124" lon="2.33744">
        <ele>103.3</ele>
        <time>2013-08-13T19:53:14.616Z</time>
      </trkpt>
      <trkpt lat="48.85121" lon="2.33745">
        <ele>103.5</ele>
        <time>2013-08-13T19:53:15.641Z</time>
      </trkpt>
      <trkpt lat="48.85117" lon="2.33747">
        <ele>101.2</ele>
        <time>2013-08-13T19:53:16.671Z</time>
      </trkpt>
      <trkpt lat="48.85112" lon="2.33749">
        <ele>101.2</ele>
        <time>2013-08-13T19:53:17.652Z</time>
      </trkpt>
      <trkpt lat="48.85108" lon="2.33751">
        <ele>100.7</ele>
        <time>2013-08-13T19:53:18.633Z</time>
      </trkpt>
      <trkpt lat="48.85103" lon="2.33752">
        <ele>100.1</ele>
        <time>2013-08-13T19:53:19.741Z</time>
      </trkpt>
      <trkpt lat="48.85098" lon="2.33752">
        <ele>96</ele>
        <time>2013-08-13T19:53:20.766Z</time>
      </trkpt>
      <trkpt lat="48.85093" lon="2.33751">
        <ele>95.4</ele>
        <time>2013-08-13T19:53:21.625Z</time>
      </trkpt>
      <trkpt lat="48.85088" lon="2.3375">
        <ele>95.1</ele>
        <time>2013-08-13T19:53:22.642Z</time>
      </trkpt>
      <trkpt lat="48.85083" lon="2.33749">
        <ele>94.1</ele>
        <time>2013-08-13T19:53:23.596Z</time>
      </trkpt>
      <trkpt lat="48.85075" lon="2.33748">
        <ele>93.8</ele>
        <time>2013-08-13T19:53:25.626Z</time>
      </trkpt>
      <trkpt lat="48.85071" lon="2.33748">
        <ele>93</ele>
        <time>2013-08-13T19:53:26.613Z</time>
      </trkpt>
      <trkpt lat="48.85066" lon="2.33746">
        <ele>93.3</ele>
        <time>2013-08-13T19:53:27.626Z</time>
      </trkpt>
      <trkpt lat="48.85062" lon="2.33745">
        <ele>94.9</ele>
        <time>2013-08-13T19:53:28.717Z</time>
      </trkpt>
      <trkpt lat="48.85054" lon="2.33745">
        <ele>95.1</ele>
        <time>2013-08-13T19:53:30.595Z</time>
      </trkpt>
      <trkpt lat="48.85049" lon="2.33745">
        <ele>94.7</ele>
        <time>2013-08-13T19:53:31.721Z</time>
      </trkpt>
      <trkpt lat="48.85041" lon="2.33746">
        <ele>95</ele>
        <time>2013-08-13T19:53:33.702Z</time>
      </trkpt>
      <trkpt lat="48.85037" lon="2.33747">
        <ele>95</ele>
        <time>2013-08-13T19:53:34.628Z</time>
      </trkpt>
      <trkpt lat="48.85027" lon="2.33748">
        <ele>95.3</ele>
        <time>2013-08-13T19:53:36.654Z</time>
      </trkpt>
      <trkpt lat="48.85022" lon="2.33747">
        <ele>94.6</ele>
        <time>2013-08-13T19:53:37.667Z</time>
      </trkpt>
      <trkpt lat="48.85018" lon="2.33746">
        <ele>94.2</ele>
        <time>2013-08-13T19:53:38.603Z</time>
      </trkpt>
      <trkpt lat="48.85013" lon="2.33747">
        <ele>93.3</ele>
        <time>2013-08-13T19:53:39.634Z</time>
      </trkpt>
      <trkpt lat="48.85008" lon="2.33748">
        <ele>93.9</ele>
        <time>2013-08-13T19:53:40.640Z</time>
      </trkpt>
      <trkpt lat="48.85004" lon="2.33748">
        <ele>93.5</ele>
        <time>2013-08-13T19:53:41.634Z</time>
      </trkpt>
      <trkpt lat="48.84999" lon="2.33748">
        <ele>93.1</ele>
        <time>2013-08-13T19:53:42.766Z</time>
      </trkpt>
      <trkpt lat="48.8499" lon="2.33751">
        <ele>92</ele>
        <time>2013-08-13T19:53:44.716Z</time>
      </trkpt>
      <trkpt lat="48.84986" lon="2.33752">
        <ele>93.4</ele>
        <time>2013-08-13T19:53:45.785Z</time>
      </trkpt>
      <trkpt lat="48.84978" lon="2.33754">
        <ele>92.5</ele>
        <time>2013-08-13T19:53:47.801Z</time>
      </trkpt>
      <trkpt lat="48.84974" lon="2.33754">
        <ele>92.4</ele>
        <time>2013-08-13T19:53:48.637Z</time>
      </trkpt>
      <trkpt lat="48.84965" lon="2.33755">
        <ele>93.5</ele>
        <time>2013-08-13T19:53:50.705Z</time>
      </trkpt>
      <trkpt lat="48.84961" lon="2.33755">
        <ele>94.5</ele>
        <time>2013-08-13T19:53:51.788Z</time>
      </trkpt>
      <trkpt lat="48.84954" lon="2.33755">
        <ele>95.1</ele>
        <time>2013-08-13T19:53:53.617Z</time>
      </trkpt>
      <trkpt lat="48.8495" lon="2.33754">
        <ele>96.3</ele>
        <time>2013-08-13T19:53:54.612Z</time>
      </trkpt>
      <trkpt lat="48.84944" lon="2.33752">
        <ele>98.7</ele>
        <time>2013-08-13T19:53:56.634Z</time>
      </trkpt>
      <trkpt lat="48.84941" lon="2.33751">
        <ele>99.7</ele>
        <time>2013-08-13T19:53:57.615Z</time>
      </trkpt>
      <trkpt lat="48.84933" lon="2.33749">
        <ele>100</ele>
        <time>2013-08-13T19:54:01.639Z</time>
      </trkpt>
      <trkpt lat="48.84932" lon="2.33748">
        <ele>99.8</ele>
        <time>2013-08-13T19:54:02.632Z</time>
      </trkpt>
      <trkpt lat="48.84934" lon="2.33736">
        <ele>97.2</ele>
        <time>2013-08-13T19:54:18.632Z</time>
      </trkpt>
      <trkpt lat="48.84934" lon="2.33735">
        <ele>97.8</ele>
        <time>2013-08-13T19:54:19.635Z</time>
      </trkpt>
      <trkpt lat="48.84934" lon="2.33721">
        <ele>98.4</ele>
        <time>2013-08-13T19:54:23.615Z</time>
      </trkpt>
      <trkpt lat="48.84935" lon="2.33717">
        <ele>97.8</ele>
        <time>2013-08-13T19:54:24.624Z</time>
      </trkpt>
      <trkpt lat="48.84935" lon="2.33706">
        <ele>91.4</ele>
        <time>2013-08-13T19:54:26.618Z</time>
      </trkpt>
      <trkpt lat="48.84935" lon="2.33699">
        <ele>89.2</ele>
        <time>2013-08-13T19:54:27.643Z</time>
      </trkpt>
      <trkpt lat="48.84935" lon="2.33692">
        <ele>86.2</ele>
        <time>2013-08-13T19:54:28.665Z</time>
      </trkpt>
      <trkpt lat="48.84935" lon="2.33684">
        <ele>84.8</ele>
        <time>2013-08-13T19:54:29.618Z</time>
      </trkpt>
      <trkpt lat="48.84934" lon="2.33676">
        <ele>84.8</ele>
        <time>2013-08-13T19:54:30.635Z</time>
      </trkpt>
      <trkpt lat="48.84934" lon="2.33669">
        <ele>84.3</ele>
        <time>2013-08-13T19:54:31.617Z</time>
      </trkpt>
      <trkpt lat="48.84933" lon="2.33656">
        <ele>85.5</ele>
        <time>2013-08-13T19:54:33.608Z</time>
      </trkpt>
      <trkpt lat="48.84932" lon="2.33649">
        <ele>86.7</ele>
        <time>2013-08-13T19:54:34.725Z</time>
      </trkpt>
      <trkpt lat="48.8493" lon="2.33637">
        <ele>87.5</ele>
        <time>2013-08-13T19:54:36.624Z</time>
      </trkpt>
      <trkpt lat="48.84929" lon="2.3363">
        <ele>86.8</ele>
        <time>2013-08-13T19:54:37.599Z</time>
      </trkpt>
      <trkpt lat="48.84927" lon="2.33618">
        <ele>86.2</ele>
        <time>2013-08-13T19:54:39.627Z</time>
      </trkpt>
      <trkpt lat="48.84927" lon="2.33612">
        <ele>85.9</ele>
        <time>2013-08-13T19:54:40.628Z</time>
      </trkpt>
      <trkpt lat="48.84926" lon="2.336">
        <ele>85</ele>
        <time>2013-08-13T19:54:42.630Z</time>
      </trkpt>
      <trkpt lat="48.84926" lon="2.33593">
        <ele>84.2</ele>
        <time>2013-08-13T19:54:43.623Z</time>
      </trkpt>
      <trkpt lat="48.84926" lon="2.33586">
        <ele>83.1</ele>
        <time>2013-08-13T19:54:44.644Z</time>
      </trkpt>
      <trkpt lat="48.84925" lon="2.33579">
        <ele>83.5</ele>
        <time>2013-08-13T19:54:45.666Z</time>
      </trkpt>
      <trkpt lat="48.84925" lon="2.33571">
        <ele>83.5</ele>
        <time>2013-08-13T19:54:46.651Z</time>
      </trkpt>
      <trkpt lat="48.84925" lon="2.33563">
        <ele>83.8</ele>
        <time>2013-08-13T19:54:47.646Z</time>
      </trkpt>
      <trkpt lat="48.84926" lon="2.33555">
        <ele>84.8</ele>
        <time>2013-08-13T19:54:48.622Z</time>
      </trkpt>
      <trkpt lat="48.84925" lon="2.33543">
        <ele>84.9</ele>
        <time>2013-08-13T19:54:49.682Z</time>
      </trkpt>
      <trkpt lat="48.84924" lon="2.33533">
        <ele>86.7</ele>
        <time>2013-08-13T19:54:50.620Z</time>
      </trkpt>
      <trkpt lat="48.84924" lon="2.33524">
        <ele>86.5</ele>
        <time>2013-08-13T19:54:51.630Z</time>
      </trkpt>
      <trkpt lat="48.84923" lon="2.33515">
        <ele>86.4</ele>
        <time>2013-08-13T19:54:52.641Z</time>
      </trkpt>
      <trkpt lat="48.84922" lon="2.33507">
        <ele>85.6</ele>
        <time>2013-08-13T19:54:53.632Z</time>
      </trkpt>
      <trkpt lat="48.8492" lon="2.33499">
        <ele>85.1</ele>
        <time>2013-08-13T19:54:54.647Z</time>
      </trkpt>
      <trkpt lat="48.84919" lon="2.33491">
        <ele>86.3</ele>
        <time>2013-08-13T19:54:55.646Z</time>
      </trkpt>
      <trkpt lat="48.84916" lon="2.33485">
        <ele>85.7</ele>
        <time>2013-08-13T19:54:56.631Z</time>
      </trkpt>
      <trkpt lat="48.84914" lon="2.33478">
        <ele>84.6</ele>
        <time>2013-08-13T19:54:57.633Z</time>
      </trkpt>
      <trkpt lat="48.84913" lon="2.33467">
        <ele>82.4</ele>
        <time>2013-08-13T19:54:59.644Z</time>
      </trkpt>
      <trkpt lat="48.84912" lon="2.33462">
        <ele>84.2</ele>
        <time>2013-08-13T19:55:00.623Z</time>
      </trkpt>
      <trkpt lat="48.84911" lon="2.3345">
        <ele>84.1</ele>
        <time>2013-08-13T19:55:02.658Z</time>
      </trkpt>
      <trkpt lat="48.8491" lon="2.33444">
        <ele>83.9</ele>
        <time>2013-08-13T19:55:03.656Z</time>
      </trkpt>
      <trkpt lat="48.84908" lon="2.33432">
        <ele>87.5</ele>
        <time>2013-08-13T19:55:05.657Z</time>
      </trkpt>
      <trkpt lat="48.84906" lon="2.33427">
        <ele>88.6</ele>
        <time>2013-08-13T19:55:06.610Z</time>
      </trkpt>
      <trkpt lat="48.84904" lon="2.3342">
        <ele>87.8</ele>
        <time>2013-08-13T19:55:07.654Z</time>
      </trkpt>
      <trkpt lat="48.84901" lon="2.33413">
        <ele>87.6</ele>
        <time>2013-08-13T19:55:08.615Z</time>
      </trkpt>
      <trkpt lat="48.849" lon="2.33405">
        <ele>88.5</ele>
        <time>2013-08-13T19:55:09.654Z</time>
      </trkpt>
      <trkpt lat="48.84897" lon="2.33397">
        <ele>88.9</ele>
        <time>2013-08-13T19:55:10.626Z</time>
      </trkpt>
      <trkpt lat="48.84894" lon="2.33389">
        <ele>88.8</ele>
        <time>2013-08-13T19:55:11.637Z</time>
      </trkpt>
      <trkpt lat="48.84893" lon="2.33382">
        <ele>88.2</ele>
        <time>2013-08-13T19:55:12.657Z</time>
      </trkpt>
      <trkpt lat="48.84892" lon="2.33369">
        <ele>88.1</ele>
        <time>2013-08-13T19:55:14.655Z</time>
      </trkpt>
      <trkpt lat="48.8489" lon="2.33363">
        <ele>88.9</ele>
        <time>2013-08-13T19:55:15.615Z</time>
      </trkpt>
      <trkpt lat="48.84889" lon="2.33357">
        <ele>89.9</ele>
        <time>2013-08-13T19:55:16.596Z</time>
      </trkpt>
      <trkpt lat="48.84884" lon="2.33334">
        <ele>89.6</ele>
        <time>2013-08-13T19:55:20.605Z</time>
      </trkpt>
      <trkpt lat="48.84882" lon="2.33323">
        <ele>90.8</ele>
        <time>2013-08-13T19:55:22.614Z</time>
      </trkpt>
      <trkpt lat="48.8488" lon="2.33316">
        <ele>90.7</ele>
        <time>2013-08-13T19:55:23.603Z</time>
      </trkpt>
      <trkpt lat="48.84876" lon="2.33304">
        <ele>92.3</ele>
        <time>2013-08-13T19:55:25.695Z</time>
      </trkpt>
      <trkpt lat="48.84875" lon="2.33299">
        <ele>91.9</ele>
        <time>2013-08-13T19:55:26.658Z</time>
      </trkpt>
      <trkpt lat="48.84873" lon="2.33289">
        <ele>90.8</ele>
        <time>2013-08-13T19:55:28.623Z</time>
      </trkpt>
      <trkpt lat="48.84871" lon="2.33284">
        <ele>92.4</ele>
        <time>2013-08-13T19:55:29.633Z</time>
      </trkpt>
      <trkpt lat="48.84867" lon="2.33273">
        <ele>96</ele>
        <time>2013-08-13T19:55:32.645Z</time>
      </trkpt>
      <trkpt lat="48.84865" lon="2.3327">
        <ele>96.1</ele>
        <time>2013-08-13T19:55:33.636Z</time>
      </trkpt>
      <trkpt lat="48.84858" lon="2.3327">
        <ele>96.4</ele>
        <time>2013-08-13T19:55:45.784Z</time>
      </trkpt>
      <trkpt lat="48.84856" lon="2.33268">
        <ele>98.1</ele>
        <time>2013-08-13T19:55:46.794Z</time>
      </trkpt>
      <trkpt lat="48.8485" lon="2.33264">
        <ele>98.8</ele>
        <time>2013-08-13T19:55:48.803Z</time>
      </trkpt>
      <trkpt lat="48.84846" lon="2.33263">
        <ele>98.8</ele>
        <time>2013-08-13T19:55:49.656Z</time>
      </trkpt>
      <trkpt lat="48.84838" lon="2.33262">
        <ele>99</ele>
        <time>2013-08-13T19:55:51.645Z</time>
      </trkpt>
      <trkpt lat="48.84833" lon="2.33262">
        <ele>100.6</ele>
        <time>2013-08-13T19:55:52.685Z</time>
      </trkpt>
      <trkpt lat="48.84829" lon="2.33264">
        <ele>100.9</ele>
        <time>2013-08-13T19:55:53.666Z</time>
      </trkpt>
      <trkpt lat="48.84824" lon="2.33265">
        <ele>102.9</ele>
        <time>2013-08-13T19:55:54.762Z</time>
      </trkpt>
      <trkpt lat="48.84816" lon="2.33268">
        <ele>104.5</ele>
        <time>2013-08-13T19:55:56.691Z</time>
      </trkpt>
      <trkpt lat="48.84811" lon="2.33269">
        <ele>104.8</ele>
        <time>2013-08-13T19:55:57.756Z</time>
      </trkpt>
      <trkpt lat="48.84803" lon="2.3327">
        <ele>104.7</ele>
        <time>2013-08-13T19:55:59.756Z</time>
      </trkpt>
      <trkpt lat="48.84799" lon="2.33269">
        <ele>107.2</ele>
        <time>2013-08-13T19:56:00.631Z</time>
      </trkpt>
      <trkpt lat="48.84794" lon="2.33269">
        <ele>108.4</ele>
        <time>2013-08-13T19:56:01.761Z</time>
      </trkpt>
      <trkpt lat="48.84789" lon="2.33271">
        <ele>110.1</ele>
        <time>2013-08-13T19:56:02.635Z</time>
      </trkpt>
      <trkpt lat="48.84784" lon="2.33272">
        <ele>111.7</ele>
        <time>2013-08-13T19:56:03.614Z</time>
      </trkpt>
      <trkpt lat="48.84779" lon="2.33274">
        <ele>113.2</ele>
        <time>2013-08-13T19:56:04.662Z</time>
      </trkpt>
      <trkpt lat="48.84774" lon="2.33275">
        <ele>114.7</ele>
        <time>2013-08-13T19:56:05.643Z</time>
      </trkpt>
      <trkpt lat="48.8477" lon="2.33276">
        <ele>114.6</ele>
        <time>2013-08-13T19:56:06.633Z</time>
      </trkpt>
      <trkpt lat="48.84763" lon="2.33276">
        <ele>114.7</ele>
        <time>2013-08-13T19:56:08.637Z</time>
      </trkpt>
      <trkpt lat="48.8476" lon="2.33276">
        <ele>114.7</ele>
        <time>2013-08-13T19:56:09.617Z</time>
      </trkpt>
      <trkpt lat="48.84753" lon="2.33274">
        <ele>116.6</ele>
        <time>2013-08-13T19:56:11.617Z</time>
      </trkpt>
      <trkpt lat="48.84749" lon="2.33274">
        <ele>115.9</ele>
        <time>2013-08-13T19:56:12.633Z</time>
      </trkpt>
      <trkpt lat="48.84741" lon="2.33275">
        <ele>119.4</ele>
        <time>2013-08-13T19:56:14.646Z</time>
      </trkpt>
      <trkpt lat="48.84736" lon="2.33276">
        <ele>119.5</ele>
        <time>2013-08-13T19:56:15.644Z</time>
      </trkpt>
      <trkpt lat="48.84731" lon="2.33277">
        <ele>119.3</ele>
        <time>2013-08-13T19:56:16.614Z</time>
      </trkpt>
      <trkpt lat="48.84725" lon="2.33278">
        <ele>119.2</ele>
        <time>2013-08-13T19:56:17.607Z</time>
      </trkpt>
      <trkpt lat="48.8472" lon="2.33278">
        <ele>119</ele>
        <time>2013-08-13T19:56:18.614Z</time>
      </trkpt>
      <trkpt lat="48.84715" lon="2.33278">
        <ele>119</ele>
        <time>2013-08-13T19:56:19.645Z</time>
      </trkpt>
      <trkpt lat="48.8471" lon="2.33277">
        <ele>117.7</ele>
        <time>2013-08-13T19:56:20.614Z</time>
      </trkpt>
      <trkpt lat="48.84705" lon="2.33277">
        <ele>117.9</ele>
        <time>2013-08-13T19:56:21.643Z</time>
      </trkpt>
      <trkpt lat="48.84699" lon="2.33275">
        <ele>116.7</ele>
        <time>2013-08-13T19:56:22.677Z</time>
      </trkpt>
      <trkpt lat="48.84693" lon="2.33273">
        <ele>114.5</ele>
        <time>2013-08-13T19:56:23.683Z</time>
      </trkpt>
      <trkpt lat="48.84688" lon="2.33271">
        <ele>114.1</ele>
        <time>2013-08-13T19:56:24.751Z</time>
      </trkpt>
      <trkpt lat="48.84683" lon="2.3327">
        <ele>113.8</ele>
        <time>2013-08-13T19:56:25.648Z</time>
      </trkpt>
      <trkpt lat="48.84677" lon="2.33269">
        <ele>114.3</ele>
        <time>2013-08-13T19:56:26.795Z</time>
      </trkpt>
      <trkpt lat="48.84672" lon="2.33269">
        <ele>114.5</ele>
        <time>2013-08-13T19:56:27.737Z</time>
      </trkpt>
      <trkpt lat="48.84666" lon="2.3327">
        <ele>114.5</ele>
        <time>2013-08-13T19:56:28.689Z</time>
      </trkpt>
      <trkpt lat="48.8466" lon="2.3327">
        <ele>115.5</ele>
        <time>2013-08-13T19:56:29.719Z</time>
      </trkpt>
      <trkpt lat="48.84654" lon="2.3327">
        <ele>115.6</ele>
        <time>2013-08-13T19:56:30.682Z</time>
      </trkpt>
      <trkpt lat="48.8465" lon="2.33271">
        <ele>116.9</ele>
        <time>2013-08-13T19:56:31.764Z</time>
      </trkpt>
      <trkpt lat="48.84642" lon="2.33267">
        <ele>117.9</ele>
        <time>2013-08-13T19:56:34.707Z</time>
      </trkpt>
      <trkpt lat="48.84638" lon="2.33266">
        <ele>117.1</ele>
        <time>2013-08-13T19:56:35.745Z</time>
      </trkpt>
      <trkpt lat="48.84631" lon="2.33268">
        <ele>115.9</ele>
        <time>2013-08-13T19:56:37.673Z</time>
      </trkpt>
      <trkpt lat="48.84626" lon="2.33268">
        <ele>115.5</ele>
        <time>2013-08-13T19:56:38.961Z</time>
      </trkpt>
      <trkpt lat="48.84617" lon="2.33267">
        <ele>115.4</ele>
        <time>2013-08-13T19:56:40.804Z</time>
      </trkpt>
      <trkpt lat="48.84613" lon="2.33267">
        <ele>115.4</ele>
        <time>2013-08-13T19:56:41.631Z</time>
      </trkpt>
      <trkpt lat="48.84608" lon="2.33266">
        <ele>116.1</ele>
        <time>2013-08-13T19:56:42.737Z</time>
      </trkpt>
      <trkpt lat="48.84603" lon="2.33265">
        <ele>116</ele>
        <time>2013-08-13T19:56:43.690Z</time>
      </trkpt>
      <trkpt lat="48.84595" lon="2.33263">
        <ele>115.2</ele>
        <time>2013-08-13T19:56:45.712Z</time>
      </trkpt>
      <trkpt lat="48.84592" lon="2.33262">
        <ele>115.6</ele>
        <time>2013-08-13T19:56:46.673Z</time>
      </trkpt>
      <trkpt lat="48.84585" lon="2.33263">
        <ele>116.8</ele>
        <time>2013-08-13T19:56:48.641Z</time>
      </trkpt>
      <trkpt lat="48.84582" lon="2.33264">
        <ele>116.3</ele>
        <time>2013-08-13T19:56:49.608Z</time>
      </trkpt>
      <trkpt lat="48.84574" lon="2.33265">
        <ele>116.7</ele>
        <time>2013-08-13T19:56:51.642Z</time>
      </trkpt>
      <trkpt lat="48.8457" lon="2.33265">
        <ele>118.1</ele>
        <time>2013-08-13T19:56:52.615Z</time>
      </trkpt>
      <trkpt lat="48.84563" lon="2.33263">
        <ele>117.5</ele>
        <time>2013-08-13T19:56:54.708Z</time>
      </trkpt>
      <trkpt lat="48.84559" lon="2.33262">
        <ele>118.2</ele>
        <time>2013-08-13T19:56:55.645Z</time>
      </trkpt>
      <trkpt lat="48.8455" lon="2.3326">
        <ele>117</ele>
        <time>2013-08-13T19:56:57.654Z</time>
      </trkpt>
      <trkpt lat="48.84545" lon="2.3326">
        <ele>117.8</ele>
        <time>2013-08-13T19:56:58.786Z</time>
      </trkpt>
      <trkpt lat="48.8454" lon="2.33261">
        <ele>119.7</ele>
        <time>2013-08-13T19:56:59.758Z</time>
      </trkpt>
      <trkpt lat="48.84535" lon="2.33262">
        <ele>119.9</ele>
        <time>2013-08-13T19:57:00.714Z</time>
      </trkpt>
      <trkpt lat="48.8453" lon="2.33263">
        <ele>119.1</ele>
        <time>2013-08-13T19:57:01.801Z</time>
      </trkpt>
      <trkpt lat="48.84526" lon="2.33265">
        <ele>118.8</ele>
        <time>2013-08-13T19:57:02.643Z</time>
      </trkpt>
      <trkpt lat="48.84518" lon="2.33267">
        <ele>119</ele>
        <time>2013-08-13T19:57:04.662Z</time>
      </trkpt>
      <trkpt lat="48.84515" lon="2.33268">
        <ele>120.5</ele>
        <time>2013-08-13T19:57:05.754Z</time>
      </trkpt>
      <trkpt lat="48.84508" lon="2.33272">
        <ele>123</ele>
        <time>2013-08-13T19:57:07.753Z</time>
      </trkpt>
      <trkpt lat="48.84505" lon="2.33273">
        <ele>124.1</ele>
        <time>2013-08-13T19:57:08.655Z</time>
      </trkpt>
      <trkpt lat="48.84498" lon="2.33278">
        <ele>123.3</ele>
        <time>2013-08-13T19:57:10.648Z</time>
      </trkpt>
      <trkpt lat="48.84495" lon="2.3328">
        <ele>118.5</ele>
        <time>2013-08-13T19:57:11.642Z</time>
      </trkpt>
      <trkpt lat="48.84486" lon="2.33278">
        <ele>113.1</ele>
        <time>2013-08-13T19:57:14.723Z</time>
      </trkpt>
      <trkpt lat="48.84483" lon="2.33275">
        <ele>111</ele>
        <time>2013-08-13T19:57:15.640Z</time>
      </trkpt>
      <trkpt lat="48.84478" lon="2.33266">
        <ele>110.1</ele>
        <time>2013-08-13T19:57:17.633Z</time>
      </trkpt>
      <trkpt lat="48.84476" lon="2.33262">
        <ele>110.7</ele>
        <time>2013-08-13T19:57:18.610Z</time>
      </trkpt>
      <trkpt lat="48.8447" lon="2.33253">
        <ele>111.1</ele>
        <time>2013-08-13T19:57:20.612Z</time>
      </trkpt>
      <trkpt lat="48.84467" lon="2.33249">
        <ele>109.6</ele>
        <time>2013-08-13T19:57:21.610Z</time>
      </trkpt>
      <trkpt lat="48.84462" lon="2.33239">
        <ele>109.4</ele>
        <time>2013-08-13T19:57:23.617Z</time>
      </trkpt>
      <trkpt lat="48.84459" lon="2.33234">
        <ele>107.9</ele>
        <time>2013-08-13T19:57:24.610Z</time>
      </trkpt>
      <trkpt lat="48.84454" lon="2.33224">
        <ele>108.7</ele>
        <time>2013-08-13T19:57:26.613Z</time>
      </trkpt>
      <trkpt lat="48.8445" lon="2.3322">
        <ele>107.8</ele>
        <time>2013-08-13T19:57:27.610Z</time>
      </trkpt>
      <trkpt lat="48.84444" lon="2.33212">
        <ele>105.3</ele>
        <time>2013-08-13T19:57:29.611Z</time>
      </trkpt>
      <trkpt lat="48.8444" lon="2.33208">
        <ele>104.5</ele>
        <time>2013-08-13T19:57:30.631Z</time>
      </trkpt>
      <trkpt lat="48.84435" lon="2.33199">
        <ele>103.6</ele>
        <time>2013-08-13T19:57:32.668Z</time>
      </trkpt>
      <trkpt lat="48.84433" lon="2.33193">
        <ele>102</ele>
        <time>2013-08-13T19:57:33.683Z</time>
      </trkpt>
      <trkpt lat="48.84429" lon="2.33181">
        <ele>100.8</ele>
        <time>2013-08-13T19:57:35.646Z</time>
      </trkpt>
      <trkpt lat="48.84427" lon="2.33175">
        <ele>100.8</ele>
        <time>2013-08-13T19:57:36.663Z</time>
      </trkpt>
      <trkpt lat="48.84424" lon="2.3317">
        <ele>101.4</ele>
        <time>2013-08-13T19:57:37.620Z</time>
      </trkpt>
      <trkpt lat="48.84421" lon="2.33165">
        <ele>100.8</ele>
        <time>2013-08-13T19:57:38.669Z</time>
      </trkpt>
      <trkpt lat="48.84418" lon="2.3316">
        <ele>101.9</ele>
        <time>2013-08-13T19:57:39.612Z</time>
      </trkpt>
      <trkpt lat="48.84415" lon="2.33154">
        <ele>100.9</ele>
        <time>2013-08-13T19:57:40.684Z</time>
      </trkpt>
      <trkpt lat="48.84413" lon="2.33148">
        <ele>100.6</ele>
        <time>2013-08-13T19:57:41.654Z</time>
      </trkpt>
      <trkpt lat="48.8441" lon="2.33142">
        <ele>99.9</ele>
        <time>2013-08-13T19:57:42.638Z</time>
      </trkpt>
      <trkpt lat="48.84406" lon="2.33131">
        <ele>97.9</ele>
        <time>2013-08-13T19:57:44.663Z</time>
      </trkpt>
      <trkpt lat="48.84403" lon="2.33125">
        <ele>99.9</ele>
        <time>2013-08-13T19:57:45.638Z</time>
      </trkpt>
      <trkpt lat="48.84399" lon="2.33114">
        <ele>101.1</ele>
        <time>2013-08-13T19:57:47.664Z</time>
      </trkpt>
      <trkpt lat="48.84397" lon="2.33109">
        <ele>102.5</ele>
        <time>2013-08-13T19:57:48.643Z</time>
      </trkpt>
      <trkpt lat="48.84393" lon="2.33099">
        <ele>103.5</ele>
        <time>2013-08-13T19:57:50.633Z</time>
      </trkpt>
      <trkpt lat="48.84392" lon="2.33093">
        <ele>105.3</ele>
        <time>2013-08-13T19:57:51.646Z</time>
      </trkpt>
      <trkpt lat="48.84392" lon="2.3308">
        <ele>104.4</ele>
        <time>2013-08-13T19:57:53.664Z</time>
      </trkpt>
      <trkpt lat="48.84391" lon="2.33073">
        <ele>104.7</ele>
        <time>2013-08-13T19:57:54.732Z</time>
      </trkpt>
      <trkpt lat="48.84388" lon="2.33061">
        <ele>106.6</ele>
        <time>2013-08-13T19:57:56.625Z</time>
      </trkpt>
      <trkpt lat="48.84386" lon="2.33054">
        <ele>106.8</ele>
        <time>2013-08-13T19:57:57.645Z</time>
      </trkpt>
      <trkpt lat="48.84383" lon="2.33049">
        <ele>107.1</ele>
        <time>2013-08-13T19:57:58.644Z</time>
      </trkpt>
      <trkpt lat="48.84379" lon="2.33043">
        <ele>107.3</ele>
        <time>2013-08-13T19:57:59.811Z</time>
      </trkpt>
      <trkpt lat="48.84373" lon="2.33035">
        <ele>107.5</ele>
        <time>2013-08-13T19:58:01.662Z</time>
      </trkpt>
      <trkpt lat="48.8437" lon="2.33031">
        <ele>108</ele>
        <time>2013-08-13T19:58:02.674Z</time>
      </trkpt>
      <trkpt lat="48.84366" lon="2.33027">
        <ele>106.4</ele>
        <time>2013-08-13T19:58:03.755Z</time>
      </trkpt>
      <trkpt lat="48.84362" lon="2.33023">
        <ele>105.8</ele>
        <time>2013-08-13T19:58:04.868Z</time>
      </trkpt>
      <trkpt lat="48.84355" lon="2.33017">
        <ele>104.1</ele>
        <time>2013-08-13T19:58:06.677Z</time>
      </trkpt>
      <trkpt lat="48.84351" lon="2.33014">
        <ele>105.1</ele>
        <time>2013-08-13T19:58:07.636Z</time>
      </trkpt>
      <trkpt lat="48.84347" lon="2.3301">
        <ele>104.5</ele>
        <time>2013-08-13T19:58:08.692Z</time>
      </trkpt>
      <trkpt lat="48.84344" lon="2.33006">
        <ele>105.1</ele>
        <time>2013-08-13T19:58:09.664Z</time>
      </trkpt>
      <trkpt lat="48.84337" lon="2.32999">
        <ele>108.3</ele>
        <time>2013-08-13T19:58:11.659Z</time>
      </trkpt>
      <trkpt lat="48.84334" lon="2.32995">
        <ele>108.6</ele>
        <time>2013-08-13T19:58:12.644Z</time>
      </trkpt>
      <trkpt lat="48.84328" lon="2.32989">
        <ele>109.5</ele>
        <time>2013-08-13T19:58:14.623Z</time>
      </trkpt>
      <trkpt lat="48.84325" lon="2.32987">
        <ele>109.1</ele>
        <time>2013-08-13T19:58:15.637Z</time>
      </trkpt>
      <trkpt lat="48.84317" lon="2.3298">
        <ele>107.1</ele>
        <time>2013-08-13T19:58:18.644Z</time>
      </trkpt>
      <trkpt lat="48.84315" lon="2.32978">
        <ele>107</ele>
        <time>2013-08-13T19:58:19.653Z</time>
      </trkpt>
      <trkpt lat="48.84314" lon="2.32965">
        <ele>106.6</ele>
        <time>2013-08-13T19:58:25.645Z</time>
      </trkpt>
      <trkpt lat="48.84313" lon="2.32963">
        <ele>106.8</ele>
        <time>2013-08-13T19:58:26.644Z</time>
      </trkpt>
      <trkpt lat="48.84315" lon="2.32962">
        <ele>106.6</ele>
        <time>2013-08-13T19:58:32.635Z</time>
      </trkpt>
      <trkpt lat="48.84315" lon="2.32962">
        <ele>106.6</ele>
        <time>2013-08-13T19:58:33.643Z</time>
      </trkpt>
      <trkpt lat="48.84316" lon="2.3296">
        <ele>105.3</ele>
        <time>2013-08-13T20:00:19.585Z</time>
      </trkpt>
      <trkpt lat="48.84316" lon="2.32959">
        <ele>105.5</ele>
        <time>2013-08-13T20:00:20.576Z</time>
      </trkpt>
      <trkpt lat="48.84312" lon="2.3295">
        <ele>103</ele>
        <time>2013-08-13T20:00:24.573Z</time>
      </trkpt>
      <trkpt lat="48.8431" lon="2.32948">
        <ele>103.1</ele>
        <time>2013-08-13T20:00:25.547Z</time>
      </trkpt>
      <trkpt lat="48.84303" lon="2.32941">
        <ele>107</ele>
        <time>2013-08-13T20:00:28.668Z</time>
      </trkpt>
      <trkpt lat="48.84301" lon="2.3294">
        <ele>108.7</ele>
        <time>2013-08-13T20:00:29.590Z</time>
      </trkpt>
      <trkpt lat="48.84295" lon="2.32938">
        <ele>108.5</ele>
        <time>2013-08-13T20:00:31.569Z</time>
      </trkpt>
      <trkpt lat="48.84292" lon="2.32937">
        <ele>112</ele>
        <time>2013-08-13T20:00:32.682Z</time>
      </trkpt>
      <trkpt lat="48.84286" lon="2.32933">
        <ele>111</ele>
        <time>2013-08-13T20:00:34.607Z</time>
      </trkpt>
      <trkpt lat="48.84283" lon="2.3293">
        <ele>110.9</ele>
        <time>2013-08-13T20:00:35.664Z</time>
      </trkpt>
      <trkpt lat="48.84279" lon="2.32923">
        <ele>110.6</ele>
        <time>2013-08-13T20:00:37.572Z</time>
      </trkpt>
      <trkpt lat="48.84277" lon="2.32919">
        <ele>111.3</ele>
        <time>2013-08-13T20:00:38.572Z</time>
      </trkpt>
      <trkpt lat="48.84273" lon="2.32912">
        <ele>111.5</ele>
        <time>2013-08-13T20:00:40.559Z</time>
      </trkpt>
      <trkpt lat="48.84271" lon="2.32908">
        <ele>111.4</ele>
        <time>2013-08-13T20:00:41.682Z</time>
      </trkpt>
      <trkpt lat="48.84266" lon="2.32901">
        <ele>111.5</ele>
        <time>2013-08-13T20:00:43.538Z</time>
      </trkpt>
      <trkpt lat="48.84264" lon="2.32898">
        <ele>111.8</ele>
        <time>2013-08-13T20:00:44.584Z</time>
      </trkpt>
      <trkpt lat="48.8426" lon="2.3289">
        <ele>111</ele>
        <time>2013-08-13T20:00:46.570Z</time>
      </trkpt>
      <trkpt lat="48.84258" lon="2.32886">
        <ele>110.1</ele>
        <time>2013-08-13T20:00:47.567Z</time>
      </trkpt>
      <trkpt lat="48.84255" lon="2.32875">
        <ele>110</ele>
        <time>2013-08-13T20:00:49.557Z</time>
      </trkpt>
      <trkpt lat="48.84254" lon="2.3287">
        <ele>108.7</ele>
        <time>2013-08-13T20:00:50.585Z</time>
      </trkpt>
      <trkpt lat="48.84251" lon="2.32859">
        <ele>110.6</ele>
        <time>2013-08-13T20:00:52.564Z</time>
      </trkpt>
      <trkpt lat="48.8425" lon="2.32856">
        <ele>109.7</ele>
        <time>2013-08-13T20:00:53.553Z</time>
      </trkpt>
      <trkpt lat="48.84247" lon="2.32849">
        <ele>113.3</ele>
        <time>2013-08-13T20:01:16.583Z</time>
      </trkpt>
      <trkpt lat="48.84247" lon="2.32849">
        <ele>113.4</ele>
        <time>2013-08-13T20:01:17.595Z</time>
      </trkpt>
      <trkpt lat="48.84247" lon="2.32848">
        <ele>114.2</ele>
        <time>2013-08-13T20:01:27.582Z</time>
      </trkpt>
      <trkpt lat="48.84247" lon="2.32847">
        <ele>115.7</ele>
        <time>2013-08-13T20:01:28.591Z</time>
      </trkpt>
      <trkpt lat="48.84248" lon="2.32835">
        <ele>123</ele>
        <time>2013-08-13T20:01:33.608Z</time>
      </trkpt>
      <trkpt lat="48.84249" lon="2.32831">
        <ele>125.2</ele>
        <time>2013-08-13T20:01:34.610Z</time>
      </trkpt>
      <trkpt lat="48.84251" lon="2.32822">
        <ele>127.2</ele>
        <time>2013-08-13T20:01:36.575Z</time>
      </trkpt>
      <trkpt lat="48.84252" lon="2.32818">
        <ele>127.7</ele>
        <time>2013-08-13T20:01:37.610Z</time>
      </trkpt>
      <trkpt lat="48.84254" lon="2.32809">
        <ele>128</ele>
        <time>2013-08-13T20:01:39.574Z</time>
      </trkpt>
      <trkpt lat="48.84256" lon="2.32803">
        <ele>129.2</ele>
        <time>2013-08-13T20:01:40.600Z</time>
      </trkpt>
      <trkpt lat="48.84258" lon="2.32792">
        <ele>129</ele>
        <time>2013-08-13T20:01:42.576Z</time>
      </trkpt>
      <trkpt lat="48.8426" lon="2.32785">
        <ele>129.2</ele>
        <time>2013-08-13T20:01:43.623Z</time>
      </trkpt>
      <trkpt lat="48.84261" lon="2.32778">
        <ele>130.2</ele>
        <time>2013-08-13T20:01:44.575Z</time>
      </trkpt>
      <trkpt lat="48.84262" lon="2.32771">
        <ele>131.2</ele>
        <time>2013-08-13T20:01:45.589Z</time>
      </trkpt>
      <trkpt lat="48.84264" lon="2.32764">
        <ele>131.1</ele>
        <time>2013-08-13T20:01:46.624Z</time>
      </trkpt>
      <trkpt lat="48.84265" lon="2.32757">
        <ele>128.4</ele>
        <time>2013-08-13T20:01:47.586Z</time>
      </trkpt>
      <trkpt lat="48.84267" lon="2.32749">
        <ele>126</ele>
        <time>2013-08-13T20:01:48.582Z</time>
      </trkpt>
      <trkpt lat="48.84269" lon="2.3274">
        <ele>124.3</ele>
        <time>2013-08-13T20:01:49.601Z</time>
      </trkpt>
      <trkpt lat="48.84272" lon="2.32732">
        <ele>122.8</ele>
        <time>2013-08-13T20:01:50.566Z</time>
      </trkpt>
      <trkpt lat="48.84275" lon="2.32723">
        <ele>121.8</ele>
        <time>2013-08-13T20:01:51.616Z</time>
      </trkpt>
      <trkpt lat="48.84278" lon="2.32714">
        <ele>121.7</ele>
        <time>2013-08-13T20:01:52.719Z</time>
      </trkpt>
      <trkpt lat="48.84281" lon="2.32707">
        <ele>121.1</ele>
        <time>2013-08-13T20:01:53.623Z</time>
      </trkpt>
      <trkpt lat="48.84284" lon="2.32698">
        <ele>121.4</ele>
        <time>2013-08-13T20:01:54.702Z</time>
      </trkpt>
      <trkpt lat="48.84286" lon="2.32691">
        <ele>121.4</ele>
        <time>2013-08-13T20:01:55.755Z</time>
      </trkpt>
      <trkpt lat="48.84288" lon="2.32685">
        <ele>119.9</ele>
        <time>2013-08-13T20:01:56.587Z</time>
      </trkpt>
      <trkpt lat="48.8429" lon="2.32677">
        <ele>118.9</ele>
        <time>2013-08-13T20:01:57.797Z</time>
      </trkpt>
      <trkpt lat="48.84292" lon="2.32672">
        <ele>118</ele>
        <time>2013-08-13T20:01:58.598Z</time>
      </trkpt>
      <trkpt lat="48.84293" lon="2.32664">
        <ele>117.5</ele>
        <time>2013-08-13T20:01:59.758Z</time>
      </trkpt>
      <trkpt lat="48.84294" lon="2.32658">
        <ele>117.9</ele>
        <time>2013-08-13T20:02:00.663Z</time>
      </trkpt>
      <trkpt lat="48.84296" lon="2.3265">
        <ele>118.1</ele>
        <time>2013-08-13T20:02:01.721Z</time>
      </trkpt>
      <trkpt lat="48.84297" lon="2.32644">
        <ele>118.2</ele>
        <time>2013-08-13T20:02:02.755Z</time>
      </trkpt>
      <trkpt lat="48.843" lon="2.32638">
        <ele>116.6</ele>
        <time>2013-08-13T20:02:03.604Z</time>
      </trkpt>
      <trkpt lat="48.84302" lon="2.32631">
        <ele>117.3</ele>
        <time>2013-08-13T20:02:04.599Z</time>
      </trkpt>
      <trkpt lat="48.84304" lon="2.32625">
        <ele>118.1</ele>
        <time>2013-08-13T20:02:05.583Z</time>
      </trkpt>
      <trkpt lat="48.84306" lon="2.32618">
        <ele>118.2</ele>
        <time>2013-08-13T20:02:06.582Z</time>
      </trkpt>
      <trkpt lat="48.84309" lon="2.32611">
        <ele>118.5</ele>
        <time>2013-08-13T20:02:07.624Z</time>
      </trkpt>
      <trkpt lat="48.84312" lon="2.32605">
        <ele>119.1</ele>
        <time>2013-08-13T20:02:08.577Z</time>
      </trkpt>
      <trkpt lat="48.84314" lon="2.32598">
        <ele>118.1</ele>
        <time>2013-08-13T20:02:09.613Z</time>
      </trkpt>
      <trkpt lat="48.84316" lon="2.32592">
        <ele>118.3</ele>
        <time>2013-08-13T20:02:10.577Z</time>
      </trkpt>
      <trkpt lat="48.84318" lon="2.32585">
        <ele>118.4</ele>
        <time>2013-08-13T20:02:11.595Z</time>
      </trkpt>
      <trkpt lat="48.8432" lon="2.32578">
        <ele>117.8</ele>
        <time>2013-08-13T20:02:12.564Z</time>
      </trkpt>
      <trkpt lat="48.84321" lon="2.32571">
        <ele>117.4</ele>
        <time>2013-08-13T20:02:13.567Z</time>
      </trkpt>
      <trkpt lat="48.84324" lon="2.3256">
        <ele>118.5</ele>
        <time>2013-08-13T20:02:15.587Z</time>
      </trkpt>
      <trkpt lat="48.84326" lon="2.32554">
        <ele>119.9</ele>
        <time>2013-08-13T20:02:16.614Z</time>
      </trkpt>
      <trkpt lat="48.84329" lon="2.32543">
        <ele>123.1</ele>
        <time>2013-08-13T20:02:18.604Z</time>
      </trkpt>
      <trkpt lat="48.84331" lon="2.32537">
        <ele>122.8</ele>
        <time>2013-08-13T20:02:19.610Z</time>
      </trkpt>
      <trkpt lat="48.84333" lon="2.3253">
        <ele>122.4</ele>
        <time>2013-08-13T20:02:20.596Z</time>
      </trkpt>
      <trkpt lat="48.84334" lon="2.32523">
        <ele>123.5</ele>
        <time>2013-08-13T20:02:21.573Z</time>
      </trkpt>
      <trkpt lat="48.84337" lon="2.32516">
        <ele>122.9</ele>
        <time>2013-08-13T20:02:22.685Z</time>
      </trkpt>
      <trkpt lat="48.8434" lon="2.32508">
        <ele>122.6</ele>
        <time>2013-08-13T20:02:23.584Z</time>
      </trkpt>
      <trkpt lat="48.84343" lon="2.325">
        <ele>121.5</ele>
        <time>2013-08-13T20:02:24.612Z</time>
      </trkpt>
      <trkpt lat="48.84346" lon="2.32492">
        <ele>122.2</ele>
        <time>2013-08-13T20:02:25.616Z</time>
      </trkpt>
      <trkpt lat="48.84349" lon="2.32485">
        <ele>122.6</ele>
        <time>2013-08-13T20:02:26.577Z</time>
      </trkpt>
      <trkpt lat="48.84352" lon="2.32477">
        <ele>121.8</ele>
        <time>2013-08-13T20:02:27.612Z</time>
      </trkpt>
      <trkpt lat="48.84356" lon="2.32469">
        <ele>120.3</ele>
        <time>2013-08-13T20:02:28.657Z</time>
      </trkpt>
      <trkpt lat="48.84359" lon="2.32462">
        <ele>120</ele>
        <time>2013-08-13T20:02:29.580Z</time>
      </trkpt>
      <trkpt lat="48.84361" lon="2.32455">
        <ele>118.1</ele>
        <time>2013-08-13T20:02:30.619Z</time>
      </trkpt>
      <trkpt lat="48.84362" lon="2.32449">
        <ele>118.1</ele>
        <time>2013-08-13T20:02:31.557Z</time>
      </trkpt>
      <trkpt lat="48.84363" lon="2.32435">
        <ele>115</ele>
        <time>2013-08-13T20:02:35.575Z</time>
      </trkpt>
      <trkpt lat="48.84362" lon="2.32435">
        <ele>116.7</ele>
        <time>2013-08-13T20:02:36.567Z</time>
      </trkpt>
      <trkpt lat="48.84365" lon="2.32434">
        <ele>114.1</ele>
        <time>2013-08-13T20:02:49.577Z</time>
      </trkpt>
      <trkpt lat="48.84365" lon="2.32434">
        <ele>114.1</ele>
        <time>2013-08-13T20:02:50.587Z</time>
      </trkpt>
      <trkpt lat="48.84366" lon="2.32434">
        <ele>115.2</ele>
        <time>2013-08-13T20:03:18.579Z</time>
      </trkpt>
      <trkpt lat="48.84366" lon="2.32435">
        <ele>115.7</ele>
        <time>2013-08-13T20:03:19.583Z</time>
      </trkpt>
      <trkpt lat="48.84366" lon="2.32435">
        <ele>116</ele>
        <time>2013-08-13T20:03:20.590Z</time>
      </trkpt>
      <trkpt lat="48.84366" lon="2.32435">
        <ele>116</ele>
        <time>2013-08-13T20:03:21.574Z</time>
      </trkpt>
      <trkpt lat="48.84367" lon="2.32435">
        <ele>115.6</ele>
        <time>2013-08-13T20:03:26.599Z</time>
      </trkpt>
      <trkpt lat="48.84367" lon="2.32434">
        <ele>115.6</ele>
        <time>2013-08-13T20:03:27.619Z</time>
      </trkpt>
      <trkpt lat="48.84371" lon="2.32423">
        <ele>112.8</ele>
        <time>2013-08-13T20:03:32.601Z</time>
      </trkpt>
      <trkpt lat="48.84373" lon="2.32418">
        <ele>111.8</ele>
        <time>2013-08-13T20:03:33.577Z</time>
      </trkpt>
      <trkpt lat="48.84376" lon="2.32412">
        <ele>110.3</ele>
        <time>2013-08-13T20:03:34.587Z</time>
      </trkpt>
      <trkpt lat="48.84379" lon="2.32406">
        <ele>110.3</ele>
        <time>2013-08-13T20:03:35.593Z</time>
      </trkpt>
      <trkpt lat="48.84381" lon="2.324">
        <ele>109.8</ele>
        <time>2013-08-13T20:03:36.592Z</time>
      </trkpt>
      <trkpt lat="48.84384" lon="2.32394">
        <ele>110.4</ele>
        <time>2013-08-13T20:03:37.600Z</time>
      </trkpt>
      <trkpt lat="48.84388" lon="2.32384">
        <ele>107.2</ele>
        <time>2013-08-13T20:03:39.560Z</time>
      </trkpt>
      <trkpt lat="48.8439" lon="2.32379">
        <ele>106.5</ele>
        <time>2013-08-13T20:03:40.583Z</time>
      </trkpt>
      <trkpt lat="48.84395" lon="2.32368">
        <ele>106.8</ele>
        <time>2013-08-13T20:03:43.605Z</time>
      </trkpt>
      <trkpt lat="48.84396" lon="2.32364">
        <ele>107.8</ele>
        <time>2013-08-13T20:03:44.559Z</time>
      </trkpt>
      <trkpt lat="48.84398" lon="2.32355">
        <ele>107.2</ele>
        <time>2013-08-13T20:03:46.559Z</time>
      </trkpt>
      <trkpt lat="48.84399" lon="2.3235">
        <ele>107.1</ele>
        <time>2013-08-13T20:03:47.562Z</time>
      </trkpt>
      <trkpt lat="48.84403" lon="2.32341">
        <ele>107.3</ele>
        <time>2013-08-13T20:03:49.575Z</time>
      </trkpt>
      <trkpt lat="48.84405" lon="2.32336">
        <ele>107.1</ele>
        <time>2013-08-13T20:03:50.603Z</time>
      </trkpt>
      <trkpt lat="48.84409" lon="2.32327">
        <ele>106.3</ele>
        <time>2013-08-13T20:03:52.594Z</time>
      </trkpt>
      <trkpt lat="48.84411" lon="2.32322">
        <ele>104.1</ele>
        <time>2013-08-13T20:03:53.627Z</time>
      </trkpt>
      <trkpt lat="48.84415" lon="2.32311">
        <ele>101.9</ele>
        <time>2013-08-13T20:03:55.683Z</time>
      </trkpt>
      <trkpt lat="48.84415" lon="2.32304">
        <ele>102.5</ele>
        <time>2013-08-13T20:03:56.629Z</time>
      </trkpt>
      <trkpt lat="48.84417" lon="2.32291">
        <ele>102.5</ele>
        <time>2013-08-13T20:03:58.594Z</time>
      </trkpt>
      <trkpt lat="48.84418" lon="2.32285">
        <ele>102.6</ele>
        <time>2013-08-13T20:03:59.584Z</time>
      </trkpt>
      <trkpt lat="48.8442" lon="2.32278">
        <ele>102.4</ele>
        <time>2013-08-13T20:04:00.585Z</time>
      </trkpt>
      <trkpt lat="48.84421" lon="2.3227">
        <ele>102.2</ele>
        <time>2013-08-13T20:04:01.744Z</time>
      </trkpt>
      <trkpt lat="48.84423" lon="2.32263">
        <ele>102.1</ele>
        <time>2013-08-13T20:04:02.731Z</time>
      </trkpt>
      <trkpt lat="48.84426" lon="2.32256">
        <ele>100.6</ele>
        <time>2013-08-13T20:04:03.723Z</time>
      </trkpt>
      <trkpt lat="48.84428" lon="2.3225">
        <ele>100.5</ele>
        <time>2013-08-13T20:04:04.627Z</time>
      </trkpt>
      <trkpt lat="48.84431" lon="2.32242">
        <ele>102.9</ele>
        <time>2013-08-13T20:04:05.606Z</time>
      </trkpt>
      <trkpt lat="48.84434" lon="2.32234">
        <ele>104.1</ele>
        <time>2013-08-13T20:04:06.587Z</time>
      </trkpt>
      <trkpt lat="48.84436" lon="2.32226">
        <ele>104.6</ele>
        <time>2013-08-13T20:04:07.595Z</time>
      </trkpt>
      <trkpt lat="48.84439" lon="2.32218">
        <ele>104</ele>
        <time>2013-08-13T20:04:08.608Z</time>
      </trkpt>
      <trkpt lat="48.84441" lon="2.32209">
        <ele>104.3</ele>
        <time>2013-08-13T20:04:09.729Z</time>
      </trkpt>
      <trkpt lat="48.84445" lon="2.32197">
        <ele>106.1</ele>
        <time>2013-08-13T20:04:11.646Z</time>
      </trkpt>
      <trkpt lat="48.84447" lon="2.32192">
        <ele>107.6</ele>
        <time>2013-08-13T20:04:12.624Z</time>
      </trkpt>
      <trkpt lat="48.84451" lon="2.32181">
        <ele>109.7</ele>
        <time>2013-08-13T20:04:14.570Z</time>
      </trkpt>
      <trkpt lat="48.84454" lon="2.32175">
        <ele>110</ele>
        <time>2013-08-13T20:04:15.616Z</time>
      </trkpt>
      <trkpt lat="48.84456" lon="2.32168">
        <ele>110</ele>
        <time>2013-08-13T20:04:16.677Z</time>
      </trkpt>
      <trkpt lat="48.84457" lon="2.32161">
        <ele>111.4</ele>
        <time>2013-08-13T20:04:17.639Z</time>
      </trkpt>
      <trkpt lat="48.8446" lon="2.32149">
        <ele>112.1</ele>
        <time>2013-08-13T20:04:19.597Z</time>
      </trkpt>
      <trkpt lat="48.84462" lon="2.32143">
        <ele>112.3</ele>
        <time>2013-08-13T20:04:20.611Z</time>
      </trkpt>
      <trkpt lat="48.84466" lon="2.32133">
        <ele>113</ele>
        <time>2013-08-13T20:04:22.601Z</time>
      </trkpt>
      <trkpt lat="48.84468" lon="2.32127">
        <ele>113.9</ele>
        <time>2013-08-13T20:04:23.627Z</time>
      </trkpt>
      <trkpt lat="48.84472" lon="2.32117">
        <ele>115.1</ele>
        <time>2013-08-13T20:04:25.633Z</time>
      </trkpt>
      <trkpt lat="48.84473" lon="2.32111">
        <ele>114.9</ele>
        <time>2013-08-13T20:04:26.596Z</time>
      </trkpt>
      <trkpt lat="48.84477" lon="2.32099">
        <ele>113</ele>
        <time>2013-08-13T20:04:28.674Z</time>
      </trkpt>
      <trkpt lat="48.84479" lon="2.32094">
        <ele>111.5</ele>
        <time>2013-08-13T20:04:29.596Z</time>
      </trkpt>
      <trkpt lat="48.84481" lon="2.32087">
        <ele>110.3</ele>
        <time>2013-08-13T20:04:30.694Z</time>
      </trkpt>
      <trkpt lat="48.84483" lon="2.32082">
        <ele>110.4</ele>
        <time>2013-08-13T20:04:31.734Z</time>
      </trkpt>
      <trkpt lat="48.84488" lon="2.32071">
        <ele>109.6</ele>
        <time>2013-08-13T20:04:33.744Z</time>
      </trkpt>
      <trkpt lat="48.84489" lon="2.32066">
        <ele>109.4</ele>
        <time>2013-08-13T20:04:34.608Z</time>
      </trkpt>
      <trkpt lat="48.84493" lon="2.32055">
        <ele>109.4</ele>
        <time>2013-08-13T20:04:36.575Z</time>
      </trkpt>
      <trkpt lat="48.84495" lon="2.32049">
        <ele>110.2</ele>
        <time>2013-08-13T20:04:37.585Z</time>
      </trkpt>
      <trkpt lat="48.84499" lon="2.32039">
        <ele>110.9</ele>
        <time>2013-08-13T20:04:39.575Z</time>
      </trkpt>
      <trkpt lat="48.84501" lon="2.32033">
        <ele>111.6</ele>
        <time>2013-08-13T20:04:40.616Z</time>
      </trkpt>
      <trkpt lat="48.84504" lon="2.32022">
        <ele>112.7</ele>
        <time>2013-08-13T20:04:42.594Z</time>
      </trkpt>
      <trkpt lat="48.84506" lon="2.32017">
        <ele>112.5</ele>
        <time>2013-08-13T20:04:43.594Z</time>
      </trkpt>
      <trkpt lat="48.8451" lon="2.32006">
        <ele>113.1</ele>
        <time>2013-08-13T20:04:45.597Z</time>
      </trkpt>
      <trkpt lat="48.84511" lon="2.32">
        <ele>113</ele>
        <time>2013-08-13T20:04:46.579Z</time>
      </trkpt>
      <trkpt lat="48.84514" lon="2.31989">
        <ele>112.2</ele>
        <time>2013-08-13T20:04:48.606Z</time>
      </trkpt>
      <trkpt lat="48.84516" lon="2.31983">
        <ele>112.1</ele>
        <time>2013-08-13T20:04:49.586Z</time>
      </trkpt>
      <trkpt lat="48.84519" lon="2.31972">
        <ele>113.6</ele>
        <time>2013-08-13T20:04:51.603Z</time>
      </trkpt>
      <trkpt lat="48.84521" lon="2.31966">
        <ele>114.2</ele>
        <time>2013-08-13T20:04:52.579Z</time>
      </trkpt>
      <trkpt lat="48.84523" lon="2.31959">
        <ele>114.4</ele>
        <time>2013-08-13T20:04:53.605Z</time>
      </trkpt>
      <trkpt lat="48.84525" lon="2.31954">
        <ele>114</ele>
        <time>2013-08-13T20:04:54.590Z</time>
      </trkpt>
      <trkpt lat="48.84528" lon="2.31948">
        <ele>113.3</ele>
        <time>2013-08-13T20:04:55.595Z</time>
      </trkpt>
      <trkpt lat="48.84531" lon="2.31943">
        <ele>110.2</ele>
        <time>2013-08-13T20:04:56.594Z</time>
      </trkpt>
      <trkpt lat="48.84537" lon="2.31934">
        <ele>105.6</ele>
        <time>2013-08-13T20:04:58.609Z</time>
      </trkpt>
      <trkpt lat="48.8454" lon="2.31929">
        <ele>104.2</ele>
        <time>2013-08-13T20:04:59.590Z</time>
      </trkpt>
      <trkpt lat="48.84544" lon="2.31924">
        <ele>104.3</ele>
        <time>2013-08-13T20:05:00.584Z</time>
      </trkpt>
      <trkpt lat="48.84547" lon="2.31918">
        <ele>104</ele>
        <time>2013-08-13T20:05:01.585Z</time>
      </trkpt>
      <trkpt lat="48.8455" lon="2.31913">
        <ele>103.5</ele>
        <time>2013-08-13T20:05:02.579Z</time>
      </trkpt>
      <trkpt lat="48.84553" lon="2.31907">
        <ele>103.1</ele>
        <time>2013-08-13T20:05:03.601Z</time>
      </trkpt>
      <trkpt lat="48.84558" lon="2.31895">
        <ele>104.6</ele>
        <time>2013-08-13T20:05:05.606Z</time>
      </trkpt>
      <trkpt lat="48.8456" lon="2.3189">
        <ele>104.8</ele>
        <time>2013-08-13T20:05:06.608Z</time>
      </trkpt>
      <trkpt lat="48.84564" lon="2.3188">
        <ele>104.5</ele>
        <time>2013-08-13T20:05:08.594Z</time>
      </trkpt>
      <trkpt lat="48.84566" lon="2.31873">
        <ele>105.7</ele>
        <time>2013-08-13T20:05:09.573Z</time>
      </trkpt>
      <trkpt lat="48.84568" lon="2.31867">
        <ele>106.2</ele>
        <time>2013-08-13T20:05:10.600Z</time>
      </trkpt>
      <trkpt lat="48.84572" lon="2.3186">
        <ele>103.4</ele>
        <time>2013-08-13T20:05:11.588Z</time>
      </trkpt>
      <trkpt lat="48.84575" lon="2.31853">
        <ele>103.6</ele>
        <time>2013-08-13T20:05:12.591Z</time>
      </trkpt>
      <trkpt lat="48.84579" lon="2.31847">
        <ele>103</ele>
        <time>2013-08-13T20:05:13.605Z</time>
      </trkpt>
      <trkpt lat="48.84583" lon="2.3184">
        <ele>102.7</ele>
        <time>2013-08-13T20:05:14.611Z</time>
      </trkpt>
      <trkpt lat="48.84586" lon="2.31834">
        <ele>102.7</ele>
        <time>2013-08-13T20:05:15.595Z</time>
      </trkpt>
      <trkpt lat="48.84589" lon="2.31828">
        <ele>102.5</ele>
        <time>2013-08-13T20:05:16.594Z</time>
      </trkpt>
      <trkpt lat="48.84592" lon="2.31822">
        <ele>102.3</ele>
        <time>2013-08-13T20:05:17.603Z</time>
      </trkpt>
      <trkpt lat="48.84596" lon="2.31816">
        <ele>102.6</ele>
        <time>2013-08-13T20:05:18.608Z</time>
      </trkpt>
      <trkpt lat="48.846" lon="2.31811">
        <ele>102.3</ele>
        <time>2013-08-13T20:05:19.596Z</time>
      </trkpt>
      <trkpt lat="48.84603" lon="2.31805">
        <ele>102.5</ele>
        <time>2013-08-13T20:05:20.604Z</time>
      </trkpt>
      <trkpt lat="48.84607" lon="2.31799">
        <ele>101.5</ele>
        <time>2013-08-13T20:05:21.577Z</time>
      </trkpt>
      <trkpt lat="48.8461" lon="2.31792">
        <ele>100.8</ele>
        <time>2013-08-13T20:05:22.588Z</time>
      </trkpt>
      <trkpt lat="48.84613" lon="2.31785">
        <ele>100</ele>
        <time>2013-08-13T20:05:23.683Z</time>
      </trkpt>
      <trkpt lat="48.84616" lon="2.31779">
        <ele>100.3</ele>
        <time>2013-08-13T20:05:24.624Z</time>
      </trkpt>
      <trkpt lat="48.84619" lon="2.31772">
        <ele>98.5</ele>
        <time>2013-08-13T20:05:25.615Z</time>
      </trkpt>
      <trkpt lat="48.84622" lon="2.31766">
        <ele>100</ele>
        <time>2013-08-13T20:05:26.745Z</time>
      </trkpt>
      <trkpt lat="48.84624" lon="2.3176">
        <ele>100.6</ele>
        <time>2013-08-13T20:05:27.674Z</time>
      </trkpt>
      <trkpt lat="48.84627" lon="2.31754">
        <ele>101</ele>
        <time>2013-08-13T20:05:28.723Z</time>
      </trkpt>
      <trkpt lat="48.84629" lon="2.31748">
        <ele>102.3</ele>
        <time>2013-08-13T20:05:29.715Z</time>
      </trkpt>
      <trkpt lat="48.84631" lon="2.31742">
        <ele>102.9</ele>
        <time>2013-08-13T20:05:30.644Z</time>
      </trkpt>
      <trkpt lat="48.84633" lon="2.31736">
        <ele>103.2</ele>
        <time>2013-08-13T20:05:31.785Z</time>
      </trkpt>
      <trkpt lat="48.84635" lon="2.3173">
        <ele>104.3</ele>
        <time>2013-08-13T20:05:32.577Z</time>
      </trkpt>
      <trkpt lat="48.84639" lon="2.31722">
        <ele>101.6</ele>
        <time>2013-08-13T20:05:33.804Z</time>
      </trkpt>
      <trkpt lat="48.84642" lon="2.31717">
        <ele>100.6</ele>
        <time>2013-08-13T20:05:34.634Z</time>
      </trkpt>
      <trkpt lat="48.84647" lon="2.31709">
        <ele>98.2</ele>
        <time>2013-08-13T20:05:35.764Z</time>
      </trkpt>
      <trkpt lat="48.84651" lon="2.31703">
        <ele>98.7</ele>
        <time>2013-08-13T20:05:36.813Z</time>
      </trkpt>
      <trkpt lat="48.84655" lon="2.31699">
        <ele>96.7</ele>
        <time>2013-08-13T20:05:37.634Z</time>
      </trkpt>
      <trkpt lat="48.84659" lon="2.31694">
        <ele>98.3</ele>
        <time>2013-08-13T20:05:38.591Z</time>
      </trkpt>
      <trkpt lat="48.84662" lon="2.31688">
        <ele>99</ele>
        <time>2013-08-13T20:05:39.596Z</time>
      </trkpt>
      <trkpt lat="48.84668" lon="2.31678">
        <ele>99.3</ele>
        <time>2013-08-13T20:05:41.595Z</time>
      </trkpt>
      <trkpt lat="48.8467" lon="2.31673">
        <ele>100.1</ele>
        <time>2013-08-13T20:05:42.597Z</time>
      </trkpt>
      <trkpt lat="48.84678" lon="2.31667">
        <ele>96.4</ele>
        <time>2013-08-13T20:05:44.644Z</time>
      </trkpt>
      <trkpt lat="48.84681" lon="2.31664">
        <ele>96.2</ele>
        <time>2013-08-13T20:05:45.603Z</time>
      </trkpt>
      <trkpt lat="48.84686" lon="2.31657">
        <ele>93.7</ele>
        <time>2013-08-13T20:05:47.624Z</time>
      </trkpt>
      <trkpt lat="48.84689" lon="2.31651">
        <ele>94.7</ele>
        <time>2013-08-13T20:05:48.614Z</time>
      </trkpt>
      <trkpt lat="48.84692" lon="2.31642">
        <ele>92.3</ele>
        <time>2013-08-13T20:05:50.585Z</time>
      </trkpt>
      <trkpt lat="48.84694" lon="2.31637">
        <ele>92.3</ele>
        <time>2013-08-13T20:05:51.597Z</time>
      </trkpt>
      <trkpt lat="48.84698" lon="2.31633">
        <ele>91.4</ele>
        <time>2013-08-13T20:05:52.615Z</time>
      </trkpt>
      <trkpt lat="48.84705" lon="2.3163">
        <ele>92.3</ele>
        <time>2013-08-13T20:05:53.686Z</time>
      </trkpt>
      <trkpt lat="48.84711" lon="2.31628">
        <ele>92</ele>
        <time>2013-08-13T20:05:54.603Z</time>
      </trkpt>
      <trkpt lat="48.84716" lon="2.31626">
        <ele>91.1</ele>
        <time>2013-08-13T20:05:55.584Z</time>
      </trkpt>
      <trkpt lat="48.84721" lon="2.31623">
        <ele>90.4</ele>
        <time>2013-08-13T20:05:56.793Z</time>
      </trkpt>
      <trkpt lat="48.84725" lon="2.31619">
        <ele>89.9</ele>
        <time>2013-08-13T20:05:57.615Z</time>
      </trkpt>
      <trkpt lat="48.84731" lon="2.31615">
        <ele>89.7</ele>
        <time>2013-08-13T20:05:58.804Z</time>
      </trkpt>
      <trkpt lat="48.84738" lon="2.31614">
        <ele>90.4</ele>
        <time>2013-08-13T20:05:59.731Z</time>
      </trkpt>
      <trkpt lat="48.84744" lon="2.31613">
        <ele>90</ele>
        <time>2013-08-13T20:06:00.710Z</time>
      </trkpt>
      <trkpt lat="48.8475" lon="2.31611">
        <ele>88.8</ele>
        <time>2013-08-13T20:06:01.758Z</time>
      </trkpt>
      <trkpt lat="48.84755" lon="2.31609">
        <ele>87.4</ele>
        <time>2013-08-13T20:06:02.656Z</time>
      </trkpt>
      <trkpt lat="48.84762" lon="2.31608">
        <ele>87.1</ele>
        <time>2013-08-13T20:06:03.805Z</time>
      </trkpt>
      <trkpt lat="48.84768" lon="2.31607">
        <ele>86.2</ele>
        <time>2013-08-13T20:06:04.595Z</time>
      </trkpt>
      <trkpt lat="48.84776" lon="2.31606">
        <ele>85.1</ele>
        <time>2013-08-13T20:06:05.818Z</time>
      </trkpt>
      <trkpt lat="48.84781" lon="2.31604">
        <ele>84.6</ele>
        <time>2013-08-13T20:06:06.607Z</time>
      </trkpt>
      <trkpt lat="48.84787" lon="2.31603">
        <ele>84</ele>
        <time>2013-08-13T20:06:07.753Z</time>
      </trkpt>
      <trkpt lat="48.84792" lon="2.316">
        <ele>84.2</ele>
        <time>2013-08-13T20:06:08.761Z</time>
      </trkpt>
      <trkpt lat="48.84797" lon="2.31598">
        <ele>83.7</ele>
        <time>2013-08-13T20:06:09.679Z</time>
      </trkpt>
      <trkpt lat="48.84803" lon="2.31595">
        <ele>82.4</ele>
        <time>2013-08-13T20:06:10.786Z</time>
      </trkpt>
      <trkpt lat="48.84808" lon="2.31592">
        <ele>82.7</ele>
        <time>2013-08-13T20:06:11.604Z</time>
      </trkpt>
      <trkpt lat="48.84814" lon="2.31588">
        <ele>82.2</ele>
        <time>2013-08-13T20:06:12.747Z</time>
      </trkpt>
      <trkpt lat="48.84819" lon="2.31585">
        <ele>82.3</ele>
        <time>2013-08-13T20:06:13.611Z</time>
      </trkpt>
      <trkpt lat="48.84824" lon="2.31583">
        <ele>81.9</ele>
        <time>2013-08-13T20:06:14.756Z</time>
      </trkpt>
      <trkpt lat="48.84829" lon="2.31581">
        <ele>81.8</ele>
        <time>2013-08-13T20:06:15.715Z</time>
      </trkpt>
      <trkpt lat="48.84834" lon="2.31579">
        <ele>80.8</ele>
        <time>2013-08-13T20:06:16.725Z</time>
      </trkpt>
      <trkpt lat="48.84839" lon="2.31576">
        <ele>80.6</ele>
        <time>2013-08-13T20:06:17.756Z</time>
      </trkpt>
      <trkpt lat="48.84843" lon="2.31574">
        <ele>80.2</ele>
        <time>2013-08-13T20:06:18.587Z</time>
      </trkpt>
      <trkpt lat="48.84849" lon="2.31572">
        <ele>80.5</ele>
        <time>2013-08-13T20:06:19.594Z</time>
      </trkpt>
      <trkpt lat="48.84854" lon="2.3157">
        <ele>80.5</ele>
        <time>2013-08-13T20:06:20.611Z</time>
      </trkpt>
      <trkpt lat="48.8486" lon="2.31568">
        <ele>81.2</ele>
        <time>2013-08-13T20:06:21.602Z</time>
      </trkpt>
      <trkpt lat="48.84866" lon="2.31564">
        <ele>81</ele>
        <time>2013-08-13T20:06:22.594Z</time>
      </trkpt>
      <trkpt lat="48.84871" lon="2.31562">
        <ele>80.8</ele>
        <time>2013-08-13T20:06:23.634Z</time>
      </trkpt>
      <trkpt lat="48.84877" lon="2.3156">
        <ele>80</ele>
        <time>2013-08-13T20:06:24.611Z</time>
      </trkpt>
      <trkpt lat="48.84882" lon="2.31558">
        <ele>79.6</ele>
        <time>2013-08-13T20:06:25.657Z</time>
      </trkpt>
      <trkpt lat="48.84888" lon="2.31554">
        <ele>79.6</ele>
        <time>2013-08-13T20:06:26.573Z</time>
      </trkpt>
      <trkpt lat="48.84893" lon="2.3155">
        <ele>80.6</ele>
        <time>2013-08-13T20:06:27.604Z</time>
      </trkpt>
      <trkpt lat="48.84899" lon="2.31546">
        <ele>81.2</ele>
        <time>2013-08-13T20:06:28.632Z</time>
      </trkpt>
      <trkpt lat="48.84904" lon="2.31543">
        <ele>81.4</ele>
        <time>2013-08-13T20:06:29.589Z</time>
      </trkpt>
      <trkpt lat="48.84911" lon="2.31539">
        <ele>81</ele>
        <time>2013-08-13T20:06:30.667Z</time>
      </trkpt>
      <trkpt lat="48.84918" lon="2.31536">
        <ele>80.5</ele>
        <time>2013-08-13T20:06:31.597Z</time>
      </trkpt>
      <trkpt lat="48.84924" lon="2.31534">
        <ele>79.1</ele>
        <time>2013-08-13T20:06:32.597Z</time>
      </trkpt>
      <trkpt lat="48.8493" lon="2.3153">
        <ele>78.3</ele>
        <time>2013-08-13T20:06:33.610Z</time>
      </trkpt>
      <trkpt lat="48.84936" lon="2.31526">
        <ele>78.2</ele>
        <time>2013-08-13T20:06:34.607Z</time>
      </trkpt>
      <trkpt lat="48.84942" lon="2.31521">
        <ele>79</ele>
        <time>2013-08-13T20:06:35.618Z</time>
      </trkpt>
      <trkpt lat="48.84948" lon="2.31518">
        <ele>78.8</ele>
        <time>2013-08-13T20:06:36.625Z</time>
      </trkpt>
      <trkpt lat="48.84954" lon="2.31515">
        <ele>78.7</ele>
        <time>2013-08-13T20:06:37.622Z</time>
      </trkpt>
      <trkpt lat="48.84959" lon="2.31512">
        <ele>81.3</ele>
        <time>2013-08-13T20:06:38.607Z</time>
      </trkpt>
      <trkpt lat="48.84964" lon="2.31508">
        <ele>82.2</ele>
        <time>2013-08-13T20:06:39.744Z</time>
      </trkpt>
      <trkpt lat="48.84968" lon="2.31505">
        <ele>83.5</ele>
        <time>2013-08-13T20:06:40.588Z</time>
      </trkpt>
      <trkpt lat="48.84972" lon="2.31501">
        <ele>83.6</ele>
        <time>2013-08-13T20:06:41.597Z</time>
      </trkpt>
      <trkpt lat="48.84977" lon="2.31498">
        <ele>83.6</ele>
        <time>2013-08-13T20:06:42.594Z</time>
      </trkpt>
      <trkpt lat="48.84982" lon="2.31496">
        <ele>83.5</ele>
        <time>2013-08-13T20:06:43.601Z</time>
      </trkpt>
      <trkpt lat="48.84988" lon="2.31492">
        <ele>84.7</ele>
        <time>2013-08-13T20:06:44.573Z</time>
      </trkpt>
      <trkpt lat="48.84994" lon="2.31488">
        <ele>84.7</ele>
        <time>2013-08-13T20:06:45.598Z</time>
      </trkpt>
      <trkpt lat="48.85" lon="2.31484">
        <ele>86.3</ele>
        <time>2013-08-13T20:06:46.633Z</time>
      </trkpt>
      <trkpt lat="48.85006" lon="2.3148">
        <ele>87.7</ele>
        <time>2013-08-13T20:06:47.593Z</time>
      </trkpt>
      <trkpt lat="48.85011" lon="2.31476">
        <ele>89.1</ele>
        <time>2013-08-13T20:06:48.593Z</time>
      </trkpt>
      <trkpt lat="48.85016" lon="2.31472">
        <ele>89</ele>
        <time>2013-08-13T20:06:49.585Z</time>
      </trkpt>
      <trkpt lat="48.85021" lon="2.31468">
        <ele>89</ele>
        <time>2013-08-13T20:06:50.624Z</time>
      </trkpt>
      <trkpt lat="48.85025" lon="2.31466">
        <ele>88.3</ele>
        <time>2013-08-13T20:06:51.608Z</time>
      </trkpt>
      <trkpt lat="48.85034" lon="2.31462">
        <ele>88.4</ele>
        <time>2013-08-13T20:06:53.614Z</time>
      </trkpt>
      <trkpt lat="48.85039" lon="2.3146">
        <ele>88.5</ele>
        <time>2013-08-13T20:06:54.607Z</time>
      </trkpt>
      <trkpt lat="48.85044" lon="2.31458">
        <ele>88.2</ele>
        <time>2013-08-13T20:06:55.591Z</time>
      </trkpt>
      <trkpt lat="48.8505" lon="2.31455">
        <ele>88</ele>
        <time>2013-08-13T20:06:56.603Z</time>
      </trkpt>
      <trkpt lat="48.85054" lon="2.31454">
        <ele>87</ele>
        <time>2013-08-13T20:06:57.601Z</time>
      </trkpt>
      <trkpt lat="48.85059" lon="2.31452">
        <ele>87.5</ele>
        <time>2013-08-13T20:06:58.614Z</time>
      </trkpt>
      <trkpt lat="48.85063" lon="2.31451">
        <ele>87.2</ele>
        <time>2013-08-13T20:06:59.591Z</time>
      </trkpt>
      <trkpt lat="48.85068" lon="2.31448">
        <ele>87.1</ele>
        <time>2013-08-13T20:07:00.575Z</time>
      </trkpt>
      <trkpt lat="48.85076" lon="2.31445">
        <ele>86.9</ele>
        <time>2013-08-13T20:07:02.612Z</time>
      </trkpt>
      <trkpt lat="48.8508" lon="2.31444">
        <ele>85.9</ele>
        <time>2013-08-13T20:07:03.594Z</time>
      </trkpt>
      <trkpt lat="48.85087" lon="2.31445">
        <ele>84.7</ele>
        <time>2013-08-13T20:07:05.588Z</time>
      </trkpt>
      <trkpt lat="48.85091" lon="2.31445">
        <ele>84.5</ele>
        <time>2013-08-13T20:07:06.583Z</time>
      </trkpt>
      <trkpt lat="48.85099" lon="2.31442">
        <ele>83.9</ele>
        <time>2013-08-13T20:07:08.603Z</time>
      </trkpt>
      <trkpt lat="48.85102" lon="2.31443">
        <ele>83.5</ele>
        <time>2013-08-13T20:07:09.633Z</time>
      </trkpt>
      <trkpt lat="48.85109" lon="2.3144">
        <ele>83.9</ele>
        <time>2013-08-13T20:07:12.600Z</time>
      </trkpt>
      <trkpt lat="48.85111" lon="2.31438">
        <ele>83.1</ele>
        <time>2013-08-13T20:07:13.601Z</time>
      </trkpt>
      <trkpt lat="48.85118" lon="2.31434">
        <ele>82.1</ele>
        <time>2013-08-13T20:07:16.614Z</time>
      </trkpt>
      <trkpt lat="48.8512" lon="2.31434">
        <ele>82.5</ele>
        <time>2013-08-13T20:07:17.594Z</time>
      </trkpt>
      <trkpt lat="48.85129" lon="2.31434">
        <ele>86</ele>
        <time>2013-08-13T20:07:23.588Z</time>
      </trkpt>
      <trkpt lat="48.8513" lon="2.31433">
        <ele>86</ele>
        <time>2013-08-13T20:07:24.591Z</time>
      </trkpt>
      <trkpt lat="48.85131" lon="2.31433">
        <ele>88.3</ele>
        <time>2013-08-13T20:07:27.606Z</time>
      </trkpt>
      <trkpt lat="48.85131" lon="2.31433">
        <ele>88.7</ele>
        <time>2013-08-13T20:07:28.598Z</time>
      </trkpt>
      <trkpt lat="48.85132" lon="2.31432">
        <ele>90.3</ele>
        <time>2013-08-13T20:08:07.603Z</time>
      </trkpt>
      <trkpt lat="48.85132" lon="2.31433">
        <ele>89.5</ele>
        <time>2013-08-13T20:08:08.625Z</time>
      </trkpt>
      <trkpt lat="48.85139" lon="2.31441">
        <ele>89.2</ele>
        <time>2013-08-13T20:08:14.603Z</time>
      </trkpt>
      <trkpt lat="48.85141" lon="2.31443">
        <ele>89.2</ele>
        <time>2013-08-13T20:08:15.792Z</time>
      </trkpt>
      <trkpt lat="48.85148" lon="2.31446">
        <ele>89.1</ele>
        <time>2013-08-13T20:08:17.747Z</time>
      </trkpt>
      <trkpt lat="48.8515" lon="2.31447">
        <ele>86.5</ele>
        <time>2013-08-13T20:08:18.804Z</time>
      </trkpt>
      <trkpt lat="48.85158" lon="2.31449">
        <ele>85.9</ele>
        <time>2013-08-13T20:08:21.642Z</time>
      </trkpt>
      <trkpt lat="48.85161" lon="2.3145">
        <ele>85.9</ele>
        <time>2013-08-13T20:08:22.615Z</time>
      </trkpt>
      <trkpt lat="48.85169" lon="2.31452">
        <ele>86.7</ele>
        <time>2013-08-13T20:08:25.629Z</time>
      </trkpt>
      <trkpt lat="48.85172" lon="2.31453">
        <ele>87.8</ele>
        <time>2013-08-13T20:08:26.624Z</time>
      </trkpt>
      <trkpt lat="48.85178" lon="2.31455">
        <ele>88.4</ele>
        <time>2013-08-13T20:08:28.600Z</time>
      </trkpt>
      <trkpt lat="48.85182" lon="2.31456">
        <ele>90</ele>
        <time>2013-08-13T20:08:29.624Z</time>
      </trkpt>
      <trkpt lat="48.85188" lon="2.31459">
        <ele>88.8</ele>
        <time>2013-08-13T20:08:31.612Z</time>
      </trkpt>
      <trkpt lat="48.85191" lon="2.31461">
        <ele>88.4</ele>
        <time>2013-08-13T20:08:32.606Z</time>
      </trkpt>
      <trkpt lat="48.85197" lon="2.31465">
        <ele>88.2</ele>
        <time>2013-08-13T20:08:34.607Z</time>
      </trkpt>
      <trkpt lat="48.852" lon="2.31467">
        <ele>88.4</ele>
        <time>2013-08-13T20:08:35.634Z</time>
      </trkpt>
      <trkpt lat="48.85206" lon="2.31471">
        <ele>88.5</ele>
        <time>2013-08-13T20:08:37.590Z</time>
      </trkpt>
      <trkpt lat="48.85211" lon="2.31472">
        <ele>88.7</ele>
        <time>2013-08-13T20:08:38.637Z</time>
      </trkpt>
      <trkpt lat="48.85216" lon="2.31472">
        <ele>88.8</ele>
        <time>2013-08-13T20:08:39.611Z</time>
      </trkpt>
      <trkpt lat="48.85222" lon="2.3147">
        <ele>90.8</ele>
        <time>2013-08-13T20:08:40.635Z</time>
      </trkpt>
      <trkpt lat="48.8523" lon="2.31467">
        <ele>91.8</ele>
        <time>2013-08-13T20:08:41.617Z</time>
      </trkpt>
      <trkpt lat="48.85237" lon="2.31464">
        <ele>92</ele>
        <time>2013-08-13T20:08:42.625Z</time>
      </trkpt>
      <trkpt lat="48.85243" lon="2.31463">
        <ele>91.6</ele>
        <time>2013-08-13T20:08:43.655Z</time>
      </trkpt>
      <trkpt lat="48.85248" lon="2.31462">
        <ele>92</ele>
        <time>2013-08-13T20:08:44.634Z</time>
      </trkpt>
      <trkpt lat="48.85254" lon="2.31462">
        <ele>92.2</ele>
        <time>2013-08-13T20:08:45.614Z</time>
      </trkpt>
      <trkpt lat="48.85259" lon="2.3146">
        <ele>92.7</ele>
        <time>2013-08-13T20:08:46.722Z</time>
      </trkpt>
      <trkpt lat="48.85264" lon="2.3146">
        <ele>92.7</ele>
        <time>2013-08-13T20:08:47.750Z</time>
      </trkpt>
      <trkpt lat="48.85268" lon="2.31461">
        <ele>93.8</ele>
        <time>2013-08-13T20:08:48.657Z</time>
      </trkpt>
      <trkpt lat="48.85273" lon="2.31462">
        <ele>93.8</ele>
        <time>2013-08-13T20:08:49.609Z</time>
      </trkpt>
      <trkpt lat="48.85277" lon="2.31463">
        <ele>94</ele>
        <time>2013-08-13T20:08:50.604Z</time>
      </trkpt>
      <trkpt lat="48.85283" lon="2.31462">
        <ele>94.9</ele>
        <time>2013-08-13T20:08:51.603Z</time>
      </trkpt>
      <trkpt lat="48.85289" lon="2.3146">
        <ele>96.2</ele>
        <time>2013-08-13T20:08:52.611Z</time>
      </trkpt>
      <trkpt lat="48.85295" lon="2.3146">
        <ele>96.3</ele>
        <time>2013-08-13T20:08:53.614Z</time>
      </trkpt>
      <trkpt lat="48.853" lon="2.3146">
        <ele>96.3</ele>
        <time>2013-08-13T20:08:54.626Z</time>
      </trkpt>
      <trkpt lat="48.85305" lon="2.31461">
        <ele>96.4</ele>
        <time>2013-08-13T20:08:55.615Z</time>
      </trkpt>
      <trkpt lat="48.85311" lon="2.31461">
        <ele>96.3</ele>
        <time>2013-08-13T20:08:56.604Z</time>
      </trkpt>
      <trkpt lat="48.85317" lon="2.3146">
        <ele>97.8</ele>
        <time>2013-08-13T20:08:57.614Z</time>
      </trkpt>
      <trkpt lat="48.85324" lon="2.31457">
        <ele>99.8</ele>
        <time>2013-08-13T20:08:58.613Z</time>
      </trkpt>
      <trkpt lat="48.85331" lon="2.31454">
        <ele>100</ele>
        <time>2013-08-13T20:08:59.628Z</time>
      </trkpt>
      <trkpt lat="48.85336" lon="2.31452">
        <ele>101.7</ele>
        <time>2013-08-13T20:09:00.763Z</time>
      </trkpt>
      <trkpt lat="48.85341" lon="2.31452">
        <ele>100.8</ele>
        <time>2013-08-13T20:09:01.794Z</time>
      </trkpt>
      <trkpt lat="48.85346" lon="2.31453">
        <ele>99.3</ele>
        <time>2013-08-13T20:09:02.693Z</time>
      </trkpt>
      <trkpt lat="48.85353" lon="2.31453">
        <ele>98.5</ele>
        <time>2013-08-13T20:09:03.810Z</time>
      </trkpt>
      <trkpt lat="48.85358" lon="2.31456">
        <ele>96.6</ele>
        <time>2013-08-13T20:09:04.693Z</time>
      </trkpt>
      <trkpt lat="48.85364" lon="2.31458">
        <ele>97.7</ele>
        <time>2013-08-13T20:09:05.835Z</time>
      </trkpt>
      <trkpt lat="48.85367" lon="2.3146">
        <ele>97.4</ele>
        <time>2013-08-13T20:09:06.602Z</time>
      </trkpt>
      <trkpt lat="48.85372" lon="2.31468">
        <ele>94.2</ele>
        <time>2013-08-13T20:09:12.626Z</time>
      </trkpt>
      <trkpt lat="48.85373" lon="2.31471">
        <ele>92.2</ele>
        <time>2013-08-13T20:09:13.694Z</time>
      </trkpt>
      <trkpt lat="48.85381" lon="2.31473">
        <ele>92.7</ele>
        <time>2013-08-13T20:09:18.615Z</time>
      </trkpt>
      <trkpt lat="48.85384" lon="2.31473">
        <ele>92.5</ele>
        <time>2013-08-13T20:09:19.633Z</time>
      </trkpt>
      <trkpt lat="48.85391" lon="2.31474">
        <ele>92.9</ele>
        <time>2013-08-13T20:09:21.610Z</time>
      </trkpt>
      <trkpt lat="48.85395" lon="2.31473">
        <ele>94.2</ele>
        <time>2013-08-13T20:09:22.621Z</time>
      </trkpt>
      <trkpt lat="48.85403" lon="2.31474">
        <ele>93.7</ele>
        <time>2013-08-13T20:09:24.633Z</time>
      </trkpt>
      <trkpt lat="48.85407" lon="2.31474">
        <ele>94.7</ele>
        <time>2013-08-13T20:09:25.605Z</time>
      </trkpt>
      <trkpt lat="48.85414" lon="2.31475">
        <ele>93.2</ele>
        <time>2013-08-13T20:09:27.616Z</time>
      </trkpt>
      <trkpt lat="48.85419" lon="2.31476">
        <ele>92.3</ele>
        <time>2013-08-13T20:09:28.649Z</time>
      </trkpt>
      <trkpt lat="48.85427" lon="2.31477">
        <ele>93.6</ele>
        <time>2013-08-13T20:09:30.607Z</time>
      </trkpt>
      <trkpt lat="48.85431" lon="2.31478">
        <ele>93.5</ele>
        <time>2013-08-13T20:09:31.611Z</time>
      </trkpt>
      <trkpt lat="48.85438" lon="2.31481">
        <ele>93.6</ele>
        <time>2013-08-13T20:09:33.623Z</time>
      </trkpt>
      <trkpt lat="48.85443" lon="2.31481">
        <ele>93.2</ele>
        <time>2013-08-13T20:09:34.615Z</time>
      </trkpt>
      <trkpt lat="48.85449" lon="2.3148">
        <ele>94.4</ele>
        <time>2013-08-13T20:09:35.603Z</time>
      </trkpt>
      <trkpt lat="48.85454" lon="2.31481">
        <ele>93.2</ele>
        <time>2013-08-13T20:09:36.623Z</time>
      </trkpt>
      <trkpt lat="48.85462" lon="2.31481">
        <ele>93.7</ele>
        <time>2013-08-13T20:09:38.603Z</time>
      </trkpt>
      <trkpt lat="48.85466" lon="2.31482">
        <ele>93.6</ele>
        <time>2013-08-13T20:09:39.616Z</time>
      </trkpt>
      <trkpt lat="48.85474" lon="2.31483">
        <ele>93.2</ele>
        <time>2013-08-13T20:09:41.595Z</time>
      </trkpt>
      <trkpt lat="48.85478" lon="2.31484">
        <ele>93.4</ele>
        <time>2013-08-13T20:09:42.614Z</time>
      </trkpt>
      <trkpt lat="48.85487" lon="2.31485">
        <ele>94.1</ele>
        <time>2013-08-13T20:09:44.617Z</time>
      </trkpt>
      <trkpt lat="48.85491" lon="2.31486">
        <ele>94.2</ele>
        <time>2013-08-13T20:09:45.597Z</time>
      </trkpt>
      <trkpt lat="48.85495" lon="2.31488">
        <ele>94.1</ele>
        <time>2013-08-13T20:09:46.616Z</time>
      </trkpt>
      <trkpt lat="48.85499" lon="2.3149">
        <ele>95.3</ele>
        <time>2013-08-13T20:09:47.599Z</time>
      </trkpt>
      <trkpt lat="48.85504" lon="2.31491">
        <ele>95.6</ele>
        <time>2013-08-13T20:09:48.635Z</time>
      </trkpt>
      <trkpt lat="48.85511" lon="2.31489">
        <ele>97.7</ele>
        <time>2013-08-13T20:09:49.633Z</time>
      </trkpt>
      <trkpt lat="48.85515" lon="2.31489">
        <ele>96.6</ele>
        <time>2013-08-13T20:09:50.598Z</time>
      </trkpt>
      <trkpt lat="48.8552" lon="2.31489">
        <ele>97.1</ele>
        <time>2013-08-13T20:09:51.616Z</time>
      </trkpt>
      <trkpt lat="48.85524" lon="2.3149">
        <ele>95.2</ele>
        <time>2013-08-13T20:09:52.615Z</time>
      </trkpt>
      <trkpt lat="48.85529" lon="2.31491">
        <ele>95.2</ele>
        <time>2013-08-13T20:09:53.605Z</time>
      </trkpt>
      <trkpt lat="48.85538" lon="2.31491">
        <ele>95.2</ele>
        <time>2013-08-13T20:09:55.598Z</time>
      </trkpt>
      <trkpt lat="48.85541" lon="2.31493">
        <ele>91.8</ele>
        <time>2013-08-13T20:09:56.588Z</time>
      </trkpt>
      <trkpt lat="48.85548" lon="2.31496">
        <ele>88.5</ele>
        <time>2013-08-13T20:09:58.634Z</time>
      </trkpt>
      <trkpt lat="48.85552" lon="2.31497">
        <ele>88.4</ele>
        <time>2013-08-13T20:09:59.628Z</time>
      </trkpt>
      <trkpt lat="48.8556" lon="2.31497">
        <ele>88.4</ele>
        <time>2013-08-13T20:10:01.591Z</time>
      </trkpt>
      <trkpt lat="48.85565" lon="2.31497">
        <ele>87.8</ele>
        <time>2013-08-13T20:10:02.623Z</time>
      </trkpt>
      <trkpt lat="48.8557" lon="2.31497">
        <ele>87.4</ele>
        <time>2013-08-13T20:10:03.643Z</time>
      </trkpt>
      <trkpt lat="48.85575" lon="2.31498">
        <ele>87.2</ele>
        <time>2013-08-13T20:10:04.664Z</time>
      </trkpt>
      <trkpt lat="48.85579" lon="2.315">
        <ele>87.2</ele>
        <time>2013-08-13T20:10:05.611Z</time>
      </trkpt>
      <trkpt lat="48.85584" lon="2.31502">
        <ele>87.5</ele>
        <time>2013-08-13T20:10:06.608Z</time>
      </trkpt>
      <trkpt lat="48.85589" lon="2.31503">
        <ele>86.9</ele>
        <time>2013-08-13T20:10:07.622Z</time>
      </trkpt>
      <trkpt lat="48.85594" lon="2.31503">
        <ele>89.9</ele>
        <time>2013-08-13T20:10:08.662Z</time>
      </trkpt>
      <trkpt lat="48.85599" lon="2.31503">
        <ele>89.7</ele>
        <time>2013-08-13T20:10:09.633Z</time>
      </trkpt>
      <trkpt lat="48.85604" lon="2.31503">
        <ele>89.7</ele>
        <time>2013-08-13T20:10:10.608Z</time>
      </trkpt>
      <trkpt lat="48.85609" lon="2.31503">
        <ele>90.2</ele>
        <time>2013-08-13T20:10:11.615Z</time>
      </trkpt>
      <trkpt lat="48.85614" lon="2.31503">
        <ele>90</ele>
        <time>2013-08-13T20:10:12.623Z</time>
      </trkpt>
      <trkpt lat="48.85618" lon="2.31504">
        <ele>89.5</ele>
        <time>2013-08-13T20:10:13.608Z</time>
      </trkpt>
      <trkpt lat="48.85623" lon="2.31505">
        <ele>90.6</ele>
        <time>2013-08-13T20:10:14.625Z</time>
      </trkpt>
      <trkpt lat="48.85628" lon="2.31506">
        <ele>90.5</ele>
        <time>2013-08-13T20:10:15.607Z</time>
      </trkpt>
      <trkpt lat="48.85633" lon="2.31507">
        <ele>89.6</ele>
        <time>2013-08-13T20:10:16.624Z</time>
      </trkpt>
      <trkpt lat="48.85638" lon="2.31507">
        <ele>89.7</ele>
        <time>2013-08-13T20:10:17.650Z</time>
      </trkpt>
      <trkpt lat="48.85643" lon="2.31508">
        <ele>88.6</ele>
        <time>2013-08-13T20:10:18.640Z</time>
      </trkpt>
      <trkpt lat="48.85648" lon="2.31509">
        <ele>87.3</ele>
        <time>2013-08-13T20:10:19.633Z</time>
      </trkpt>
      <trkpt lat="48.85652" lon="2.31511">
        <ele>85.5</ele>
        <time>2013-08-13T20:10:20.648Z</time>
      </trkpt>
      <trkpt lat="48.85657" lon="2.31511">
        <ele>84.7</ele>
        <time>2013-08-13T20:10:21.621Z</time>
      </trkpt>
      <trkpt lat="48.85662" lon="2.31512">
        <ele>83.8</ele>
        <time>2013-08-13T20:10:22.621Z</time>
      </trkpt>
      <trkpt lat="48.85667" lon="2.31512">
        <ele>83.8</ele>
        <time>2013-08-13T20:10:23.615Z</time>
      </trkpt>
      <trkpt lat="48.85673" lon="2.31513">
        <ele>83.6</ele>
        <time>2013-08-13T20:10:24.645Z</time>
      </trkpt>
      <trkpt lat="48.85679" lon="2.31512">
        <ele>82.4</ele>
        <time>2013-08-13T20:10:25.621Z</time>
      </trkpt>
      <trkpt lat="48.85685" lon="2.31511">
        <ele>81.1</ele>
        <time>2013-08-13T20:10:26.634Z</time>
      </trkpt>
      <trkpt lat="48.85692" lon="2.31511">
        <ele>80.4</ele>
        <time>2013-08-13T20:10:27.633Z</time>
      </trkpt>
      <trkpt lat="48.85698" lon="2.3151">
        <ele>80.2</ele>
        <time>2013-08-13T20:10:28.615Z</time>
      </trkpt>
      <trkpt lat="48.85705" lon="2.3151">
        <ele>80.1</ele>
        <time>2013-08-13T20:10:29.634Z</time>
      </trkpt>
      <trkpt lat="48.85711" lon="2.31511">
        <ele>80.5</ele>
        <time>2013-08-13T20:10:30.626Z</time>
      </trkpt>
      <trkpt lat="48.85718" lon="2.31511">
        <ele>80.2</ele>
        <time>2013-08-13T20:10:31.631Z</time>
      </trkpt>
      <trkpt lat="48.85724" lon="2.31512">
        <ele>79.2</ele>
        <time>2013-08-13T20:10:32.614Z</time>
      </trkpt>
      <trkpt lat="48.85729" lon="2.31513">
        <ele>80.2</ele>
        <time>2013-08-13T20:10:33.621Z</time>
      </trkpt>
      <trkpt lat="48.85735" lon="2.31515">
        <ele>80.8</ele>
        <time>2013-08-13T20:10:34.629Z</time>
      </trkpt>
      <trkpt lat="48.8574" lon="2.31517">
        <ele>80.8</ele>
        <time>2013-08-13T20:10:35.612Z</time>
      </trkpt>
      <trkpt lat="48.85745" lon="2.31518">
        <ele>81.1</ele>
        <time>2013-08-13T20:10:36.656Z</time>
      </trkpt>
      <trkpt lat="48.85749" lon="2.31519">
        <ele>80.7</ele>
        <time>2013-08-13T20:10:37.625Z</time>
      </trkpt>
      <trkpt lat="48.85754" lon="2.3152">
        <ele>80.2</ele>
        <time>2013-08-13T20:10:38.615Z</time>
      </trkpt>
      <trkpt lat="48.85759" lon="2.3152">
        <ele>79.3</ele>
        <time>2013-08-13T20:10:39.644Z</time>
      </trkpt>
      <trkpt lat="48.85764" lon="2.31521">
        <ele>79.5</ele>
        <time>2013-08-13T20:10:40.602Z</time>
      </trkpt>
      <trkpt lat="48.85769" lon="2.31522">
        <ele>79.2</ele>
        <time>2013-08-13T20:10:41.653Z</time>
      </trkpt>
      <trkpt lat="48.85774" lon="2.31524">
        <ele>78</ele>
        <time>2013-08-13T20:10:42.601Z</time>
      </trkpt>
      <trkpt lat="48.8578" lon="2.31525">
        <ele>77</ele>
        <time>2013-08-13T20:10:43.635Z</time>
      </trkpt>
      <trkpt lat="48.85785" lon="2.31526">
        <ele>76.5</ele>
        <time>2013-08-13T20:10:44.609Z</time>
      </trkpt>
      <trkpt lat="48.85791" lon="2.31527">
        <ele>76.7</ele>
        <time>2013-08-13T20:10:45.617Z</time>
      </trkpt>
      <trkpt lat="48.85796" lon="2.31524">
        <ele>76</ele>
        <time>2013-08-13T20:10:46.635Z</time>
      </trkpt>
      <trkpt lat="48.858" lon="2.3152">
        <ele>76.2</ele>
        <time>2013-08-13T20:10:47.656Z</time>
      </trkpt>
      <trkpt lat="48.85804" lon="2.31515">
        <ele>76.2</ele>
        <time>2013-08-13T20:10:48.593Z</time>
      </trkpt>
      <trkpt lat="48.85807" lon="2.31509">
        <ele>75.7</ele>
        <time>2013-08-13T20:10:49.680Z</time>
      </trkpt>
      <trkpt lat="48.85808" lon="2.31502">
        <ele>75.4</ele>
        <time>2013-08-13T20:10:50.634Z</time>
      </trkpt>
      <trkpt lat="48.85809" lon="2.31495">
        <ele>74.7</ele>
        <time>2013-08-13T20:10:51.621Z</time>
      </trkpt>
      <trkpt lat="48.85811" lon="2.31489">
        <ele>74</ele>
        <time>2013-08-13T20:10:52.636Z</time>
      </trkpt>
      <trkpt lat="48.85812" lon="2.31481">
        <ele>74.9</ele>
        <time>2013-08-13T20:10:53.627Z</time>
      </trkpt>
      <trkpt lat="48.85813" lon="2.31473">
        <ele>74.8</ele>
        <time>2013-08-13T20:10:54.738Z</time>
      </trkpt>
      <trkpt lat="48.85816" lon="2.31465">
        <ele>75.6</ele>
        <time>2013-08-13T20:10:56.658Z</time>
      </trkpt>
      <trkpt lat="48.85818" lon="2.3146">
        <ele>76.3</ele>
        <time>2013-08-13T20:10:57.784Z</time>
      </trkpt>
      <trkpt lat="48.85823" lon="2.3145">
        <ele>77.2</ele>
        <time>2013-08-13T20:10:59.642Z</time>
      </trkpt>
      <trkpt lat="48.85825" lon="2.31446">
        <ele>78</ele>
        <time>2013-08-13T20:11:00.608Z</time>
      </trkpt>
      <trkpt lat="48.8583" lon="2.31436">
        <ele>77.3</ele>
        <time>2013-08-13T20:11:02.624Z</time>
      </trkpt>
      <trkpt lat="48.85832" lon="2.3143">
        <ele>77.6</ele>
        <time>2013-08-13T20:11:03.639Z</time>
      </trkpt>
      <trkpt lat="48.85833" lon="2.31421">
        <ele>77.6</ele>
        <time>2013-08-13T20:11:04.654Z</time>
      </trkpt>
      <trkpt lat="48.85833" lon="2.31413">
        <ele>78.6</ele>
        <time>2013-08-13T20:11:05.604Z</time>
      </trkpt>
      <trkpt lat="48.85834" lon="2.31404">
        <ele>79.2</ele>
        <time>2013-08-13T20:11:06.634Z</time>
      </trkpt>
      <trkpt lat="48.85834" lon="2.31397">
        <ele>79.3</ele>
        <time>2013-08-13T20:11:07.601Z</time>
      </trkpt>
      <trkpt lat="48.85835" lon="2.3139">
        <ele>79.1</ele>
        <time>2013-08-13T20:11:08.645Z</time>
      </trkpt>
      <trkpt lat="48.85835" lon="2.31383">
        <ele>79.1</ele>
        <time>2013-08-13T20:11:09.616Z</time>
      </trkpt>
      <trkpt lat="48.85836" lon="2.31376">
        <ele>79.3</ele>
        <time>2013-08-13T20:11:10.624Z</time>
      </trkpt>
      <trkpt lat="48.85837" lon="2.31369">
        <ele>79.8</ele>
        <time>2013-08-13T20:11:11.621Z</time>
      </trkpt>
      <trkpt lat="48.85841" lon="2.31358">
        <ele>77.8</ele>
        <time>2013-08-13T20:11:13.605Z</time>
      </trkpt>
      <trkpt lat="48.85843" lon="2.31353">
        <ele>77.6</ele>
        <time>2013-08-13T20:11:14.625Z</time>
      </trkpt>
      <trkpt lat="48.85848" lon="2.31347">
        <ele>77</ele>
        <time>2013-08-13T20:11:16.635Z</time>
      </trkpt>
      <trkpt lat="48.85852" lon="2.31346">
        <ele>77.9</ele>
        <time>2013-08-13T20:11:17.625Z</time>
      </trkpt>
      <trkpt lat="48.85856" lon="2.31347">
        <ele>77.7</ele>
        <time>2013-08-13T20:11:18.629Z</time>
      </trkpt>
      <trkpt lat="48.85861" lon="2.31346">
        <ele>77.8</ele>
        <time>2013-08-13T20:11:19.634Z</time>
      </trkpt>
      <trkpt lat="48.85869" lon="2.31343">
        <ele>76.9</ele>
        <time>2013-08-13T20:11:21.673Z</time>
      </trkpt>
      <trkpt lat="48.85872" lon="2.3134">
        <ele>76.1</ele>
        <time>2013-08-13T20:11:22.617Z</time>
      </trkpt>
      <trkpt lat="48.85878" lon="2.31332">
        <ele>76.5</ele>
        <time>2013-08-13T20:11:24.664Z</time>
      </trkpt>
      <trkpt lat="48.8588" lon="2.31327">
        <ele>75.8</ele>
        <time>2013-08-13T20:11:25.613Z</time>
      </trkpt>
      <trkpt lat="48.85884" lon="2.31316">
        <ele>75.6</ele>
        <time>2013-08-13T20:11:27.611Z</time>
      </trkpt>
      <trkpt lat="48.85886" lon="2.3131">
        <ele>75.1</ele>
        <time>2013-08-13T20:11:28.606Z</time>
      </trkpt>
      <trkpt lat="48.85893" lon="2.31303">
        <ele>73.7</ele>
        <time>2013-08-13T20:11:30.634Z</time>
      </trkpt>
      <trkpt lat="48.85897" lon="2.31303">
        <ele>73.8</ele>
        <time>2013-08-13T20:11:31.625Z</time>
      </trkpt>
      <trkpt lat="48.85902" lon="2.31305">
        <ele>73.8</ele>
        <time>2013-08-13T20:11:32.607Z</time>
      </trkpt>
      <trkpt lat="48.85906" lon="2.31306">
        <ele>73.4</ele>
        <time>2013-08-13T20:11:33.618Z</time>
      </trkpt>
      <trkpt lat="48.85911" lon="2.31311">
        <ele>73.7</ele>
        <time>2013-08-13T20:11:34.624Z</time>
      </trkpt>
      <trkpt lat="48.85917" lon="2.31314">
        <ele>73.7</ele>
        <time>2013-08-13T20:11:35.651Z</time>
      </trkpt>
      <trkpt lat="48.85922" lon="2.31316">
        <ele>73.4</ele>
        <time>2013-08-13T20:11:36.611Z</time>
      </trkpt>
      <trkpt lat="48.85927" lon="2.31317">
        <ele>73.1</ele>
        <time>2013-08-13T20:11:37.604Z</time>
      </trkpt>
      <trkpt lat="48.85933" lon="2.31318">
        <ele>73.2</ele>
        <time>2013-08-13T20:11:39.101Z</time>
      </trkpt>
      <trkpt lat="48.85937" lon="2.31318">
        <ele>74.4</ele>
        <time>2013-08-13T20:11:39.631Z</time>
      </trkpt>
      <trkpt lat="48.85943" lon="2.31318">
        <ele>74.8</ele>
        <time>2013-08-13T20:11:40.834Z</time>
      </trkpt>
      <trkpt lat="48.85948" lon="2.3132">
        <ele>72.7</ele>
        <time>2013-08-13T20:11:41.623Z</time>
      </trkpt>
      <trkpt lat="48.85953" lon="2.31321">
        <ele>73.4</ele>
        <time>2013-08-13T20:11:42.616Z</time>
      </trkpt>
      <trkpt lat="48.85958" lon="2.31322">
        <ele>73.6</ele>
        <time>2013-08-13T20:11:43.620Z</time>
      </trkpt>
      <trkpt lat="48.85963" lon="2.31325">
        <ele>72.9</ele>
        <time>2013-08-13T20:11:44.625Z</time>
      </trkpt>
      <trkpt lat="48.85968" lon="2.31326">
        <ele>73.2</ele>
        <time>2013-08-13T20:11:45.655Z</time>
      </trkpt>
      <trkpt lat="48.85976" lon="2.31327">
        <ele>72.8</ele>
        <time>2013-08-13T20:11:47.611Z</time>
      </trkpt>
      <trkpt lat="48.8598" lon="2.31329">
        <ele>72</ele>
        <time>2013-08-13T20:11:48.607Z</time>
      </trkpt>
      <trkpt lat="48.85987" lon="2.31337">
        <ele>72.2</ele>
        <time>2013-08-13T20:11:51.605Z</time>
      </trkpt>
      <trkpt lat="48.85988" lon="2.31339">
        <ele>72.2</ele>
        <time>2013-08-13T20:11:52.605Z</time>
      </trkpt>
      <trkpt lat="48.85989" lon="2.31342">
        <ele>74.3</ele>
        <time>2013-08-13T20:11:57.643Z</time>
      </trkpt>
      <trkpt lat="48.85989" lon="2.31342">
        <ele>74.1</ele>
        <time>2013-08-13T20:11:58.631Z</time>
      </trkpt>
      <trkpt lat="48.8599" lon="2.31342">
        <ele>74.6</ele>
        <time>2013-08-13T20:12:48.644Z</time>
      </trkpt>
      <trkpt lat="48.8599" lon="2.31342">
        <ele>74.5</ele>
        <time>2013-08-13T20:12:49.656Z</time>
      </trkpt>
      <trkpt lat="48.85999" lon="2.31342">
        <ele>75.2</ele>
        <time>2013-08-13T20:12:53.651Z</time>
      </trkpt>
      <trkpt lat="48.86001" lon="2.31341">
        <ele>75.6</ele>
        <time>2013-08-13T20:12:54.637Z</time>
      </trkpt>
      <trkpt lat="48.86009" lon="2.31334">
        <ele>75.5</ele>
        <time>2013-08-13T20:12:57.644Z</time>
      </trkpt>
      <trkpt lat="48.86012" lon="2.31332">
        <ele>75.1</ele>
        <time>2013-08-13T20:12:58.635Z</time>
      </trkpt>
      <trkpt lat="48.86019" lon="2.31329">
        <ele>75.5</ele>
        <time>2013-08-13T20:13:00.754Z</time>
      </trkpt>
      <trkpt lat="48.86022" lon="2.31327">
        <ele>75.3</ele>
        <time>2013-08-13T20:13:01.833Z</time>
      </trkpt>
      <trkpt lat="48.86029" lon="2.31323">
        <ele>75.3</ele>
        <time>2013-08-13T20:13:03.724Z</time>
      </trkpt>
      <trkpt lat="48.86032" lon="2.3132">
        <ele>75.2</ele>
        <time>2013-08-13T20:13:04.695Z</time>
      </trkpt>
      <trkpt lat="48.8604" lon="2.31314">
        <ele>75.3</ele>
        <time>2013-08-13T20:13:06.661Z</time>
      </trkpt>
      <trkpt lat="48.86044" lon="2.31311">
        <ele>74.7</ele>
        <time>2013-08-13T20:13:07.668Z</time>
      </trkpt>
      <trkpt lat="48.86051" lon="2.31305">
        <ele>75.1</ele>
        <time>2013-08-13T20:13:09.756Z</time>
      </trkpt>
      <trkpt lat="48.86055" lon="2.31303">
        <ele>75.2</ele>
        <time>2013-08-13T20:13:10.766Z</time>
      </trkpt>
      <trkpt lat="48.86062" lon="2.31302">
        <ele>74.3</ele>
        <time>2013-08-13T20:13:12.682Z</time>
      </trkpt>
      <trkpt lat="48.86066" lon="2.31302">
        <ele>74.5</ele>
        <time>2013-08-13T20:13:13.638Z</time>
      </trkpt>
      <trkpt lat="48.86072" lon="2.31302">
        <ele>74.8</ele>
        <time>2013-08-13T20:13:15.724Z</time>
      </trkpt>
      <trkpt lat="48.86075" lon="2.31302">
        <ele>74.7</ele>
        <time>2013-08-13T20:13:16.729Z</time>
      </trkpt>
      <trkpt lat="48.86081" lon="2.31302">
        <ele>75.1</ele>
        <time>2013-08-13T20:13:18.643Z</time>
      </trkpt>
      <trkpt lat="48.86084" lon="2.31303">
        <ele>75.2</ele>
        <time>2013-08-13T20:13:19.653Z</time>
      </trkpt>
      <trkpt lat="48.86093" lon="2.31303">
        <ele>74</ele>
        <time>2013-08-13T20:13:22.660Z</time>
      </trkpt>
      <trkpt lat="48.86095" lon="2.313">
        <ele>73.5</ele>
        <time>2013-08-13T20:13:23.637Z</time>
      </trkpt>
      <trkpt lat="48.861" lon="2.31291">
        <ele>73</ele>
        <time>2013-08-13T20:13:26.672Z</time>
      </trkpt>
      <trkpt lat="48.861" lon="2.31288">
        <ele>73.6</ele>
        <time>2013-08-13T20:13:27.633Z</time>
      </trkpt>
      <trkpt lat="48.861" lon="2.31275">
        <ele>73.3</ele>
        <time>2013-08-13T20:13:30.684Z</time>
      </trkpt>
      <trkpt lat="48.86101" lon="2.31271">
        <ele>73.1</ele>
        <time>2013-08-13T20:13:31.715Z</time>
      </trkpt>
      <trkpt lat="48.86103" lon="2.31262">
        <ele>72.2</ele>
        <time>2013-08-13T20:13:33.633Z</time>
      </trkpt>
      <trkpt lat="48.86105" lon="2.31257">
        <ele>72</ele>
        <time>2013-08-13T20:13:34.634Z</time>
      </trkpt>
      <trkpt lat="48.86109" lon="2.31248">
        <ele>72.9</ele>
        <time>2013-08-13T20:13:36.663Z</time>
      </trkpt>
      <trkpt lat="48.8611" lon="2.31244">
        <ele>74.3</ele>
        <time>2013-08-13T20:13:37.751Z</time>
      </trkpt>
      <trkpt lat="48.86112" lon="2.31234">
        <ele>74.4</ele>
        <time>2013-08-13T20:13:39.664Z</time>
      </trkpt>
      <trkpt lat="48.86113" lon="2.31229">
        <ele>74.2</ele>
        <time>2013-08-13T20:13:40.661Z</time>
      </trkpt>
      <trkpt lat="48.86115" lon="2.31219">
        <ele>75.1</ele>
        <time>2013-08-13T20:13:42.683Z</time>
      </trkpt>
      <trkpt lat="48.86115" lon="2.31214">
        <ele>74.8</ele>
        <time>2013-08-13T20:13:43.684Z</time>
      </trkpt>
      <trkpt lat="48.86117" lon="2.31202">
        <ele>73.9</ele>
        <time>2013-08-13T20:13:47.734Z</time>
      </trkpt>
      <trkpt lat="48.86117" lon="2.312">
        <ele>75.4</ele>
        <time>2013-08-13T20:13:48.762Z</time>
      </trkpt>
      <trkpt lat="48.86117" lon="2.31196">
        <ele>78.2</ele>
        <time>2013-08-13T20:14:01.631Z</time>
      </trkpt>
      <trkpt lat="48.86117" lon="2.31196">
        <ele>78.3</ele>
        <time>2013-08-13T20:14:02.629Z</time>
      </trkpt>
      <trkpt lat="48.86118" lon="2.31196">
        <ele>78.9</ele>
        <time>2013-08-13T20:18:55.581Z</time>
      </trkpt>
      <trkpt lat="48.86119" lon="2.31199">
        <ele>72.3</ele>
        <time>2013-08-13T20:18:56.553Z</time>
      </trkpt>
      <trkpt lat="48.86122" lon="2.31208">
        <ele>71.6</ele>
        <time>2013-08-13T20:18:58.552Z</time>
      </trkpt>
      <trkpt lat="48.86123" lon="2.31215">
        <ele>73.1</ele>
        <time>2013-08-13T20:18:59.582Z</time>
      </trkpt>
      <trkpt lat="48.86124" lon="2.31228">
        <ele>70.3</ele>
        <time>2013-08-13T20:19:01.570Z</time>
      </trkpt>
      <trkpt lat="48.86124" lon="2.31234">
        <ele>72.5</ele>
        <time>2013-08-13T20:19:02.541Z</time>
      </trkpt>
      <trkpt lat="48.86124" lon="2.31247">
        <ele>72.6</ele>
        <time>2013-08-13T20:19:04.568Z</time>
      </trkpt>
      <trkpt lat="48.86123" lon="2.31253">
        <ele>71.6</ele>
        <time>2013-08-13T20:19:05.558Z</time>
      </trkpt>
      <trkpt lat="48.86122" lon="2.31265">
        <ele>71.9</ele>
        <time>2013-08-13T20:19:07.573Z</time>
      </trkpt>
      <trkpt lat="48.86121" lon="2.31271">
        <ele>72.1</ele>
        <time>2013-08-13T20:19:08.589Z</time>
      </trkpt>
      <trkpt lat="48.8612" lon="2.31282">
        <ele>73.5</ele>
        <time>2013-08-13T20:19:10.538Z</time>
      </trkpt>
      <trkpt lat="48.8612" lon="2.31287">
        <ele>74.1</ele>
        <time>2013-08-13T20:19:11.566Z</time>
      </trkpt>
      <trkpt lat="48.8612" lon="2.31299">
        <ele>76.4</ele>
        <time>2013-08-13T20:19:14.549Z</time>
      </trkpt>
      <trkpt lat="48.86122" lon="2.31302">
        <ele>76.1</ele>
        <time>2013-08-13T20:19:15.589Z</time>
      </trkpt>
      <trkpt lat="48.86129" lon="2.31307">
        <ele>75.5</ele>
        <time>2013-08-13T20:19:18.797Z</time>
      </trkpt>
      <trkpt lat="48.86131" lon="2.31307">
        <ele>75.1</ele>
        <time>2013-08-13T20:19:19.578Z</time>
      </trkpt>
      <trkpt lat="48.86138" lon="2.31308">
        <ele>75.5</ele>
        <time>2013-08-13T20:19:21.600Z</time>
      </trkpt>
      <trkpt lat="48.86141" lon="2.31307">
        <ele>76.1</ele>
        <time>2013-08-13T20:19:22.747Z</time>
      </trkpt>
      <trkpt lat="48.86148" lon="2.31307">
        <ele>77.5</ele>
        <time>2013-08-13T20:19:24.682Z</time>
      </trkpt>
      <trkpt lat="48.86152" lon="2.31307">
        <ele>78</ele>
        <time>2013-08-13T20:19:25.819Z</time>
      </trkpt>
      <trkpt lat="48.86159" lon="2.31307">
        <ele>77.4</ele>
        <time>2013-08-13T20:19:27.569Z</time>
      </trkpt>
      <trkpt lat="48.86163" lon="2.31307">
        <ele>77.1</ele>
        <time>2013-08-13T20:19:28.547Z</time>
      </trkpt>
      <trkpt lat="48.8617" lon="2.31308">
        <ele>77.4</ele>
        <time>2013-08-13T20:19:30.578Z</time>
      </trkpt>
      <trkpt lat="48.86174" lon="2.31308">
        <ele>77.8</ele>
        <time>2013-08-13T20:19:31.562Z</time>
      </trkpt>
      <trkpt lat="48.86181" lon="2.31309">
        <ele>78.5</ele>
        <time>2013-08-13T20:19:33.640Z</time>
      </trkpt>
      <trkpt lat="48.86184" lon="2.3131">
        <ele>78.5</ele>
        <time>2013-08-13T20:19:34.559Z</time>
      </trkpt>
      <trkpt lat="48.86192" lon="2.31311">
        <ele>77.6</ele>
        <time>2013-08-13T20:19:36.551Z</time>
      </trkpt>
      <trkpt lat="48.86195" lon="2.31311">
        <ele>77.7</ele>
        <time>2013-08-13T20:19:37.576Z</time>
      </trkpt>
      <trkpt lat="48.86202" lon="2.31312">
        <ele>78</ele>
        <time>2013-08-13T20:19:39.559Z</time>
      </trkpt>
      <trkpt lat="48.86206" lon="2.31313">
        <ele>77.5</ele>
        <time>2013-08-13T20:19:40.572Z</time>
      </trkpt>
      <trkpt lat="48.86213" lon="2.31314">
        <ele>78.1</ele>
        <time>2013-08-13T20:19:42.544Z</time>
      </trkpt>
      <trkpt lat="48.86217" lon="2.31315">
        <ele>78.2</ele>
        <time>2013-08-13T20:19:43.570Z</time>
      </trkpt>
      <trkpt lat="48.86224" lon="2.31317">
        <ele>78.3</ele>
        <time>2013-08-13T20:19:45.611Z</time>
      </trkpt>
      <trkpt lat="48.86227" lon="2.31317">
        <ele>77.7</ele>
        <time>2013-08-13T20:19:46.557Z</time>
      </trkpt>
      <trkpt lat="48.86234" lon="2.31319">
        <ele>79.3</ele>
        <time>2013-08-13T20:19:48.562Z</time>
      </trkpt>
      <trkpt lat="48.86238" lon="2.31319">
        <ele>79.8</ele>
        <time>2013-08-13T20:19:49.575Z</time>
      </trkpt>
      <trkpt lat="48.86244" lon="2.3132">
        <ele>79.9</ele>
        <time>2013-08-13T20:19:51.573Z</time>
      </trkpt>
      <trkpt lat="48.86247" lon="2.3132">
        <ele>80.6</ele>
        <time>2013-08-13T20:19:52.574Z</time>
      </trkpt>
      <trkpt lat="48.86253" lon="2.3132">
        <ele>80.6</ele>
        <time>2013-08-13T20:19:54.559Z</time>
      </trkpt>
      <trkpt lat="48.86256" lon="2.3132">
        <ele>80.3</ele>
        <time>2013-08-13T20:19:55.569Z</time>
      </trkpt>
      <trkpt lat="48.86263" lon="2.3132">
        <ele>79.6</ele>
        <time>2013-08-13T20:19:57.571Z</time>
      </trkpt>
      <trkpt lat="48.86266" lon="2.3132">
        <ele>79.6</ele>
        <time>2013-08-13T20:19:58.549Z</time>
      </trkpt>
      <trkpt lat="48.86272" lon="2.31319">
        <ele>79.1</ele>
        <time>2013-08-13T20:20:00.571Z</time>
      </trkpt>
      <trkpt lat="48.86275" lon="2.31318">
        <ele>78.9</ele>
        <time>2013-08-13T20:20:01.553Z</time>
      </trkpt>
      <trkpt lat="48.86281" lon="2.31318">
        <ele>79.1</ele>
        <time>2013-08-13T20:20:03.566Z</time>
      </trkpt>
      <trkpt lat="48.86284" lon="2.31317">
        <ele>79.2</ele>
        <time>2013-08-13T20:20:04.576Z</time>
      </trkpt>
      <trkpt lat="48.86293" lon="2.31317">
        <ele>79.9</ele>
        <time>2013-08-13T20:20:07.571Z</time>
      </trkpt>
      <trkpt lat="48.86296" lon="2.31318">
        <ele>80</ele>
        <time>2013-08-13T20:20:08.600Z</time>
      </trkpt>
      <trkpt lat="48.86303" lon="2.31323">
        <ele>80.5</ele>
        <time>2013-08-13T20:20:11.562Z</time>
      </trkpt>
      <trkpt lat="48.86305" lon="2.31324">
        <ele>80.3</ele>
        <time>2013-08-13T20:20:12.571Z</time>
      </trkpt>
      <trkpt lat="48.86311" lon="2.31326">
        <ele>81.3</ele>
        <time>2013-08-13T20:20:14.569Z</time>
      </trkpt>
      <trkpt lat="48.86314" lon="2.31326">
        <ele>81.5</ele>
        <time>2013-08-13T20:20:15.609Z</time>
      </trkpt>
      <trkpt lat="48.86321" lon="2.31327">
        <ele>81.8</ele>
        <time>2013-08-13T20:20:17.571Z</time>
      </trkpt>
      <trkpt lat="48.86325" lon="2.31327">
        <ele>81.6</ele>
        <time>2013-08-13T20:20:18.561Z</time>
      </trkpt>
      <trkpt lat="48.86332" lon="2.31327">
        <ele>79.5</ele>
        <time>2013-08-13T20:20:20.661Z</time>
      </trkpt>
      <trkpt lat="48.86336" lon="2.31328">
        <ele>79</ele>
        <time>2013-08-13T20:20:21.723Z</time>
      </trkpt>
      <trkpt lat="48.86342" lon="2.31328">
        <ele>79.8</ele>
        <time>2013-08-13T20:20:23.646Z</time>
      </trkpt>
      <trkpt lat="48.86346" lon="2.31329">
        <ele>81</ele>
        <time>2013-08-13T20:20:24.808Z</time>
      </trkpt>
      <trkpt lat="48.86352" lon="2.3133">
        <ele>80.7</ele>
        <time>2013-08-13T20:20:26.790Z</time>
      </trkpt>
      <trkpt lat="48.86355" lon="2.3133">
        <ele>80.5</ele>
        <time>2013-08-13T20:20:27.556Z</time>
      </trkpt>
      <trkpt lat="48.86361" lon="2.31332">
        <ele>80.9</ele>
        <time>2013-08-13T20:20:29.571Z</time>
      </trkpt>
      <trkpt lat="48.86364" lon="2.31333">
        <ele>81.1</ele>
        <time>2013-08-13T20:20:30.579Z</time>
      </trkpt>
      <trkpt lat="48.86372" lon="2.31334">
        <ele>79.4</ele>
        <time>2013-08-13T20:20:35.666Z</time>
      </trkpt>
      <trkpt lat="48.86373" lon="2.31335">
        <ele>78.6</ele>
        <time>2013-08-13T20:20:36.616Z</time>
      </trkpt>
      <trkpt lat="48.86382" lon="2.31336">
        <ele>79</ele>
        <time>2013-08-13T20:20:40.580Z</time>
      </trkpt>
      <trkpt lat="48.86385" lon="2.31337">
        <ele>79.3</ele>
        <time>2013-08-13T20:20:41.577Z</time>
      </trkpt>
      <trkpt lat="48.86392" lon="2.31339">
        <ele>79.7</ele>
        <time>2013-08-13T20:20:43.698Z</time>
      </trkpt>
      <trkpt lat="48.86395" lon="2.31339">
        <ele>79.7</ele>
        <time>2013-08-13T20:20:44.608Z</time>
      </trkpt>
      <trkpt lat="48.86401" lon="2.31341">
        <ele>79.6</ele>
        <time>2013-08-13T20:20:46.570Z</time>
      </trkpt>
      <trkpt lat="48.86405" lon="2.31342">
        <ele>79.6</ele>
        <time>2013-08-13T20:20:47.710Z</time>
      </trkpt>
      <trkpt lat="48.86411" lon="2.31345">
        <ele>79.5</ele>
        <time>2013-08-13T20:20:49.801Z</time>
      </trkpt>
      <trkpt lat="48.86413" lon="2.31348">
        <ele>78.8</ele>
        <time>2013-08-13T20:20:50.551Z</time>
      </trkpt>
      <trkpt lat="48.86418" lon="2.31356">
        <ele>78.2</ele>
        <time>2013-08-13T20:20:52.597Z</time>
      </trkpt>
      <trkpt lat="48.86419" lon="2.3136">
        <ele>77.4</ele>
        <time>2013-08-13T20:20:53.569Z</time>
      </trkpt>
      <trkpt lat="48.86425" lon="2.31368">
        <ele>77.2</ele>
        <time>2013-08-13T20:20:55.604Z</time>
      </trkpt>
      <trkpt lat="48.86428" lon="2.31371">
        <ele>77.5</ele>
        <time>2013-08-13T20:20:56.592Z</time>
      </trkpt>
      <trkpt lat="48.86434" lon="2.31378">
        <ele>77.7</ele>
        <time>2013-08-13T20:20:58.589Z</time>
      </trkpt>
      <trkpt lat="48.86437" lon="2.31382">
        <ele>78.1</ele>
        <time>2013-08-13T20:20:59.587Z</time>
      </trkpt>
      <trkpt lat="48.86443" lon="2.3139">
        <ele>78.4</ele>
        <time>2013-08-13T20:21:01.709Z</time>
      </trkpt>
      <trkpt lat="48.86446" lon="2.31393">
        <ele>77.4</ele>
        <time>2013-08-13T20:21:02.569Z</time>
      </trkpt>
      <trkpt lat="48.86451" lon="2.31398">
        <ele>77.4</ele>
        <time>2013-08-13T20:21:03.772Z</time>
      </trkpt>
      <trkpt lat="48.86455" lon="2.31402">
        <ele>76.4</ele>
        <time>2013-08-13T20:21:04.671Z</time>
      </trkpt>
      <trkpt lat="48.86459" lon="2.31407">
        <ele>76.8</ele>
        <time>2013-08-13T20:21:05.716Z</time>
      </trkpt>
      <trkpt lat="48.86461" lon="2.31413">
        <ele>76.7</ele>
        <time>2013-08-13T20:21:06.743Z</time>
      </trkpt>
      <trkpt lat="48.86463" lon="2.31425">
        <ele>77.6</ele>
        <time>2013-08-13T20:21:08.718Z</time>
      </trkpt>
      <trkpt lat="48.86464" lon="2.31432">
        <ele>76.7</ele>
        <time>2013-08-13T20:21:09.570Z</time>
      </trkpt>
      <trkpt lat="48.86466" lon="2.31444">
        <ele>76.9</ele>
        <time>2013-08-13T20:21:11.620Z</time>
      </trkpt>
      <trkpt lat="48.86468" lon="2.31451">
        <ele>77.4</ele>
        <time>2013-08-13T20:21:12.748Z</time>
      </trkpt>
      <trkpt lat="48.86471" lon="2.31456">
        <ele>77.4</ele>
        <time>2013-08-13T20:21:13.690Z</time>
      </trkpt>
      <trkpt lat="48.86474" lon="2.31463">
        <ele>77.5</ele>
        <time>2013-08-13T20:21:14.677Z</time>
      </trkpt>
      <trkpt lat="48.86475" lon="2.31471">
        <ele>76.9</ele>
        <time>2013-08-13T20:21:15.814Z</time>
      </trkpt>
      <trkpt lat="48.86476" lon="2.31479">
        <ele>77.2</ele>
        <time>2013-08-13T20:21:16.609Z</time>
      </trkpt>
      <trkpt lat="48.86478" lon="2.31491">
        <ele>77.2</ele>
        <time>2013-08-13T20:21:17.803Z</time>
      </trkpt>
      <trkpt lat="48.86479" lon="2.31501">
        <ele>77.3</ele>
        <time>2013-08-13T20:21:18.598Z</time>
      </trkpt>
      <trkpt lat="48.86479" lon="2.31512">
        <ele>77.4</ele>
        <time>2013-08-13T20:21:19.758Z</time>
      </trkpt>
      <trkpt lat="48.86479" lon="2.3152">
        <ele>77.9</ele>
        <time>2013-08-13T20:21:20.666Z</time>
      </trkpt>
      <trkpt lat="48.86479" lon="2.3153">
        <ele>77.6</ele>
        <time>2013-08-13T20:21:21.703Z</time>
      </trkpt>
      <trkpt lat="48.8648" lon="2.3154">
        <ele>77.9</ele>
        <time>2013-08-13T20:21:22.780Z</time>
      </trkpt>
      <trkpt lat="48.86478" lon="2.3155">
        <ele>78</ele>
        <time>2013-08-13T20:21:23.648Z</time>
      </trkpt>
      <trkpt lat="48.86476" lon="2.31562">
        <ele>77.2</ele>
        <time>2013-08-13T20:21:24.797Z</time>
      </trkpt>
      <trkpt lat="48.86476" lon="2.31569">
        <ele>78.3</ele>
        <time>2013-08-13T20:21:25.602Z</time>
      </trkpt>
      <trkpt lat="48.86478" lon="2.31578">
        <ele>78.7</ele>
        <time>2013-08-13T20:21:26.790Z</time>
      </trkpt>
      <trkpt lat="48.8648" lon="2.31586">
        <ele>78.4</ele>
        <time>2013-08-13T20:21:27.572Z</time>
      </trkpt>
      <trkpt lat="48.8648" lon="2.31596">
        <ele>79.3</ele>
        <time>2013-08-13T20:21:28.658Z</time>
      </trkpt>
      <trkpt lat="48.86481" lon="2.31605">
        <ele>79.2</ele>
        <time>2013-08-13T20:21:29.558Z</time>
      </trkpt>
      <trkpt lat="48.86481" lon="2.31615">
        <ele>80.2</ele>
        <time>2013-08-13T20:21:30.568Z</time>
      </trkpt>
      <trkpt lat="48.86482" lon="2.31624">
        <ele>80.1</ele>
        <time>2013-08-13T20:21:31.579Z</time>
      </trkpt>
      <trkpt lat="48.86482" lon="2.31636">
        <ele>80.3</ele>
        <time>2013-08-13T20:21:32.796Z</time>
      </trkpt>
      <trkpt lat="48.86481" lon="2.31646">
        <ele>80.2</ele>
        <time>2013-08-13T20:21:33.559Z</time>
      </trkpt>
      <trkpt lat="48.8648" lon="2.31655">
        <ele>80</ele>
        <time>2013-08-13T20:21:34.556Z</time>
      </trkpt>
      <trkpt lat="48.86481" lon="2.31664">
        <ele>80.6</ele>
        <time>2013-08-13T20:21:35.588Z</time>
      </trkpt>
      <trkpt lat="48.86482" lon="2.31673">
        <ele>80.7</ele>
        <time>2013-08-13T20:21:36.587Z</time>
      </trkpt>
      <trkpt lat="48.86483" lon="2.31683">
        <ele>81</ele>
        <time>2013-08-13T20:21:37.555Z</time>
      </trkpt>
      <trkpt lat="48.86483" lon="2.31691">
        <ele>80.1</ele>
        <time>2013-08-13T20:21:38.559Z</time>
      </trkpt>
      <trkpt lat="48.86483" lon="2.31704">
        <ele>79.3</ele>
        <time>2013-08-13T20:21:40.577Z</time>
      </trkpt>
      <trkpt lat="48.86483" lon="2.31709">
        <ele>79.7</ele>
        <time>2013-08-13T20:21:41.573Z</time>
      </trkpt>
      <trkpt lat="48.86484" lon="2.31721">
        <ele>79.5</ele>
        <time>2013-08-13T20:21:43.572Z</time>
      </trkpt>
      <trkpt lat="48.86482" lon="2.3173">
        <ele>79.5</ele>
        <time>2013-08-13T20:21:44.569Z</time>
      </trkpt>
      <trkpt lat="48.86481" lon="2.31739">
        <ele>79.5</ele>
        <time>2013-08-13T20:21:45.607Z</time>
      </trkpt>
      <trkpt lat="48.86481" lon="2.31749">
        <ele>78.3</ele>
        <time>2013-08-13T20:21:46.777Z</time>
      </trkpt>
      <trkpt lat="48.86481" lon="2.31761">
        <ele>80.6</ele>
        <time>2013-08-13T20:21:48.781Z</time>
      </trkpt>
      <trkpt lat="48.86484" lon="2.31768">
        <ele>81.2</ele>
        <time>2013-08-13T20:21:49.692Z</time>
      </trkpt>
      <trkpt lat="48.86485" lon="2.31781">
        <ele>81.8</ele>
        <time>2013-08-13T20:21:51.741Z</time>
      </trkpt>
      <trkpt lat="48.86486" lon="2.31787">
        <ele>82</ele>
        <time>2013-08-13T20:21:52.629Z</time>
      </trkpt>
      <trkpt lat="48.86484" lon="2.318">
        <ele>81.3</ele>
        <time>2013-08-13T20:21:54.580Z</time>
      </trkpt>
      <trkpt lat="48.86484" lon="2.31807">
        <ele>80.8</ele>
        <time>2013-08-13T20:21:55.550Z</time>
      </trkpt>
      <trkpt lat="48.86483" lon="2.3182">
        <ele>81.8</ele>
        <time>2013-08-13T20:21:57.584Z</time>
      </trkpt>
      <trkpt lat="48.86483" lon="2.31826">
        <ele>82.1</ele>
        <time>2013-08-13T20:21:58.565Z</time>
      </trkpt>
      <trkpt lat="48.86481" lon="2.31833">
        <ele>82.9</ele>
        <time>2013-08-13T20:21:59.577Z</time>
      </trkpt>
      <trkpt lat="48.86478" lon="2.3184">
        <ele>81.2</ele>
        <time>2013-08-13T20:22:00.578Z</time>
      </trkpt>
      <trkpt lat="48.86473" lon="2.31846">
        <ele>79.8</ele>
        <time>2013-08-13T20:22:01.588Z</time>
      </trkpt>
      <trkpt lat="48.86467" lon="2.31853">
        <ele>79.8</ele>
        <time>2013-08-13T20:22:02.580Z</time>
      </trkpt>
      <trkpt lat="48.86461" lon="2.31858">
        <ele>78.2</ele>
        <time>2013-08-13T20:22:03.575Z</time>
      </trkpt>
      <trkpt lat="48.86456" lon="2.31862">
        <ele>78.2</ele>
        <time>2013-08-13T20:22:04.593Z</time>
      </trkpt>
      <trkpt lat="48.86448" lon="2.31867">
        <ele>77.4</ele>
        <time>2013-08-13T20:22:07.582Z</time>
      </trkpt>
      <trkpt lat="48.86447" lon="2.31869">
        <ele>76.5</ele>
        <time>2013-08-13T20:22:08.557Z</time>
      </trkpt>
      <trkpt lat="48.86447" lon="2.31881">
        <ele>74.4</ele>
        <time>2013-08-13T20:22:12.580Z</time>
      </trkpt>
      <trkpt lat="48.86446" lon="2.31885">
        <ele>74.7</ele>
        <time>2013-08-13T20:22:13.561Z</time>
      </trkpt>
      <trkpt lat="48.86443" lon="2.31895">
        <ele>74.7</ele>
        <time>2013-08-13T20:22:15.562Z</time>
      </trkpt>
      <trkpt lat="48.86442" lon="2.319">
        <ele>74.5</ele>
        <time>2013-08-13T20:22:16.562Z</time>
      </trkpt>
      <trkpt lat="48.86439" lon="2.3191">
        <ele>74.6</ele>
        <time>2013-08-13T20:22:18.566Z</time>
      </trkpt>
      <trkpt lat="48.86437" lon="2.31915">
        <ele>76.2</ele>
        <time>2013-08-13T20:22:19.629Z</time>
      </trkpt>
      <trkpt lat="48.86435" lon="2.31926">
        <ele>77</ele>
        <time>2013-08-13T20:22:21.571Z</time>
      </trkpt>
      <trkpt lat="48.86433" lon="2.31931">
        <ele>76.3</ele>
        <time>2013-08-13T20:22:22.587Z</time>
      </trkpt>
      <trkpt lat="48.8643" lon="2.31942">
        <ele>81</ele>
        <time>2013-08-13T20:22:24.587Z</time>
      </trkpt>
      <trkpt lat="48.86428" lon="2.31947">
        <ele>81.6</ele>
        <time>2013-08-13T20:22:25.796Z</time>
      </trkpt>
      <trkpt lat="48.86425" lon="2.31956">
        <ele>82.2</ele>
        <time>2013-08-13T20:22:27.578Z</time>
      </trkpt>
      <trkpt lat="48.86423" lon="2.31961">
        <ele>81.4</ele>
        <time>2013-08-13T20:22:28.577Z</time>
      </trkpt>
      <trkpt lat="48.86419" lon="2.31971">
        <ele>79.7</ele>
        <time>2013-08-13T20:22:30.732Z</time>
      </trkpt>
      <trkpt lat="48.86418" lon="2.31976">
        <ele>81.4</ele>
        <time>2013-08-13T20:22:31.718Z</time>
      </trkpt>
      <trkpt lat="48.86415" lon="2.31985">
        <ele>83.1</ele>
        <time>2013-08-13T20:22:33.622Z</time>
      </trkpt>
      <trkpt lat="48.86412" lon="2.3199">
        <ele>81.8</ele>
        <time>2013-08-13T20:22:34.854Z</time>
      </trkpt>
      <trkpt lat="48.86408" lon="2.31998">
        <ele>82.5</ele>
        <time>2013-08-13T20:22:36.792Z</time>
      </trkpt>
      <trkpt lat="48.86406" lon="2.32002">
        <ele>82.8</ele>
        <time>2013-08-13T20:22:37.589Z</time>
      </trkpt>
      <trkpt lat="48.86403" lon="2.32013">
        <ele>82.6</ele>
        <time>2013-08-13T20:22:40.589Z</time>
      </trkpt>
      <trkpt lat="48.86402" lon="2.32016">
        <ele>82.7</ele>
        <time>2013-08-13T20:22:41.551Z</time>
      </trkpt>
      <trkpt lat="48.86398" lon="2.32027">
        <ele>82.3</ele>
        <time>2013-08-13T20:22:44.560Z</time>
      </trkpt>
      <trkpt lat="48.86397" lon="2.3203">
        <ele>82.4</ele>
        <time>2013-08-13T20:22:45.601Z</time>
      </trkpt>
      <trkpt lat="48.86394" lon="2.3204">
        <ele>81.8</ele>
        <time>2013-08-13T20:22:48.596Z</time>
      </trkpt>
      <trkpt lat="48.86392" lon="2.32044">
        <ele>80.9</ele>
        <time>2013-08-13T20:22:49.652Z</time>
      </trkpt>
      <trkpt lat="48.86389" lon="2.32052">
        <ele>80.7</ele>
        <time>2013-08-13T20:22:51.561Z</time>
      </trkpt>
      <trkpt lat="48.86387" lon="2.32058">
        <ele>80.5</ele>
        <time>2013-08-13T20:22:52.821Z</time>
      </trkpt>
      <trkpt lat="48.86385" lon="2.32067">
        <ele>81.1</ele>
        <time>2013-08-13T20:22:54.712Z</time>
      </trkpt>
      <trkpt lat="48.86384" lon="2.32073">
        <ele>81.5</ele>
        <time>2013-08-13T20:22:55.731Z</time>
      </trkpt>
      <trkpt lat="48.86382" lon="2.32082">
        <ele>82.5</ele>
        <time>2013-08-13T20:22:57.579Z</time>
      </trkpt>
      <trkpt lat="48.86381" lon="2.32087">
        <ele>83.4</ele>
        <time>2013-08-13T20:22:58.546Z</time>
      </trkpt>
      <trkpt lat="48.86378" lon="2.32096">
        <ele>82.7</ele>
        <time>2013-08-13T20:23:00.598Z</time>
      </trkpt>
      <trkpt lat="48.86377" lon="2.32101">
        <ele>83.9</ele>
        <time>2013-08-13T20:23:01.600Z</time>
      </trkpt>
      <trkpt lat="48.86374" lon="2.32111">
        <ele>84.3</ele>
        <time>2013-08-13T20:23:03.598Z</time>
      </trkpt>
      <trkpt lat="48.86373" lon="2.32116">
        <ele>84.6</ele>
        <time>2013-08-13T20:23:04.628Z</time>
      </trkpt>
      <trkpt lat="48.8637" lon="2.32126">
        <ele>86</ele>
        <time>2013-08-13T20:23:06.802Z</time>
      </trkpt>
      <trkpt lat="48.86369" lon="2.32131">
        <ele>85.6</ele>
        <time>2013-08-13T20:23:07.589Z</time>
      </trkpt>
      <trkpt lat="48.86366" lon="2.32141">
        <ele>86.2</ele>
        <time>2013-08-13T20:23:09.675Z</time>
      </trkpt>
      <trkpt lat="48.86365" lon="2.32148">
        <ele>86.9</ele>
        <time>2013-08-13T20:23:10.721Z</time>
      </trkpt>
      <trkpt lat="48.86363" lon="2.32155">
        <ele>86.9</ele>
        <time>2013-08-13T20:23:11.810Z</time>
      </trkpt>
      <trkpt lat="48.86362" lon="2.32162">
        <ele>89.1</ele>
        <time>2013-08-13T20:23:12.733Z</time>
      </trkpt>
      <trkpt lat="48.8636" lon="2.32172">
        <ele>90</ele>
        <time>2013-08-13T20:23:13.738Z</time>
      </trkpt>
      <trkpt lat="48.86358" lon="2.3218">
        <ele>90.8</ele>
        <time>2013-08-13T20:23:14.599Z</time>
      </trkpt>
      <trkpt lat="48.86355" lon="2.32189">
        <ele>91.1</ele>
        <time>2013-08-13T20:23:15.818Z</time>
      </trkpt>
      <trkpt lat="48.86354" lon="2.32196">
        <ele>90.9</ele>
        <time>2013-08-13T20:23:16.588Z</time>
      </trkpt>
      <trkpt lat="48.86352" lon="2.32203">
        <ele>89.8</ele>
        <time>2013-08-13T20:23:17.757Z</time>
      </trkpt>
      <trkpt lat="48.8635" lon="2.32209">
        <ele>91.7</ele>
        <time>2013-08-13T20:23:18.686Z</time>
      </trkpt>
      <trkpt lat="48.86347" lon="2.32221">
        <ele>93.5</ele>
        <time>2013-08-13T20:23:20.778Z</time>
      </trkpt>
      <trkpt lat="48.86346" lon="2.32227">
        <ele>93.4</ele>
        <time>2013-08-13T20:23:21.636Z</time>
      </trkpt>
      <trkpt lat="48.86343" lon="2.32238">
        <ele>95.3</ele>
        <time>2013-08-13T20:23:23.593Z</time>
      </trkpt>
      <trkpt lat="48.86342" lon="2.32245">
        <ele>95.4</ele>
        <time>2013-08-13T20:23:24.810Z</time>
      </trkpt>
      <trkpt lat="48.8634" lon="2.32251">
        <ele>95.1</ele>
        <time>2013-08-13T20:23:25.582Z</time>
      </trkpt>
      <trkpt lat="48.86338" lon="2.32258">
        <ele>95.9</ele>
        <time>2013-08-13T20:23:26.580Z</time>
      </trkpt>
      <trkpt lat="48.86336" lon="2.32265">
        <ele>94.4</ele>
        <time>2013-08-13T20:23:27.671Z</time>
      </trkpt>
      <trkpt lat="48.86333" lon="2.32272">
        <ele>94.4</ele>
        <time>2013-08-13T20:23:28.611Z</time>
      </trkpt>
      <trkpt lat="48.8633" lon="2.32284">
        <ele>93</ele>
        <time>2013-08-13T20:23:30.769Z</time>
      </trkpt>
      <trkpt lat="48.86329" lon="2.32289">
        <ele>91.2</ele>
        <time>2013-08-13T20:23:31.632Z</time>
      </trkpt>
      <trkpt lat="48.86325" lon="2.32297">
        <ele>85.6</ele>
        <time>2013-08-13T20:23:33.690Z</time>
      </trkpt>
      <trkpt lat="48.86323" lon="2.32302">
        <ele>84.9</ele>
        <time>2013-08-13T20:23:34.731Z</time>
      </trkpt>
      <trkpt lat="48.86319" lon="2.32312">
        <ele>85.6</ele>
        <time>2013-08-13T20:23:36.699Z</time>
      </trkpt>
      <trkpt lat="48.86317" lon="2.32316">
        <ele>85.4</ele>
        <time>2013-08-13T20:23:37.606Z</time>
      </trkpt>
      <trkpt lat="48.86315" lon="2.32323">
        <ele>84.6</ele>
        <time>2013-08-13T20:23:38.608Z</time>
      </trkpt>
      <trkpt lat="48.86312" lon="2.32331">
        <ele>84.7</ele>
        <time>2013-08-13T20:23:39.621Z</time>
      </trkpt>
      <trkpt lat="48.8631" lon="2.32338">
        <ele>85.7</ele>
        <time>2013-08-13T20:23:40.610Z</time>
      </trkpt>
      <trkpt lat="48.86307" lon="2.32345">
        <ele>86.6</ele>
        <time>2013-08-13T20:23:41.570Z</time>
      </trkpt>
      <trkpt lat="48.86305" lon="2.32352">
        <ele>87.1</ele>
        <time>2013-08-13T20:23:42.599Z</time>
      </trkpt>
      <trkpt lat="48.86303" lon="2.32359">
        <ele>86.6</ele>
        <time>2013-08-13T20:23:43.604Z</time>
      </trkpt>
      <trkpt lat="48.86301" lon="2.32366">
        <ele>86.8</ele>
        <time>2013-08-13T20:23:44.598Z</time>
      </trkpt>
      <trkpt lat="48.86299" lon="2.32373">
        <ele>87.8</ele>
        <time>2013-08-13T20:23:45.570Z</time>
      </trkpt>
      <trkpt lat="48.86294" lon="2.32381">
        <ele>87.4</ele>
        <time>2013-08-13T20:23:46.580Z</time>
      </trkpt>
      <trkpt lat="48.86291" lon="2.32389">
        <ele>88.1</ele>
        <time>2013-08-13T20:23:47.567Z</time>
      </trkpt>
      <trkpt lat="48.86287" lon="2.32398">
        <ele>87.9</ele>
        <time>2013-08-13T20:23:48.707Z</time>
      </trkpt>
      <trkpt lat="48.86285" lon="2.32405">
        <ele>88</ele>
        <time>2013-08-13T20:23:49.651Z</time>
      </trkpt>
      <trkpt lat="48.86283" lon="2.32411">
        <ele>87.9</ele>
        <time>2013-08-13T20:23:50.603Z</time>
      </trkpt>
      <trkpt lat="48.86281" lon="2.32418">
        <ele>86.5</ele>
        <time>2013-08-13T20:23:51.711Z</time>
      </trkpt>
      <trkpt lat="48.86277" lon="2.32429">
        <ele>84.9</ele>
        <time>2013-08-13T20:23:53.654Z</time>
      </trkpt>
      <trkpt lat="48.86275" lon="2.32434">
        <ele>85.8</ele>
        <time>2013-08-13T20:23:54.777Z</time>
      </trkpt>
      <trkpt lat="48.86271" lon="2.32443">
        <ele>85.8</ele>
        <time>2013-08-13T20:23:56.591Z</time>
      </trkpt>
      <trkpt lat="48.86268" lon="2.3245">
        <ele>86.6</ele>
        <time>2013-08-13T20:23:57.569Z</time>
      </trkpt>
      <trkpt lat="48.86264" lon="2.32461">
        <ele>85.2</ele>
        <time>2013-08-13T20:23:59.799Z</time>
      </trkpt>
      <trkpt lat="48.86263" lon="2.32466">
        <ele>85.2</ele>
        <time>2013-08-13T20:24:00.655Z</time>
      </trkpt>
      <trkpt lat="48.8626" lon="2.32477">
        <ele>84.3</ele>
        <time>2013-08-13T20:24:02.628Z</time>
      </trkpt>
      <trkpt lat="48.86258" lon="2.32483">
        <ele>84.1</ele>
        <time>2013-08-13T20:24:03.811Z</time>
      </trkpt>
      <trkpt lat="48.86255" lon="2.32493">
        <ele>84.9</ele>
        <time>2013-08-13T20:24:05.650Z</time>
      </trkpt>
      <trkpt lat="48.86254" lon="2.32496">
        <ele>85.4</ele>
        <time>2013-08-13T20:24:06.562Z</time>
      </trkpt>
      <trkpt lat="48.86251" lon="2.32507">
        <ele>84.5</ele>
        <time>2013-08-13T20:24:11.583Z</time>
      </trkpt>
      <trkpt lat="48.8625" lon="2.32511">
        <ele>84.9</ele>
        <time>2013-08-13T20:24:12.670Z</time>
      </trkpt>
      <trkpt lat="48.86247" lon="2.3252">
        <ele>83</ele>
        <time>2013-08-13T20:24:14.586Z</time>
      </trkpt>
      <trkpt lat="48.86245" lon="2.32525">
        <ele>82.1</ele>
        <time>2013-08-13T20:24:15.601Z</time>
      </trkpt>
      <trkpt lat="48.86242" lon="2.32535">
        <ele>82.7</ele>
        <time>2013-08-13T20:24:17.579Z</time>
      </trkpt>
      <trkpt lat="48.8624" lon="2.3254">
        <ele>82.6</ele>
        <time>2013-08-13T20:24:18.585Z</time>
      </trkpt>
      <trkpt lat="48.86236" lon="2.32549">
        <ele>81.7</ele>
        <time>2013-08-13T20:24:20.576Z</time>
      </trkpt>
      <trkpt lat="48.86235" lon="2.32553">
        <ele>81.5</ele>
        <time>2013-08-13T20:24:21.596Z</time>
      </trkpt>
      <trkpt lat="48.86232" lon="2.32565">
        <ele>81.7</ele>
        <time>2013-08-13T20:24:24.569Z</time>
      </trkpt>
      <trkpt lat="48.86231" lon="2.32569">
        <ele>81.4</ele>
        <time>2013-08-13T20:24:25.590Z</time>
      </trkpt>
      <trkpt lat="48.86229" lon="2.3258">
        <ele>81.6</ele>
        <time>2013-08-13T20:24:28.569Z</time>
      </trkpt>
      <trkpt lat="48.86228" lon="2.32584">
        <ele>81.6</ele>
        <time>2013-08-13T20:24:29.582Z</time>
      </trkpt>
      <trkpt lat="48.86224" lon="2.32596">
        <ele>81</ele>
        <time>2013-08-13T20:24:32.597Z</time>
      </trkpt>
      <trkpt lat="48.86223" lon="2.32599">
        <ele>82.5</ele>
        <time>2013-08-13T20:24:33.579Z</time>
      </trkpt>
      <trkpt lat="48.86219" lon="2.32611">
        <ele>82.2</ele>
        <time>2013-08-13T20:24:39.579Z</time>
      </trkpt>
      <trkpt lat="48.86218" lon="2.32614">
        <ele>82.2</ele>
        <time>2013-08-13T20:24:40.598Z</time>
      </trkpt>
      <trkpt lat="48.86215" lon="2.32623">
        <ele>80.9</ele>
        <time>2013-08-13T20:24:42.599Z</time>
      </trkpt>
      <trkpt lat="48.86214" lon="2.32629">
        <ele>82.3</ele>
        <time>2013-08-13T20:24:43.601Z</time>
      </trkpt>
      <trkpt lat="48.86211" lon="2.32635">
        <ele>82.9</ele>
        <time>2013-08-13T20:24:44.598Z</time>
      </trkpt>
      <trkpt lat="48.86209" lon="2.32642">
        <ele>82.8</ele>
        <time>2013-08-13T20:24:45.608Z</time>
      </trkpt>
      <trkpt lat="48.86207" lon="2.32649">
        <ele>82.2</ele>
        <time>2013-08-13T20:24:46.567Z</time>
      </trkpt>
      <trkpt lat="48.86204" lon="2.32656">
        <ele>83.3</ele>
        <time>2013-08-13T20:24:47.592Z</time>
      </trkpt>
      <trkpt lat="48.86202" lon="2.32663">
        <ele>84.3</ele>
        <time>2013-08-13T20:24:48.586Z</time>
      </trkpt>
      <trkpt lat="48.862" lon="2.32669">
        <ele>84.3</ele>
        <time>2013-08-13T20:24:49.599Z</time>
      </trkpt>
      <trkpt lat="48.86197" lon="2.32677">
        <ele>85.3</ele>
        <time>2013-08-13T20:24:50.797Z</time>
      </trkpt>
      <trkpt lat="48.86195" lon="2.32682">
        <ele>84.9</ele>
        <time>2013-08-13T20:24:51.579Z</time>
      </trkpt>
      <trkpt lat="48.86192" lon="2.3269">
        <ele>84.2</ele>
        <time>2013-08-13T20:24:52.799Z</time>
      </trkpt>
      <trkpt lat="48.8619" lon="2.32695">
        <ele>84.9</ele>
        <time>2013-08-13T20:24:53.637Z</time>
      </trkpt>
      <trkpt lat="48.86186" lon="2.32706">
        <ele>86.1</ele>
        <time>2013-08-13T20:24:55.843Z</time>
      </trkpt>
      <trkpt lat="48.86185" lon="2.3271">
        <ele>84.9</ele>
        <time>2013-08-13T20:24:56.672Z</time>
      </trkpt>
      <trkpt lat="48.86181" lon="2.3272">
        <ele>84.3</ele>
        <time>2013-08-13T20:24:58.625Z</time>
      </trkpt>
      <trkpt lat="48.86179" lon="2.32725">
        <ele>84.2</ele>
        <time>2013-08-13T20:24:59.598Z</time>
      </trkpt>
      <trkpt lat="48.86176" lon="2.32736">
        <ele>84.3</ele>
        <time>2013-08-13T20:25:01.601Z</time>
      </trkpt>
      <trkpt lat="48.86175" lon="2.32741">
        <ele>83.6</ele>
        <time>2013-08-13T20:25:02.644Z</time>
      </trkpt>
      <trkpt lat="48.86172" lon="2.32751">
        <ele>84.8</ele>
        <time>2013-08-13T20:25:04.601Z</time>
      </trkpt>
      <trkpt lat="48.86171" lon="2.32756">
        <ele>84</ele>
        <time>2013-08-13T20:25:05.599Z</time>
      </trkpt>
      <trkpt lat="48.86167" lon="2.32767">
        <ele>83.1</ele>
        <time>2013-08-13T20:25:07.608Z</time>
      </trkpt>
      <trkpt lat="48.86165" lon="2.32772">
        <ele>85.1</ele>
        <time>2013-08-13T20:25:08.589Z</time>
      </trkpt>
      <trkpt lat="48.8616" lon="2.32783">
        <ele>84</ele>
        <time>2013-08-13T20:25:10.601Z</time>
      </trkpt>
      <trkpt lat="48.86158" lon="2.32788">
        <ele>85.4</ele>
        <time>2013-08-13T20:25:11.584Z</time>
      </trkpt>
      <trkpt lat="48.86154" lon="2.328">
        <ele>86.3</ele>
        <time>2013-08-13T20:25:13.650Z</time>
      </trkpt>
      <trkpt lat="48.86152" lon="2.32805">
        <ele>87.7</ele>
        <time>2013-08-13T20:25:14.599Z</time>
      </trkpt>
      <trkpt lat="48.86148" lon="2.32817">
        <ele>87</ele>
        <time>2013-08-13T20:25:16.792Z</time>
      </trkpt>
      <trkpt lat="48.86147" lon="2.32821">
        <ele>88.4</ele>
        <time>2013-08-13T20:25:17.683Z</time>
      </trkpt>
      <trkpt lat="48.86144" lon="2.32832">
        <ele>88.6</ele>
        <time>2013-08-13T20:25:19.824Z</time>
      </trkpt>
      <trkpt lat="48.86143" lon="2.32837">
        <ele>89.1</ele>
        <time>2013-08-13T20:25:20.683Z</time>
      </trkpt>
      <trkpt lat="48.8614" lon="2.32847">
        <ele>87</ele>
        <time>2013-08-13T20:25:22.603Z</time>
      </trkpt>
      <trkpt lat="48.86138" lon="2.32854">
        <ele>86.7</ele>
        <time>2013-08-13T20:25:23.989Z</time>
      </trkpt>
      <trkpt lat="48.86136" lon="2.32863">
        <ele>86.7</ele>
        <time>2013-08-13T20:25:25.606Z</time>
      </trkpt>
      <trkpt lat="48.86134" lon="2.32869">
        <ele>87.5</ele>
        <time>2013-08-13T20:25:26.760Z</time>
      </trkpt>
      <trkpt lat="48.8613" lon="2.3288">
        <ele>89.3</ele>
        <time>2013-08-13T20:25:28.818Z</time>
      </trkpt>
      <trkpt lat="48.86128" lon="2.32885">
        <ele>88.4</ele>
        <time>2013-08-13T20:25:29.636Z</time>
      </trkpt>
      <trkpt lat="48.86124" lon="2.32894">
        <ele>87.2</ele>
        <time>2013-08-13T20:25:31.472Z</time>
      </trkpt>
      <trkpt lat="48.86122" lon="2.329">
        <ele>87.3</ele>
        <time>2013-08-13T20:25:32.710Z</time>
      </trkpt>
      <trkpt lat="48.86118" lon="2.32911">
        <ele>86.4</ele>
        <time>2013-08-13T20:25:34.678Z</time>
      </trkpt>
      <trkpt lat="48.86117" lon="2.32915">
        <ele>86.4</ele>
        <time>2013-08-13T20:25:35.499Z</time>
      </trkpt>
      <trkpt lat="48.86114" lon="2.32927">
        <ele>86.2</ele>
        <time>2013-08-13T20:25:37.748Z</time>
      </trkpt>
      <trkpt lat="48.86113" lon="2.32931">
        <ele>85.2</ele>
        <time>2013-08-13T20:25:38.549Z</time>
      </trkpt>
      <trkpt lat="48.8611" lon="2.3294">
        <ele>85.6</ele>
        <time>2013-08-13T20:25:40.477Z</time>
      </trkpt>
      <trkpt lat="48.86109" lon="2.32946">
        <ele>86.4</ele>
        <time>2013-08-13T20:25:41.475Z</time>
      </trkpt>
      <trkpt lat="48.86105" lon="2.32956">
        <ele>84.9</ele>
        <time>2013-08-13T20:25:43.520Z</time>
      </trkpt>
      <trkpt lat="48.86103" lon="2.3296">
        <ele>84.3</ele>
        <time>2013-08-13T20:25:44.472Z</time>
      </trkpt>
      <trkpt lat="48.86099" lon="2.3297">
        <ele>81.5</ele>
        <time>2013-08-13T20:25:46.518Z</time>
      </trkpt>
      <trkpt lat="48.86097" lon="2.32974">
        <ele>82.2</ele>
        <time>2013-08-13T20:25:47.495Z</time>
      </trkpt>
      <trkpt lat="48.86093" lon="2.32984">
        <ele>81.3</ele>
        <time>2013-08-13T20:25:50.649Z</time>
      </trkpt>
      <trkpt lat="48.86091" lon="2.32987">
        <ele>82.1</ele>
        <time>2013-08-13T20:25:51.706Z</time>
      </trkpt>
      <trkpt lat="48.86085" lon="2.32995">
        <ele>85.1</ele>
        <time>2013-08-13T20:25:58.740Z</time>
      </trkpt>
      <trkpt lat="48.86085" lon="2.32994">
        <ele>85</ele>
        <time>2013-08-13T20:25:59.611Z</time>
      </trkpt>
      <trkpt lat="48.86086" lon="2.32993">
        <ele>86.2</ele>
        <time>2013-08-13T20:27:57.589Z</time>
      </trkpt>
      <trkpt lat="48.86087" lon="2.32993">
        <ele>86.1</ele>
        <time>2013-08-13T20:27:58.662Z</time>
      </trkpt>
      <trkpt lat="48.86095" lon="2.32992">
        <ele>86.2</ele>
        <time>2013-08-13T20:28:01.760Z</time>
      </trkpt>
      <trkpt lat="48.86097" lon="2.32992">
        <ele>85.8</ele>
        <time>2013-08-13T20:28:02.558Z</time>
      </trkpt>
      <trkpt lat="48.86106" lon="2.32993">
        <ele>86</ele>
        <time>2013-08-13T20:28:05.514Z</time>
      </trkpt>
      <trkpt lat="48.86108" lon="2.32995">
        <ele>83.9</ele>
        <time>2013-08-13T20:28:06.510Z</time>
      </trkpt>
      <trkpt lat="48.86104" lon="2.33">
        <ele>84.7</ele>
        <time>2013-08-13T20:28:19.707Z</time>
      </trkpt>
      <trkpt lat="48.86104" lon="2.33">
        <ele>84.7</ele>
        <time>2013-08-13T20:28:20.504Z</time>
      </trkpt>
      <trkpt lat="48.86104" lon="2.33001">
        <ele>84.5</ele>
        <time>2013-08-13T20:29:14.497Z</time>
      </trkpt>
      <trkpt lat="48.86105" lon="2.33001">
        <ele>84.4</ele>
        <time>2013-08-13T20:29:15.521Z</time>
      </trkpt>
      <trkpt lat="48.86109" lon="2.33008">
        <ele>85.2</ele>
        <time>2013-08-13T20:29:18.529Z</time>
      </trkpt>
      <trkpt lat="48.86112" lon="2.33011">
        <ele>85.4</ele>
        <time>2013-08-13T20:29:19.527Z</time>
      </trkpt>
      <trkpt lat="48.86119" lon="2.33018">
        <ele>85.8</ele>
        <time>2013-08-13T20:29:21.513Z</time>
      </trkpt>
      <trkpt lat="48.86124" lon="2.33022">
        <ele>84.8</ele>
        <time>2013-08-13T20:29:22.538Z</time>
      </trkpt>
      <trkpt lat="48.86131" lon="2.33027">
        <ele>84.9</ele>
        <time>2013-08-13T20:29:23.761Z</time>
      </trkpt>
      <trkpt lat="48.86135" lon="2.33031">
        <ele>84.2</ele>
        <time>2013-08-13T20:29:24.501Z</time>
      </trkpt>
      <trkpt lat="48.86142" lon="2.33036">
        <ele>84.8</ele>
        <time>2013-08-13T20:29:25.701Z</time>
      </trkpt>
      <trkpt lat="48.86148" lon="2.33039">
        <ele>84.6</ele>
        <time>2013-08-13T20:29:26.528Z</time>
      </trkpt>
      <trkpt lat="48.86156" lon="2.33043">
        <ele>84.6</ele>
        <time>2013-08-13T20:29:27.628Z</time>
      </trkpt>
      <trkpt lat="48.86164" lon="2.33048">
        <ele>84.6</ele>
        <time>2013-08-13T20:29:28.699Z</time>
      </trkpt>
      <trkpt lat="48.86172" lon="2.33053">
        <ele>84.9</ele>
        <time>2013-08-13T20:29:29.522Z</time>
      </trkpt>
      <trkpt lat="48.86182" lon="2.33061">
        <ele>84.8</ele>
        <time>2013-08-13T20:29:30.521Z</time>
      </trkpt>
      <trkpt lat="48.86312" lon="2.33159">
        <ele>85.3</ele>
        <time>2013-08-13T20:29:49.530Z</time>
      </trkpt>
      <trkpt lat="48.86316" lon="2.3316">
        <ele>84.8</ele>
        <time>2013-08-13T20:29:50.554Z</time>
      </trkpt>
      <trkpt lat="48.86322" lon="2.3316">
        <ele>84.4</ele>
        <time>2013-08-13T20:29:51.530Z</time>
      </trkpt>
      <trkpt lat="48.86329" lon="2.33164">
        <ele>82.9</ele>
        <time>2013-08-13T20:29:55.531Z</time>
      </trkpt>
      <trkpt lat="48.86331" lon="2.33167">
        <ele>83</ele>
        <time>2013-08-13T20:29:56.519Z</time>
      </trkpt>
      <trkpt lat="48.86337" lon="2.33175">
        <ele>83</ele>
        <time>2013-08-13T20:29:59.518Z</time>
      </trkpt>
      <trkpt lat="48.8634" lon="2.33176">
        <ele>84.1</ele>
        <time>2013-08-13T20:30:00.540Z</time>
      </trkpt>
      <trkpt lat="48.86346" lon="2.33181">
        <ele>84.7</ele>
        <time>2013-08-13T20:30:03.486Z</time>
      </trkpt>
      <trkpt lat="48.86349" lon="2.33183">
        <ele>85.7</ele>
        <time>2013-08-13T20:30:04.511Z</time>
      </trkpt>
      <trkpt lat="48.86356" lon="2.33188">
        <ele>87.1</ele>
        <time>2013-08-13T20:30:07.574Z</time>
      </trkpt>
      <trkpt lat="48.86359" lon="2.3319">
        <ele>87.8</ele>
        <time>2013-08-13T20:30:08.525Z</time>
      </trkpt>
      <trkpt lat="48.86365" lon="2.33195">
        <ele>87.9</ele>
        <time>2013-08-13T20:30:11.538Z</time>
      </trkpt>
      <trkpt lat="48.86367" lon="2.33197">
        <ele>86.6</ele>
        <time>2013-08-13T20:30:12.692Z</time>
      </trkpt>
      <trkpt lat="48.86369" lon="2.33199">
        <ele>86.1</ele>
        <time>2013-08-13T20:30:16.546Z</time>
      </trkpt>
      <trkpt lat="48.86368" lon="2.33199">
        <ele>86.5</ele>
        <time>2013-08-13T20:30:17.699Z</time>
      </trkpt>
      <trkpt lat="48.86367" lon="2.33199">
        <ele>86.9</ele>
        <time>2013-08-13T20:30:18.551Z</time>
      </trkpt>
      <trkpt lat="48.86366" lon="2.33199">
        <ele>86.7</ele>
        <time>2013-08-13T20:30:21.521Z</time>
      </trkpt>
      <trkpt lat="48.86366" lon="2.33198">
        <ele>86.9</ele>
        <time>2013-08-13T20:30:22.517Z</time>
      </trkpt>
      <trkpt lat="48.86366" lon="2.33199">
        <ele>87</ele>
        <time>2013-08-13T20:31:43.520Z</time>
      </trkpt>
      <trkpt lat="48.86366" lon="2.332">
        <ele>86.7</ele>
        <time>2013-08-13T20:31:44.536Z</time>
      </trkpt>
      <trkpt lat="48.86364" lon="2.3321">
        <ele>84.1</ele>
        <time>2013-08-13T20:31:57.637Z</time>
      </trkpt>
      <trkpt lat="48.86364" lon="2.3321">
        <ele>84.1</ele>
        <time>2013-08-13T20:31:58.743Z</time>
      </trkpt>
      <trkpt lat="48.86365" lon="2.33209">
        <ele>83.8</ele>
        <time>2013-08-13T20:32:48.555Z</time>
      </trkpt>
      <trkpt lat="48.86365" lon="2.33209">
        <ele>82.4</ele>
        <time>2013-08-13T20:32:49.557Z</time>
      </trkpt>
      <trkpt lat="48.86371" lon="2.33216">
        <ele>79.7</ele>
        <time>2013-08-13T20:32:58.538Z</time>
      </trkpt>
      <trkpt lat="48.86373" lon="2.33219">
        <ele>80.4</ele>
        <time>2013-08-13T20:32:59.686Z</time>
      </trkpt>
      <trkpt lat="48.8638" lon="2.33223">
        <ele>82.6</ele>
        <time>2013-08-13T20:33:02.532Z</time>
      </trkpt>
      <trkpt lat="48.86383" lon="2.33224">
        <ele>82.4</ele>
        <time>2013-08-13T20:33:03.566Z</time>
      </trkpt>
      <trkpt lat="48.86391" lon="2.33226">
        <ele>83.4</ele>
        <time>2013-08-13T20:33:06.557Z</time>
      </trkpt>
      <trkpt lat="48.86394" lon="2.33227">
        <ele>83.7</ele>
        <time>2013-08-13T20:33:07.558Z</time>
      </trkpt>
      <trkpt lat="48.86401" lon="2.3323">
        <ele>85.2</ele>
        <time>2013-08-13T20:33:09.538Z</time>
      </trkpt>
      <trkpt lat="48.86405" lon="2.33232">
        <ele>85.8</ele>
        <time>2013-08-13T20:33:10.662Z</time>
      </trkpt>
      <trkpt lat="48.86412" lon="2.33236">
        <ele>86.5</ele>
        <time>2013-08-13T20:33:12.558Z</time>
      </trkpt>
      <trkpt lat="48.86416" lon="2.33237">
        <ele>87.5</ele>
        <time>2013-08-13T20:33:13.689Z</time>
      </trkpt>
      <trkpt lat="48.86424" lon="2.3324">
        <ele>88.9</ele>
        <time>2013-08-13T20:33:15.693Z</time>
      </trkpt>
      <trkpt lat="48.86427" lon="2.33241">
        <ele>89.4</ele>
        <time>2013-08-13T20:33:16.619Z</time>
      </trkpt>
      <trkpt lat="48.86435" lon="2.33243">
        <ele>89.6</ele>
        <time>2013-08-13T20:33:18.667Z</time>
      </trkpt>
      <trkpt lat="48.86439" lon="2.33244">
        <ele>89.7</ele>
        <time>2013-08-13T20:33:19.606Z</time>
      </trkpt>
      <trkpt lat="48.86446" lon="2.33248">
        <ele>89.5</ele>
        <time>2013-08-13T20:33:21.549Z</time>
      </trkpt>
      <trkpt lat="48.8645" lon="2.33251">
        <ele>89</ele>
        <time>2013-08-13T20:33:22.661Z</time>
      </trkpt>
      <trkpt lat="48.86456" lon="2.33257">
        <ele>89.4</ele>
        <time>2013-08-13T20:33:24.698Z</time>
      </trkpt>
      <trkpt lat="48.8646" lon="2.3326">
        <ele>89.4</ele>
        <time>2013-08-13T20:33:25.613Z</time>
      </trkpt>
      <trkpt lat="48.86467" lon="2.33265">
        <ele>89.3</ele>
        <time>2013-08-13T20:33:27.709Z</time>
      </trkpt>
      <trkpt lat="48.8647" lon="2.33267">
        <ele>90.1</ele>
        <time>2013-08-13T20:33:28.598Z</time>
      </trkpt>
      <trkpt lat="48.86478" lon="2.33273">
        <ele>89.8</ele>
        <time>2013-08-13T20:33:30.570Z</time>
      </trkpt>
      <trkpt lat="48.86482" lon="2.33277">
        <ele>89.8</ele>
        <time>2013-08-13T20:33:31.690Z</time>
      </trkpt>
      <trkpt lat="48.8649" lon="2.33283">
        <ele>92.8</ele>
        <time>2013-08-13T20:33:33.646Z</time>
      </trkpt>
      <trkpt lat="48.86494" lon="2.33285">
        <ele>94.2</ele>
        <time>2013-08-13T20:33:34.678Z</time>
      </trkpt>
      <trkpt lat="48.86503" lon="2.33287">
        <ele>95.1</ele>
        <time>2013-08-13T20:33:36.758Z</time>
      </trkpt>
      <trkpt lat="48.86506" lon="2.33289">
        <ele>96.2</ele>
        <time>2013-08-13T20:33:37.540Z</time>
      </trkpt>
      <trkpt lat="48.86511" lon="2.33292">
        <ele>95.2</ele>
        <time>2013-08-13T20:33:38.738Z</time>
      </trkpt>
      <trkpt lat="48.86516" lon="2.33295">
        <ele>96</ele>
        <time>2013-08-13T20:33:39.530Z</time>
      </trkpt>
      <trkpt lat="48.86522" lon="2.33299">
        <ele>96.2</ele>
        <time>2013-08-13T20:33:40.706Z</time>
      </trkpt>
      <trkpt lat="48.86526" lon="2.33303">
        <ele>96.6</ele>
        <time>2013-08-13T20:33:41.633Z</time>
      </trkpt>
      <trkpt lat="48.8653" lon="2.33307">
        <ele>96.2</ele>
        <time>2013-08-13T20:33:42.538Z</time>
      </trkpt>
      <trkpt lat="48.86535" lon="2.33312">
        <ele>96.1</ele>
        <time>2013-08-13T20:33:43.536Z</time>
      </trkpt>
      <trkpt lat="48.86539" lon="2.33316">
        <ele>96.8</ele>
        <time>2013-08-13T20:33:44.526Z</time>
      </trkpt>
      <trkpt lat="48.86544" lon="2.33319">
        <ele>97.2</ele>
        <time>2013-08-13T20:33:45.542Z</time>
      </trkpt>
      <trkpt lat="48.86549" lon="2.33322">
        <ele>97.7</ele>
        <time>2013-08-13T20:33:46.540Z</time>
      </trkpt>
      <trkpt lat="48.86553" lon="2.33325">
        <ele>97.8</ele>
        <time>2013-08-13T20:33:47.551Z</time>
      </trkpt>
      <trkpt lat="48.8656" lon="2.33331">
        <ele>96.7</ele>
        <time>2013-08-13T20:33:49.558Z</time>
      </trkpt>
      <trkpt lat="48.86563" lon="2.33335">
        <ele>96.9</ele>
        <time>2013-08-13T20:33:50.541Z</time>
      </trkpt>
      <trkpt lat="48.8657" lon="2.33339">
        <ele>97.2</ele>
        <time>2013-08-13T20:33:52.515Z</time>
      </trkpt>
      <trkpt lat="48.86573" lon="2.3334">
        <ele>97.8</ele>
        <time>2013-08-13T20:33:53.539Z</time>
      </trkpt>
      <trkpt lat="48.86579" lon="2.33347">
        <ele>93.8</ele>
        <time>2013-08-13T20:33:58.614Z</time>
      </trkpt>
      <trkpt lat="48.86581" lon="2.33348">
        <ele>91.7</ele>
        <time>2013-08-13T20:33:59.697Z</time>
      </trkpt>
      <trkpt lat="48.86588" lon="2.33353">
        <ele>87.1</ele>
        <time>2013-08-13T20:34:03.549Z</time>
      </trkpt>
      <trkpt lat="48.86592" lon="2.33356">
        <ele>84.8</ele>
        <time>2013-08-13T20:34:04.539Z</time>
      </trkpt>
      <trkpt lat="48.86599" lon="2.33363">
        <ele>85.4</ele>
        <time>2013-08-13T20:34:06.538Z</time>
      </trkpt>
      <trkpt lat="48.86603" lon="2.33367">
        <ele>86</ele>
        <time>2013-08-13T20:34:07.522Z</time>
      </trkpt>
      <trkpt lat="48.8661" lon="2.33374">
        <ele>87.1</ele>
        <time>2013-08-13T20:34:09.542Z</time>
      </trkpt>
      <trkpt lat="48.86613" lon="2.33378">
        <ele>86.7</ele>
        <time>2013-08-13T20:34:10.538Z</time>
      </trkpt>
      <trkpt lat="48.86619" lon="2.33384">
        <ele>86.3</ele>
        <time>2013-08-13T20:34:12.689Z</time>
      </trkpt>
      <trkpt lat="48.86621" lon="2.33387">
        <ele>86.4</ele>
        <time>2013-08-13T20:34:13.568Z</time>
      </trkpt>
      <trkpt lat="48.86627" lon="2.33393">
        <ele>90.7</ele>
        <time>2013-08-13T20:34:15.539Z</time>
      </trkpt>
      <trkpt lat="48.86629" lon="2.33395">
        <ele>94.4</ele>
        <time>2013-08-13T20:34:16.532Z</time>
      </trkpt>
      <trkpt lat="48.86637" lon="2.334">
        <ele>96.3</ele>
        <time>2013-08-13T20:34:20.529Z</time>
      </trkpt>
      <trkpt lat="48.86639" lon="2.33399">
        <ele>97.1</ele>
        <time>2013-08-13T20:34:21.529Z</time>
      </trkpt>
      <trkpt lat="48.86646" lon="2.33396">
        <ele>100.2</ele>
        <time>2013-08-13T20:34:24.597Z</time>
      </trkpt>
      <trkpt lat="48.8665" lon="2.33396">
        <ele>99.4</ele>
        <time>2013-08-13T20:34:25.550Z</time>
      </trkpt>
      <trkpt lat="48.86657" lon="2.33395">
        <ele>96.6</ele>
        <time>2013-08-13T20:34:27.528Z</time>
      </trkpt>
      <trkpt lat="48.86661" lon="2.33393">
        <ele>96.1</ele>
        <time>2013-08-13T20:34:28.534Z</time>
      </trkpt>
      <trkpt lat="48.86666" lon="2.3339">
        <ele>94.2</ele>
        <time>2013-08-13T20:34:29.556Z</time>
      </trkpt>
      <trkpt lat="48.86674" lon="2.33384">
        <ele>91.5</ele>
        <time>2013-08-13T20:34:30.546Z</time>
      </trkpt>
      <trkpt lat="48.86682" lon="2.33379">
        <ele>90.4</ele>
        <time>2013-08-13T20:34:31.533Z</time>
      </trkpt>
      <trkpt lat="48.86689" lon="2.33375">
        <ele>89.6</ele>
        <time>2013-08-13T20:34:32.556Z</time>
      </trkpt>
      <trkpt lat="48.86695" lon="2.33372">
        <ele>88</ele>
        <time>2013-08-13T20:34:33.538Z</time>
      </trkpt>
      <trkpt lat="48.867" lon="2.3337">
        <ele>87.1</ele>
        <time>2013-08-13T20:34:34.535Z</time>
      </trkpt>
      <trkpt lat="48.86705" lon="2.33368">
        <ele>87</ele>
        <time>2013-08-13T20:34:35.556Z</time>
      </trkpt>
      <trkpt lat="48.8671" lon="2.33368">
        <ele>86.8</ele>
        <time>2013-08-13T20:34:36.546Z</time>
      </trkpt>
      <trkpt lat="48.86718" lon="2.33365">
        <ele>85.9</ele>
        <time>2013-08-13T20:34:38.533Z</time>
      </trkpt>
      <trkpt lat="48.86722" lon="2.33363">
        <ele>85.2</ele>
        <time>2013-08-13T20:34:39.537Z</time>
      </trkpt>
      <trkpt lat="48.8673" lon="2.33361">
        <ele>84.4</ele>
        <time>2013-08-13T20:34:41.548Z</time>
      </trkpt>
      <trkpt lat="48.86735" lon="2.33361">
        <ele>83.9</ele>
        <time>2013-08-13T20:34:42.567Z</time>
      </trkpt>
      <trkpt lat="48.8674" lon="2.3336">
        <ele>82.8</ele>
        <time>2013-08-13T20:34:43.541Z</time>
      </trkpt>
      <trkpt lat="48.86745" lon="2.33359">
        <ele>82.4</ele>
        <time>2013-08-13T20:34:44.588Z</time>
      </trkpt>
      <trkpt lat="48.86753" lon="2.33357">
        <ele>81.3</ele>
        <time>2013-08-13T20:34:46.556Z</time>
      </trkpt>
      <trkpt lat="48.86758" lon="2.33355">
        <ele>82.4</ele>
        <time>2013-08-13T20:34:47.556Z</time>
      </trkpt>
      <trkpt lat="48.86765" lon="2.33351">
        <ele>83.8</ele>
        <time>2013-08-13T20:34:49.604Z</time>
      </trkpt>
      <trkpt lat="48.86768" lon="2.33348">
        <ele>83.2</ele>
        <time>2013-08-13T20:34:50.540Z</time>
      </trkpt>
      <trkpt lat="48.86775" lon="2.33343">
        <ele>85.5</ele>
        <time>2013-08-13T20:34:52.541Z</time>
      </trkpt>
      <trkpt lat="48.86779" lon="2.33341">
        <ele>85</ele>
        <time>2013-08-13T20:34:53.571Z</time>
      </trkpt>
      <trkpt lat="48.86783" lon="2.33339">
        <ele>84.2</ele>
        <time>2013-08-13T20:34:54.544Z</time>
      </trkpt>
      <trkpt lat="48.86789" lon="2.33338">
        <ele>84.4</ele>
        <time>2013-08-13T20:34:55.543Z</time>
      </trkpt>
      <trkpt lat="48.86794" lon="2.33335">
        <ele>84.3</ele>
        <time>2013-08-13T20:34:56.538Z</time>
      </trkpt>
      <trkpt lat="48.86799" lon="2.33333">
        <ele>84.7</ele>
        <time>2013-08-13T20:34:57.674Z</time>
      </trkpt>
      <trkpt lat="48.86804" lon="2.33329">
        <ele>83.4</ele>
        <time>2013-08-13T20:34:58.719Z</time>
      </trkpt>
      <trkpt lat="48.86808" lon="2.33326">
        <ele>82.6</ele>
        <time>2013-08-13T20:34:59.581Z</time>
      </trkpt>
      <trkpt lat="48.86814" lon="2.33322">
        <ele>82.2</ele>
        <time>2013-08-13T20:35:00.725Z</time>
      </trkpt>
      <trkpt lat="48.86818" lon="2.33319">
        <ele>81.7</ele>
        <time>2013-08-13T20:35:01.570Z</time>
      </trkpt>
      <trkpt lat="48.86824" lon="2.33316">
        <ele>81.6</ele>
        <time>2013-08-13T20:35:02.719Z</time>
      </trkpt>
      <trkpt lat="48.86829" lon="2.33313">
        <ele>81.4</ele>
        <time>2013-08-13T20:35:03.568Z</time>
      </trkpt>
      <trkpt lat="48.86834" lon="2.33311">
        <ele>81.8</ele>
        <time>2013-08-13T20:35:04.663Z</time>
      </trkpt>
      <trkpt lat="48.86839" lon="2.3331">
        <ele>81.9</ele>
        <time>2013-08-13T20:35:05.748Z</time>
      </trkpt>
      <trkpt lat="48.86844" lon="2.33308">
        <ele>81.3</ele>
        <time>2013-08-13T20:35:06.642Z</time>
      </trkpt>
      <trkpt lat="48.86849" lon="2.33305">
        <ele>81.3</ele>
        <time>2013-08-13T20:35:07.776Z</time>
      </trkpt>
      <trkpt lat="48.86856" lon="2.33302">
        <ele>81.9</ele>
        <time>2013-08-13T20:35:09.757Z</time>
      </trkpt>
      <trkpt lat="48.86859" lon="2.33301">
        <ele>82.2</ele>
        <time>2013-08-13T20:35:10.568Z</time>
      </trkpt>
      <trkpt lat="48.86868" lon="2.33299">
        <ele>83.2</ele>
        <time>2013-08-13T20:35:13.701Z</time>
      </trkpt>
      <trkpt lat="48.8687" lon="2.33298">
        <ele>82.6</ele>
        <time>2013-08-13T20:35:14.638Z</time>
      </trkpt>
      <trkpt lat="48.86878" lon="2.333">
        <ele>80.1</ele>
        <time>2013-08-13T20:35:18.578Z</time>
      </trkpt>
      <trkpt lat="48.86881" lon="2.33302">
        <ele>80.3</ele>
        <time>2013-08-13T20:35:19.528Z</time>
      </trkpt>
      <trkpt lat="48.86888" lon="2.33309">
        <ele>78.6</ele>
        <time>2013-08-13T20:35:22.561Z</time>
      </trkpt>
      <trkpt lat="48.8689" lon="2.3331">
        <ele>79</ele>
        <time>2013-08-13T20:35:23.541Z</time>
      </trkpt>
      <trkpt lat="48.86899" lon="2.33306">
        <ele>79.2</ele>
        <time>2013-08-13T20:35:26.579Z</time>
      </trkpt>
      <trkpt lat="48.86902" lon="2.33304">
        <ele>78</ele>
        <time>2013-08-13T20:35:27.775Z</time>
      </trkpt>
      <trkpt lat="48.86909" lon="2.33298">
        <ele>81.1</ele>
        <time>2013-08-13T20:35:30.559Z</time>
      </trkpt>
      <trkpt lat="48.86912" lon="2.33296">
        <ele>80.7</ele>
        <time>2013-08-13T20:35:31.665Z</time>
      </trkpt>
      <trkpt lat="48.86919" lon="2.33291">
        <ele>85.2</ele>
        <time>2013-08-13T20:35:34.699Z</time>
      </trkpt>
      <trkpt lat="48.86921" lon="2.33289">
        <ele>87</ele>
        <time>2013-08-13T20:35:35.537Z</time>
      </trkpt>
      <trkpt lat="48.86927" lon="2.33285">
        <ele>87.1</ele>
        <time>2013-08-13T20:35:37.568Z</time>
      </trkpt>
      <trkpt lat="48.86929" lon="2.33284">
        <ele>87.8</ele>
        <time>2013-08-13T20:35:38.587Z</time>
      </trkpt>
      <trkpt lat="48.86935" lon="2.33279">
        <ele>86.2</ele>
        <time>2013-08-13T20:35:40.550Z</time>
      </trkpt>
      <trkpt lat="48.86937" lon="2.33277">
        <ele>85.3</ele>
        <time>2013-08-13T20:35:41.564Z</time>
      </trkpt>
      <trkpt lat="48.86944" lon="2.33271">
        <ele>84.4</ele>
        <time>2013-08-13T20:35:43.552Z</time>
      </trkpt>
      <trkpt lat="48.86947" lon="2.33269">
        <ele>83.9</ele>
        <time>2013-08-13T20:35:44.564Z</time>
      </trkpt>
      <trkpt lat="48.86954" lon="2.33264">
        <ele>84.4</ele>
        <time>2013-08-13T20:35:46.533Z</time>
      </trkpt>
      <trkpt lat="48.86958" lon="2.33262">
        <ele>85.2</ele>
        <time>2013-08-13T20:35:47.562Z</time>
      </trkpt>
      <trkpt lat="48.86965" lon="2.33258">
        <ele>84.9</ele>
        <time>2013-08-13T20:35:49.549Z</time>
      </trkpt>
      <trkpt lat="48.86969" lon="2.33255">
        <ele>85.1</ele>
        <time>2013-08-13T20:35:50.552Z</time>
      </trkpt>
      <trkpt lat="48.86977" lon="2.33251">
        <ele>85.2</ele>
        <time>2013-08-13T20:35:52.556Z</time>
      </trkpt>
      <trkpt lat="48.86981" lon="2.3325">
        <ele>85.7</ele>
        <time>2013-08-13T20:35:53.534Z</time>
      </trkpt>
      <trkpt lat="48.86989" lon="2.33247">
        <ele>84.8</ele>
        <time>2013-08-13T20:35:55.552Z</time>
      </trkpt>
      <trkpt lat="48.86993" lon="2.33246">
        <ele>84</ele>
        <time>2013-08-13T20:35:56.550Z</time>
      </trkpt>
      <trkpt lat="48.86999" lon="2.33241">
        <ele>82</ele>
        <time>2013-08-13T20:35:58.549Z</time>
      </trkpt>
      <trkpt lat="48.87003" lon="2.33239">
        <ele>82.5</ele>
        <time>2013-08-13T20:35:59.544Z</time>
      </trkpt>
      <trkpt lat="48.87009" lon="2.33236">
        <ele>81.5</ele>
        <time>2013-08-13T20:36:01.551Z</time>
      </trkpt>
      <trkpt lat="48.87012" lon="2.33235">
        <ele>80.8</ele>
        <time>2013-08-13T20:36:02.549Z</time>
      </trkpt>
      <trkpt lat="48.8702" lon="2.33232">
        <ele>84.8</ele>
        <time>2013-08-13T20:36:05.541Z</time>
      </trkpt>
      <trkpt lat="48.87024" lon="2.33231">
        <ele>84.9</ele>
        <time>2013-08-13T20:36:06.707Z</time>
      </trkpt>
      <trkpt lat="48.8703" lon="2.3323">
        <ele>85.5</ele>
        <time>2013-08-13T20:36:08.690Z</time>
      </trkpt>
      <trkpt lat="48.87033" lon="2.33229">
        <ele>85.5</ele>
        <time>2013-08-13T20:36:09.534Z</time>
      </trkpt>
      <trkpt lat="48.87041" lon="2.33226">
        <ele>86.1</ele>
        <time>2013-08-13T20:36:12.558Z</time>
      </trkpt>
      <trkpt lat="48.87043" lon="2.33225">
        <ele>86</ele>
        <time>2013-08-13T20:36:13.589Z</time>
      </trkpt>
      <trkpt lat="48.8705" lon="2.3323">
        <ele>89.2</ele>
        <time>2013-08-13T20:36:18.560Z</time>
      </trkpt>
      <trkpt lat="48.87051" lon="2.33231">
        <ele>88.8</ele>
        <time>2013-08-13T20:36:19.577Z</time>
      </trkpt>
      <trkpt lat="48.87058" lon="2.33232">
        <ele>89.4</ele>
        <time>2013-08-13T20:36:22.558Z</time>
      </trkpt>
      <trkpt lat="48.87061" lon="2.33232">
        <ele>90.9</ele>
        <time>2013-08-13T20:36:23.564Z</time>
      </trkpt>
      <trkpt lat="48.87067" lon="2.33231">
        <ele>93</ele>
        <time>2013-08-13T20:36:25.551Z</time>
      </trkpt>
      <trkpt lat="48.8707" lon="2.3323">
        <ele>93.5</ele>
        <time>2013-08-13T20:36:26.556Z</time>
      </trkpt>
      <trkpt lat="48.87077" lon="2.33227">
        <ele>93.5</ele>
        <time>2013-08-13T20:36:28.537Z</time>
      </trkpt>
      <trkpt lat="48.87081" lon="2.33225">
        <ele>92.5</ele>
        <time>2013-08-13T20:36:29.570Z</time>
      </trkpt>
      <trkpt lat="48.87088" lon="2.33222">
        <ele>91</ele>
        <time>2013-08-13T20:36:31.545Z</time>
      </trkpt>
      <trkpt lat="48.87092" lon="2.33221">
        <ele>90.8</ele>
        <time>2013-08-13T20:36:32.562Z</time>
      </trkpt>
      <trkpt lat="48.87096" lon="2.33221">
        <ele>89.1</ele>
        <time>2013-08-13T20:36:33.547Z</time>
      </trkpt>
      <trkpt lat="48.87101" lon="2.33221">
        <ele>88.3</ele>
        <time>2013-08-13T20:36:34.611Z</time>
      </trkpt>
      <trkpt lat="48.87108" lon="2.3322">
        <ele>88</ele>
        <time>2013-08-13T20:36:36.563Z</time>
      </trkpt>
      <trkpt lat="48.87112" lon="2.33221">
        <ele>90</ele>
        <time>2013-08-13T20:36:37.546Z</time>
      </trkpt>
      <trkpt lat="48.87119" lon="2.33222">
        <ele>91.1</ele>
        <time>2013-08-13T20:36:39.591Z</time>
      </trkpt>
      <trkpt lat="48.87122" lon="2.33223">
        <ele>91.2</ele>
        <time>2013-08-13T20:36:40.557Z</time>
      </trkpt>
      <trkpt lat="48.87129" lon="2.33224">
        <ele>91.7</ele>
        <time>2013-08-13T20:36:42.568Z</time>
      </trkpt>
      <trkpt lat="48.87132" lon="2.33224">
        <ele>92.5</ele>
        <time>2013-08-13T20:36:43.549Z</time>
      </trkpt>
      <trkpt lat="48.87139" lon="2.33225">
        <ele>93</ele>
        <time>2013-08-13T20:36:45.529Z</time>
      </trkpt>
      <trkpt lat="48.87143" lon="2.33228">
        <ele>91.3</ele>
        <time>2013-08-13T20:36:46.566Z</time>
      </trkpt>
      <trkpt lat="48.87148" lon="2.3323">
        <ele>89.7</ele>
        <time>2013-08-13T20:36:47.720Z</time>
      </trkpt>
      <trkpt lat="48.87151" lon="2.33233">
        <ele>89.2</ele>
        <time>2013-08-13T20:36:48.743Z</time>
      </trkpt>
      <trkpt lat="48.87159" lon="2.33239">
        <ele>89.7</ele>
        <time>2013-08-13T20:36:50.548Z</time>
      </trkpt>
      <trkpt lat="48.87162" lon="2.33242">
        <ele>89.3</ele>
        <time>2013-08-13T20:36:51.550Z</time>
      </trkpt>
      <trkpt lat="48.87169" lon="2.33247">
        <ele>89.8</ele>
        <time>2013-08-13T20:36:53.564Z</time>
      </trkpt>
      <trkpt lat="48.87173" lon="2.33249">
        <ele>88.7</ele>
        <time>2013-08-13T20:36:54.588Z</time>
      </trkpt>
      <trkpt lat="48.87177" lon="2.33252">
        <ele>87.3</ele>
        <time>2013-08-13T20:36:55.550Z</time>
      </trkpt>
      <trkpt lat="48.87182" lon="2.33254">
        <ele>86.8</ele>
        <time>2013-08-13T20:36:56.546Z</time>
      </trkpt>
      <trkpt lat="48.87187" lon="2.33256">
        <ele>86.7</ele>
        <time>2013-08-13T20:36:57.533Z</time>
      </trkpt>
      <trkpt lat="48.87192" lon="2.33257">
        <ele>87.2</ele>
        <time>2013-08-13T20:36:58.584Z</time>
      </trkpt>
      <trkpt lat="48.87196" lon="2.33258">
        <ele>87.4</ele>
        <time>2013-08-13T20:36:59.537Z</time>
      </trkpt>
      <trkpt lat="48.87202" lon="2.33257">
        <ele>87.8</ele>
        <time>2013-08-13T20:37:00.576Z</time>
      </trkpt>
      <trkpt lat="48.87208" lon="2.33253">
        <ele>84.6</ele>
        <time>2013-08-13T20:37:01.658Z</time>
      </trkpt>
      <trkpt lat="48.87214" lon="2.33249">
        <ele>83.1</ele>
        <time>2013-08-13T20:37:02.552Z</time>
      </trkpt>
      <trkpt lat="48.8722" lon="2.33244">
        <ele>82.3</ele>
        <time>2013-08-13T20:37:03.547Z</time>
      </trkpt>
      <trkpt lat="48.87225" lon="2.3324">
        <ele>82.8</ele>
        <time>2013-08-13T20:37:04.553Z</time>
      </trkpt>
      <trkpt lat="48.8723" lon="2.33237">
        <ele>82.9</ele>
        <time>2013-08-13T20:37:05.568Z</time>
      </trkpt>
      <trkpt lat="48.87235" lon="2.33234">
        <ele>82.3</ele>
        <time>2013-08-13T20:37:06.546Z</time>
      </trkpt>
      <trkpt lat="48.87241" lon="2.33225">
        <ele>83.1</ele>
        <time>2013-08-13T20:37:08.565Z</time>
      </trkpt>
      <trkpt lat="48.87243" lon="2.3322">
        <ele>83.8</ele>
        <time>2013-08-13T20:37:09.589Z</time>
      </trkpt>
      <trkpt lat="48.87247" lon="2.33208">
        <ele>86.7</ele>
        <time>2013-08-13T20:37:12.588Z</time>
      </trkpt>
      <trkpt lat="48.87249" lon="2.33203">
        <ele>86.4</ele>
        <time>2013-08-13T20:37:13.590Z</time>
      </trkpt>
      <trkpt lat="48.87254" lon="2.33194">
        <ele>87.9</ele>
        <time>2013-08-13T20:37:15.579Z</time>
      </trkpt>
      <trkpt lat="48.87258" lon="2.3319">
        <ele>88.1</ele>
        <time>2013-08-13T20:37:16.588Z</time>
      </trkpt>
      <trkpt lat="48.87264" lon="2.33181">
        <ele>88.8</ele>
        <time>2013-08-13T20:37:18.547Z</time>
      </trkpt>
      <trkpt lat="48.87267" lon="2.33177">
        <ele>89.3</ele>
        <time>2013-08-13T20:37:19.631Z</time>
      </trkpt>
      <trkpt lat="48.87272" lon="2.33167">
        <ele>89.4</ele>
        <time>2013-08-13T20:37:21.574Z</time>
      </trkpt>
      <trkpt lat="48.87275" lon="2.33162">
        <ele>88.8</ele>
        <time>2013-08-13T20:37:22.533Z</time>
      </trkpt>
      <trkpt lat="48.87282" lon="2.33154">
        <ele>87.2</ele>
        <time>2013-08-13T20:37:24.580Z</time>
      </trkpt>
      <trkpt lat="48.87285" lon="2.3315">
        <ele>87.9</ele>
        <time>2013-08-13T20:37:25.553Z</time>
      </trkpt>
      <trkpt lat="48.87291" lon="2.33141">
        <ele>88</ele>
        <time>2013-08-13T20:37:27.588Z</time>
      </trkpt>
      <trkpt lat="48.87294" lon="2.33138">
        <ele>89.3</ele>
        <time>2013-08-13T20:37:28.538Z</time>
      </trkpt>
      <trkpt lat="48.87302" lon="2.33144">
        <ele>95</ele>
        <time>2013-08-13T20:37:42.763Z</time>
      </trkpt>
      <trkpt lat="48.87303" lon="2.33144">
        <ele>95</ele>
        <time>2013-08-13T20:37:43.644Z</time>
      </trkpt>
      <trkpt lat="48.87304" lon="2.33144">
        <ele>94.7</ele>
        <time>2013-08-13T20:37:49.562Z</time>
      </trkpt>
      <trkpt lat="48.87304" lon="2.33144">
        <ele>94.7</ele>
        <time>2013-08-13T20:37:50.558Z</time>
      </trkpt>
      <trkpt lat="48.87305" lon="2.33145">
        <ele>93.7</ele>
        <time>2013-08-13T20:38:09.554Z</time>
      </trkpt>
      <trkpt lat="48.87306" lon="2.33147">
        <ele>93.5</ele>
        <time>2013-08-13T20:38:10.592Z</time>
      </trkpt>
      <trkpt lat="48.87305" lon="2.33158">
        <ele>93.3</ele>
        <time>2013-08-13T20:38:14.543Z</time>
      </trkpt>
      <trkpt lat="48.87305" lon="2.33162">
        <ele>93.3</ele>
        <time>2013-08-13T20:38:15.569Z</time>
      </trkpt>
      <trkpt lat="48.87304" lon="2.33171">
        <ele>93.7</ele>
        <time>2013-08-13T20:38:17.544Z</time>
      </trkpt>
      <trkpt lat="48.87303" lon="2.33177">
        <ele>95.1</ele>
        <time>2013-08-13T20:38:18.559Z</time>
      </trkpt>
      <trkpt lat="48.873" lon="2.33183">
        <ele>93.7</ele>
        <time>2013-08-13T20:38:19.569Z</time>
      </trkpt>
      <trkpt lat="48.87298" lon="2.33189">
        <ele>93.9</ele>
        <time>2013-08-13T20:38:20.559Z</time>
      </trkpt>
      <trkpt lat="48.87295" lon="2.33195">
        <ele>93.2</ele>
        <time>2013-08-13T20:38:21.550Z</time>
      </trkpt>
      <trkpt lat="48.87289" lon="2.33201">
        <ele>93.2</ele>
        <time>2013-08-13T20:38:22.560Z</time>
      </trkpt>
      <trkpt lat="48.87282" lon="2.33207">
        <ele>87.3</ele>
        <time>2013-08-13T20:38:23.569Z</time>
      </trkpt>
      <trkpt lat="48.87275" lon="2.33216">
        <ele>85.8</ele>
        <time>2013-08-13T20:38:24.553Z</time>
      </trkpt>
      <trkpt lat="48.87269" lon="2.33224">
        <ele>85.4</ele>
        <time>2013-08-13T20:38:25.566Z</time>
      </trkpt>
      <trkpt lat="48.87264" lon="2.3323">
        <ele>85.6</ele>
        <time>2013-08-13T20:38:26.554Z</time>
      </trkpt>
      <trkpt lat="48.8726" lon="2.33236">
        <ele>86</ele>
        <time>2013-08-13T20:38:27.579Z</time>
      </trkpt>
      <trkpt lat="48.87256" lon="2.33241">
        <ele>85.4</ele>
        <time>2013-08-13T20:38:28.544Z</time>
      </trkpt>
      <trkpt lat="48.87251" lon="2.33244">
        <ele>84.9</ele>
        <time>2013-08-13T20:38:29.581Z</time>
      </trkpt>
      <trkpt lat="48.87247" lon="2.33249">
        <ele>84.1</ele>
        <time>2013-08-13T20:38:30.560Z</time>
      </trkpt>
      <trkpt lat="48.87242" lon="2.3326">
        <ele>83.8</ele>
        <time>2013-08-13T20:38:32.551Z</time>
      </trkpt>
      <trkpt lat="48.87242" lon="2.33266">
        <ele>83.8</ele>
        <time>2013-08-13T20:38:33.562Z</time>
      </trkpt>
      <trkpt lat="48.87242" lon="2.33278">
        <ele>85.3</ele>
        <time>2013-08-13T20:38:35.571Z</time>
      </trkpt>
      <trkpt lat="48.87244" lon="2.33282">
        <ele>83.3</ele>
        <time>2013-08-13T20:38:36.566Z</time>
      </trkpt>
      <trkpt lat="48.87248" lon="2.33287">
        <ele>84.2</ele>
        <time>2013-08-13T20:38:37.556Z</time>
      </trkpt>
      <trkpt lat="48.87253" lon="2.33293">
        <ele>84.2</ele>
        <time>2013-08-13T20:38:38.562Z</time>
      </trkpt>
      <trkpt lat="48.87257" lon="2.33299">
        <ele>85</ele>
        <time>2013-08-13T20:38:39.591Z</time>
      </trkpt>
      <trkpt lat="48.8726" lon="2.33303">
        <ele>84.6</ele>
        <time>2013-08-13T20:38:40.561Z</time>
      </trkpt>
      <trkpt lat="48.87268" lon="2.33309">
        <ele>83.4</ele>
        <time>2013-08-13T20:38:42.554Z</time>
      </trkpt>
      <trkpt lat="48.87271" lon="2.33309">
        <ele>84.3</ele>
        <time>2013-08-13T20:38:43.550Z</time>
      </trkpt>
      <trkpt lat="48.87279" lon="2.3331">
        <ele>82.3</ele>
        <time>2013-08-13T20:38:45.554Z</time>
      </trkpt>
      <trkpt lat="48.87283" lon="2.33307">
        <ele>82.4</ele>
        <time>2013-08-13T20:38:46.569Z</time>
      </trkpt>
      <trkpt lat="48.87289" lon="2.33299">
        <ele>83.9</ele>
        <time>2013-08-13T20:38:48.578Z</time>
      </trkpt>
      <trkpt lat="48.8729" lon="2.33294">
        <ele>84.9</ele>
        <time>2013-08-13T20:38:49.554Z</time>
      </trkpt>
      <trkpt lat="48.8729" lon="2.33287">
        <ele>85.9</ele>
        <time>2013-08-13T20:38:50.569Z</time>
      </trkpt>
      <trkpt lat="48.87289" lon="2.3328">
        <ele>85.8</ele>
        <time>2013-08-13T20:38:51.582Z</time>
      </trkpt>
      <trkpt lat="48.87288" lon="2.33273">
        <ele>86.4</ele>
        <time>2013-08-13T20:38:52.564Z</time>
      </trkpt>
      <trkpt lat="48.87287" lon="2.33266">
        <ele>85.8</ele>
        <time>2013-08-13T20:38:53.569Z</time>
      </trkpt>
      <trkpt lat="48.87287" lon="2.33259">
        <ele>86</ele>
        <time>2013-08-13T20:38:54.578Z</time>
      </trkpt>
      <trkpt lat="48.87287" lon="2.33252">
        <ele>85.8</ele>
        <time>2013-08-13T20:38:55.554Z</time>
      </trkpt>
      <trkpt lat="48.87287" lon="2.3324">
        <ele>85.9</ele>
        <time>2013-08-13T20:38:56.535Z</time>
      </trkpt>
      <trkpt lat="48.87288" lon="2.33229">
        <ele>85.7</ele>
        <time>2013-08-13T20:38:57.570Z</time>
      </trkpt>
      <trkpt lat="48.87288" lon="2.3322">
        <ele>85.4</ele>
        <time>2013-08-13T20:38:58.579Z</time>
      </trkpt>
      <trkpt lat="48.87288" lon="2.33211">
        <ele>84.7</ele>
        <time>2013-08-13T20:38:59.544Z</time>
      </trkpt>
      <trkpt lat="48.87289" lon="2.33203">
        <ele>83.3</ele>
        <time>2013-08-13T20:39:00.564Z</time>
      </trkpt>
      <trkpt lat="48.8729" lon="2.33196">
        <ele>82.8</ele>
        <time>2013-08-13T20:39:01.579Z</time>
      </trkpt>
      <trkpt lat="48.87295" lon="2.33188">
        <ele>83.7</ele>
        <time>2013-08-13T20:39:03.607Z</time>
      </trkpt>
      <trkpt lat="48.87299" lon="2.33186">
        <ele>83.2</ele>
        <time>2013-08-13T20:39:04.709Z</time>
      </trkpt>
      <trkpt lat="48.87303" lon="2.33179">
        <ele>88.3</ele>
        <time>2013-08-13T20:39:06.560Z</time>
      </trkpt>
      <trkpt lat="48.87304" lon="2.33174">
        <ele>88.5</ele>
        <time>2013-08-13T20:39:07.620Z</time>
      </trkpt>
      <trkpt lat="48.87305" lon="2.33163">
        <ele>94.9</ele>
        <time>2013-08-13T20:39:09.559Z</time>
      </trkpt>
      <trkpt lat="48.87305" lon="2.33157">
        <ele>95.5</ele>
        <time>2013-08-13T20:39:10.553Z</time>
      </trkpt>
      <trkpt lat="48.87303" lon="2.33144">
        <ele>98.3</ele>
        <time>2013-08-13T20:39:12.746Z</time>
      </trkpt>
      <trkpt lat="48.87303" lon="2.33139">
        <ele>99.7</ele>
        <time>2013-08-13T20:39:13.652Z</time>
      </trkpt>
      <trkpt lat="48.87302" lon="2.33126">
        <ele>104</ele>
        <time>2013-08-13T20:39:16.736Z</time>
      </trkpt>
      <trkpt lat="48.87303" lon="2.33125">
        <ele>105.6</ele>
        <time>2013-08-13T20:39:17.580Z</time>
      </trkpt>
      <trkpt lat="48.8731" lon="2.33125">
        <ele>110.8</ele>
        <time>2013-08-13T20:39:23.734Z</time>
      </trkpt>
      <trkpt lat="48.87312" lon="2.33125">
        <ele>111.6</ele>
        <time>2013-08-13T20:39:24.562Z</time>
      </trkpt>
      <trkpt lat="48.87319" lon="2.33125">
        <ele>116.2</ele>
        <time>2013-08-13T20:39:27.726Z</time>
      </trkpt>
      <trkpt lat="48.87321" lon="2.33125">
        <ele>116.2</ele>
        <time>2013-08-13T20:39:28.718Z</time>
      </trkpt>
      <trkpt lat="48.87329" lon="2.33126">
        <ele>118.8</ele>
        <time>2013-08-13T20:39:31.574Z</time>
      </trkpt>
      <trkpt lat="48.87331" lon="2.33126">
        <ele>119.8</ele>
        <time>2013-08-13T20:39:32.700Z</time>
      </trkpt>
      <trkpt lat="48.87338" lon="2.3313">
        <ele>119</ele>
        <time>2013-08-13T20:39:35.598Z</time>
      </trkpt>
      <trkpt lat="48.87341" lon="2.33131">
        <ele>119</ele>
        <time>2013-08-13T20:39:36.651Z</time>
      </trkpt>
      <trkpt lat="48.87349" lon="2.33134">
        <ele>119.3</ele>
        <time>2013-08-13T20:39:39.552Z</time>
      </trkpt>
      <trkpt lat="48.87353" lon="2.33134">
        <ele>119.4</ele>
        <time>2013-08-13T20:39:40.561Z</time>
      </trkpt>
      <trkpt lat="48.87357" lon="2.33134">
        <ele>119.4</ele>
        <time>2013-08-13T20:39:41.604Z</time>
      </trkpt>
      <trkpt lat="48.87362" lon="2.33134">
        <ele>118.7</ele>
        <time>2013-08-13T20:39:42.576Z</time>
      </trkpt>
      <trkpt lat="48.87368" lon="2.33134">
        <ele>118.2</ele>
        <time>2013-08-13T20:39:43.571Z</time>
      </trkpt>
      <trkpt lat="48.87373" lon="2.33134">
        <ele>117.4</ele>
        <time>2013-08-13T20:39:44.569Z</time>
      </trkpt>
      <trkpt lat="48.87378" lon="2.33134">
        <ele>117.2</ele>
        <time>2013-08-13T20:39:45.559Z</time>
      </trkpt>
      <trkpt lat="48.87384" lon="2.33134">
        <ele>115.3</ele>
        <time>2013-08-13T20:39:46.588Z</time>
      </trkpt>
      <trkpt lat="48.87391" lon="2.33135">
        <ele>115</ele>
        <time>2013-08-13T20:39:47.569Z</time>
      </trkpt>
      <trkpt lat="48.87397" lon="2.33135">
        <ele>115.2</ele>
        <time>2013-08-13T20:39:48.562Z</time>
      </trkpt>
      <trkpt lat="48.87405" lon="2.33133">
        <ele>110</ele>
        <time>2013-08-13T20:39:49.560Z</time>
      </trkpt>
      <trkpt lat="48.87411" lon="2.33132">
        <ele>110.1</ele>
        <time>2013-08-13T20:39:50.557Z</time>
      </trkpt>
      <trkpt lat="48.87418" lon="2.33131">
        <ele>110.3</ele>
        <time>2013-08-13T20:39:51.579Z</time>
      </trkpt>
      <trkpt lat="48.87424" lon="2.33132">
        <ele>110.2</ele>
        <time>2013-08-13T20:39:52.567Z</time>
      </trkpt>
      <trkpt lat="48.8743" lon="2.33132">
        <ele>110.9</ele>
        <time>2013-08-13T20:39:53.689Z</time>
      </trkpt>
      <trkpt lat="48.87433" lon="2.33134">
        <ele>110.8</ele>
        <time>2013-08-13T20:39:54.570Z</time>
      </trkpt>
      <trkpt lat="48.87438" lon="2.33132">
        <ele>109</ele>
        <time>2013-08-13T20:39:55.597Z</time>
      </trkpt>
      <trkpt lat="48.87443" lon="2.3313">
        <ele>108.5</ele>
        <time>2013-08-13T20:39:56.547Z</time>
      </trkpt>
      <trkpt lat="48.87451" lon="2.33129">
        <ele>107.7</ele>
        <time>2013-08-13T20:39:58.580Z</time>
      </trkpt>
      <trkpt lat="48.87455" lon="2.33128">
        <ele>107.3</ele>
        <time>2013-08-13T20:39:59.542Z</time>
      </trkpt>
      <trkpt lat="48.87458" lon="2.33126">
        <ele>108.5</ele>
        <time>2013-08-13T20:40:00.543Z</time>
      </trkpt>
      <trkpt lat="48.87463" lon="2.33123">
        <ele>105.4</ele>
        <time>2013-08-13T20:40:01.578Z</time>
      </trkpt>
      <trkpt lat="48.87468" lon="2.3312">
        <ele>104.8</ele>
        <time>2013-08-13T20:40:02.601Z</time>
      </trkpt>
      <trkpt lat="48.87472" lon="2.33118">
        <ele>103.5</ele>
        <time>2013-08-13T20:40:03.567Z</time>
      </trkpt>
      <trkpt lat="48.87477" lon="2.3312">
        <ele>102.5</ele>
        <time>2013-08-13T20:40:04.637Z</time>
      </trkpt>
      <trkpt lat="48.87481" lon="2.33122">
        <ele>102.9</ele>
        <time>2013-08-13T20:40:05.542Z</time>
      </trkpt>
      <trkpt lat="48.87486" lon="2.33126">
        <ele>103.6</ele>
        <time>2013-08-13T20:40:06.549Z</time>
      </trkpt>
      <trkpt lat="48.8749" lon="2.33129">
        <ele>103.7</ele>
        <time>2013-08-13T20:40:07.570Z</time>
      </trkpt>
      <trkpt lat="48.87494" lon="2.33132">
        <ele>104.1</ele>
        <time>2013-08-13T20:40:08.570Z</time>
      </trkpt>
      <trkpt lat="48.87498" lon="2.33136">
        <ele>104.2</ele>
        <time>2013-08-13T20:40:09.570Z</time>
      </trkpt>
      <trkpt lat="48.87504" lon="2.33134">
        <ele>104.2</ele>
        <time>2013-08-13T20:40:10.557Z</time>
      </trkpt>
      <trkpt lat="48.87509" lon="2.33132">
        <ele>104.9</ele>
        <time>2013-08-13T20:40:11.656Z</time>
      </trkpt>
      <trkpt lat="48.87518" lon="2.33133">
        <ele>105.2</ele>
        <time>2013-08-13T20:40:13.569Z</time>
      </trkpt>
      <trkpt lat="48.87522" lon="2.33133">
        <ele>105</ele>
        <time>2013-08-13T20:40:14.578Z</time>
      </trkpt>
      <trkpt lat="48.8753" lon="2.33131">
        <ele>106</ele>
        <time>2013-08-13T20:40:16.589Z</time>
      </trkpt>
      <trkpt lat="48.87535" lon="2.33131">
        <ele>105.4</ele>
        <time>2013-08-13T20:40:17.668Z</time>
      </trkpt>
      <trkpt lat="48.87539" lon="2.3313">
        <ele>105.1</ele>
        <time>2013-08-13T20:40:18.568Z</time>
      </trkpt>
      <trkpt lat="48.87544" lon="2.33128">
        <ele>105.9</ele>
        <time>2013-08-13T20:40:19.598Z</time>
      </trkpt>
      <trkpt lat="48.87549" lon="2.33128">
        <ele>104.8</ele>
        <time>2013-08-13T20:40:20.582Z</time>
      </trkpt>
      <trkpt lat="48.87553" lon="2.33127">
        <ele>104.5</ele>
        <time>2013-08-13T20:40:21.706Z</time>
      </trkpt>
      <trkpt lat="48.8756" lon="2.33127">
        <ele>102.7</ele>
        <time>2013-08-13T20:40:23.571Z</time>
      </trkpt>
      <trkpt lat="48.87566" lon="2.33126">
        <ele>96.8</ele>
        <time>2013-08-13T20:40:24.541Z</time>
      </trkpt>
      <trkpt lat="48.87572" lon="2.33123">
        <ele>93.4</ele>
        <time>2013-08-13T20:40:25.549Z</time>
      </trkpt>
      <trkpt lat="48.8758" lon="2.33117">
        <ele>88.7</ele>
        <time>2013-08-13T20:40:26.566Z</time>
      </trkpt>
      <trkpt lat="48.87586" lon="2.33114">
        <ele>83.9</ele>
        <time>2013-08-13T20:40:27.566Z</time>
      </trkpt>
      <trkpt lat="48.87592" lon="2.33114">
        <ele>81.6</ele>
        <time>2013-08-13T20:40:28.667Z</time>
      </trkpt>
      <trkpt lat="48.87597" lon="2.33115">
        <ele>80.3</ele>
        <time>2013-08-13T20:40:29.589Z</time>
      </trkpt>
      <trkpt lat="48.87601" lon="2.33117">
        <ele>79.8</ele>
        <time>2013-08-13T20:40:30.567Z</time>
      </trkpt>
      <trkpt lat="48.87608" lon="2.3312">
        <ele>80.1</ele>
        <time>2013-08-13T20:40:32.576Z</time>
      </trkpt>
      <trkpt lat="48.87611" lon="2.33121">
        <ele>80.7</ele>
        <time>2013-08-13T20:40:33.560Z</time>
      </trkpt>
      <trkpt lat="48.87619" lon="2.33121">
        <ele>86.3</ele>
        <time>2013-08-13T20:40:38.856Z</time>
      </trkpt>
      <trkpt lat="48.87621" lon="2.33121">
        <ele>87.7</ele>
        <time>2013-08-13T20:40:39.667Z</time>
      </trkpt>
      <trkpt lat="48.87629" lon="2.33124">
        <ele>94.4</ele>
        <time>2013-08-13T20:40:57.621Z</time>
      </trkpt>
      <trkpt lat="48.8763" lon="2.33123">
        <ele>92.5</ele>
        <time>2013-08-13T20:40:58.541Z</time>
      </trkpt>
      <trkpt lat="48.87633" lon="2.33112">
        <ele>88.7</ele>
        <time>2013-08-13T20:41:04.572Z</time>
      </trkpt>
      <trkpt lat="48.87635" lon="2.33106">
        <ele>82.8</ele>
        <time>2013-08-13T20:41:05.589Z</time>
      </trkpt>
      <trkpt lat="48.87639" lon="2.33094">
        <ele>81.7</ele>
        <time>2013-08-13T20:41:07.616Z</time>
      </trkpt>
      <trkpt lat="48.87641" lon="2.3309">
        <ele>82.5</ele>
        <time>2013-08-13T20:41:08.590Z</time>
      </trkpt>
      <trkpt lat="48.87649" lon="2.33086">
        <ele>85</ele>
        <time>2013-08-13T20:41:12.592Z</time>
      </trkpt>
      <trkpt lat="48.8765" lon="2.33087">
        <ele>87.4</ele>
        <time>2013-08-13T20:41:13.560Z</time>
      </trkpt>
      <trkpt lat="48.87658" lon="2.3309">
        <ele>92.5</ele>
        <time>2013-08-13T20:41:19.751Z</time>
      </trkpt>
      <trkpt lat="48.87659" lon="2.3309">
        <ele>93.1</ele>
        <time>2013-08-13T20:41:20.624Z</time>
      </trkpt>
      <trkpt lat="48.87667" lon="2.33094">
        <ele>97.2</ele>
        <time>2013-08-13T20:41:33.687Z</time>
      </trkpt>
      <trkpt lat="48.87669" lon="2.33094">
        <ele>98.2</ele>
        <time>2013-08-13T20:41:34.682Z</time>
      </trkpt>
      <trkpt lat="48.87675" lon="2.33093">
        <ele>98.8</ele>
        <time>2013-08-13T20:41:36.636Z</time>
      </trkpt>
      <trkpt lat="48.87679" lon="2.33092">
        <ele>99.8</ele>
        <time>2013-08-13T20:41:37.750Z</time>
      </trkpt>
      <trkpt lat="48.87688" lon="2.33089">
        <ele>100.7</ele>
        <time>2013-08-13T20:41:39.701Z</time>
      </trkpt>
      <trkpt lat="48.87692" lon="2.33088">
        <ele>101</ele>
        <time>2013-08-13T20:41:40.581Z</time>
      </trkpt>
      <trkpt lat="48.87697" lon="2.33087">
        <ele>102.3</ele>
        <time>2013-08-13T20:41:41.733Z</time>
      </trkpt>
      <trkpt lat="48.87701" lon="2.33085">
        <ele>102.4</ele>
        <time>2013-08-13T20:41:42.696Z</time>
      </trkpt>
      <trkpt lat="48.87709" lon="2.3308">
        <ele>100.4</ele>
        <time>2013-08-13T20:41:44.737Z</time>
      </trkpt>
      <trkpt lat="48.87712" lon="2.33076">
        <ele>100.7</ele>
        <time>2013-08-13T20:41:45.587Z</time>
      </trkpt>
      <trkpt lat="48.8772" lon="2.3307">
        <ele>99.8</ele>
        <time>2013-08-13T20:41:47.588Z</time>
      </trkpt>
      <trkpt lat="48.87724" lon="2.33067">
        <ele>98.7</ele>
        <time>2013-08-13T20:41:48.559Z</time>
      </trkpt>
      <trkpt lat="48.87733" lon="2.33062">
        <ele>94.3</ele>
        <time>2013-08-13T20:41:50.549Z</time>
      </trkpt>
      <trkpt lat="48.87737" lon="2.33059">
        <ele>91.6</ele>
        <time>2013-08-13T20:41:51.596Z</time>
      </trkpt>
      <trkpt lat="48.87741" lon="2.33056">
        <ele>90.8</ele>
        <time>2013-08-13T20:41:52.568Z</time>
      </trkpt>
      <trkpt lat="48.87745" lon="2.33053">
        <ele>90.7</ele>
        <time>2013-08-13T20:41:53.583Z</time>
      </trkpt>
      <trkpt lat="48.87753" lon="2.33046">
        <ele>90.8</ele>
        <time>2013-08-13T20:41:55.588Z</time>
      </trkpt>
      <trkpt lat="48.87757" lon="2.33043">
        <ele>90.7</ele>
        <time>2013-08-13T20:41:56.589Z</time>
      </trkpt>
      <trkpt lat="48.87764" lon="2.33039">
        <ele>91.5</ele>
        <time>2013-08-13T20:41:58.617Z</time>
      </trkpt>
      <trkpt lat="48.87767" lon="2.33037">
        <ele>92.5</ele>
        <time>2013-08-13T20:41:59.569Z</time>
      </trkpt>
      <trkpt lat="48.87774" lon="2.33033">
        <ele>93.4</ele>
        <time>2013-08-13T20:42:01.598Z</time>
      </trkpt>
      <trkpt lat="48.87776" lon="2.33031">
        <ele>93.8</ele>
        <time>2013-08-13T20:42:02.598Z</time>
      </trkpt>
      <trkpt lat="48.87782" lon="2.33028">
        <ele>94.4</ele>
        <time>2013-08-13T20:42:04.566Z</time>
      </trkpt>
      <trkpt lat="48.87785" lon="2.33026">
        <ele>94.3</ele>
        <time>2013-08-13T20:42:05.574Z</time>
      </trkpt>
      <trkpt lat="48.87792" lon="2.33022">
        <ele>97.7</ele>
        <time>2013-08-13T20:42:07.718Z</time>
      </trkpt>
      <trkpt lat="48.87795" lon="2.3302">
        <ele>99.2</ele>
        <time>2013-08-13T20:42:08.656Z</time>
      </trkpt>
      <trkpt lat="48.878" lon="2.33017">
        <ele>102</ele>
        <time>2013-08-13T20:42:10.580Z</time>
      </trkpt>
      <trkpt lat="48.87804" lon="2.33015">
        <ele>102.2</ele>
        <time>2013-08-13T20:42:11.769Z</time>
      </trkpt>
      <trkpt lat="48.87809" lon="2.33009">
        <ele>98</ele>
        <time>2013-08-13T20:42:13.743Z</time>
      </trkpt>
      <trkpt lat="48.87812" lon="2.33006">
        <ele>98.7</ele>
        <time>2013-08-13T20:42:14.674Z</time>
      </trkpt>
      <trkpt lat="48.87818" lon="2.32999">
        <ele>99.7</ele>
        <time>2013-08-13T20:42:16.752Z</time>
      </trkpt>
      <trkpt lat="48.8782" lon="2.32997">
        <ele>100.1</ele>
        <time>2013-08-13T20:42:17.609Z</time>
      </trkpt>
      <trkpt lat="48.87826" lon="2.32992">
        <ele>100.2</ele>
        <time>2013-08-13T20:42:19.592Z</time>
      </trkpt>
      <trkpt lat="48.87829" lon="2.3299">
        <ele>100.4</ele>
        <time>2013-08-13T20:42:20.698Z</time>
      </trkpt>
      <trkpt lat="48.87836" lon="2.32987">
        <ele>99.2</ele>
        <time>2013-08-13T20:42:22.704Z</time>
      </trkpt>
      <trkpt lat="48.87841" lon="2.32985">
        <ele>99.3</ele>
        <time>2013-08-13T20:42:23.739Z</time>
      </trkpt>
      <trkpt lat="48.87845" lon="2.32982">
        <ele>99.2</ele>
        <time>2013-08-13T20:42:24.657Z</time>
      </trkpt>
      <trkpt lat="48.87849" lon="2.3298">
        <ele>98.9</ele>
        <time>2013-08-13T20:42:25.748Z</time>
      </trkpt>
      <trkpt lat="48.87857" lon="2.32973">
        <ele>99.9</ele>
        <time>2013-08-13T20:42:27.739Z</time>
      </trkpt>
      <trkpt lat="48.8786" lon="2.32971">
        <ele>100.7</ele>
        <time>2013-08-13T20:42:28.633Z</time>
      </trkpt>
      <trkpt lat="48.87867" lon="2.32967">
        <ele>103.7</ele>
        <time>2013-08-13T20:42:30.557Z</time>
      </trkpt>
      <trkpt lat="48.8787" lon="2.32964">
        <ele>102.9</ele>
        <time>2013-08-13T20:42:31.573Z</time>
      </trkpt>
      <trkpt lat="48.87877" lon="2.32958">
        <ele>97.3</ele>
        <time>2013-08-13T20:42:33.571Z</time>
      </trkpt>
      <trkpt lat="48.8788" lon="2.32955">
        <ele>97.3</ele>
        <time>2013-08-13T20:42:34.577Z</time>
      </trkpt>
      <trkpt lat="48.87888" lon="2.32949">
        <ele>97.6</ele>
        <time>2013-08-13T20:42:36.654Z</time>
      </trkpt>
      <trkpt lat="48.87892" lon="2.32947">
        <ele>95.7</ele>
        <time>2013-08-13T20:42:37.560Z</time>
      </trkpt>
      <trkpt lat="48.879" lon="2.32944">
        <ele>95.3</ele>
        <time>2013-08-13T20:42:39.571Z</time>
      </trkpt>
      <trkpt lat="48.87903" lon="2.32942">
        <ele>101.2</ele>
        <time>2013-08-13T20:42:40.629Z</time>
      </trkpt>
      <trkpt lat="48.87909" lon="2.32934">
        <ele>103.9</ele>
        <time>2013-08-13T20:42:43.698Z</time>
      </trkpt>
      <trkpt lat="48.87911" lon="2.32932">
        <ele>103.7</ele>
        <time>2013-08-13T20:42:44.588Z</time>
      </trkpt>
      <trkpt lat="48.87917" lon="2.32929">
        <ele>103.9</ele>
        <time>2013-08-13T20:42:46.657Z</time>
      </trkpt>
      <trkpt lat="48.8792" lon="2.32927">
        <ele>104</ele>
        <time>2013-08-13T20:42:47.581Z</time>
      </trkpt>
      <trkpt lat="48.87927" lon="2.32925">
        <ele>104.8</ele>
        <time>2013-08-13T20:42:49.597Z</time>
      </trkpt>
      <trkpt lat="48.87931" lon="2.32924">
        <ele>108.3</ele>
        <time>2013-08-13T20:42:50.707Z</time>
      </trkpt>
      <trkpt lat="48.87938" lon="2.32922">
        <ele>109.8</ele>
        <time>2013-08-13T20:42:52.729Z</time>
      </trkpt>
      <trkpt lat="48.87941" lon="2.32922">
        <ele>104.2</ele>
        <time>2013-08-13T20:42:53.699Z</time>
      </trkpt>
      <trkpt lat="48.87946" lon="2.32922">
        <ele>101.9</ele>
        <time>2013-08-13T20:42:54.710Z</time>
      </trkpt>
      <trkpt lat="48.87951" lon="2.32922">
        <ele>102</ele>
        <time>2013-08-13T20:42:55.689Z</time>
      </trkpt>
      <trkpt lat="48.87959" lon="2.3292">
        <ele>105.6</ele>
        <time>2013-08-13T20:42:57.587Z</time>
      </trkpt>
      <trkpt lat="48.87963" lon="2.32918">
        <ele>104.9</ele>
        <time>2013-08-13T20:42:58.566Z</time>
      </trkpt>
      <trkpt lat="48.87971" lon="2.32911">
        <ele>113</ele>
        <time>2013-08-13T20:43:05.615Z</time>
      </trkpt>
      <trkpt lat="48.87971" lon="2.32911">
        <ele>112.6</ele>
        <time>2013-08-13T20:43:06.589Z</time>
      </trkpt>
      <trkpt lat="48.87978" lon="2.32906">
        <ele>114.8</ele>
        <time>2013-08-13T20:43:10.621Z</time>
      </trkpt>
      <trkpt lat="48.87981" lon="2.32904">
        <ele>115.9</ele>
        <time>2013-08-13T20:43:11.572Z</time>
      </trkpt>
      <trkpt lat="48.87988" lon="2.32901">
        <ele>117.4</ele>
        <time>2013-08-13T20:43:13.580Z</time>
      </trkpt>
      <trkpt lat="48.87991" lon="2.329">
        <ele>117.9</ele>
        <time>2013-08-13T20:43:14.559Z</time>
      </trkpt>
      <trkpt lat="48.87997" lon="2.32898">
        <ele>120.1</ele>
        <time>2013-08-13T20:43:16.547Z</time>
      </trkpt>
      <trkpt lat="48.88" lon="2.32896">
        <ele>121.3</ele>
        <time>2013-08-13T20:43:17.581Z</time>
      </trkpt>
      <trkpt lat="48.88005" lon="2.32892">
        <ele>119.2</ele>
        <time>2013-08-13T20:43:19.578Z</time>
      </trkpt>
      <trkpt lat="48.88008" lon="2.3289">
        <ele>119.4</ele>
        <time>2013-08-13T20:43:20.571Z</time>
      </trkpt>
      <trkpt lat="48.88017" lon="2.32888">
        <ele>115.6</ele>
        <time>2013-08-13T20:43:22.619Z</time>
      </trkpt>
      <trkpt lat="48.88021" lon="2.32886">
        <ele>116.8</ele>
        <time>2013-08-13T20:43:23.639Z</time>
      </trkpt>
      <trkpt lat="48.88028" lon="2.32883">
        <ele>116.8</ele>
        <time>2013-08-13T20:43:25.576Z</time>
      </trkpt>
      <trkpt lat="48.88032" lon="2.3288">
        <ele>115.1</ele>
        <time>2013-08-13T20:43:26.703Z</time>
      </trkpt>
      <trkpt lat="48.88037" lon="2.32872">
        <ele>113.9</ele>
        <time>2013-08-13T20:43:28.716Z</time>
      </trkpt>
      <trkpt lat="48.88039" lon="2.32868">
        <ele>114</ele>
        <time>2013-08-13T20:43:29.663Z</time>
      </trkpt>
      <trkpt lat="48.88045" lon="2.3286">
        <ele>115.5</ele>
        <time>2013-08-13T20:43:32.662Z</time>
      </trkpt>
      <trkpt lat="48.88047" lon="2.32858">
        <ele>116.5</ele>
        <time>2013-08-13T20:43:33.744Z</time>
      </trkpt>
      <trkpt lat="48.88055" lon="2.32856">
        <ele>119.3</ele>
        <time>2013-08-13T20:43:36.593Z</time>
      </trkpt>
      <trkpt lat="48.88058" lon="2.32856">
        <ele>119.6</ele>
        <time>2013-08-13T20:43:37.548Z</time>
      </trkpt>
      <trkpt lat="48.88066" lon="2.32856">
        <ele>123.2</ele>
        <time>2013-08-13T20:43:40.570Z</time>
      </trkpt>
      <trkpt lat="48.88069" lon="2.32857">
        <ele>123.2</ele>
        <time>2013-08-13T20:43:41.570Z</time>
      </trkpt>
      <trkpt lat="48.88076" lon="2.32857">
        <ele>122.4</ele>
        <time>2013-08-13T20:43:43.570Z</time>
      </trkpt>
      <trkpt lat="48.8808" lon="2.32857">
        <ele>123.4</ele>
        <time>2013-08-13T20:43:44.575Z</time>
      </trkpt>
      <trkpt lat="48.88087" lon="2.32856">
        <ele>122.9</ele>
        <time>2013-08-13T20:43:46.573Z</time>
      </trkpt>
      <trkpt lat="48.88091" lon="2.32855">
        <ele>118.8</ele>
        <time>2013-08-13T20:43:47.560Z</time>
      </trkpt>
      <trkpt lat="48.88095" lon="2.32853">
        <ele>117.8</ele>
        <time>2013-08-13T20:43:48.569Z</time>
      </trkpt>
      <trkpt lat="48.881" lon="2.32851">
        <ele>117.1</ele>
        <time>2013-08-13T20:43:49.569Z</time>
      </trkpt>
      <trkpt lat="48.88104" lon="2.32848">
        <ele>115.9</ele>
        <time>2013-08-13T20:43:50.586Z</time>
      </trkpt>
      <trkpt lat="48.88108" lon="2.32846">
        <ele>116.9</ele>
        <time>2013-08-13T20:43:51.566Z</time>
      </trkpt>
      <trkpt lat="48.88116" lon="2.3284">
        <ele>115</ele>
        <time>2013-08-13T20:43:53.600Z</time>
      </trkpt>
      <trkpt lat="48.88119" lon="2.32838">
        <ele>116</ele>
        <time>2013-08-13T20:43:54.601Z</time>
      </trkpt>
      <trkpt lat="48.88126" lon="2.32834">
        <ele>122.3</ele>
        <time>2013-08-13T20:43:59.579Z</time>
      </trkpt>
      <trkpt lat="48.88128" lon="2.32834">
        <ele>123.6</ele>
        <time>2013-08-13T20:44:00.569Z</time>
      </trkpt>
      <trkpt lat="48.88134" lon="2.32833">
        <ele>124.5</ele>
        <time>2013-08-13T20:44:02.571Z</time>
      </trkpt>
      <trkpt lat="48.88137" lon="2.32833">
        <ele>125.5</ele>
        <time>2013-08-13T20:44:03.625Z</time>
      </trkpt>
      <trkpt lat="48.88145" lon="2.32832">
        <ele>118.3</ele>
        <time>2013-08-13T20:44:05.578Z</time>
      </trkpt>
      <trkpt lat="48.8815" lon="2.32832">
        <ele>115.5</ele>
        <time>2013-08-13T20:44:06.570Z</time>
      </trkpt>
      <trkpt lat="48.88159" lon="2.32832">
        <ele>114.6</ele>
        <time>2013-08-13T20:44:08.571Z</time>
      </trkpt>
      <trkpt lat="48.88163" lon="2.32832">
        <ele>115.1</ele>
        <time>2013-08-13T20:44:09.594Z</time>
      </trkpt>
      <trkpt lat="48.8817" lon="2.3283">
        <ele>116.8</ele>
        <time>2013-08-13T20:44:11.700Z</time>
      </trkpt>
      <trkpt lat="48.88174" lon="2.32829">
        <ele>116.7</ele>
        <time>2013-08-13T20:44:12.640Z</time>
      </trkpt>
      <trkpt lat="48.8818" lon="2.32826">
        <ele>117.8</ele>
        <time>2013-08-13T20:44:14.581Z</time>
      </trkpt>
      <trkpt lat="48.88183" lon="2.32825">
        <ele>118.3</ele>
        <time>2013-08-13T20:44:15.586Z</time>
      </trkpt>
      <trkpt lat="48.88191" lon="2.32824">
        <ele>119.7</ele>
        <time>2013-08-13T20:44:18.597Z</time>
      </trkpt>
      <trkpt lat="48.88194" lon="2.32825">
        <ele>120.2</ele>
        <time>2013-08-13T20:44:19.607Z</time>
      </trkpt>
      <trkpt lat="48.882" lon="2.32826">
        <ele>120.8</ele>
        <time>2013-08-13T20:44:21.590Z</time>
      </trkpt>
      <trkpt lat="48.88203" lon="2.32825">
        <ele>121.3</ele>
        <time>2013-08-13T20:44:22.570Z</time>
      </trkpt>
      <trkpt lat="48.8821" lon="2.32822">
        <ele>122</ele>
        <time>2013-08-13T20:44:24.566Z</time>
      </trkpt>
      <trkpt lat="48.88214" lon="2.3282">
        <ele>121.6</ele>
        <time>2013-08-13T20:44:25.588Z</time>
      </trkpt>
      <trkpt lat="48.88219" lon="2.32814">
        <ele>123.9</ele>
        <time>2013-08-13T20:44:27.604Z</time>
      </trkpt>
      <trkpt lat="48.88221" lon="2.32811">
        <ele>124.4</ele>
        <time>2013-08-13T20:44:28.565Z</time>
      </trkpt>
      <trkpt lat="48.88224" lon="2.32801">
        <ele>126.8</ele>
        <time>2013-08-13T20:44:31.574Z</time>
      </trkpt>
      <trkpt lat="48.88224" lon="2.32797">
        <ele>128.8</ele>
        <time>2013-08-13T20:44:32.717Z</time>
      </trkpt>
      <trkpt lat="48.88229" lon="2.32787">
        <ele>131.3</ele>
        <time>2013-08-13T20:44:37.598Z</time>
      </trkpt>
      <trkpt lat="48.88231" lon="2.32786">
        <ele>132.5</ele>
        <time>2013-08-13T20:44:38.589Z</time>
      </trkpt>
      <trkpt lat="48.88239" lon="2.32779">
        <ele>132.1</ele>
        <time>2013-08-13T20:44:41.571Z</time>
      </trkpt>
      <trkpt lat="48.88242" lon="2.32776">
        <ele>130.7</ele>
        <time>2013-08-13T20:44:42.584Z</time>
      </trkpt>
      <trkpt lat="48.88248" lon="2.32772">
        <ele>130.4</ele>
        <time>2013-08-13T20:44:44.600Z</time>
      </trkpt>
      <trkpt lat="48.88252" lon="2.3277">
        <ele>129.9</ele>
        <time>2013-08-13T20:44:45.570Z</time>
      </trkpt>
      <trkpt lat="48.88256" lon="2.32769">
        <ele>128.2</ele>
        <time>2013-08-13T20:44:46.568Z</time>
      </trkpt>
      <trkpt lat="48.88261" lon="2.32767">
        <ele>128.5</ele>
        <time>2013-08-13T20:44:47.750Z</time>
      </trkpt>
      <trkpt lat="48.88265" lon="2.32766">
        <ele>129.1</ele>
        <time>2013-08-13T20:44:48.651Z</time>
      </trkpt>
      <trkpt lat="48.8827" lon="2.32765">
        <ele>130.2</ele>
        <time>2013-08-13T20:44:49.707Z</time>
      </trkpt>
      <trkpt lat="48.88277" lon="2.32762">
        <ele>128.7</ele>
        <time>2013-08-13T20:44:51.750Z</time>
      </trkpt>
      <trkpt lat="48.8828" lon="2.3276">
        <ele>124.9</ele>
        <time>2013-08-13T20:44:52.598Z</time>
      </trkpt>
      <trkpt lat="48.88288" lon="2.32756">
        <ele>118</ele>
        <time>2013-08-13T20:44:54.670Z</time>
      </trkpt>
      <trkpt lat="48.88292" lon="2.32753">
        <ele>117.4</ele>
        <time>2013-08-13T20:44:55.706Z</time>
      </trkpt>
      <trkpt lat="48.88299" lon="2.32749">
        <ele>116.7</ele>
        <time>2013-08-13T20:44:57.633Z</time>
      </trkpt>
      <trkpt lat="48.88302" lon="2.32747">
        <ele>116.4</ele>
        <time>2013-08-13T20:44:58.762Z</time>
      </trkpt>
      <trkpt lat="48.88311" lon="2.32743">
        <ele>111.3</ele>
        <time>2013-08-13T20:45:01.622Z</time>
      </trkpt>
      <trkpt lat="48.88313" lon="2.32742">
        <ele>110.5</ele>
        <time>2013-08-13T20:45:02.747Z</time>
      </trkpt>
      <trkpt lat="48.88321" lon="2.32746">
        <ele>113.6</ele>
        <time>2013-08-13T20:45:08.591Z</time>
      </trkpt>
      <trkpt lat="48.88322" lon="2.32747">
        <ele>114.7</ele>
        <time>2013-08-13T20:45:09.597Z</time>
      </trkpt>
      <trkpt lat="48.88326" lon="2.32752">
        <ele>117.7</ele>
        <time>2013-08-13T20:45:19.599Z</time>
      </trkpt>
      <trkpt lat="48.88326" lon="2.32752">
        <ele>117.7</ele>
        <time>2013-08-13T20:45:20.624Z</time>
      </trkpt>
      <trkpt lat="48.88328" lon="2.32752">
        <ele>119.5</ele>
        <time>2013-08-13T20:45:48.808Z</time>
      </trkpt>
      <trkpt lat="48.88329" lon="2.32752">
        <ele>120.3</ele>
        <time>2013-08-13T20:45:49.674Z</time>
      </trkpt>
      <trkpt lat="48.88337" lon="2.32751">
        <ele>125.7</ele>
        <time>2013-08-13T20:46:00.621Z</time>
      </trkpt>
      <trkpt lat="48.88338" lon="2.32751">
        <ele>126.4</ele>
        <time>2013-08-13T20:46:01.600Z</time>
      </trkpt>
      <trkpt lat="48.88339" lon="2.32751">
        <ele>126.8</ele>
        <time>2013-08-13T20:46:06.559Z</time>
      </trkpt>
      <trkpt lat="48.88339" lon="2.32751">
        <ele>126.9</ele>
        <time>2013-08-13T20:46:07.610Z</time>
      </trkpt>
      <trkpt lat="48.88339" lon="2.3275">
        <ele>126.5</ele>
        <time>2013-08-13T20:46:21.617Z</time>
      </trkpt>
      <trkpt lat="48.8834" lon="2.3275">
        <ele>127.8</ele>
        <time>2013-08-13T20:46:22.746Z</time>
      </trkpt>
      <trkpt lat="48.88348" lon="2.32749">
        <ele>121.5</ele>
        <time>2013-08-13T20:46:31.639Z</time>
      </trkpt>
      <trkpt lat="48.8835" lon="2.3275">
        <ele>119.8</ele>
        <time>2013-08-13T20:46:32.732Z</time>
      </trkpt>
      <trkpt lat="48.88359" lon="2.32752">
        <ele>117.2</ele>
        <time>2013-08-13T20:46:36.508Z</time>
      </trkpt>
      <trkpt lat="48.88361" lon="2.32751">
        <ele>118.2</ele>
        <time>2013-08-13T20:46:37.491Z</time>
      </trkpt>
      <trkpt lat="48.88368" lon="2.32744">
        <ele>119.3</ele>
        <time>2013-08-13T20:46:40.520Z</time>
      </trkpt>
      <trkpt lat="48.88369" lon="2.32741">
        <ele>119.4</ele>
        <time>2013-08-13T20:46:41.527Z</time>
      </trkpt>
      <trkpt lat="48.88374" lon="2.32731">
        <ele>119</ele>
        <time>2013-08-13T20:46:44.509Z</time>
      </trkpt>
      <trkpt lat="48.88375" lon="2.32727">
        <ele>118.7</ele>
        <time>2013-08-13T20:46:45.529Z</time>
      </trkpt>
      <trkpt lat="48.88383" lon="2.32726">
        <ele>118.4</ele>
        <time>2013-08-13T20:46:49.562Z</time>
      </trkpt>
      <trkpt lat="48.88386" lon="2.32725">
        <ele>117.9</ele>
        <time>2013-08-13T20:46:50.688Z</time>
      </trkpt>
      <trkpt lat="48.88395" lon="2.32722">
        <ele>119.3</ele>
        <time>2013-08-13T20:46:53.537Z</time>
      </trkpt>
      <trkpt lat="48.88398" lon="2.3272">
        <ele>118.6</ele>
        <time>2013-08-13T20:46:54.649Z</time>
      </trkpt>
      <trkpt lat="48.88404" lon="2.32716">
        <ele>117.9</ele>
        <time>2013-08-13T20:46:56.578Z</time>
      </trkpt>
      <trkpt lat="48.88407" lon="2.32714">
        <ele>118.8</ele>
        <time>2013-08-13T20:46:57.671Z</time>
      </trkpt>
      <trkpt lat="48.88413" lon="2.32709">
        <ele>116.5</ele>
        <time>2013-08-13T20:46:59.685Z</time>
      </trkpt>
      <trkpt lat="48.88416" lon="2.32707">
        <ele>116.2</ele>
        <time>2013-08-13T20:47:00.529Z</time>
      </trkpt>
      <trkpt lat="48.88422" lon="2.32701">
        <ele>116.6</ele>
        <time>2013-08-13T20:47:02.585Z</time>
      </trkpt>
      <trkpt lat="48.88425" lon="2.32698">
        <ele>117</ele>
        <time>2013-08-13T20:47:03.658Z</time>
      </trkpt>
      <trkpt lat="48.88433" lon="2.32692">
        <ele>116.5</ele>
        <time>2013-08-13T20:47:06.481Z</time>
      </trkpt>
      <trkpt lat="48.88435" lon="2.32691">
        <ele>115.2</ele>
        <time>2013-08-13T20:47:07.477Z</time>
      </trkpt>
      <trkpt lat="48.88443" lon="2.32688">
        <ele>116.1</ele>
        <time>2013-08-13T20:47:10.536Z</time>
      </trkpt>
      <trkpt lat="48.88445" lon="2.32688">
        <ele>114.9</ele>
        <time>2013-08-13T20:47:11.516Z</time>
      </trkpt>
      <trkpt lat="48.88451" lon="2.32686">
        <ele>113.5</ele>
        <time>2013-08-13T20:47:14.547Z</time>
      </trkpt>
      <trkpt lat="48.88454" lon="2.32685">
        <ele>113</ele>
        <time>2013-08-13T20:47:15.623Z</time>
      </trkpt>
      <trkpt lat="48.8846" lon="2.32682">
        <ele>112.1</ele>
        <time>2013-08-13T20:47:17.661Z</time>
      </trkpt>
      <trkpt lat="48.88463" lon="2.3268">
        <ele>112.3</ele>
        <time>2013-08-13T20:47:18.523Z</time>
      </trkpt>
      <trkpt lat="48.88471" lon="2.32676">
        <ele>111.8</ele>
        <time>2013-08-13T20:47:20.482Z</time>
      </trkpt>
      <trkpt lat="48.88474" lon="2.32674">
        <ele>113.4</ele>
        <time>2013-08-13T20:47:21.530Z</time>
      </trkpt>
      <trkpt lat="48.8848" lon="2.3267">
        <ele>113.2</ele>
        <time>2013-08-13T20:47:23.508Z</time>
      </trkpt>
      <trkpt lat="48.88483" lon="2.32668">
        <ele>112.5</ele>
        <time>2013-08-13T20:47:24.508Z</time>
      </trkpt>
      <trkpt lat="48.8849" lon="2.32663">
        <ele>111.5</ele>
        <time>2013-08-13T20:47:27.479Z</time>
      </trkpt>
      <trkpt lat="48.88493" lon="2.3266">
        <ele>112.6</ele>
        <time>2013-08-13T20:47:28.596Z</time>
      </trkpt>
      <trkpt lat="48.88501" lon="2.32656">
        <ele>114.3</ele>
        <time>2013-08-13T20:47:31.675Z</time>
      </trkpt>
      <trkpt lat="48.88504" lon="2.32656">
        <ele>114.7</ele>
        <time>2013-08-13T20:47:32.519Z</time>
      </trkpt>
      <trkpt lat="48.88512" lon="2.32652">
        <ele>116.4</ele>
        <time>2013-08-13T20:47:35.631Z</time>
      </trkpt>
      <trkpt lat="48.88514" lon="2.32651">
        <ele>115.1</ele>
        <time>2013-08-13T20:47:36.730Z</time>
      </trkpt>
      <trkpt lat="48.88521" lon="2.32647">
        <ele>113.6</ele>
        <time>2013-08-13T20:47:39.496Z</time>
      </trkpt>
      <trkpt lat="48.88523" lon="2.32645">
        <ele>113.4</ele>
        <time>2013-08-13T20:47:40.676Z</time>
      </trkpt>
      <trkpt lat="48.8853" lon="2.32641">
        <ele>114.6</ele>
        <time>2013-08-13T20:47:43.660Z</time>
      </trkpt>
      <trkpt lat="48.88532" lon="2.32639">
        <ele>114.2</ele>
        <time>2013-08-13T20:47:44.590Z</time>
      </trkpt>
      <trkpt lat="48.88538" lon="2.32636">
        <ele>114.3</ele>
        <time>2013-08-13T20:47:46.499Z</time>
      </trkpt>
      <trkpt lat="48.88542" lon="2.32634">
        <ele>115.3</ele>
        <time>2013-08-13T20:47:47.691Z</time>
      </trkpt>
      <trkpt lat="48.88549" lon="2.32632">
        <ele>112.9</ele>
        <time>2013-08-13T20:47:49.658Z</time>
      </trkpt>
      <trkpt lat="48.88553" lon="2.32632">
        <ele>113.7</ele>
        <time>2013-08-13T20:47:50.579Z</time>
      </trkpt>
      <trkpt lat="48.8856" lon="2.3263">
        <ele>113.3</ele>
        <time>2013-08-13T20:47:52.703Z</time>
      </trkpt>
      <trkpt lat="48.88564" lon="2.32629">
        <ele>112.2</ele>
        <time>2013-08-13T20:47:53.587Z</time>
      </trkpt>
      <trkpt lat="48.8857" lon="2.32625">
        <ele>112.7</ele>
        <time>2013-08-13T20:47:55.489Z</time>
      </trkpt>
      <trkpt lat="48.88574" lon="2.32622">
        <ele>113.3</ele>
        <time>2013-08-13T20:47:56.669Z</time>
      </trkpt>
      <trkpt lat="48.8858" lon="2.32617">
        <ele>114.9</ele>
        <time>2013-08-13T20:47:58.644Z</time>
      </trkpt>
      <trkpt lat="48.88582" lon="2.32615">
        <ele>116.6</ele>
        <time>2013-08-13T20:47:59.687Z</time>
      </trkpt>
      <trkpt lat="48.8859" lon="2.3261">
        <ele>117.9</ele>
        <time>2013-08-13T20:48:03.539Z</time>
      </trkpt>
      <trkpt lat="48.88593" lon="2.32609">
        <ele>117.9</ele>
        <time>2013-08-13T20:48:04.503Z</time>
      </trkpt>
      <trkpt lat="48.88601" lon="2.32606">
        <ele>118.4</ele>
        <time>2013-08-13T20:48:07.523Z</time>
      </trkpt>
      <trkpt lat="48.88604" lon="2.32605">
        <ele>118.1</ele>
        <time>2013-08-13T20:48:08.520Z</time>
      </trkpt>
      <trkpt lat="48.88609" lon="2.32604">
        <ele>117.5</ele>
        <time>2013-08-13T20:48:09.515Z</time>
      </trkpt>
      <trkpt lat="48.88614" lon="2.32602">
        <ele>117.3</ele>
        <time>2013-08-13T20:48:10.517Z</time>
      </trkpt>
      <trkpt lat="48.8862" lon="2.32601">
        <ele>117.3</ele>
        <time>2013-08-13T20:48:11.521Z</time>
      </trkpt>
      <trkpt lat="48.88625" lon="2.326">
        <ele>117.4</ele>
        <time>2013-08-13T20:48:12.503Z</time>
      </trkpt>
      <trkpt lat="48.88631" lon="2.32599">
        <ele>117.4</ele>
        <time>2013-08-13T20:48:13.499Z</time>
      </trkpt>
      <trkpt lat="48.88636" lon="2.32598">
        <ele>117.2</ele>
        <time>2013-08-13T20:48:14.526Z</time>
      </trkpt>
      <trkpt lat="48.8864" lon="2.32596">
        <ele>119.8</ele>
        <time>2013-08-13T20:48:15.538Z</time>
      </trkpt>
      <trkpt lat="48.88645" lon="2.32594">
        <ele>120.4</ele>
        <time>2013-08-13T20:48:16.728Z</time>
      </trkpt>
      <trkpt lat="48.88649" lon="2.32591">
        <ele>119.2</ele>
        <time>2013-08-13T20:48:17.539Z</time>
      </trkpt>
      <trkpt lat="48.88653" lon="2.32588">
        <ele>121.2</ele>
        <time>2013-08-13T20:48:18.501Z</time>
      </trkpt>
      <trkpt lat="48.88658" lon="2.32584">
        <ele>121.4</ele>
        <time>2013-08-13T20:48:19.520Z</time>
      </trkpt>
      <trkpt lat="48.88662" lon="2.32581">
        <ele>121.8</ele>
        <time>2013-08-13T20:48:20.652Z</time>
      </trkpt>
      <trkpt lat="48.8867" lon="2.32578">
        <ele>124</ele>
        <time>2013-08-13T20:48:22.625Z</time>
      </trkpt>
      <trkpt lat="48.88673" lon="2.32576">
        <ele>122.7</ele>
        <time>2013-08-13T20:48:23.650Z</time>
      </trkpt>
      <trkpt lat="48.88681" lon="2.32572">
        <ele>121.1</ele>
        <time>2013-08-13T20:48:25.636Z</time>
      </trkpt>
      <trkpt lat="48.88684" lon="2.32569">
        <ele>121.6</ele>
        <time>2013-08-13T20:48:26.521Z</time>
      </trkpt>
      <trkpt lat="48.88692" lon="2.32561">
        <ele>122.8</ele>
        <time>2013-08-13T20:48:28.666Z</time>
      </trkpt>
      <trkpt lat="48.88695" lon="2.32559">
        <ele>123.1</ele>
        <time>2013-08-13T20:48:29.607Z</time>
      </trkpt>
      <trkpt lat="48.88702" lon="2.32555">
        <ele>125.5</ele>
        <time>2013-08-13T20:48:31.558Z</time>
      </trkpt>
      <trkpt lat="48.88706" lon="2.32553">
        <ele>126</ele>
        <time>2013-08-13T20:48:32.669Z</time>
      </trkpt>
      <trkpt lat="48.88712" lon="2.3255">
        <ele>122.1</ele>
        <time>2013-08-13T20:48:34.660Z</time>
      </trkpt>
      <trkpt lat="48.88716" lon="2.32549">
        <ele>118.3</ele>
        <time>2013-08-13T20:48:35.543Z</time>
      </trkpt>
      <trkpt lat="48.88726" lon="2.32547">
        <ele>113.7</ele>
        <time>2013-08-13T20:48:36.705Z</time>
      </trkpt>
      <trkpt lat="48.88733" lon="2.32546">
        <ele>112.9</ele>
        <time>2013-08-13T20:48:37.628Z</time>
      </trkpt>
      <trkpt lat="48.8874" lon="2.32544">
        <ele>113.2</ele>
        <time>2013-08-13T20:48:38.577Z</time>
      </trkpt>
      <trkpt lat="48.88749" lon="2.32541">
        <ele>114.6</ele>
        <time>2013-08-13T20:48:40.529Z</time>
      </trkpt>
      <trkpt lat="48.88751" lon="2.32541">
        <ele>115.5</ele>
        <time>2013-08-13T20:48:41.506Z</time>
      </trkpt>
      <trkpt lat="48.88756" lon="2.32531">
        <ele>147.1</ele>
        <time>2013-08-13T20:48:53.510Z</time>
      </trkpt>
      <trkpt lat="48.88761" lon="2.32534">
        <ele>147.4</ele>
        <time>2013-08-13T20:48:54.599Z</time>
      </trkpt>
      <trkpt lat="48.88767" lon="2.32537">
        <ele>147.6</ele>
        <time>2013-08-13T20:48:55.661Z</time>
      </trkpt>
      <trkpt lat="48.88772" lon="2.32541">
        <ele>148</ele>
        <time>2013-08-13T20:48:56.532Z</time>
      </trkpt>
      <trkpt lat="48.88779" lon="2.32544">
        <ele>148.5</ele>
        <time>2013-08-13T20:48:57.624Z</time>
      </trkpt>
      <trkpt lat="48.88784" lon="2.32546">
        <ele>147.9</ele>
        <time>2013-08-13T20:48:58.511Z</time>
      </trkpt>
      <trkpt lat="48.8879" lon="2.32548">
        <ele>148.7</ele>
        <time>2013-08-13T20:48:59.649Z</time>
      </trkpt>
      <trkpt lat="48.88795" lon="2.3255">
        <ele>147.7</ele>
        <time>2013-08-13T20:49:00.496Z</time>
      </trkpt>
      <trkpt lat="48.88801" lon="2.32551">
        <ele>141.1</ele>
        <time>2013-08-13T20:49:01.507Z</time>
      </trkpt>
      <trkpt lat="48.88807" lon="2.32552">
        <ele>138.3</ele>
        <time>2013-08-13T20:49:02.487Z</time>
      </trkpt>
      <trkpt lat="48.88812" lon="2.32553">
        <ele>138.6</ele>
        <time>2013-08-13T20:49:03.511Z</time>
      </trkpt>
      <trkpt lat="48.88818" lon="2.32553">
        <ele>138.4</ele>
        <time>2013-08-13T20:49:04.528Z</time>
      </trkpt>
      <trkpt lat="48.88824" lon="2.32553">
        <ele>137.8</ele>
        <time>2013-08-13T20:49:05.539Z</time>
      </trkpt>
      <trkpt lat="48.88834" lon="2.32552">
        <ele>137.9</ele>
        <time>2013-08-13T20:49:06.531Z</time>
      </trkpt>
      <trkpt lat="48.88844" lon="2.32554">
        <ele>139.1</ele>
        <time>2013-08-13T20:49:07.513Z</time>
      </trkpt>
      <trkpt lat="48.88854" lon="2.32556">
        <ele>138.3</ele>
        <time>2013-08-13T20:49:08.538Z</time>
      </trkpt>
      <trkpt lat="48.88862" lon="2.32557">
        <ele>136.9</ele>
        <time>2013-08-13T20:49:09.515Z</time>
      </trkpt>
      <trkpt lat="48.8887" lon="2.32558">
        <ele>136.3</ele>
        <time>2013-08-13T20:49:10.528Z</time>
      </trkpt>
      <trkpt lat="48.88877" lon="2.3256">
        <ele>136.1</ele>
        <time>2013-08-13T20:49:11.530Z</time>
      </trkpt>
      <trkpt lat="48.88884" lon="2.32563">
        <ele>135.8</ele>
        <time>2013-08-13T20:49:12.487Z</time>
      </trkpt>
      <trkpt lat="48.8889" lon="2.32566">
        <ele>135.5</ele>
        <time>2013-08-13T20:49:13.525Z</time>
      </trkpt>
      <trkpt lat="48.88896" lon="2.3257">
        <ele>134.8</ele>
        <time>2013-08-13T20:49:14.518Z</time>
      </trkpt>
      <trkpt lat="48.88902" lon="2.32574">
        <ele>134.2</ele>
        <time>2013-08-13T20:49:15.662Z</time>
      </trkpt>
      <trkpt lat="48.88908" lon="2.32579">
        <ele>134.6</ele>
        <time>2013-08-13T20:49:16.627Z</time>
      </trkpt>
      <trkpt lat="48.88915" lon="2.32585">
        <ele>134.2</ele>
        <time>2013-08-13T20:49:17.649Z</time>
      </trkpt>
      <trkpt lat="48.88923" lon="2.32589">
        <ele>134</ele>
        <time>2013-08-13T20:49:18.610Z</time>
      </trkpt>
      <trkpt lat="48.8893" lon="2.32594">
        <ele>133.6</ele>
        <time>2013-08-13T20:49:19.563Z</time>
      </trkpt>
      <trkpt lat="48.88934" lon="2.32595">
        <ele>133.6</ele>
        <time>2013-08-13T20:49:20.658Z</time>
      </trkpt>
      <trkpt lat="48.88938" lon="2.32595">
        <ele>131.1</ele>
        <time>2013-08-13T20:49:21.532Z</time>
      </trkpt>
      <trkpt lat="48.8895" lon="2.32592">
        <ele>127.5</ele>
        <time>2013-08-13T20:49:22.656Z</time>
      </trkpt>
      <trkpt lat="48.88958" lon="2.32592">
        <ele>125.5</ele>
        <time>2013-08-13T20:49:23.527Z</time>
      </trkpt>
      <trkpt lat="48.88968" lon="2.32595">
        <ele>123.4</ele>
        <time>2013-08-13T20:49:24.674Z</time>
      </trkpt>
      <trkpt lat="48.88977" lon="2.32596">
        <ele>122.8</ele>
        <time>2013-08-13T20:49:25.661Z</time>
      </trkpt>
      <trkpt lat="48.88984" lon="2.32598">
        <ele>123.1</ele>
        <time>2013-08-13T20:49:26.610Z</time>
      </trkpt>
      <trkpt lat="48.88991" lon="2.32602">
        <ele>123.4</ele>
        <time>2013-08-13T20:49:27.623Z</time>
      </trkpt>
      <trkpt lat="48.88996" lon="2.32606">
        <ele>123.4</ele>
        <time>2013-08-13T20:49:28.548Z</time>
      </trkpt>
      <trkpt lat="48.89" lon="2.32611">
        <ele>123.6</ele>
        <time>2013-08-13T20:49:29.504Z</time>
      </trkpt>
      <trkpt lat="48.89004" lon="2.32617">
        <ele>123.1</ele>
        <time>2013-08-13T20:49:30.488Z</time>
      </trkpt>
      <trkpt lat="48.89009" lon="2.32621">
        <ele>123.3</ele>
        <time>2013-08-13T20:49:31.532Z</time>
      </trkpt>
      <trkpt lat="48.89014" lon="2.32624">
        <ele>123.5</ele>
        <time>2013-08-13T20:49:32.518Z</time>
      </trkpt>
      <trkpt lat="48.89019" lon="2.32627">
        <ele>123.2</ele>
        <time>2013-08-13T20:49:33.548Z</time>
      </trkpt>
      <trkpt lat="48.89024" lon="2.3263">
        <ele>123</ele>
        <time>2013-08-13T20:49:34.517Z</time>
      </trkpt>
      <trkpt lat="48.89032" lon="2.3263">
        <ele>120</ele>
        <time>2013-08-13T20:49:35.520Z</time>
      </trkpt>
      <trkpt lat="48.89041" lon="2.32632">
        <ele>119</ele>
        <time>2013-08-13T20:49:36.542Z</time>
      </trkpt>
      <trkpt lat="48.8905" lon="2.32634">
        <ele>118.9</ele>
        <time>2013-08-13T20:49:37.546Z</time>
      </trkpt>
      <trkpt lat="48.89057" lon="2.32635">
        <ele>119.1</ele>
        <time>2013-08-13T20:49:38.636Z</time>
      </trkpt>
      <trkpt lat="48.89064" lon="2.32639">
        <ele>119.2</ele>
        <time>2013-08-13T20:49:39.550Z</time>
      </trkpt>
      <trkpt lat="48.89071" lon="2.32644">
        <ele>118.1</ele>
        <time>2013-08-13T20:49:40.670Z</time>
      </trkpt>
      <trkpt lat="48.89077" lon="2.32649">
        <ele>118.6</ele>
        <time>2013-08-13T20:49:41.619Z</time>
      </trkpt>
      <trkpt lat="48.89083" lon="2.32653">
        <ele>118.1</ele>
        <time>2013-08-13T20:49:42.604Z</time>
      </trkpt>
      <trkpt lat="48.89088" lon="2.32656">
        <ele>118.4</ele>
        <time>2013-08-13T20:49:43.630Z</time>
      </trkpt>
      <trkpt lat="48.89094" lon="2.32662">
        <ele>118.1</ele>
        <time>2013-08-13T20:49:44.540Z</time>
      </trkpt>
      <trkpt lat="48.891" lon="2.32667">
        <ele>118.4</ele>
        <time>2013-08-13T20:49:45.705Z</time>
      </trkpt>
      <trkpt lat="48.89105" lon="2.32669">
        <ele>118.8</ele>
        <time>2013-08-13T20:49:46.546Z</time>
      </trkpt>
      <trkpt lat="48.8911" lon="2.3267">
        <ele>118.8</ele>
        <time>2013-08-13T20:49:47.647Z</time>
      </trkpt>
      <trkpt lat="48.89119" lon="2.32673">
        <ele>119.9</ele>
        <time>2013-08-13T20:49:49.611Z</time>
      </trkpt>
      <trkpt lat="48.89125" lon="2.32676">
        <ele>119.4</ele>
        <time>2013-08-13T20:49:50.679Z</time>
      </trkpt>
      <trkpt lat="48.8913" lon="2.3268">
        <ele>120.3</ele>
        <time>2013-08-13T20:49:51.557Z</time>
      </trkpt>
      <trkpt lat="48.89135" lon="2.32683">
        <ele>120</ele>
        <time>2013-08-13T20:49:52.647Z</time>
      </trkpt>
      <trkpt lat="48.89144" lon="2.32685">
        <ele>119.5</ele>
        <time>2013-08-13T20:49:54.524Z</time>
      </trkpt>
      <trkpt lat="48.89153" lon="2.32684">
        <ele>115</ele>
        <time>2013-08-13T20:49:55.526Z</time>
      </trkpt>
      <trkpt lat="48.89162" lon="2.32684">
        <ele>114.6</ele>
        <time>2013-08-13T20:49:56.689Z</time>
      </trkpt>
      <trkpt lat="48.89168" lon="2.32684">
        <ele>113.9</ele>
        <time>2013-08-13T20:49:57.624Z</time>
      </trkpt>
      <trkpt lat="48.89173" lon="2.32683">
        <ele>114.1</ele>
        <time>2013-08-13T20:49:58.581Z</time>
      </trkpt>
      <trkpt lat="48.89178" lon="2.32682">
        <ele>113.1</ele>
        <time>2013-08-13T20:49:59.679Z</time>
      </trkpt>
      <trkpt lat="48.89187" lon="2.32684">
        <ele>110.8</ele>
        <time>2013-08-13T20:50:01.593Z</time>
      </trkpt>
      <trkpt lat="48.89189" lon="2.32684">
        <ele>107.4</ele>
        <time>2013-08-13T20:50:02.540Z</time>
      </trkpt>
      <trkpt lat="48.89197" lon="2.32684">
        <ele>105.5</ele>
        <time>2013-08-13T20:50:07.525Z</time>
      </trkpt>
      <trkpt lat="48.89198" lon="2.32684">
        <ele>106.2</ele>
        <time>2013-08-13T20:50:08.536Z</time>
      </trkpt>
      <trkpt lat="48.89196" lon="2.32697">
        <ele>109.5</ele>
        <time>2013-08-13T20:50:23.505Z</time>
      </trkpt>
      <trkpt lat="48.89196" lon="2.32699">
        <ele>110.2</ele>
        <time>2013-08-13T20:50:24.557Z</time>
      </trkpt>
      <trkpt lat="48.89197" lon="2.32701">
        <ele>110.2</ele>
        <time>2013-08-13T20:50:29.495Z</time>
      </trkpt>
    </trkseg>
  </trk>
</gpx>